<?xml version='1.0' encoding='UTF-8'?>
<gpx version="1.1" creator="https://www.komoot.de" xmlns="http://www.topografix.com/GPX/1/1" xmlns:xsi="http://www.w3.org/2001/XMLSchema-instance" xsi:schemaLocation="http://www.topografix.com/GPX/1/1 http://www.topografix.com/GPX/1/1/gpx.xsd">
  <metadata>
    <name>109_1000HundertThalh</name>
    <author>
      <link href="https://www.komoot.de">
        <text>komoot</text>
        <type>text/html</type>
      </link>
    </author>
  </metadata>
  <trk>
    <name>109_1000HundertThalh</name>
    <trkseg>
      <trkpt lat="47.541175" lon="7.870986">
        <ele>340.569553</ele>
        <time>2021-11-22T12:40:32.357Z</time>
      </trkpt>
      <trkpt lat="47.541410" lon="7.870791">
        <ele>340.569553</ele>
        <time>2021-11-22T12:40:36.788Z</time>
      </trkpt>
      <trkpt lat="47.541576" lon="7.870664">
        <ele>340.569553</ele>
        <time>2021-11-22T12:40:40.913Z</time>
      </trkpt>
      <trkpt lat="47.541796" lon="7.871042">
        <ele>340.569553</ele>
        <time>2021-11-22T12:40:48.018Z</time>
      </trkpt>
      <trkpt lat="47.541953" lon="7.871286">
        <ele>340.983941</ele>
        <time>2021-11-22T12:40:52.856Z</time>
      </trkpt>
      <trkpt lat="47.542039" lon="7.871556">
        <ele>341.672241</ele>
        <time>2021-11-22T12:40:57.212Z</time>
      </trkpt>
      <trkpt lat="47.542067" lon="7.871664">
        <ele>341.938967</ele>
        <time>2021-11-22T12:40:58.888Z</time>
      </trkpt>
      <trkpt lat="47.542091" lon="7.871721">
        <ele>342.093848</ele>
        <time>2021-11-22T12:40:59.500Z</time>
      </trkpt>
      <trkpt lat="47.542218" lon="7.871866">
        <ele>342.641469</ele>
        <time>2021-11-22T12:41:04.594Z</time>
      </trkpt>
      <trkpt lat="47.542394" lon="7.872341">
        <ele>343.890698</ele>
        <time>2021-11-22T12:41:14.659Z</time>
      </trkpt>
      <trkpt lat="47.542436" lon="7.872494">
        <ele>344.271487</ele>
        <time>2021-11-22T12:41:18.052Z</time>
      </trkpt>
      <trkpt lat="47.542537" lon="7.872430">
        <ele>344.646666</ele>
        <time>2021-11-22T12:41:20.164Z</time>
      </trkpt>
      <trkpt lat="47.542620" lon="7.872385">
        <ele>344.948525</ele>
        <time>2021-11-22T12:41:24.231Z</time>
      </trkpt>
      <trkpt lat="47.542714" lon="7.872334">
        <ele>345.290418</ele>
        <time>2021-11-22T12:41:27.121Z</time>
      </trkpt>
      <trkpt lat="47.542814" lon="7.872280">
        <ele>345.653932</ele>
        <time>2021-11-22T12:41:30.135Z</time>
      </trkpt>
      <trkpt lat="47.542919" lon="7.872226">
        <ele>346.033534</ele>
        <time>2021-11-22T12:41:33.972Z</time>
      </trkpt>
      <trkpt lat="47.543013" lon="7.872182">
        <ele>346.370218</ele>
        <time>2021-11-22T12:41:37.479Z</time>
      </trkpt>
      <trkpt lat="47.543233" lon="7.872082">
        <ele>347.514891</ele>
        <time>2021-11-22T12:41:44.718Z</time>
      </trkpt>
      <trkpt lat="47.543251" lon="7.872152">
        <ele>347.827212</ele>
        <time>2021-11-22T12:41:48.090Z</time>
      </trkpt>
      <trkpt lat="47.543332" lon="7.872237">
        <ele>348.440327</ele>
        <time>2021-11-22T12:41:51.397Z</time>
      </trkpt>
      <trkpt lat="47.544390" lon="7.872423">
        <ele>355.021083</ele>
        <time>2021-11-22T12:42:33.117Z</time>
      </trkpt>
      <trkpt lat="47.544883" lon="7.872555">
        <ele>358.141901</ele>
        <time>2021-11-22T12:42:55.526Z</time>
      </trkpt>
      <trkpt lat="47.545131" lon="7.872664">
        <ele>359.883416</ele>
        <time>2021-11-22T12:43:06.530Z</time>
      </trkpt>
      <trkpt lat="47.545375" lon="7.872836">
        <ele>361.702552</ele>
        <time>2021-11-22T12:43:17.471Z</time>
      </trkpt>
      <trkpt lat="47.545478" lon="7.872968">
        <ele>362.619417</ele>
        <time>2021-11-22T12:43:24.278Z</time>
      </trkpt>
      <trkpt lat="47.545515" lon="7.873015">
        <ele>362.947538</ele>
        <time>2021-11-22T12:43:26.235Z</time>
      </trkpt>
      <trkpt lat="47.545746" lon="7.873302">
        <ele>364.977170</ele>
        <time>2021-11-22T12:43:39.435Z</time>
      </trkpt>
      <trkpt lat="47.545934" lon="7.873549">
        <ele>366.668834</ele>
        <time>2021-11-22T12:43:49.535Z</time>
      </trkpt>
      <trkpt lat="47.546077" lon="7.873763">
        <ele>368.037223</ele>
        <time>2021-11-22T12:43:58.731Z</time>
      </trkpt>
      <trkpt lat="47.546135" lon="7.873859">
        <ele>368.622693</ele>
        <time>2021-11-22T12:44:01.970Z</time>
      </trkpt>
      <trkpt lat="47.546309" lon="7.874154">
        <ele>370.229872</ele>
        <time>2021-11-22T12:44:13.085Z</time>
      </trkpt>
      <trkpt lat="47.547126" lon="7.875801">
        <ele>376.112561</ele>
        <time>2021-11-22T12:44:58.846Z</time>
      </trkpt>
      <trkpt lat="47.547574" lon="7.876801">
        <ele>377.511005</ele>
        <time>2021-11-22T12:45:17.842Z</time>
      </trkpt>
      <trkpt lat="47.547992" lon="7.877974">
        <ele>377.337759</ele>
        <time>2021-11-22T12:45:30.642Z</time>
      </trkpt>
      <trkpt lat="47.548234" lon="7.878638">
        <ele>376.986168</ele>
        <time>2021-11-22T12:45:35.954Z</time>
      </trkpt>
      <trkpt lat="47.548422" lon="7.878959">
        <ele>375.851155</ele>
        <time>2021-11-22T12:45:38.797Z</time>
      </trkpt>
      <trkpt lat="47.548718" lon="7.879258">
        <ele>374.433653</ele>
        <time>2021-11-22T12:45:42.336Z</time>
      </trkpt>
      <trkpt lat="47.549140" lon="7.879391">
        <ele>372.726561</ele>
        <time>2021-11-22T12:45:46.522Z</time>
      </trkpt>
      <trkpt lat="47.549318" lon="7.879398">
        <ele>372.022019</ele>
        <time>2021-11-22T12:45:48.149Z</time>
      </trkpt>
      <trkpt lat="47.549327" lon="7.879547">
        <ele>371.622510</ele>
        <time>2021-11-22T12:45:49.136Z</time>
      </trkpt>
      <trkpt lat="47.549726" lon="7.880786">
        <ele>368.077087</ele>
        <time>2021-11-22T12:45:58.070Z</time>
      </trkpt>
      <trkpt lat="47.549927" lon="7.881490">
        <ele>366.148839</ele>
        <time>2021-11-22T12:46:03.102Z</time>
      </trkpt>
      <trkpt lat="47.550234" lon="7.883221">
        <ele>361.468146</ele>
        <time>2021-11-22T12:46:15.503Z</time>
      </trkpt>
      <trkpt lat="47.550332" lon="7.884727">
        <ele>357.295677</ele>
        <time>2021-11-22T12:46:25.347Z</time>
      </trkpt>
      <trkpt lat="47.550391" lon="7.885109">
        <ele>356.214977</ele>
        <time>2021-11-22T12:46:27.880Z</time>
      </trkpt>
      <trkpt lat="47.550548" lon="7.885799">
        <ele>353.554613</ele>
        <time>2021-11-22T12:46:32.484Z</time>
      </trkpt>
      <trkpt lat="47.550677" lon="7.886476">
        <ele>350.933256</ele>
        <time>2021-11-22T12:46:36.914Z</time>
      </trkpt>
      <trkpt lat="47.550758" lon="7.887295">
        <ele>347.848778</ele>
        <time>2021-11-22T12:46:42.057Z</time>
      </trkpt>
      <trkpt lat="47.550789" lon="7.887816">
        <ele>345.868284</ele>
        <time>2021-11-22T12:46:45.288Z</time>
      </trkpt>
      <trkpt lat="47.550831" lon="7.888611">
        <ele>342.496048</ele>
        <time>2021-11-22T12:46:50.244Z</time>
      </trkpt>
      <trkpt lat="47.550833" lon="7.889069">
        <ele>340.559186</ele>
        <time>2021-11-22T12:46:53.054Z</time>
      </trkpt>
      <trkpt lat="47.550915" lon="7.890600">
        <ele>334.271154</ele>
        <time>2021-11-22T12:47:02.447Z</time>
      </trkpt>
      <trkpt lat="47.550904" lon="7.891725">
        <ele>330.743118</ele>
        <time>2021-11-22T12:47:09.451Z</time>
      </trkpt>
      <trkpt lat="47.550892" lon="7.893176">
        <ele>326.412399</ele>
        <time>2021-11-22T12:47:19.063Z</time>
      </trkpt>
      <trkpt lat="47.550908" lon="7.894308">
        <ele>325.337429</ele>
        <time>2021-11-22T12:47:28.268Z</time>
      </trkpt>
      <trkpt lat="47.550878" lon="7.895158">
        <ele>324.529327</ele>
        <time>2021-11-22T12:47:35.453Z</time>
      </trkpt>
      <trkpt lat="47.550838" lon="7.895509">
        <ele>324.191366</ele>
        <time>2021-11-22T12:47:38.617Z</time>
      </trkpt>
      <trkpt lat="47.550660" lon="7.896255">
        <ele>323.077590</ele>
        <time>2021-11-22T12:47:45.106Z</time>
      </trkpt>
      <trkpt lat="47.550639" lon="7.896345">
        <ele>322.926196</ele>
        <time>2021-11-22T12:47:46.293Z</time>
      </trkpt>
      <trkpt lat="47.550648" lon="7.896481">
        <ele>322.708941</ele>
        <time>2021-11-22T12:47:47.248Z</time>
      </trkpt>
      <trkpt lat="47.550819" lon="7.898109">
        <ele>320.089532</ele>
        <time>2021-11-22T12:47:58.996Z</time>
      </trkpt>
      <trkpt lat="47.550801" lon="7.900244">
        <ele>314.284605</ele>
        <time>2021-11-22T12:48:12.833Z</time>
      </trkpt>
      <trkpt lat="47.550769" lon="7.901362">
        <ele>311.351170</ele>
        <time>2021-11-22T12:48:20.105Z</time>
      </trkpt>
      <trkpt lat="47.550757" lon="7.901591">
        <ele>310.854374</ele>
        <time>2021-11-22T12:48:22.241Z</time>
      </trkpt>
      <trkpt lat="47.550688" lon="7.902451">
        <ele>308.981175</ele>
        <time>2021-11-22T12:48:30.675Z</time>
      </trkpt>
      <trkpt lat="47.550498" lon="7.903445">
        <ele>306.746681</ele>
        <time>2021-11-22T12:48:41.092Z</time>
      </trkpt>
      <trkpt lat="47.550302" lon="7.904164">
        <ele>305.972293</ele>
        <time>2021-11-22T12:48:49.439Z</time>
      </trkpt>
      <trkpt lat="47.550025" lon="7.904774">
        <ele>305.471421</ele>
        <time>2021-11-22T12:48:57.923Z</time>
      </trkpt>
      <trkpt lat="47.549868" lon="7.905010">
        <ele>305.245671</ele>
        <time>2021-11-22T12:49:01.929Z</time>
      </trkpt>
      <trkpt lat="47.549867" lon="7.905155">
        <ele>305.146882</ele>
        <time>2021-11-22T12:49:03.659Z</time>
      </trkpt>
      <trkpt lat="47.549793" lon="7.905202">
        <ele>305.065615</ele>
        <time>2021-11-22T12:49:05.189Z</time>
      </trkpt>
      <trkpt lat="47.549674" lon="7.905336">
        <ele>304.914746</ele>
        <time>2021-11-22T12:49:07.982Z</time>
      </trkpt>
      <trkpt lat="47.549519" lon="7.906378">
        <ele>304.872246</ele>
        <time>2021-11-22T12:49:22.320Z</time>
      </trkpt>
      <trkpt lat="47.549039" lon="7.907742">
        <ele>305.691708</ele>
        <time>2021-11-22T12:49:46.626Z</time>
      </trkpt>
      <trkpt lat="47.548638" lon="7.908599">
        <ele>306.341887</ele>
        <time>2021-11-22T12:50:05.768Z</time>
      </trkpt>
      <trkpt lat="47.548279" lon="7.909060">
        <ele>306.855659</ele>
        <time>2021-11-22T12:50:18.000Z</time>
      </trkpt>
      <trkpt lat="47.548222" lon="7.909154">
        <ele>306.947896</ele>
        <time>2021-11-22T12:50:20.544Z</time>
      </trkpt>
      <trkpt lat="47.547859" lon="7.909845">
        <ele>307.587048</ele>
        <time>2021-11-22T12:50:34.419Z</time>
      </trkpt>
      <trkpt lat="47.547648" lon="7.910267">
        <ele>307.897826</ele>
        <time>2021-11-22T12:50:42.499Z</time>
      </trkpt>
      <trkpt lat="47.547348" lon="7.911011">
        <ele>307.170098</ele>
        <time>2021-11-22T12:50:52.018Z</time>
      </trkpt>
      <trkpt lat="47.546526" lon="7.912513">
        <ele>305.107517</ele>
        <time>2021-11-22T12:51:06.647Z</time>
      </trkpt>
      <trkpt lat="47.546113" lon="7.913536">
        <ele>301.229359</ele>
        <time>2021-11-22T12:51:14.271Z</time>
      </trkpt>
      <trkpt lat="47.546064" lon="7.913662">
        <ele>300.756254</ele>
        <time>2021-11-22T12:51:15.248Z</time>
      </trkpt>
      <trkpt lat="47.546064" lon="7.913662">
        <ele>300.756254</ele>
        <time>2021-11-22T12:51:15.537Z</time>
      </trkpt>
      <trkpt lat="47.546064" lon="7.913662">
        <ele>300.756254</ele>
        <time>2021-11-22T12:51:15.566Z</time>
      </trkpt>
      <trkpt lat="47.546432" lon="7.914049">
        <ele>298.581057</ele>
        <time>2021-11-22T12:51:21.406Z</time>
      </trkpt>
      <trkpt lat="47.546695" lon="7.914336">
        <ele>297.010659</ele>
        <time>2021-11-22T12:51:25.736Z</time>
      </trkpt>
      <trkpt lat="47.546955" lon="7.914608">
        <ele>295.744660</ele>
        <time>2021-11-22T12:51:30.026Z</time>
      </trkpt>
      <trkpt lat="47.547016" lon="7.914680">
        <ele>295.434443</ele>
        <time>2021-11-22T12:51:31.010Z</time>
      </trkpt>
      <trkpt lat="47.547057" lon="7.914734">
        <ele>295.216239</ele>
        <time>2021-11-22T12:51:31.705Z</time>
      </trkpt>
      <trkpt lat="47.547377" lon="7.915045">
        <ele>293.694006</ele>
        <time>2021-11-22T12:51:36.808Z</time>
      </trkpt>
      <trkpt lat="47.547423" lon="7.915080">
        <ele>293.488322</ele>
        <time>2021-11-22T12:51:37.493Z</time>
      </trkpt>
      <trkpt lat="47.547113" lon="7.915971">
        <ele>290.797118</ele>
        <time>2021-11-22T12:51:44.336Z</time>
      </trkpt>
      <trkpt lat="47.547091" lon="7.916039">
        <ele>290.594666</ele>
        <time>2021-11-22T12:51:44.918Z</time>
      </trkpt>
      <trkpt lat="47.547032" lon="7.916218">
        <ele>290.059856</ele>
        <time>2021-11-22T12:51:46.983Z</time>
      </trkpt>
      <trkpt lat="47.546821" lon="7.916867">
        <ele>289.834273</ele>
        <time>2021-11-22T12:51:52.828Z</time>
      </trkpt>
      <trkpt lat="47.546262" lon="7.919081">
        <ele>289.811269</ele>
        <time>2021-11-22T12:52:19.620Z</time>
      </trkpt>
      <trkpt lat="47.546128" lon="7.919617">
        <ele>289.981354</ele>
        <time>2021-11-22T12:52:25.089Z</time>
      </trkpt>
      <trkpt lat="47.545973" lon="7.920313">
        <ele>290.199444</ele>
        <time>2021-11-22T12:52:33.552Z</time>
      </trkpt>
      <trkpt lat="47.545913" lon="7.920765">
        <ele>290.336521</ele>
        <time>2021-11-22T12:52:37.725Z</time>
      </trkpt>
      <trkpt lat="47.545881" lon="7.921096">
        <ele>290.436022</ele>
        <time>2021-11-22T12:52:41.742Z</time>
      </trkpt>
      <trkpt lat="47.545810" lon="7.921755">
        <ele>291.149030</ele>
        <time>2021-11-22T12:52:50.650Z</time>
      </trkpt>
      <trkpt lat="47.545778" lon="7.921947">
        <ele>291.432456</ele>
        <time>2021-11-22T12:52:54.259Z</time>
      </trkpt>
      <trkpt lat="47.545714" lon="7.922249">
        <ele>291.886092</ele>
        <time>2021-11-22T12:52:57.458Z</time>
      </trkpt>
      <trkpt lat="47.545699" lon="7.922325">
        <ele>291.999571</ele>
        <time>2021-11-22T12:52:58.655Z</time>
      </trkpt>
      <trkpt lat="47.545690" lon="7.922369">
        <ele>292.065460</ele>
        <time>2021-11-22T12:53:00.754Z</time>
      </trkpt>
      <trkpt lat="47.545641" lon="7.922610">
        <ele>292.426175</ele>
        <time>2021-11-22T12:53:03.107Z</time>
      </trkpt>
      <trkpt lat="47.545587" lon="7.922895">
        <ele>292.850406</ele>
        <time>2021-11-22T12:53:08.904Z</time>
      </trkpt>
      <trkpt lat="47.545553" lon="7.923142">
        <ele>293.211677</ele>
        <time>2021-11-22T12:53:11.551Z</time>
      </trkpt>
      <trkpt lat="47.545536" lon="7.923407">
        <ele>293.593171</ele>
        <time>2021-11-22T12:53:17.440Z</time>
      </trkpt>
      <trkpt lat="47.545521" lon="7.923709">
        <ele>294.027150</ele>
        <time>2021-11-22T12:53:21.594Z</time>
      </trkpt>
      <trkpt lat="47.545481" lon="7.924396">
        <ele>295.541242</ele>
        <time>2021-11-22T12:53:36.197Z</time>
      </trkpt>
      <trkpt lat="47.545466" lon="7.924880">
        <ele>296.759673</ele>
        <time>2021-11-22T12:53:47.504Z</time>
      </trkpt>
      <trkpt lat="47.545446" lon="7.925350">
        <ele>297.943962</ele>
        <time>2021-11-22T12:53:57.879Z</time>
      </trkpt>
      <trkpt lat="47.545417" lon="7.925848">
        <ele>299.200971</ele>
        <time>2021-11-22T12:54:08.358Z</time>
      </trkpt>
      <trkpt lat="47.545409" lon="7.926773">
        <ele>301.133113</ele>
        <time>2021-11-22T12:54:25.559Z</time>
      </trkpt>
      <trkpt lat="47.545407" lon="7.927001">
        <ele>301.261348</ele>
        <time>2021-11-22T12:54:29.368Z</time>
      </trkpt>
      <trkpt lat="47.545406" lon="7.927306">
        <ele>301.432877</ele>
        <time>2021-11-22T12:54:33.972Z</time>
      </trkpt>
      <trkpt lat="47.545421" lon="7.927686">
        <ele>301.646949</ele>
        <time>2021-11-22T12:54:39.508Z</time>
      </trkpt>
      <trkpt lat="47.545475" lon="7.928419">
        <ele>302.061626</ele>
        <time>2021-11-22T12:54:48.825Z</time>
      </trkpt>
      <trkpt lat="47.545563" lon="7.929641">
        <ele>301.971303</ele>
        <time>2021-11-22T12:54:58.705Z</time>
      </trkpt>
      <trkpt lat="47.545661" lon="7.930955">
        <ele>300.238767</ele>
        <time>2021-11-22T12:55:08.100Z</time>
      </trkpt>
      <trkpt lat="47.545696" lon="7.931497">
        <ele>299.525209</ele>
        <time>2021-11-22T12:55:12.069Z</time>
      </trkpt>
      <trkpt lat="47.545721" lon="7.931992">
        <ele>298.997213</ele>
        <time>2021-11-22T12:55:15.862Z</time>
      </trkpt>
      <trkpt lat="47.545724" lon="7.932758">
        <ele>298.806371</ele>
        <time>2021-11-22T12:55:22.071Z</time>
      </trkpt>
      <trkpt lat="47.545702" lon="7.933290">
        <ele>298.673581</ele>
        <time>2021-11-22T12:55:26.714Z</time>
      </trkpt>
      <trkpt lat="47.545674" lon="7.933625">
        <ele>298.589483</ele>
        <time>2021-11-22T12:55:29.914Z</time>
      </trkpt>
      <trkpt lat="47.545457" lon="7.935110">
        <ele>298.939312</ele>
        <time>2021-11-22T12:55:48.049Z</time>
      </trkpt>
      <trkpt lat="47.545074" lon="7.936484">
        <ele>300.353427</ele>
        <time>2021-11-22T12:56:09.576Z</time>
      </trkpt>
      <trkpt lat="47.544903" lon="7.936917">
        <ele>300.830648</ele>
        <time>2021-11-22T12:56:16.893Z</time>
      </trkpt>
      <trkpt lat="47.544705" lon="7.937395">
        <ele>301.494773</ele>
        <time>2021-11-22T12:56:25.077Z</time>
      </trkpt>
      <trkpt lat="47.544472" lon="7.937932">
        <ele>302.271814</ele>
        <time>2021-11-22T12:56:34.484Z</time>
      </trkpt>
      <trkpt lat="47.543826" lon="7.939433">
        <ele>304.378587</ele>
        <time>2021-11-22T12:57:01.366Z</time>
      </trkpt>
      <trkpt lat="47.543435" lon="7.940670">
        <ele>305.706471</ele>
        <time>2021-11-22T12:57:21.326Z</time>
      </trkpt>
      <trkpt lat="47.543161" lon="7.942213">
        <ele>306.636741</ele>
        <time>2021-11-22T12:57:42.176Z</time>
      </trkpt>
      <trkpt lat="47.543007" lon="7.943867">
        <ele>306.347259</ele>
        <time>2021-11-22T12:57:57.720Z</time>
      </trkpt>
      <trkpt lat="47.542913" lon="7.945267">
        <ele>304.694994</ele>
        <time>2021-11-22T12:58:08.479Z</time>
      </trkpt>
      <trkpt lat="47.542872" lon="7.945781">
        <ele>303.841187</ele>
        <time>2021-11-22T12:58:12.076Z</time>
      </trkpt>
      <trkpt lat="47.542875" lon="7.946089">
        <ele>303.333049</ele>
        <time>2021-11-22T12:58:14.167Z</time>
      </trkpt>
      <trkpt lat="47.542902" lon="7.946514">
        <ele>302.628860</ele>
        <time>2021-11-22T12:58:17.046Z</time>
      </trkpt>
      <trkpt lat="47.542943" lon="7.946806">
        <ele>302.136859</ele>
        <time>2021-11-22T12:58:19.092Z</time>
      </trkpt>
      <trkpt lat="47.542974" lon="7.946965">
        <ele>301.867080</ele>
        <time>2021-11-22T12:58:20.303Z</time>
      </trkpt>
      <trkpt lat="47.542979" lon="7.946989">
        <ele>301.839823</ele>
        <time>2021-11-22T12:58:20.458Z</time>
      </trkpt>
      <trkpt lat="47.543007" lon="7.947104">
        <ele>301.707155</ele>
        <time>2021-11-22T12:58:21.307Z</time>
      </trkpt>
      <trkpt lat="47.543087" lon="7.947317">
        <ele>301.442638</ele>
        <time>2021-11-22T12:58:23.049Z</time>
      </trkpt>
      <trkpt lat="47.543191" lon="7.947615">
        <ele>301.078587</ele>
        <time>2021-11-22T12:58:25.491Z</time>
      </trkpt>
      <trkpt lat="47.543242" lon="7.947745">
        <ele>300.915418</ele>
        <time>2021-11-22T12:58:26.621Z</time>
      </trkpt>
      <trkpt lat="47.543273" lon="7.947816">
        <ele>300.823656</ele>
        <time>2021-11-22T12:58:27.248Z</time>
      </trkpt>
      <trkpt lat="47.543358" lon="7.947967">
        <ele>300.610293</ele>
        <time>2021-11-22T12:58:28.691Z</time>
      </trkpt>
      <trkpt lat="47.543455" lon="7.948127">
        <ele>300.376917</ele>
        <time>2021-11-22T12:58:30.358Z</time>
      </trkpt>
      <trkpt lat="47.543532" lon="7.948214">
        <ele>300.221236</ele>
        <time>2021-11-22T12:58:31.438Z</time>
      </trkpt>
      <trkpt lat="47.543579" lon="7.948287">
        <ele>300.111762</ele>
        <time>2021-11-22T12:58:32.202Z</time>
      </trkpt>
      <trkpt lat="47.543760" lon="7.948548">
        <ele>299.705696</ele>
        <time>2021-11-22T12:58:35.091Z</time>
      </trkpt>
      <trkpt lat="47.543864" lon="7.948694">
        <ele>299.475359</ele>
        <time>2021-11-22T12:58:36.762Z</time>
      </trkpt>
      <trkpt lat="47.544239" lon="7.949202">
        <ele>299.076593</ele>
        <time>2021-11-22T12:58:44.125Z</time>
      </trkpt>
      <trkpt lat="47.544521" lon="7.949558">
        <ele>299.251280</ele>
        <time>2021-11-22T12:58:50.298Z</time>
      </trkpt>
      <trkpt lat="47.544901" lon="7.950044">
        <ele>299.487976</ele>
        <time>2021-11-22T12:58:59.694Z</time>
      </trkpt>
      <trkpt lat="47.545166" lon="7.950366">
        <ele>299.649573</ele>
        <time>2021-11-22T12:59:06.244Z</time>
      </trkpt>
      <trkpt lat="47.545434" lon="7.950668">
        <ele>299.808332</ele>
        <time>2021-11-22T12:59:12.034Z</time>
      </trkpt>
      <trkpt lat="47.545542" lon="7.950842">
        <ele>299.809981</ele>
        <time>2021-11-22T12:59:14.460Z</time>
      </trkpt>
      <trkpt lat="47.545667" lon="7.950979">
        <ele>299.782935</ele>
        <time>2021-11-22T12:59:17.064Z</time>
      </trkpt>
      <trkpt lat="47.545737" lon="7.951055">
        <ele>299.767840</ele>
        <time>2021-11-22T12:59:18.319Z</time>
      </trkpt>
      <trkpt lat="47.545876" lon="7.951233">
        <ele>299.735882</ele>
        <time>2021-11-22T12:59:20.711Z</time>
      </trkpt>
      <trkpt lat="47.546112" lon="7.951485">
        <ele>299.685280</ele>
        <time>2021-11-22T12:59:25.254Z</time>
      </trkpt>
      <trkpt lat="47.546164" lon="7.951520">
        <ele>299.675345</ele>
        <time>2021-11-22T12:59:25.888Z</time>
      </trkpt>
      <trkpt lat="47.546212" lon="7.951535">
        <ele>299.666812</ele>
        <time>2021-11-22T12:59:26.653Z</time>
      </trkpt>
      <trkpt lat="47.546231" lon="7.951558">
        <ele>299.662545</ele>
        <time>2021-11-22T12:59:27.383Z</time>
      </trkpt>
      <trkpt lat="47.546421" lon="7.951793">
        <ele>299.619492</ele>
        <time>2021-11-22T12:59:30.564Z</time>
      </trkpt>
      <trkpt lat="47.546634" lon="7.952024">
        <ele>299.573577</ele>
        <time>2021-11-22T12:59:34.098Z</time>
      </trkpt>
      <trkpt lat="47.546695" lon="7.952091">
        <ele>299.560369</ele>
        <time>2021-11-22T12:59:35.053Z</time>
      </trkpt>
      <trkpt lat="47.546776" lon="7.952185">
        <ele>299.542471</ele>
        <time>2021-11-22T12:59:36.240Z</time>
      </trkpt>
      <trkpt lat="47.546935" lon="7.952372">
        <ele>299.494200</ele>
        <time>2021-11-22T12:59:39.175Z</time>
      </trkpt>
      <trkpt lat="47.547090" lon="7.952543">
        <ele>299.416103</ele>
        <time>2021-11-22T12:59:41.812Z</time>
      </trkpt>
      <trkpt lat="47.547400" lon="7.952910">
        <ele>299.255744</ele>
        <time>2021-11-22T12:59:47.134Z</time>
      </trkpt>
      <trkpt lat="47.547458" lon="7.952975">
        <ele>299.226355</ele>
        <time>2021-11-22T12:59:48.060Z</time>
      </trkpt>
      <trkpt lat="47.547550" lon="7.953078">
        <ele>299.179755</ele>
        <time>2021-11-22T12:59:49.558Z</time>
      </trkpt>
      <trkpt lat="47.547624" lon="7.953160">
        <ele>299.142411</ele>
        <time>2021-11-22T12:59:50.802Z</time>
      </trkpt>
      <trkpt lat="47.547797" lon="7.953355">
        <ele>299.054566</ele>
        <time>2021-11-22T12:59:53.791Z</time>
      </trkpt>
      <trkpt lat="47.547871" lon="7.953437">
        <ele>299.017223</ele>
        <time>2021-11-22T12:59:55.046Z</time>
      </trkpt>
      <trkpt lat="47.547994" lon="7.953584">
        <ele>298.953360</ele>
        <time>2021-11-22T12:59:57.173Z</time>
      </trkpt>
      <trkpt lat="47.548115" lon="7.953729">
        <ele>298.890469</ele>
        <time>2021-11-22T12:59:59.297Z</time>
      </trkpt>
      <trkpt lat="47.548251" lon="7.953895">
        <ele>298.819260</ele>
        <time>2021-11-22T13:00:01.677Z</time>
      </trkpt>
      <trkpt lat="47.548342" lon="7.954009">
        <ele>298.783231</ele>
        <time>2021-11-22T13:00:03.317Z</time>
      </trkpt>
      <trkpt lat="47.548542" lon="7.954269">
        <ele>298.744366</ele>
        <time>2021-11-22T13:00:07.047Z</time>
      </trkpt>
      <trkpt lat="47.548833" lon="7.954652">
        <ele>298.687509</ele>
        <time>2021-11-22T13:00:12.589Z</time>
      </trkpt>
      <trkpt lat="47.549042" lon="7.954942">
        <ele>298.645683</ele>
        <time>2021-11-22T13:00:16.731Z</time>
      </trkpt>
      <trkpt lat="47.549157" lon="7.955099">
        <ele>298.622841</ele>
        <time>2021-11-22T13:00:19.017Z</time>
      </trkpt>
      <trkpt lat="47.549444" lon="7.955496">
        <ele>298.565487</ele>
        <time>2021-11-22T13:00:24.863Z</time>
      </trkpt>
      <trkpt lat="47.550205" lon="7.956552">
        <ele>298.429348</ele>
        <time>2021-11-22T13:00:39.496Z</time>
      </trkpt>
      <trkpt lat="47.550380" lon="7.956806">
        <ele>298.398629</ele>
        <time>2021-11-22T13:00:43.057Z</time>
      </trkpt>
      <trkpt lat="47.550445" lon="7.956918">
        <ele>298.386127</ele>
        <time>2021-11-22T13:00:44.541Z</time>
      </trkpt>
      <trkpt lat="47.550549" lon="7.957126">
        <ele>298.364219</ele>
        <time>2021-11-22T13:00:47.062Z</time>
      </trkpt>
      <trkpt lat="47.550613" lon="7.957254">
        <ele>298.350737</ele>
        <time>2021-11-22T13:00:48.690Z</time>
      </trkpt>
      <trkpt lat="47.550735" lon="7.957541">
        <ele>298.322031</ele>
        <time>2021-11-22T13:00:52.145Z</time>
      </trkpt>
      <trkpt lat="47.550745" lon="7.957569">
        <ele>298.319350</ele>
        <time>2021-11-22T13:00:52.394Z</time>
      </trkpt>
      <trkpt lat="47.550869" lon="7.957700">
        <ele>298.303680</ele>
        <time>2021-11-22T13:00:54.667Z</time>
      </trkpt>
      <trkpt lat="47.551300" lon="7.958844">
        <ele>298.433894</ele>
        <time>2021-11-22T13:01:07.519Z</time>
      </trkpt>
      <trkpt lat="47.551677" lon="7.960100">
        <ele>298.579481</ele>
        <time>2021-11-22T13:01:22.258Z</time>
      </trkpt>
      <trkpt lat="47.551865" lon="7.960528">
        <ele>298.749303</ele>
        <time>2021-11-22T13:01:28.107Z</time>
      </trkpt>
      <trkpt lat="47.551882" lon="7.960631">
        <ele>298.784565</ele>
        <time>2021-11-22T13:01:29.324Z</time>
      </trkpt>
      <trkpt lat="47.551894" lon="7.960729">
        <ele>298.817687</ele>
        <time>2021-11-22T13:01:30.728Z</time>
      </trkpt>
      <trkpt lat="47.551859" lon="7.961133">
        <ele>298.953141</ele>
        <time>2021-11-22T13:01:35.203Z</time>
      </trkpt>
      <trkpt lat="47.551906" lon="7.962453">
        <ele>299.392722</ele>
        <time>2021-11-22T13:01:50.598Z</time>
      </trkpt>
      <trkpt lat="47.551918" lon="7.963725">
        <ele>299.461779</ele>
        <time>2021-11-22T13:02:04.258Z</time>
      </trkpt>
      <trkpt lat="47.551902" lon="7.964650">
        <ele>299.469281</ele>
        <time>2021-11-22T13:02:13.371Z</time>
      </trkpt>
      <trkpt lat="47.551767" lon="7.967910">
        <ele>298.815978</ele>
        <time>2021-11-22T13:02:43.033Z</time>
      </trkpt>
      <trkpt lat="47.551839" lon="7.968208">
        <ele>298.839964</ele>
        <time>2021-11-22T13:02:46.125Z</time>
      </trkpt>
      <trkpt lat="47.551847" lon="7.968315">
        <ele>298.854333</ele>
        <time>2021-11-22T13:02:47.101Z</time>
      </trkpt>
      <trkpt lat="47.551825" lon="7.968445">
        <ele>298.872222</ele>
        <time>2021-11-22T13:02:48.332Z</time>
      </trkpt>
      <trkpt lat="47.551750" lon="7.968659">
        <ele>298.904407</ele>
        <time>2021-11-22T13:02:50.935Z</time>
      </trkpt>
      <trkpt lat="47.551734" lon="7.970034">
        <ele>299.087963</ele>
        <time>2021-11-22T13:03:05.331Z</time>
      </trkpt>
      <trkpt lat="47.551725" lon="7.970823">
        <ele>299.243714</ele>
        <time>2021-11-22T13:03:14.450Z</time>
      </trkpt>
      <trkpt lat="47.551755" lon="7.972603">
        <ele>299.838694</ele>
        <time>2021-11-22T13:03:35.925Z</time>
      </trkpt>
      <trkpt lat="47.551793" lon="7.974325">
        <ele>299.925125</ele>
        <time>2021-11-22T13:03:53.097Z</time>
      </trkpt>
      <trkpt lat="47.551829" lon="7.976305">
        <ele>299.863497</ele>
        <time>2021-11-22T13:04:11.055Z</time>
      </trkpt>
      <trkpt lat="47.551901" lon="7.979190">
        <ele>300.361176</ele>
        <time>2021-11-22T13:04:45.169Z</time>
      </trkpt>
      <trkpt lat="47.551923" lon="7.979308">
        <ele>300.328669</ele>
        <time>2021-11-22T13:04:46.860Z</time>
      </trkpt>
      <trkpt lat="47.551933" lon="7.979363">
        <ele>300.313544</ele>
        <time>2021-11-22T13:04:48.073Z</time>
      </trkpt>
      <trkpt lat="47.551873" lon="7.980135">
        <ele>300.107194</ele>
        <time>2021-11-22T13:04:55.353Z</time>
      </trkpt>
      <trkpt lat="47.551865" lon="7.980584">
        <ele>299.987926</ele>
        <time>2021-11-22T13:04:59.601Z</time>
      </trkpt>
      <trkpt lat="47.551861" lon="7.981113">
        <ele>299.847448</ele>
        <time>2021-11-22T13:05:04.000Z</time>
      </trkpt>
      <trkpt lat="47.551892" lon="7.983447">
        <ele>295.688032</ele>
        <time>2021-11-22T13:05:20.007Z</time>
      </trkpt>
      <trkpt lat="47.551911" lon="7.983632">
        <ele>295.341551</ele>
        <time>2021-11-22T13:05:21.306Z</time>
      </trkpt>
      <trkpt lat="47.552005" lon="7.983849">
        <ele>294.879459</ele>
        <time>2021-11-22T13:05:23.164Z</time>
      </trkpt>
      <trkpt lat="47.552007" lon="7.983931">
        <ele>294.834772</ele>
        <time>2021-11-22T13:05:23.676Z</time>
      </trkpt>
      <trkpt lat="47.551993" lon="7.984014">
        <ele>294.788179</ele>
        <time>2021-11-22T13:05:24.266Z</time>
      </trkpt>
      <trkpt lat="47.551934" lon="7.984260">
        <ele>294.645997</ele>
        <time>2021-11-22T13:05:26.316Z</time>
      </trkpt>
      <trkpt lat="47.551939" lon="7.985151">
        <ele>294.160733</ele>
        <time>2021-11-22T13:05:32.952Z</time>
      </trkpt>
      <trkpt lat="47.551898" lon="7.985654">
        <ele>293.884803</ele>
        <time>2021-11-22T13:05:37.261Z</time>
      </trkpt>
      <trkpt lat="47.551915" lon="7.986209">
        <ele>293.582233</ele>
        <time>2021-11-22T13:05:42.879Z</time>
      </trkpt>
      <trkpt lat="47.551917" lon="7.986288">
        <ele>293.539179</ele>
        <time>2021-11-22T13:05:44.201Z</time>
      </trkpt>
      <trkpt lat="47.551971" lon="7.986555">
        <ele>293.625680</ele>
        <time>2021-11-22T13:05:48.463Z</time>
      </trkpt>
      <trkpt lat="47.552152" lon="7.986883">
        <ele>294.562365</ele>
        <time>2021-11-22T13:05:55.688Z</time>
      </trkpt>
      <trkpt lat="47.552224" lon="7.986975">
        <ele>294.873806</ele>
        <time>2021-11-22T13:05:58.256Z</time>
      </trkpt>
      <trkpt lat="47.552436" lon="7.987273">
        <ele>295.831045</ele>
        <time>2021-11-22T13:06:06.154Z</time>
      </trkpt>
      <trkpt lat="47.552504" lon="7.987369">
        <ele>296.138716</ele>
        <time>2021-11-22T13:06:08.789Z</time>
      </trkpt>
      <trkpt lat="47.552713" lon="7.987638">
        <ele>297.045570</ele>
        <time>2021-11-22T13:06:17.257Z</time>
      </trkpt>
      <trkpt lat="47.552867" lon="7.987810">
        <ele>297.677292</ele>
        <time>2021-11-22T13:06:23.744Z</time>
      </trkpt>
      <trkpt lat="47.553232" lon="7.988247">
        <ele>299.214468</ele>
        <time>2021-11-22T13:06:38.373Z</time>
      </trkpt>
      <trkpt lat="47.553343" lon="7.988401">
        <ele>299.658533</ele>
        <time>2021-11-22T13:06:43.209Z</time>
      </trkpt>
      <trkpt lat="47.553410" lon="7.988607">
        <ele>300.093340</ele>
        <time>2021-11-22T13:06:47.806Z</time>
      </trkpt>
      <trkpt lat="47.553424" lon="7.988762">
        <ele>300.390690</ele>
        <time>2021-11-22T13:06:50.993Z</time>
      </trkpt>
      <trkpt lat="47.553352" lon="7.989142">
        <ele>301.141170</ele>
        <time>2021-11-22T13:06:58.837Z</time>
      </trkpt>
      <trkpt lat="47.553253" lon="7.989578">
        <ele>302.015860</ele>
        <time>2021-11-22T13:07:07.790Z</time>
      </trkpt>
      <trkpt lat="47.553214" lon="7.989758">
        <ele>302.375325</ele>
        <time>2021-11-22T13:07:11.373Z</time>
      </trkpt>
      <trkpt lat="47.553163" lon="7.990004">
        <ele>302.864651</ele>
        <time>2021-11-22T13:07:16.073Z</time>
      </trkpt>
      <trkpt lat="47.553146" lon="7.990113">
        <ele>303.077371</ele>
        <time>2021-11-22T13:07:18.000Z</time>
      </trkpt>
      <trkpt lat="47.553126" lon="7.990240">
        <ele>303.325341</ele>
        <time>2021-11-22T13:07:20.157Z</time>
      </trkpt>
      <trkpt lat="47.553050" lon="7.990744">
        <ele>304.307300</ele>
        <time>2021-11-22T13:07:27.808Z</time>
      </trkpt>
      <trkpt lat="47.553091" lon="7.991915">
        <ele>304.613569</ele>
        <time>2021-11-22T13:07:38.616Z</time>
      </trkpt>
      <trkpt lat="47.553107" lon="7.992226">
        <ele>304.674412</ele>
        <time>2021-11-22T13:07:41.084Z</time>
      </trkpt>
      <trkpt lat="47.553130" lon="7.993014">
        <ele>304.828273</ele>
        <time>2021-11-22T13:07:50.658Z</time>
      </trkpt>
      <trkpt lat="47.553137" lon="7.993190">
        <ele>304.862665</ele>
        <time>2021-11-22T13:07:51.777Z</time>
      </trkpt>
      <trkpt lat="47.553156" lon="7.993696">
        <ele>305.199656</ele>
        <time>2021-11-22T13:07:57.411Z</time>
      </trkpt>
      <trkpt lat="47.553164" lon="7.993925">
        <ele>305.466504</ele>
        <time>2021-11-22T13:08:03.878Z</time>
      </trkpt>
      <trkpt lat="47.553246" lon="7.995617">
        <ele>307.440586</ele>
        <time>2021-11-22T13:08:26.663Z</time>
      </trkpt>
      <trkpt lat="47.553268" lon="7.996252">
        <ele>308.171390</ele>
        <time>2021-11-22T13:08:40.008Z</time>
      </trkpt>
      <trkpt lat="47.553279" lon="7.996528">
        <ele>308.475397</ele>
        <time>2021-11-22T13:08:44.161Z</time>
      </trkpt>
      <trkpt lat="47.553287" lon="7.997190">
        <ele>309.203422</ele>
        <time>2021-11-22T13:08:53.911Z</time>
      </trkpt>
      <trkpt lat="47.553287" lon="7.998380">
        <ele>310.511897</ele>
        <time>2021-11-22T13:09:10.494Z</time>
      </trkpt>
      <trkpt lat="47.553278" lon="7.999508">
        <ele>310.811805</ele>
        <time>2021-11-22T13:09:23.844Z</time>
      </trkpt>
      <trkpt lat="47.553275" lon="7.999860">
        <ele>310.747787</ele>
        <time>2021-11-22T13:09:27.343Z</time>
      </trkpt>
      <trkpt lat="47.553273" lon="8.001687">
        <ele>310.352099</ele>
        <time>2021-11-22T13:09:42.887Z</time>
      </trkpt>
      <trkpt lat="47.553271" lon="8.002109">
        <ele>310.167380</ele>
        <time>2021-11-22T13:09:46.254Z</time>
      </trkpt>
      <trkpt lat="47.553270" lon="8.002465">
        <ele>310.011553</ele>
        <time>2021-11-22T13:09:49.032Z</time>
      </trkpt>
      <trkpt lat="47.553266" lon="8.003502">
        <ele>309.557638</ele>
        <time>2021-11-22T13:09:57.806Z</time>
      </trkpt>
      <trkpt lat="47.553256" lon="8.004837">
        <ele>309.653265</ele>
        <time>2021-11-22T13:10:12.036Z</time>
      </trkpt>
      <trkpt lat="47.553251" lon="8.005657">
        <ele>310.055062</ele>
        <time>2021-11-22T13:10:22.126Z</time>
      </trkpt>
      <trkpt lat="47.553220" lon="8.006182">
        <ele>310.313282</ele>
        <time>2021-11-22T13:10:29.073Z</time>
      </trkpt>
      <trkpt lat="47.553211" lon="8.006270">
        <ele>310.356892</ele>
        <time>2021-11-22T13:10:30.875Z</time>
      </trkpt>
      <trkpt lat="47.553173" lon="8.006642">
        <ele>310.541239</ele>
        <time>2021-11-22T13:10:35.425Z</time>
      </trkpt>
      <trkpt lat="47.552935" lon="8.007851">
        <ele>310.456699</ele>
        <time>2021-11-22T13:10:50.532Z</time>
      </trkpt>
      <trkpt lat="47.552640" lon="8.008615">
        <ele>310.346091</ele>
        <time>2021-11-22T13:10:58.676Z</time>
      </trkpt>
      <trkpt lat="47.552604" lon="8.008677">
        <ele>310.335814</ele>
        <time>2021-11-22T13:10:59.226Z</time>
      </trkpt>
      <trkpt lat="47.551902" lon="8.009884">
        <ele>309.676370</ele>
        <time>2021-11-22T13:11:11.586Z</time>
      </trkpt>
      <trkpt lat="47.551275" lon="8.010934">
        <ele>308.875092</ele>
        <time>2021-11-22T13:11:23.541Z</time>
      </trkpt>
      <trkpt lat="47.551187" lon="8.011080">
        <ele>308.763216</ele>
        <time>2021-11-22T13:11:25.675Z</time>
      </trkpt>
      <trkpt lat="47.550764" lon="8.011985">
        <ele>309.426991</ele>
        <time>2021-11-22T13:11:37.764Z</time>
      </trkpt>
      <trkpt lat="47.550565" lon="8.012461">
        <ele>309.787671</ele>
        <time>2021-11-22T13:11:45.183Z</time>
      </trkpt>
      <trkpt lat="47.550001" lon="8.014034">
        <ele>311.152166</ele>
        <time>2021-11-22T13:12:11.023Z</time>
      </trkpt>
      <trkpt lat="47.549871" lon="8.014427">
        <ele>311.562549</ele>
        <time>2021-11-22T13:12:17.209Z</time>
      </trkpt>
      <trkpt lat="47.549795" lon="8.014667">
        <ele>311.811129</ele>
        <time>2021-11-22T13:12:20.710Z</time>
      </trkpt>
      <trkpt lat="47.549589" lon="8.015316">
        <ele>312.483618</ele>
        <time>2021-11-22T13:12:30.088Z</time>
      </trkpt>
      <trkpt lat="47.549431" lon="8.015998">
        <ele>313.146419</ele>
        <time>2021-11-22T13:12:40.002Z</time>
      </trkpt>
      <trkpt lat="47.549281" lon="8.017304">
        <ele>314.306883</ele>
        <time>2021-11-22T13:12:57.225Z</time>
      </trkpt>
      <trkpt lat="47.549274" lon="8.017401">
        <ele>314.392336</ele>
        <time>2021-11-22T13:12:58.518Z</time>
      </trkpt>
      <trkpt lat="47.549236" lon="8.017402">
        <ele>314.441661</ele>
        <time>2021-11-22T13:12:59.341Z</time>
      </trkpt>
      <trkpt lat="47.549145" lon="8.017497">
        <ele>314.586137</ele>
        <time>2021-11-22T13:13:01.599Z</time>
      </trkpt>
      <trkpt lat="47.549133" lon="8.017550">
        <ele>314.635106</ele>
        <time>2021-11-22T13:13:02.588Z</time>
      </trkpt>
      <trkpt lat="47.549131" lon="8.017604">
        <ele>314.682480</ele>
        <time>2021-11-22T13:13:03.105Z</time>
      </trkpt>
      <trkpt lat="47.549220" lon="8.017761">
        <ele>314.862079</ele>
        <time>2021-11-22T13:13:05.682Z</time>
      </trkpt>
      <trkpt lat="47.549256" lon="8.017769">
        <ele>314.909323</ele>
        <time>2021-11-22T13:13:06.486Z</time>
      </trkpt>
      <trkpt lat="47.549261" lon="8.017878">
        <ele>315.005024</ele>
        <time>2021-11-22T13:13:08.126Z</time>
      </trkpt>
      <trkpt lat="47.549208" lon="8.019997">
        <ele>316.991262</ele>
        <time>2021-11-22T13:13:38.681Z</time>
      </trkpt>
      <trkpt lat="47.549186" lon="8.021006">
        <ele>317.874757</ele>
        <time>2021-11-22T13:13:51.743Z</time>
      </trkpt>
      <trkpt lat="47.549191" lon="8.021436">
        <ele>318.053793</ele>
        <time>2021-11-22T13:13:57.125Z</time>
      </trkpt>
      <trkpt lat="47.549201" lon="8.022146">
        <ele>318.349432</ele>
        <time>2021-11-22T13:14:05.926Z</time>
      </trkpt>
      <trkpt lat="47.549268" lon="8.023385">
        <ele>318.866883</ele>
        <time>2021-11-22T13:14:19.878Z</time>
      </trkpt>
      <trkpt lat="47.549322" lon="8.024323">
        <ele>318.807175</ele>
        <time>2021-11-22T13:14:29.262Z</time>
      </trkpt>
      <trkpt lat="47.549436" lon="8.026046">
        <ele>318.547776</ele>
        <time>2021-11-22T13:14:45.483Z</time>
      </trkpt>
      <trkpt lat="47.549454" lon="8.027138">
        <ele>318.133759</ele>
        <time>2021-11-22T13:14:54.770Z</time>
      </trkpt>
      <trkpt lat="47.549445" lon="8.027599">
        <ele>317.943942</ele>
        <time>2021-11-22T13:14:58.728Z</time>
      </trkpt>
      <trkpt lat="47.549431" lon="8.028306">
        <ele>317.652831</ele>
        <time>2021-11-22T13:15:04.960Z</time>
      </trkpt>
      <trkpt lat="47.549418" lon="8.028906">
        <ele>317.416534</ele>
        <time>2021-11-22T13:15:10.379Z</time>
      </trkpt>
      <trkpt lat="47.549380" lon="8.030702">
        <ele>316.997391</ele>
        <time>2021-11-22T13:15:26.265Z</time>
      </trkpt>
      <trkpt lat="47.549378" lon="8.030790">
        <ele>316.976853</ele>
        <time>2021-11-22T13:15:27.194Z</time>
      </trkpt>
      <trkpt lat="47.549372" lon="8.031883">
        <ele>316.819555</ele>
        <time>2021-11-22T13:15:38.432Z</time>
      </trkpt>
      <trkpt lat="47.549368" lon="8.032544">
        <ele>316.838181</ele>
        <time>2021-11-22T13:15:44.681Z</time>
      </trkpt>
      <trkpt lat="47.549363" lon="8.032869">
        <ele>316.847342</ele>
        <time>2021-11-22T13:15:49.042Z</time>
      </trkpt>
      <trkpt lat="47.549374" lon="8.033423">
        <ele>316.862959</ele>
        <time>2021-11-22T13:15:55.049Z</time>
      </trkpt>
      <trkpt lat="47.549386" lon="8.033799">
        <ele>316.873565</ele>
        <time>2021-11-22T13:15:58.269Z</time>
      </trkpt>
      <trkpt lat="47.549394" lon="8.034003">
        <ele>316.879323</ele>
        <time>2021-11-22T13:16:01.360Z</time>
      </trkpt>
      <trkpt lat="47.549395" lon="8.034029">
        <ele>316.880057</ele>
        <time>2021-11-22T13:16:01.505Z</time>
      </trkpt>
      <trkpt lat="47.549442" lon="8.034584">
        <ele>316.707491</ele>
        <time>2021-11-22T13:16:06.710Z</time>
      </trkpt>
      <trkpt lat="47.549494" lon="8.034935">
        <ele>316.554635</ele>
        <time>2021-11-22T13:16:10.516Z</time>
      </trkpt>
      <trkpt lat="47.549554" lon="8.035288">
        <ele>316.399795</ele>
        <time>2021-11-22T13:16:13.594Z</time>
      </trkpt>
      <trkpt lat="47.549632" lon="8.035633">
        <ele>316.245032</ele>
        <time>2021-11-22T13:16:16.747Z</time>
      </trkpt>
      <trkpt lat="47.549699" lon="8.035900">
        <ele>316.123866</ele>
        <time>2021-11-22T13:16:19.244Z</time>
      </trkpt>
      <trkpt lat="47.549753" lon="8.036077">
        <ele>316.041244</ele>
        <time>2021-11-22T13:16:20.918Z</time>
      </trkpt>
      <trkpt lat="47.549832" lon="8.036349">
        <ele>315.915289</ele>
        <time>2021-11-22T13:16:23.358Z</time>
      </trkpt>
      <trkpt lat="47.550111" lon="8.037123">
        <ele>315.582898</ele>
        <time>2021-11-22T13:16:30.548Z</time>
      </trkpt>
      <trkpt lat="47.550424" lon="8.037956">
        <ele>315.256795</ele>
        <time>2021-11-22T13:16:38.317Z</time>
      </trkpt>
      <trkpt lat="47.550515" lon="8.038174">
        <ele>315.169120</ele>
        <time>2021-11-22T13:16:40.565Z</time>
      </trkpt>
      <trkpt lat="47.551001" lon="8.039426">
        <ele>315.291543</ele>
        <time>2021-11-22T13:16:55.864Z</time>
      </trkpt>
      <trkpt lat="47.551167" lon="8.039905">
        <ele>315.799723</ele>
        <time>2021-11-22T13:17:02.909Z</time>
      </trkpt>
      <trkpt lat="47.551627" lon="8.041127">
        <ele>317.120259</ele>
        <time>2021-11-22T13:17:23.456Z</time>
      </trkpt>
      <trkpt lat="47.552844" lon="8.044355">
        <ele>321.939155</ele>
        <time>2021-11-22T13:18:23.407Z</time>
      </trkpt>
      <trkpt lat="47.553619" lon="8.046372">
        <ele>323.106829</ele>
        <time>2021-11-22T13:18:51.244Z</time>
      </trkpt>
      <trkpt lat="47.553996" lon="8.047557">
        <ele>322.257498</ele>
        <time>2021-11-22T13:19:02.153Z</time>
      </trkpt>
      <trkpt lat="47.554309" lon="8.048719">
        <ele>321.234677</ele>
        <time>2021-11-22T13:19:11.432Z</time>
      </trkpt>
      <trkpt lat="47.554412" lon="8.049127">
        <ele>320.678413</ele>
        <time>2021-11-22T13:19:14.598Z</time>
      </trkpt>
      <trkpt lat="47.554715" lon="8.050527">
        <ele>318.800974</ele>
        <time>2021-11-22T13:19:25.504Z</time>
      </trkpt>
      <trkpt lat="47.554988" lon="8.051475">
        <ele>317.963594</ele>
        <time>2021-11-22T13:19:33.429Z</time>
      </trkpt>
      <trkpt lat="47.555259" lon="8.052135">
        <ele>317.585260</ele>
        <time>2021-11-22T13:19:40.203Z</time>
      </trkpt>
      <trkpt lat="47.555603" lon="8.052757">
        <ele>317.191443</ele>
        <time>2021-11-22T13:19:47.693Z</time>
      </trkpt>
      <trkpt lat="47.555773" lon="8.053070">
        <ele>316.994689</ele>
        <time>2021-11-22T13:19:51.542Z</time>
      </trkpt>
      <trkpt lat="47.555890" lon="8.053286">
        <ele>316.964679</ele>
        <time>2021-11-22T13:19:54.149Z</time>
      </trkpt>
      <trkpt lat="47.556032" lon="8.053510">
        <ele>316.977693</ele>
        <time>2021-11-22T13:19:56.814Z</time>
      </trkpt>
      <trkpt lat="47.556239" lon="8.053780">
        <ele>316.994998</ele>
        <time>2021-11-22T13:20:00.764Z</time>
      </trkpt>
      <trkpt lat="47.556494" lon="8.054073">
        <ele>317.015247</ele>
        <time>2021-11-22T13:20:06.007Z</time>
      </trkpt>
      <trkpt lat="47.557019" lon="8.054678">
        <ele>317.056981</ele>
        <time>2021-11-22T13:20:17.128Z</time>
      </trkpt>
      <trkpt lat="47.557097" lon="8.054768">
        <ele>317.063184</ele>
        <time>2021-11-22T13:20:18.365Z</time>
      </trkpt>
      <trkpt lat="47.557273" lon="8.054941">
        <ele>317.065361</ele>
        <time>2021-11-22T13:20:21.689Z</time>
      </trkpt>
      <trkpt lat="47.557500" lon="8.055133">
        <ele>317.056875</ele>
        <time>2021-11-22T13:20:25.255Z</time>
      </trkpt>
      <trkpt lat="47.557710" lon="8.055283">
        <ele>317.049307</ele>
        <time>2021-11-22T13:20:28.408Z</time>
      </trkpt>
      <trkpt lat="47.557918" lon="8.055409">
        <ele>317.042011</ele>
        <time>2021-11-22T13:20:31.687Z</time>
      </trkpt>
      <trkpt lat="47.558012" lon="8.055477">
        <ele>317.038616</ele>
        <time>2021-11-22T13:20:33.062Z</time>
      </trkpt>
      <trkpt lat="47.558239" lon="8.055639">
        <ele>317.030436</ele>
        <time>2021-11-22T13:20:36.894Z</time>
      </trkpt>
      <trkpt lat="47.558447" lon="8.055831">
        <ele>317.022480</ele>
        <time>2021-11-22T13:20:40.477Z</time>
      </trkpt>
      <trkpt lat="47.558662" lon="8.056061">
        <ele>317.013871</ele>
        <time>2021-11-22T13:20:44.904Z</time>
      </trkpt>
      <trkpt lat="47.559116" lon="8.056760">
        <ele>317.131865</ele>
        <time>2021-11-22T13:20:55.013Z</time>
      </trkpt>
      <trkpt lat="47.559294" lon="8.057130">
        <ele>317.198380</ele>
        <time>2021-11-22T13:20:59.682Z</time>
      </trkpt>
      <trkpt lat="47.559447" lon="8.057490">
        <ele>317.260657</ele>
        <time>2021-11-22T13:21:04.046Z</time>
      </trkpt>
      <trkpt lat="47.559548" lon="8.057827">
        <ele>317.314634</ele>
        <time>2021-11-22T13:21:08.037Z</time>
      </trkpt>
      <trkpt lat="47.559579" lon="8.057955">
        <ele>317.334540</ele>
        <time>2021-11-22T13:21:09.480Z</time>
      </trkpt>
      <trkpt lat="47.559654" lon="8.058257">
        <ele>317.381646</ele>
        <time>2021-11-22T13:21:13.084Z</time>
      </trkpt>
      <trkpt lat="47.559725" lon="8.058554">
        <ele>317.440841</ele>
        <time>2021-11-22T13:21:16.479Z</time>
      </trkpt>
      <trkpt lat="47.559859" lon="8.059093">
        <ele>317.565836</ele>
        <time>2021-11-22T13:21:22.597Z</time>
      </trkpt>
      <trkpt lat="47.559979" lon="8.059591">
        <ele>317.680904</ele>
        <time>2021-11-22T13:21:28.185Z</time>
      </trkpt>
      <trkpt lat="47.560019" lon="8.059741">
        <ele>317.716001</ele>
        <time>2021-11-22T13:21:29.994Z</time>
      </trkpt>
      <trkpt lat="47.560040" lon="8.059827">
        <ele>317.735902</ele>
        <time>2021-11-22T13:21:30.936Z</time>
      </trkpt>
      <trkpt lat="47.560069" lon="8.059943">
        <ele>317.762821</ele>
        <time>2021-11-22T13:21:32.181Z</time>
      </trkpt>
      <trkpt lat="47.560130" lon="8.060196">
        <ele>317.821283</ele>
        <time>2021-11-22T13:21:35.226Z</time>
      </trkpt>
      <trkpt lat="47.560262" lon="8.060729">
        <ele>317.944829</ele>
        <time>2021-11-22T13:21:41.483Z</time>
      </trkpt>
      <trkpt lat="47.560293" lon="8.060828">
        <ele>317.968578</ele>
        <time>2021-11-22T13:21:42.651Z</time>
      </trkpt>
      <trkpt lat="47.560335" lon="8.060984">
        <ele>318.011829</ele>
        <time>2021-11-22T13:21:44.489Z</time>
      </trkpt>
      <trkpt lat="47.560570" lon="8.061926">
        <ele>318.290826</ele>
        <time>2021-11-22T13:21:55.937Z</time>
      </trkpt>
      <trkpt lat="47.560765" lon="8.062729">
        <ele>318.527902</ele>
        <time>2021-11-22T13:22:05.759Z</time>
      </trkpt>
      <trkpt lat="47.560837" lon="8.063012">
        <ele>318.611921</ele>
        <time>2021-11-22T13:22:09.199Z</time>
      </trkpt>
      <trkpt lat="47.560923" lon="8.063368">
        <ele>318.716962</ele>
        <time>2021-11-22T13:22:13.251Z</time>
      </trkpt>
      <trkpt lat="47.561318" lon="8.064977">
        <ele>318.263537</ele>
        <time>2021-11-22T13:22:30.611Z</time>
      </trkpt>
      <trkpt lat="47.561397" lon="8.065301">
        <ele>318.170567</ele>
        <time>2021-11-22T13:22:33.529Z</time>
      </trkpt>
      <trkpt lat="47.561561" lon="8.066376">
        <ele>317.585061</ele>
        <time>2021-11-22T13:22:42.159Z</time>
      </trkpt>
      <trkpt lat="47.561638" lon="8.066880">
        <ele>317.133911</ele>
        <time>2021-11-22T13:22:46.064Z</time>
      </trkpt>
      <trkpt lat="47.561678" lon="8.067656">
        <ele>316.454457</ele>
        <time>2021-11-22T13:22:52.081Z</time>
      </trkpt>
      <trkpt lat="47.561666" lon="8.068004">
        <ele>316.150242</ele>
        <time>2021-11-22T13:22:54.780Z</time>
      </trkpt>
      <trkpt lat="47.561643" lon="8.068242">
        <ele>315.940338</ele>
        <time>2021-11-22T13:22:56.850Z</time>
      </trkpt>
      <trkpt lat="47.561615" lon="8.068423">
        <ele>315.778218</ele>
        <time>2021-11-22T13:22:58.264Z</time>
      </trkpt>
      <trkpt lat="47.561500" lon="8.068915">
        <ele>315.768041</ele>
        <time>2021-11-22T13:23:02.652Z</time>
      </trkpt>
      <trkpt lat="47.561013" lon="8.070908">
        <ele>316.258265</ele>
        <time>2021-11-22T13:23:27.055Z</time>
      </trkpt>
      <trkpt lat="47.560962" lon="8.071117">
        <ele>316.357790</ele>
        <time>2021-11-22T13:23:30.226Z</time>
      </trkpt>
      <trkpt lat="47.560633" lon="8.072459">
        <ele>317.559282</ele>
        <time>2021-11-22T13:23:50.049Z</time>
      </trkpt>
      <trkpt lat="47.560558" lon="8.072793">
        <ele>317.855492</ele>
        <time>2021-11-22T13:23:54.666Z</time>
      </trkpt>
      <trkpt lat="47.560521" lon="8.072788">
        <ele>317.901823</ele>
        <time>2021-11-22T13:23:55.389Z</time>
      </trkpt>
      <trkpt lat="47.560411" lon="8.072914">
        <ele>318.075195</ele>
        <time>2021-11-22T13:23:58.283Z</time>
      </trkpt>
      <trkpt lat="47.560447" lon="8.073113">
        <ele>318.248565</ele>
        <time>2021-11-22T13:24:00.932Z</time>
      </trkpt>
      <trkpt lat="47.560479" lon="8.073142">
        <ele>318.295339</ele>
        <time>2021-11-22T13:24:01.593Z</time>
      </trkpt>
      <trkpt lat="47.560379" lon="8.073391">
        <ele>318.538434</ele>
        <time>2021-11-22T13:24:05.592Z</time>
      </trkpt>
      <trkpt lat="47.559994" lon="8.074697">
        <ele>319.554738</ele>
        <time>2021-11-22T13:24:23.775Z</time>
      </trkpt>
      <trkpt lat="47.559808" lon="8.075182">
        <ele>319.952546</ele>
        <time>2021-11-22T13:24:30.739Z</time>
      </trkpt>
      <trkpt lat="47.559345" lon="8.076106">
        <ele>320.765723</ele>
        <time>2021-11-22T13:24:45.802Z</time>
      </trkpt>
      <trkpt lat="47.557881" lon="8.078672">
        <ele>322.064068</ele>
        <time>2021-11-22T13:25:28.617Z</time>
      </trkpt>
      <trkpt lat="47.557351" lon="8.079829">
        <ele>321.789725</ele>
        <time>2021-11-22T13:25:40.349Z</time>
      </trkpt>
      <trkpt lat="47.556795" lon="8.081398">
        <ele>318.580294</ele>
        <time>2021-11-22T13:25:52.867Z</time>
      </trkpt>
      <trkpt lat="47.556389" lon="8.082983">
        <ele>315.151838</ele>
        <time>2021-11-22T13:26:04.243Z</time>
      </trkpt>
      <trkpt lat="47.556222" lon="8.083826">
        <ele>313.230607</ele>
        <time>2021-11-22T13:26:10.173Z</time>
      </trkpt>
      <trkpt lat="47.555975" lon="8.085736">
        <ele>309.703797</ele>
        <time>2021-11-22T13:26:23.735Z</time>
      </trkpt>
      <trkpt lat="47.555956" lon="8.086948">
        <ele>308.072926</ele>
        <time>2021-11-22T13:26:32.589Z</time>
      </trkpt>
      <trkpt lat="47.555996" lon="8.087531">
        <ele>307.284608</ele>
        <time>2021-11-22T13:26:37.278Z</time>
      </trkpt>
      <trkpt lat="47.556115" lon="8.088303">
        <ele>307.971069</ele>
        <time>2021-11-22T13:26:45.126Z</time>
      </trkpt>
      <trkpt lat="47.556194" lon="8.088670">
        <ele>308.309568</ele>
        <time>2021-11-22T13:26:49.735Z</time>
      </trkpt>
      <trkpt lat="47.556318" lon="8.089138">
        <ele>308.751368</ele>
        <time>2021-11-22T13:26:56.980Z</time>
      </trkpt>
      <trkpt lat="47.556469" lon="8.089601">
        <ele>309.203231</ele>
        <time>2021-11-22T13:27:05.263Z</time>
      </trkpt>
      <trkpt lat="47.556635" lon="8.089990">
        <ele>309.607655</ele>
        <time>2021-11-22T13:27:13.420Z</time>
      </trkpt>
      <trkpt lat="47.557100" lon="8.091003">
        <ele>312.713019</ele>
        <time>2021-11-22T13:27:38.405Z</time>
      </trkpt>
      <trkpt lat="47.558025" lon="8.093156">
        <ele>319.311336</ele>
        <time>2021-11-22T13:28:31.711Z</time>
      </trkpt>
      <trkpt lat="47.558708" lon="8.094584">
        <ele>324.017426</ele>
        <time>2021-11-22T13:29:06.222Z</time>
      </trkpt>
      <trkpt lat="47.558983" lon="8.095144">
        <ele>326.259974</ele>
        <time>2021-11-22T13:29:21.849Z</time>
      </trkpt>
      <trkpt lat="47.559114" lon="8.095409">
        <ele>327.323627</ele>
        <time>2021-11-22T13:29:29.504Z</time>
      </trkpt>
      <trkpt lat="47.559741" lon="8.096682">
        <ele>332.400338</ele>
        <time>2021-11-22T13:30:07.590Z</time>
      </trkpt>
      <trkpt lat="47.560806" lon="8.098488">
        <ele>339.611942</ele>
        <time>2021-11-22T13:31:04.171Z</time>
      </trkpt>
      <trkpt lat="47.560858" lon="8.098563">
        <ele>339.935268</ele>
        <time>2021-11-22T13:31:06.640Z</time>
      </trkpt>
      <trkpt lat="47.561038" lon="8.098829">
        <ele>339.776012</ele>
        <time>2021-11-22T13:31:10.709Z</time>
      </trkpt>
      <trkpt lat="47.561127" lon="8.098951">
        <ele>339.615287</ele>
        <time>2021-11-22T13:31:13.707Z</time>
      </trkpt>
      <trkpt lat="47.561401" lon="8.099329">
        <ele>339.119009</ele>
        <time>2021-11-22T13:31:18.907Z</time>
      </trkpt>
      <trkpt lat="47.562062" lon="8.100032">
        <ele>338.040408</ele>
        <time>2021-11-22T13:31:27.494Z</time>
      </trkpt>
      <trkpt lat="47.562145" lon="8.100120">
        <ele>337.905114</ele>
        <time>2021-11-22T13:31:28.428Z</time>
      </trkpt>
      <trkpt lat="47.562705" lon="8.100521">
        <ele>336.097566</ele>
        <time>2021-11-22T13:31:34.366Z</time>
      </trkpt>
      <trkpt lat="47.563429" lon="8.100948">
        <ele>333.392108</ele>
        <time>2021-11-22T13:31:41.987Z</time>
      </trkpt>
      <trkpt lat="47.563523" lon="8.101003">
        <ele>333.041226</ele>
        <time>2021-11-22T13:31:43.004Z</time>
      </trkpt>
      <trkpt lat="47.563889" lon="8.101212">
        <ele>331.679412</ele>
        <time>2021-11-22T13:31:47.124Z</time>
      </trkpt>
      <trkpt lat="47.564975" lon="8.101846">
        <ele>329.456490</ele>
        <time>2021-11-22T13:32:00.557Z</time>
      </trkpt>
      <trkpt lat="47.566484" lon="8.102674">
        <ele>326.194842</ele>
        <time>2021-11-22T13:32:18.423Z</time>
      </trkpt>
      <trkpt lat="47.566938" lon="8.102829">
        <ele>325.171773</ele>
        <time>2021-11-22T13:32:23.305Z</time>
      </trkpt>
      <trkpt lat="47.567238" lon="8.102932">
        <ele>324.495545</ele>
        <time>2021-11-22T13:32:26.531Z</time>
      </trkpt>
      <trkpt lat="47.567440" lon="8.102984">
        <ele>324.070752</ele>
        <time>2021-11-22T13:32:28.757Z</time>
      </trkpt>
      <trkpt lat="47.567489" lon="8.102996">
        <ele>323.975757</ele>
        <time>2021-11-22T13:32:29.234Z</time>
      </trkpt>
      <trkpt lat="47.568726" lon="8.103272">
        <ele>321.583044</ele>
        <time>2021-11-22T13:32:42.699Z</time>
      </trkpt>
      <trkpt lat="47.569554" lon="8.103339">
        <ele>320.076419</ele>
        <time>2021-11-22T13:32:53.177Z</time>
      </trkpt>
      <trkpt lat="47.569721" lon="8.103339">
        <ele>319.788520</ele>
        <time>2021-11-22T13:32:55.323Z</time>
      </trkpt>
      <trkpt lat="47.569909" lon="8.103355">
        <ele>319.463885</ele>
        <time>2021-11-22T13:32:57.849Z</time>
      </trkpt>
      <trkpt lat="47.570296" lon="8.103576">
        <ele>318.748912</ele>
        <time>2021-11-22T13:33:02.733Z</time>
      </trkpt>
      <trkpt lat="47.570397" lon="8.103700">
        <ele>318.522818</ele>
        <time>2021-11-22T13:33:04.092Z</time>
      </trkpt>
      <trkpt lat="47.570599" lon="8.103936">
        <ele>318.079403</ele>
        <time>2021-11-22T13:33:06.705Z</time>
      </trkpt>
      <trkpt lat="47.570764" lon="8.104113">
        <ele>317.728269</ele>
        <time>2021-11-22T13:33:08.702Z</time>
      </trkpt>
      <trkpt lat="47.570863" lon="8.104203">
        <ele>317.451891</ele>
        <time>2021-11-22T13:33:09.967Z</time>
      </trkpt>
      <trkpt lat="47.571140" lon="8.104418">
        <ele>316.676020</ele>
        <time>2021-11-22T13:33:13.084Z</time>
      </trkpt>
      <trkpt lat="47.571149" lon="8.104460">
        <ele>316.602246</ele>
        <time>2021-11-22T13:33:13.674Z</time>
      </trkpt>
      <trkpt lat="47.571165" lon="8.104498">
        <ele>316.527258</ele>
        <time>2021-11-22T13:33:14.250Z</time>
      </trkpt>
      <trkpt lat="47.571190" lon="8.104530">
        <ele>316.445295</ele>
        <time>2021-11-22T13:33:14.602Z</time>
      </trkpt>
      <trkpt lat="47.571252" lon="8.104556">
        <ele>316.285412</ele>
        <time>2021-11-22T13:33:15.321Z</time>
      </trkpt>
      <trkpt lat="47.571285" lon="8.104547">
        <ele>316.202154</ele>
        <time>2021-11-22T13:33:15.654Z</time>
      </trkpt>
      <trkpt lat="47.571319" lon="8.104520">
        <ele>316.106442</ele>
        <time>2021-11-22T13:33:16.025Z</time>
      </trkpt>
      <trkpt lat="47.571345" lon="8.104476">
        <ele>316.008524</ele>
        <time>2021-11-22T13:33:16.393Z</time>
      </trkpt>
      <trkpt lat="47.571404" lon="8.104462">
        <ele>315.860260</ele>
        <time>2021-11-22T13:33:16.941Z</time>
      </trkpt>
      <trkpt lat="47.571506" lon="8.104457">
        <ele>315.607025</ele>
        <time>2021-11-22T13:33:18.382Z</time>
      </trkpt>
      <trkpt lat="47.571606" lon="8.104456">
        <ele>315.358885</ele>
        <time>2021-11-22T13:33:19.442Z</time>
      </trkpt>
      <trkpt lat="47.571788" lon="8.104486">
        <ele>314.904496</ele>
        <time>2021-11-22T13:33:21.176Z</time>
      </trkpt>
      <trkpt lat="47.572479" lon="8.104559">
        <ele>313.260447</ele>
        <time>2021-11-22T13:33:28.835Z</time>
      </trkpt>
      <trkpt lat="47.573291" lon="8.104448">
        <ele>314.106686</ele>
        <time>2021-11-22T13:33:40.269Z</time>
      </trkpt>
      <trkpt lat="47.573366" lon="8.104434">
        <ele>314.185133</ele>
        <time>2021-11-22T13:33:42.737Z</time>
      </trkpt>
      <trkpt lat="47.573446" lon="8.104418">
        <ele>314.268907</ele>
        <time>2021-11-22T13:33:44.989Z</time>
      </trkpt>
      <trkpt lat="47.573480" lon="8.104411">
        <ele>314.304529</ele>
        <time>2021-11-22T13:33:45.858Z</time>
      </trkpt>
      <trkpt lat="47.573668" lon="8.104380">
        <ele>314.500832</ele>
        <time>2021-11-22T13:33:49.663Z</time>
      </trkpt>
      <trkpt lat="47.573831" lon="8.104354">
        <ele>314.670964</ele>
        <time>2021-11-22T13:33:54.520Z</time>
      </trkpt>
      <trkpt lat="47.574232" lon="8.104312">
        <ele>315.088144</ele>
        <time>2021-11-22T13:34:04.209Z</time>
      </trkpt>
      <trkpt lat="47.574708" lon="8.104323">
        <ele>315.622561</ele>
        <time>2021-11-22T13:34:15.214Z</time>
      </trkpt>
      <trkpt lat="47.574899" lon="8.104362">
        <ele>315.839575</ele>
        <time>2021-11-22T13:34:20.776Z</time>
      </trkpt>
      <trkpt lat="47.575253" lon="8.104463">
        <ele>316.245341</ele>
        <time>2021-11-22T13:34:27.940Z</time>
      </trkpt>
      <trkpt lat="47.576181" lon="8.104949">
        <ele>317.116985</ele>
        <time>2021-11-22T13:34:42.511Z</time>
      </trkpt>
      <trkpt lat="47.576601" lon="8.105189">
        <ele>317.088824</ele>
        <time>2021-11-22T13:34:48.383Z</time>
      </trkpt>
      <trkpt lat="47.576841" lon="8.105315">
        <ele>317.072895</ele>
        <time>2021-11-22T13:34:51.759Z</time>
      </trkpt>
      <trkpt lat="47.577500" lon="8.105730">
        <ele>317.028101</ele>
        <time>2021-11-22T13:35:02.238Z</time>
      </trkpt>
      <trkpt lat="47.578068" lon="8.106263">
        <ele>317.669486</ele>
        <time>2021-11-22T13:35:13.750Z</time>
      </trkpt>
      <trkpt lat="47.578187" lon="8.106429">
        <ele>317.885745</ele>
        <time>2021-11-22T13:35:16.955Z</time>
      </trkpt>
      <trkpt lat="47.578335" lon="8.106654">
        <ele>318.166313</ele>
        <time>2021-11-22T13:35:21.112Z</time>
      </trkpt>
      <trkpt lat="47.579759" lon="8.109482">
        <ele>322.174990</ele>
        <time>2021-11-22T13:36:14.569Z</time>
      </trkpt>
      <trkpt lat="47.579823" lon="8.109617">
        <ele>322.388150</ele>
        <time>2021-11-22T13:36:17.383Z</time>
      </trkpt>
      <trkpt lat="47.579991" lon="8.109948">
        <ele>322.930536</ele>
        <time>2021-11-22T13:36:23.358Z</time>
      </trkpt>
      <trkpt lat="47.580212" lon="8.110399">
        <ele>323.714942</ele>
        <time>2021-11-22T13:36:31.540Z</time>
      </trkpt>
      <trkpt lat="47.580364" lon="8.110708">
        <ele>324.253088</ele>
        <time>2021-11-22T13:36:37.351Z</time>
      </trkpt>
      <trkpt lat="47.580670" lon="8.111332">
        <ele>325.338658</ele>
        <time>2021-11-22T13:36:49.238Z</time>
      </trkpt>
      <trkpt lat="47.581045" lon="8.112180">
        <ele>326.860359</ele>
        <time>2021-11-22T13:37:05.537Z</time>
      </trkpt>
      <trkpt lat="47.581182" lon="8.112552">
        <ele>327.786661</ele>
        <time>2021-11-22T13:37:12.979Z</time>
      </trkpt>
      <trkpt lat="47.581277" lon="8.112870">
        <ele>328.546772</ele>
        <time>2021-11-22T13:37:19.410Z</time>
      </trkpt>
      <trkpt lat="47.581391" lon="8.113276">
        <ele>329.507904</ele>
        <time>2021-11-22T13:37:28.343Z</time>
      </trkpt>
      <trkpt lat="47.581427" lon="8.113428">
        <ele>329.859987</ele>
        <time>2021-11-22T13:37:31.454Z</time>
      </trkpt>
      <trkpt lat="47.581503" lon="8.113781">
        <ele>330.669822</ele>
        <time>2021-11-22T13:37:38.910Z</time>
      </trkpt>
      <trkpt lat="47.581610" lon="8.114392">
        <ele>332.049445</ele>
        <time>2021-11-22T13:37:51.231Z</time>
      </trkpt>
      <trkpt lat="47.581698" lon="8.115075">
        <ele>333.325875</ele>
        <time>2021-11-22T13:38:04.271Z</time>
      </trkpt>
      <trkpt lat="47.581747" lon="8.115421">
        <ele>333.934753</ele>
        <time>2021-11-22T13:38:10.743Z</time>
      </trkpt>
      <trkpt lat="47.581851" lon="8.116146">
        <ele>335.211278</ele>
        <time>2021-11-22T13:38:23.405Z</time>
      </trkpt>
      <trkpt lat="47.582058" lon="8.118074">
        <ele>338.909851</ele>
        <time>2021-11-22T13:38:52.397Z</time>
      </trkpt>
      <trkpt lat="47.581997" lon="8.119489">
        <ele>341.878370</ele>
        <time>2021-11-22T13:39:19.611Z</time>
      </trkpt>
      <trkpt lat="47.581925" lon="8.120891">
        <ele>344.772110</ele>
        <time>2021-11-22T13:39:51.963Z</time>
      </trkpt>
      <trkpt lat="47.581872" lon="8.121939">
        <ele>346.922944</ele>
        <time>2021-11-22T13:40:12.571Z</time>
      </trkpt>
      <trkpt lat="47.581853" lon="8.122293">
        <ele>347.649723</ele>
        <time>2021-11-22T13:40:18.314Z</time>
      </trkpt>
      <trkpt lat="47.581616" lon="8.126107">
        <ele>344.280322</ele>
        <time>2021-11-22T13:40:47.923Z</time>
      </trkpt>
      <trkpt lat="47.581682" lon="8.126961">
        <ele>342.784287</ele>
        <time>2021-11-22T13:40:53.517Z</time>
      </trkpt>
      <trkpt lat="47.581995" lon="8.128036">
        <ele>341.343061</ele>
        <time>2021-11-22T13:41:01.855Z</time>
      </trkpt>
      <trkpt lat="47.582054" lon="8.128175">
        <ele>341.353884</ele>
        <time>2021-11-22T13:41:03.043Z</time>
      </trkpt>
      <trkpt lat="47.582271" lon="8.128732">
        <ele>341.396272</ele>
        <time>2021-11-22T13:41:09.049Z</time>
      </trkpt>
      <trkpt lat="47.582333" lon="8.128926">
        <ele>341.410419</ele>
        <time>2021-11-22T13:41:11.696Z</time>
      </trkpt>
      <trkpt lat="47.582383" lon="8.129121">
        <ele>341.424167</ele>
        <time>2021-11-22T13:41:13.648Z</time>
      </trkpt>
      <trkpt lat="47.582452" lon="8.129518">
        <ele>341.451183</ele>
        <time>2021-11-22T13:41:19.185Z</time>
      </trkpt>
      <trkpt lat="47.582476" lon="8.129918">
        <ele>341.477647</ele>
        <time>2021-11-22T13:41:24.690Z</time>
      </trkpt>
      <trkpt lat="47.582502" lon="8.130347">
        <ele>341.645015</ele>
        <time>2021-11-22T13:41:31.158Z</time>
      </trkpt>
      <trkpt lat="47.582401" lon="8.132729">
        <ele>344.227450</ele>
        <time>2021-11-22T13:42:10.675Z</time>
      </trkpt>
      <trkpt lat="47.582405" lon="8.133220">
        <ele>343.499942</ele>
        <time>2021-11-22T13:42:14.561Z</time>
      </trkpt>
      <trkpt lat="47.582445" lon="8.133813">
        <ele>341.989016</ele>
        <time>2021-11-22T13:42:18.790Z</time>
      </trkpt>
      <trkpt lat="47.582702" lon="8.135441">
        <ele>337.750046</ele>
        <time>2021-11-22T13:42:29.430Z</time>
      </trkpt>
      <trkpt lat="47.583161" lon="8.137044">
        <ele>330.639888</ele>
        <time>2021-11-22T13:42:39.981Z</time>
      </trkpt>
      <trkpt lat="47.583437" lon="8.137880">
        <ele>326.796618</ele>
        <time>2021-11-22T13:42:45.757Z</time>
      </trkpt>
      <trkpt lat="47.583514" lon="8.138100">
        <ele>326.292551</ele>
        <time>2021-11-22T13:42:47.341Z</time>
      </trkpt>
      <trkpt lat="47.583879" lon="8.139148">
        <ele>324.440729</ele>
        <time>2021-11-22T13:42:55.285Z</time>
      </trkpt>
      <trkpt lat="47.584040" lon="8.139585">
        <ele>323.658940</ele>
        <time>2021-11-22T13:42:59.036Z</time>
      </trkpt>
      <trkpt lat="47.584064" lon="8.139642">
        <ele>323.553442</ele>
        <time>2021-11-22T13:42:59.620Z</time>
      </trkpt>
      <trkpt lat="47.585261" lon="8.142529">
        <ele>322.938824</ele>
        <time>2021-11-22T13:43:38.015Z</time>
      </trkpt>
      <trkpt lat="47.585413" lon="8.142895">
        <ele>322.761435</ele>
        <time>2021-11-22T13:43:41.722Z</time>
      </trkpt>
      <trkpt lat="47.585796" lon="8.143867">
        <ele>322.296843</ele>
        <time>2021-11-22T13:43:51.366Z</time>
      </trkpt>
      <trkpt lat="47.585856" lon="8.144060">
        <ele>322.209137</ele>
        <time>2021-11-22T13:43:52.720Z</time>
      </trkpt>
      <trkpt lat="47.585989" lon="8.144423">
        <ele>322.038647</ele>
        <time>2021-11-22T13:43:58.590Z</time>
      </trkpt>
      <trkpt lat="47.586002" lon="8.144470">
        <ele>322.017682</ele>
        <time>2021-11-22T13:43:58.884Z</time>
      </trkpt>
      <trkpt lat="47.586071" lon="8.144677">
        <ele>321.922389</ele>
        <time>2021-11-22T13:44:01.589Z</time>
      </trkpt>
      <trkpt lat="47.586082" lon="8.144714">
        <ele>321.905701</ele>
        <time>2021-11-22T13:44:02.590Z</time>
      </trkpt>
      <trkpt lat="47.586191" lon="8.145057">
        <ele>321.958644</ele>
        <time>2021-11-22T13:44:05.163Z</time>
      </trkpt>
      <trkpt lat="47.586286" lon="8.145363">
        <ele>322.141917</ele>
        <time>2021-11-22T13:44:11.415Z</time>
      </trkpt>
      <trkpt lat="47.586304" lon="8.145415">
        <ele>322.173716</ele>
        <time>2021-11-22T13:44:11.762Z</time>
      </trkpt>
      <trkpt lat="47.586444" lon="8.145833">
        <ele>322.427629</ele>
        <time>2021-11-22T13:44:17.461Z</time>
      </trkpt>
      <trkpt lat="47.586480" lon="8.145943">
        <ele>322.494149</ele>
        <time>2021-11-22T13:44:18.210Z</time>
      </trkpt>
      <trkpt lat="47.586747" lon="8.146748">
        <ele>322.982207</ele>
        <time>2021-11-22T13:44:30.062Z</time>
      </trkpt>
      <trkpt lat="47.586812" lon="8.146941">
        <ele>323.099572</ele>
        <time>2021-11-22T13:44:31.597Z</time>
      </trkpt>
      <trkpt lat="47.586874" lon="8.147126">
        <ele>323.211963</ele>
        <time>2021-11-22T13:44:37.316Z</time>
      </trkpt>
      <trkpt lat="47.587271" lon="8.148318">
        <ele>327.142106</ele>
        <time>2021-11-22T13:45:04.559Z</time>
      </trkpt>
      <trkpt lat="47.587348" lon="8.148547">
        <ele>327.973657</ele>
        <time>2021-11-22T13:45:10.979Z</time>
      </trkpt>
      <trkpt lat="47.587422" lon="8.148776">
        <ele>328.798859</ele>
        <time>2021-11-22T13:45:16.760Z</time>
      </trkpt>
      <trkpt lat="47.587515" lon="8.149064">
        <ele>329.836530</ele>
        <time>2021-11-22T13:45:25.938Z</time>
      </trkpt>
      <trkpt lat="47.587893" lon="8.150269">
        <ele>334.398033</ele>
        <time>2021-11-22T13:46:00.886Z</time>
      </trkpt>
      <trkpt lat="47.588139" lon="8.151059">
        <ele>337.537929</ele>
        <time>2021-11-22T13:46:24.798Z</time>
      </trkpt>
      <trkpt lat="47.588281" lon="8.151539">
        <ele>339.429306</ele>
        <time>2021-11-22T13:46:37.188Z</time>
      </trkpt>
      <trkpt lat="47.588498" lon="8.152664">
        <ele>341.549587</ele>
        <time>2021-11-22T13:47:01.504Z</time>
      </trkpt>
      <trkpt lat="47.588556" lon="8.153527">
        <ele>341.503649</ele>
        <time>2021-11-22T13:47:11.021Z</time>
      </trkpt>
      <trkpt lat="47.588564" lon="8.154322">
        <ele>341.461535</ele>
        <time>2021-11-22T13:47:17.248Z</time>
      </trkpt>
      <trkpt lat="47.588527" lon="8.156347">
        <ele>337.723795</ele>
        <time>2021-11-22T13:47:30.548Z</time>
      </trkpt>
      <trkpt lat="47.588525" lon="8.156604">
        <ele>337.125312</ele>
        <time>2021-11-22T13:47:32.185Z</time>
      </trkpt>
      <trkpt lat="47.588519" lon="8.157044">
        <ele>336.100530</ele>
        <time>2021-11-22T13:47:35.033Z</time>
      </trkpt>
      <trkpt lat="47.588513" lon="8.157629">
        <ele>335.292822</ele>
        <time>2021-11-22T13:47:39.019Z</time>
      </trkpt>
      <trkpt lat="47.588496" lon="8.162682">
        <ele>337.784004</ele>
        <time>2021-11-22T13:48:47.115Z</time>
      </trkpt>
      <trkpt lat="47.588650" lon="8.165152">
        <ele>336.493649</ele>
        <time>2021-11-22T13:49:08.234Z</time>
      </trkpt>
      <trkpt lat="47.588804" lon="8.166249">
        <ele>335.378614</ele>
        <time>2021-11-22T13:49:16.410Z</time>
      </trkpt>
      <trkpt lat="47.588886" lon="8.166773">
        <ele>334.773117</ele>
        <time>2021-11-22T13:49:20.412Z</time>
      </trkpt>
      <trkpt lat="47.588936" lon="8.167065">
        <ele>334.434007</ele>
        <time>2021-11-22T13:49:22.636Z</time>
      </trkpt>
      <trkpt lat="47.589090" lon="8.168074">
        <ele>333.393790</ele>
        <time>2021-11-22T13:49:30.425Z</time>
      </trkpt>
      <trkpt lat="47.589109" lon="8.168214">
        <ele>333.482296</ele>
        <time>2021-11-22T13:49:31.747Z</time>
      </trkpt>
      <trkpt lat="47.589149" lon="8.168412">
        <ele>333.610397</ele>
        <time>2021-11-22T13:49:33.406Z</time>
      </trkpt>
      <trkpt lat="47.589265" lon="8.169049">
        <ele>334.019324</ele>
        <time>2021-11-22T13:49:40.852Z</time>
      </trkpt>
      <trkpt lat="47.589280" lon="8.169122">
        <ele>334.066620</ele>
        <time>2021-11-22T13:49:42.015Z</time>
      </trkpt>
      <trkpt lat="47.589338" lon="8.169503">
        <ele>334.308690</ele>
        <time>2021-11-22T13:49:47.899Z</time>
      </trkpt>
      <trkpt lat="47.589422" lon="8.169985">
        <ele>334.617227</ele>
        <time>2021-11-22T13:49:55.386Z</time>
      </trkpt>
      <trkpt lat="47.589432" lon="8.170029">
        <ele>334.646003</ele>
        <time>2021-11-22T13:49:56.064Z</time>
      </trkpt>
      <trkpt lat="47.589507" lon="8.170514">
        <ele>334.954387</ele>
        <time>2021-11-22T13:50:03.884Z</time>
      </trkpt>
      <trkpt lat="47.589603" lon="8.171150">
        <ele>335.701160</ele>
        <time>2021-11-22T13:50:13.863Z</time>
      </trkpt>
      <trkpt lat="47.589628" lon="8.171343">
        <ele>335.940324</ele>
        <time>2021-11-22T13:50:16.920Z</time>
      </trkpt>
      <trkpt lat="47.589692" lon="8.171703">
        <ele>336.393391</ele>
        <time>2021-11-22T13:50:22.700Z</time>
      </trkpt>
      <trkpt lat="47.589753" lon="8.172071">
        <ele>336.854555</ele>
        <time>2021-11-22T13:50:28.499Z</time>
      </trkpt>
      <trkpt lat="47.589801" lon="8.172357">
        <ele>337.213217</ele>
        <time>2021-11-22T13:50:33.249Z</time>
      </trkpt>
      <trkpt lat="47.589842" lon="8.172596">
        <ele>337.513328</ele>
        <time>2021-11-22T13:50:36.950Z</time>
      </trkpt>
      <trkpt lat="47.589911" lon="8.172969">
        <ele>337.984013</ele>
        <time>2021-11-22T13:50:42.692Z</time>
      </trkpt>
      <trkpt lat="47.589945" lon="8.173167">
        <ele>338.232656</ele>
        <time>2021-11-22T13:50:45.428Z</time>
      </trkpt>
      <trkpt lat="47.589995" lon="8.173477">
        <ele>338.308643</ele>
        <time>2021-11-22T13:50:49.406Z</time>
      </trkpt>
      <trkpt lat="47.590136" lon="8.174144">
        <ele>338.447184</ele>
        <time>2021-11-22T13:50:57.205Z</time>
      </trkpt>
      <trkpt lat="47.590475" lon="8.175043">
        <ele>338.651325</ele>
        <time>2021-11-22T13:51:07.782Z</time>
      </trkpt>
      <trkpt lat="47.590554" lon="8.175213">
        <ele>338.692242</ele>
        <time>2021-11-22T13:51:09.668Z</time>
      </trkpt>
      <trkpt lat="47.590635" lon="8.175360">
        <ele>338.729865</ele>
        <time>2021-11-22T13:51:11.483Z</time>
      </trkpt>
      <trkpt lat="47.590744" lon="8.175552">
        <ele>338.773371</ele>
        <time>2021-11-22T13:51:13.818Z</time>
      </trkpt>
      <trkpt lat="47.590930" lon="8.175838">
        <ele>338.691917</ele>
        <time>2021-11-22T13:51:17.547Z</time>
      </trkpt>
      <trkpt lat="47.591008" lon="8.175967">
        <ele>338.656397</ele>
        <time>2021-11-22T13:51:19.124Z</time>
      </trkpt>
      <trkpt lat="47.591166" lon="8.176206">
        <ele>338.587786</ele>
        <time>2021-11-22T13:51:22.236Z</time>
      </trkpt>
      <trkpt lat="47.591425" lon="8.176628">
        <ele>338.470809</ele>
        <time>2021-11-22T13:51:27.440Z</time>
      </trkpt>
      <trkpt lat="47.591644" lon="8.176933">
        <ele>338.379477</ele>
        <time>2021-11-22T13:51:31.488Z</time>
      </trkpt>
      <trkpt lat="47.592085" lon="8.177634">
        <ele>338.196237</ele>
        <time>2021-11-22T13:51:40.493Z</time>
      </trkpt>
      <trkpt lat="47.592319" lon="8.178029">
        <ele>338.119036</ele>
        <time>2021-11-22T13:51:45.400Z</time>
      </trkpt>
      <trkpt lat="47.592663" lon="8.178556">
        <ele>338.011342</ele>
        <time>2021-11-22T13:51:52.300Z</time>
      </trkpt>
      <trkpt lat="47.592911" lon="8.178948">
        <ele>337.932419</ele>
        <time>2021-11-22T13:51:57.366Z</time>
      </trkpt>
      <trkpt lat="47.593072" lon="8.179196">
        <ele>337.881873</ele>
        <time>2021-11-22T13:52:00.606Z</time>
      </trkpt>
      <trkpt lat="47.593290" lon="8.179537">
        <ele>337.828162</ele>
        <time>2021-11-22T13:52:05.121Z</time>
      </trkpt>
      <trkpt lat="47.593528" lon="8.179877">
        <ele>337.799699</ele>
        <time>2021-11-22T13:52:10.160Z</time>
      </trkpt>
      <trkpt lat="47.594251" lon="8.181042">
        <ele>337.707740</ele>
        <time>2021-11-22T13:52:25.431Z</time>
      </trkpt>
      <trkpt lat="47.594489" lon="8.181402">
        <ele>337.699887</ele>
        <time>2021-11-22T13:52:30.532Z</time>
      </trkpt>
      <trkpt lat="47.594745" lon="8.181822">
        <ele>337.814029</ele>
        <time>2021-11-22T13:52:36.373Z</time>
      </trkpt>
      <trkpt lat="47.594892" lon="8.182058">
        <ele>337.878801</ele>
        <time>2021-11-22T13:52:39.615Z</time>
      </trkpt>
      <trkpt lat="47.595054" lon="8.182304">
        <ele>337.948124</ele>
        <time>2021-11-22T13:52:43.318Z</time>
      </trkpt>
      <trkpt lat="47.596697" lon="8.184867">
        <ele>338.939147</ele>
        <time>2021-11-22T13:53:23.239Z</time>
      </trkpt>
      <trkpt lat="47.597000" lon="8.185370">
        <ele>339.154666</ele>
        <time>2021-11-22T13:53:30.960Z</time>
      </trkpt>
      <trkpt lat="47.596938" lon="8.185482">
        <ele>339.197477</ele>
        <time>2021-11-22T13:53:33.160Z</time>
      </trkpt>
      <trkpt lat="47.597012" lon="8.185560">
        <ele>339.237253</ele>
        <time>2021-11-22T13:53:35.273Z</time>
      </trkpt>
      <trkpt lat="47.597982" lon="8.187154">
        <ele>339.871583</ele>
        <time>2021-11-22T13:54:07.182Z</time>
      </trkpt>
      <trkpt lat="47.600058" lon="8.190356">
        <ele>340.803691</ele>
        <time>2021-11-22T13:55:11.323Z</time>
      </trkpt>
      <trkpt lat="47.600345" lon="8.190820">
        <ele>340.932615</ele>
        <time>2021-11-22T13:55:20.233Z</time>
      </trkpt>
      <trkpt lat="47.600674" lon="8.191319">
        <ele>341.153755</ele>
        <time>2021-11-22T13:55:29.973Z</time>
      </trkpt>
      <trkpt lat="47.602403" lon="8.194101">
        <ele>344.146075</ele>
        <time>2021-11-22T13:56:28.842Z</time>
      </trkpt>
      <trkpt lat="47.602615" lon="8.194384">
        <ele>344.726889</ele>
        <time>2021-11-22T13:56:37.651Z</time>
      </trkpt>
      <trkpt lat="47.603133" lon="8.195213">
        <ele>347.301240</ele>
        <time>2021-11-22T13:57:04.441Z</time>
      </trkpt>
      <trkpt lat="47.603974" lon="8.196465">
        <ele>354.410347</ele>
        <time>2021-11-22T13:57:56.947Z</time>
      </trkpt>
      <trkpt lat="47.604665" lon="8.197287">
        <ele>360.068826</ele>
        <time>2021-11-22T13:58:43.781Z</time>
      </trkpt>
      <trkpt lat="47.605085" lon="8.197676">
        <ele>363.366370</ele>
        <time>2021-11-22T13:59:08.358Z</time>
      </trkpt>
      <trkpt lat="47.605470" lon="8.197979">
        <ele>366.268859</ele>
        <time>2021-11-22T13:59:28.731Z</time>
      </trkpt>
      <trkpt lat="47.605578" lon="8.198061">
        <ele>367.076842</ele>
        <time>2021-11-22T13:59:33.767Z</time>
      </trkpt>
      <trkpt lat="47.605678" lon="8.198198">
        <ele>367.983412</ele>
        <time>2021-11-22T13:59:39.365Z</time>
      </trkpt>
      <trkpt lat="47.605728" lon="8.198238">
        <ele>368.361734</ele>
        <time>2021-11-22T13:59:41.986Z</time>
      </trkpt>
      <trkpt lat="47.606094" lon="8.198320">
        <ele>369.170610</ele>
        <time>2021-11-22T13:59:56.477Z</time>
      </trkpt>
      <trkpt lat="47.607787" lon="8.199125">
        <ele>371.830838</ele>
        <time>2021-11-22T14:00:40.038Z</time>
      </trkpt>
      <trkpt lat="47.608382" lon="8.199409">
        <ele>371.398767</ele>
        <time>2021-11-22T14:00:50.985Z</time>
      </trkpt>
      <trkpt lat="47.608444" lon="8.199426">
        <ele>371.355183</ele>
        <time>2021-11-22T14:00:52.080Z</time>
      </trkpt>
      <trkpt lat="47.608496" lon="8.199444">
        <ele>371.318272</ele>
        <time>2021-11-22T14:00:52.968Z</time>
      </trkpt>
      <trkpt lat="47.608542" lon="8.199411">
        <ele>371.282950</ele>
        <time>2021-11-22T14:00:53.696Z</time>
      </trkpt>
      <trkpt lat="47.608784" lon="8.199573">
        <ele>371.099417</ele>
        <time>2021-11-22T14:00:57.073Z</time>
      </trkpt>
      <trkpt lat="47.609495" lon="8.200308">
        <ele>370.150920</ele>
        <time>2021-11-22T14:01:06.909Z</time>
      </trkpt>
      <trkpt lat="47.609836" lon="8.200853">
        <ele>369.424510</ele>
        <time>2021-11-22T14:01:12.784Z</time>
      </trkpt>
      <trkpt lat="47.609983" lon="8.201179">
        <ele>369.041353</ele>
        <time>2021-11-22T14:01:15.970Z</time>
      </trkpt>
      <trkpt lat="47.610537" lon="8.202824">
        <ele>367.335916</ele>
        <time>2021-11-22T14:01:30.044Z</time>
      </trkpt>
      <trkpt lat="47.611231" lon="8.205135">
        <ele>365.329647</ele>
        <time>2021-11-22T14:01:50.512Z</time>
      </trkpt>
      <trkpt lat="47.611400" lon="8.205901">
        <ele>364.836469</ele>
        <time>2021-11-22T14:01:57.558Z</time>
      </trkpt>
      <trkpt lat="47.611471" lon="8.206640">
        <ele>364.379707</ele>
        <time>2021-11-22T14:02:04.020Z</time>
      </trkpt>
      <trkpt lat="47.611452" lon="8.207267">
        <ele>363.813238</ele>
        <time>2021-11-22T14:02:09.453Z</time>
      </trkpt>
      <trkpt lat="47.611077" lon="8.210742">
        <ele>358.633907</ele>
        <time>2021-11-22T14:02:35.745Z</time>
      </trkpt>
      <trkpt lat="47.610919" lon="8.211491">
        <ele>356.944382</ele>
        <time>2021-11-22T14:02:40.961Z</time>
      </trkpt>
      <trkpt lat="47.610861" lon="8.211762">
        <ele>356.332285</ele>
        <time>2021-11-22T14:02:42.806Z</time>
      </trkpt>
      <trkpt lat="47.610756" lon="8.212079">
        <ele>355.571932</ele>
        <time>2021-11-22T14:02:45.086Z</time>
      </trkpt>
      <trkpt lat="47.610441" lon="8.212945">
        <ele>352.192154</ele>
        <time>2021-11-22T14:02:51.322Z</time>
      </trkpt>
      <trkpt lat="47.610145" lon="8.213773">
        <ele>348.935607</ele>
        <time>2021-11-22T14:02:57.187Z</time>
      </trkpt>
      <trkpt lat="47.609901" lon="8.214425">
        <ele>346.344423</ele>
        <time>2021-11-22T14:03:01.876Z</time>
      </trkpt>
      <trkpt lat="47.609160" lon="8.216342">
        <ele>338.746073</ele>
        <time>2021-11-22T14:03:16.013Z</time>
      </trkpt>
      <trkpt lat="47.608362" lon="8.218459">
        <ele>329.138519</ele>
        <time>2021-11-22T14:03:31.064Z</time>
      </trkpt>
      <trkpt lat="47.608306" lon="8.218670">
        <ele>328.210325</ele>
        <time>2021-11-22T14:03:32.419Z</time>
      </trkpt>
      <trkpt lat="47.608137" lon="8.219283">
        <ele>325.583061</ele>
        <time>2021-11-22T14:03:36.485Z</time>
      </trkpt>
      <trkpt lat="47.607919" lon="8.220106">
        <ele>322.432509</ele>
        <time>2021-11-22T14:03:41.904Z</time>
      </trkpt>
      <trkpt lat="47.607777" lon="8.220574">
        <ele>320.603934</ele>
        <time>2021-11-22T14:03:45.096Z</time>
      </trkpt>
      <trkpt lat="47.607566" lon="8.221007">
        <ele>318.700350</ele>
        <time>2021-11-22T14:03:48.509Z</time>
      </trkpt>
      <trkpt lat="47.607397" lon="8.221215">
        <ele>317.539778</ele>
        <time>2021-11-22T14:03:50.627Z</time>
      </trkpt>
      <trkpt lat="47.607239" lon="8.221350">
        <ele>316.617150</ele>
        <time>2021-11-22T14:03:52.465Z</time>
      </trkpt>
      <trkpt lat="47.606920" lon="8.221521">
        <ele>315.987724</ele>
        <time>2021-11-22T14:03:55.904Z</time>
      </trkpt>
      <trkpt lat="47.606437" lon="8.221655">
        <ele>315.075901</ele>
        <time>2021-11-22T14:04:01.191Z</time>
      </trkpt>
      <trkpt lat="47.606313" lon="8.221699">
        <ele>314.839307</ele>
        <time>2021-11-22T14:04:02.592Z</time>
      </trkpt>
      <trkpt lat="47.606170" lon="8.221766">
        <ele>314.561024</ele>
        <time>2021-11-22T14:04:04.359Z</time>
      </trkpt>
      <trkpt lat="47.606051" lon="8.221847">
        <ele>314.318058</ele>
        <time>2021-11-22T14:04:05.794Z</time>
      </trkpt>
      <trkpt lat="47.605876" lon="8.222038">
        <ele>313.914871</ele>
        <time>2021-11-22T14:04:08.579Z</time>
      </trkpt>
      <trkpt lat="47.605725" lon="8.222306">
        <ele>313.477902</ele>
        <time>2021-11-22T14:04:11.660Z</time>
      </trkpt>
      <trkpt lat="47.604714" lon="8.224208">
        <ele>313.682311</ele>
        <time>2021-11-22T14:04:36.733Z</time>
      </trkpt>
      <trkpt lat="47.604319" lon="8.224936">
        <ele>314.408256</ele>
        <time>2021-11-22T14:04:49.017Z</time>
      </trkpt>
      <trkpt lat="47.604139" lon="8.225315">
        <ele>314.967898</ele>
        <time>2021-11-22T14:04:55.161Z</time>
      </trkpt>
      <trkpt lat="47.603930" lon="8.226026">
        <ele>315.904248</ele>
        <time>2021-11-22T14:05:06.295Z</time>
      </trkpt>
      <trkpt lat="47.603853" lon="8.226391">
        <ele>316.365944</ele>
        <time>2021-11-22T14:05:12.235Z</time>
      </trkpt>
      <trkpt lat="47.603794" lon="8.226701">
        <ele>316.754804</ele>
        <time>2021-11-22T14:05:17.809Z</time>
      </trkpt>
      <trkpt lat="47.603695" lon="8.227213">
        <ele>318.028493</ele>
        <time>2021-11-22T14:05:27.290Z</time>
      </trkpt>
      <trkpt lat="47.603657" lon="8.227409">
        <ele>318.635270</ele>
        <time>2021-11-22T14:05:30.956Z</time>
      </trkpt>
      <trkpt lat="47.603606" lon="8.227642">
        <ele>319.364115</ele>
        <time>2021-11-22T14:05:36.779Z</time>
      </trkpt>
      <trkpt lat="47.603515" lon="8.227950">
        <ele>320.364609</ele>
        <time>2021-11-22T14:05:43.406Z</time>
      </trkpt>
      <trkpt lat="47.603300" lon="8.228507">
        <ele>322.274173</ele>
        <time>2021-11-22T14:05:58.666Z</time>
      </trkpt>
      <trkpt lat="47.603288" lon="8.228537">
        <ele>322.377956</ele>
        <time>2021-11-22T14:06:00.310Z</time>
      </trkpt>
      <trkpt lat="47.603270" lon="8.228758">
        <ele>323.040269</ele>
        <time>2021-11-22T14:06:05.534Z</time>
      </trkpt>
      <trkpt lat="47.603340" lon="8.228899">
        <ele>323.561229</ele>
        <time>2021-11-22T14:06:09.569Z</time>
      </trkpt>
      <trkpt lat="47.603540" lon="8.229090">
        <ele>324.610891</ele>
        <time>2021-11-22T14:06:19.409Z</time>
      </trkpt>
      <trkpt lat="47.603676" lon="8.229162">
        <ele>325.050904</ele>
        <time>2021-11-22T14:06:23.912Z</time>
      </trkpt>
      <trkpt lat="47.603753" lon="8.229233">
        <ele>325.221754</ele>
        <time>2021-11-22T14:06:28.340Z</time>
      </trkpt>
      <trkpt lat="47.604460" lon="8.229811">
        <ele>326.742974</ele>
        <time>2021-11-22T14:06:51.247Z</time>
      </trkpt>
      <trkpt lat="47.604846" lon="8.230126">
        <ele>327.573162</ele>
        <time>2021-11-22T14:06:58.771Z</time>
      </trkpt>
      <trkpt lat="47.605278" lon="8.230558">
        <ele>327.731567</ele>
        <time>2021-11-22T14:07:04.965Z</time>
      </trkpt>
      <trkpt lat="47.605586" lon="8.230908">
        <ele>326.162805</ele>
        <time>2021-11-22T14:07:08.877Z</time>
      </trkpt>
      <trkpt lat="47.605832" lon="8.231231">
        <ele>324.834459</ele>
        <time>2021-11-22T14:07:12.046Z</time>
      </trkpt>
      <trkpt lat="47.606365" lon="8.231998">
        <ele>321.831893</ele>
        <time>2021-11-22T14:07:18.913Z</time>
      </trkpt>
      <trkpt lat="47.606443" lon="8.232162">
        <ele>321.284800</ele>
        <time>2021-11-22T14:07:20.223Z</time>
      </trkpt>
      <trkpt lat="47.606511" lon="8.232341">
        <ele>320.837971</ele>
        <time>2021-11-22T14:07:21.476Z</time>
      </trkpt>
      <trkpt lat="47.606487" lon="8.232374">
        <ele>320.756214</ele>
        <time>2021-11-22T14:07:21.968Z</time>
      </trkpt>
      <trkpt lat="47.606474" lon="8.232560">
        <ele>320.441249</ele>
        <time>2021-11-22T14:07:23.736Z</time>
      </trkpt>
      <trkpt lat="47.606493" lon="8.232600">
        <ele>320.358834</ele>
        <time>2021-11-22T14:07:24.272Z</time>
      </trkpt>
      <trkpt lat="47.606512" lon="8.232623">
        <ele>320.297566</ele>
        <time>2021-11-22T14:07:24.612Z</time>
      </trkpt>
      <trkpt lat="47.606556" lon="8.232650">
        <ele>320.178609</ele>
        <time>2021-11-22T14:07:25.264Z</time>
      </trkpt>
      <trkpt lat="47.606580" lon="8.232653">
        <ele>320.118440</ele>
        <time>2021-11-22T14:07:25.591Z</time>
      </trkpt>
      <trkpt lat="47.606616" lon="8.232643">
        <ele>320.026941</ele>
        <time>2021-11-22T14:07:26.069Z</time>
      </trkpt>
      <trkpt lat="47.606648" lon="8.232617">
        <ele>319.935790</ele>
        <time>2021-11-22T14:07:26.558Z</time>
      </trkpt>
      <trkpt lat="47.606823" lon="8.232670">
        <ele>319.489584</ele>
        <time>2021-11-22T14:07:28.455Z</time>
      </trkpt>
      <trkpt lat="47.606960" lon="8.232821">
        <ele>319.063177</ele>
        <time>2021-11-22T14:07:30.147Z</time>
      </trkpt>
      <trkpt lat="47.607086" lon="8.232988">
        <ele>318.641038</ele>
        <time>2021-11-22T14:07:32.046Z</time>
      </trkpt>
      <trkpt lat="47.607150" lon="8.233085">
        <ele>318.412443</ele>
        <time>2021-11-22T14:07:33.107Z</time>
      </trkpt>
      <trkpt lat="47.607235" lon="8.233204">
        <ele>318.120442</ele>
        <time>2021-11-22T14:07:34.278Z</time>
      </trkpt>
      <trkpt lat="47.607290" lon="8.233281">
        <ele>317.931501</ele>
        <time>2021-11-22T14:07:35.231Z</time>
      </trkpt>
      <trkpt lat="47.607378" lon="8.233411">
        <ele>317.621220</ele>
        <time>2021-11-22T14:07:37.029Z</time>
      </trkpt>
      <trkpt lat="47.607868" lon="8.234044">
        <ele>316.404538</ele>
        <time>2021-11-22T14:07:45.339Z</time>
      </trkpt>
      <trkpt lat="47.607909" lon="8.234097">
        <ele>316.372951</ele>
        <time>2021-11-22T14:07:46.050Z</time>
      </trkpt>
      <trkpt lat="47.608011" lon="8.234223">
        <ele>316.295854</ele>
        <time>2021-11-22T14:07:47.759Z</time>
      </trkpt>
      <trkpt lat="47.608120" lon="8.234362">
        <ele>316.212366</ele>
        <time>2021-11-22T14:07:49.672Z</time>
      </trkpt>
      <trkpt lat="47.608177" lon="8.234438">
        <ele>316.167850</ele>
        <time>2021-11-22T14:07:50.736Z</time>
      </trkpt>
      <trkpt lat="47.608311" lon="8.234618">
        <ele>316.062850</ele>
        <time>2021-11-22T14:07:53.104Z</time>
      </trkpt>
      <trkpt lat="47.608468" lon="8.234814">
        <ele>315.943664</ele>
        <time>2021-11-22T14:07:55.911Z</time>
      </trkpt>
      <trkpt lat="47.608541" lon="8.234934">
        <ele>315.880375</ele>
        <time>2021-11-22T14:07:57.263Z</time>
      </trkpt>
      <trkpt lat="47.608611" lon="8.235019">
        <ele>315.827832</ele>
        <time>2021-11-22T14:07:58.491Z</time>
      </trkpt>
      <trkpt lat="47.608915" lon="8.235317">
        <ele>315.616193</ele>
        <time>2021-11-22T14:08:03.277Z</time>
      </trkpt>
      <trkpt lat="47.608981" lon="8.235372">
        <ele>315.572225</ele>
        <time>2021-11-22T14:08:04.483Z</time>
      </trkpt>
      <trkpt lat="47.609179" lon="8.235505">
        <ele>315.439373</ele>
        <time>2021-11-22T14:08:07.163Z</time>
      </trkpt>
      <trkpt lat="47.609250" lon="8.235549">
        <ele>315.386713</ele>
        <time>2021-11-22T14:08:08.196Z</time>
      </trkpt>
      <trkpt lat="47.609532" lon="8.235715">
        <ele>315.179083</ele>
        <time>2021-11-22T14:08:12.088Z</time>
      </trkpt>
      <trkpt lat="47.609674" lon="8.235805">
        <ele>315.073405</ele>
        <time>2021-11-22T14:08:14.201Z</time>
      </trkpt>
      <trkpt lat="47.609747" lon="8.235833">
        <ele>315.021804</ele>
        <time>2021-11-22T14:08:15.049Z</time>
      </trkpt>
      <trkpt lat="47.609882" lon="8.235962">
        <ele>314.911904</ele>
        <time>2021-11-22T14:08:17.116Z</time>
      </trkpt>
      <trkpt lat="47.610430" lon="8.236623">
        <ele>314.428530</ele>
        <time>2021-11-22T14:08:25.703Z</time>
      </trkpt>
      <trkpt lat="47.610558" lon="8.236822">
        <ele>314.301633</ele>
        <time>2021-11-22T14:08:28.076Z</time>
      </trkpt>
      <trkpt lat="47.610707" lon="8.237095">
        <ele>314.386973</ele>
        <time>2021-11-22T14:08:31.429Z</time>
      </trkpt>
      <trkpt lat="47.610953" lon="8.237735">
        <ele>314.794083</ele>
        <time>2021-11-22T14:08:39.152Z</time>
      </trkpt>
      <trkpt lat="47.610970" lon="8.237822">
        <ele>314.844138</ele>
        <time>2021-11-22T14:08:40.246Z</time>
      </trkpt>
      <trkpt lat="47.611080" lon="8.238371">
        <ele>315.160631</ele>
        <time>2021-11-22T14:08:47.206Z</time>
      </trkpt>
      <trkpt lat="47.611101" lon="8.238566">
        <ele>315.269754</ele>
        <time>2021-11-22T14:08:49.763Z</time>
      </trkpt>
      <trkpt lat="47.611280" lon="8.240830">
        <ele>318.722348</ele>
        <time>2021-11-22T14:09:24.492Z</time>
      </trkpt>
      <trkpt lat="47.611603" lon="8.243064">
        <ele>324.531661</ele>
        <time>2021-11-22T14:10:14.597Z</time>
      </trkpt>
      <trkpt lat="47.611638" lon="8.243831">
        <ele>326.906026</ele>
        <time>2021-11-22T14:10:33.273Z</time>
      </trkpt>
      <trkpt lat="47.611712" lon="8.245081">
        <ele>330.057777</ele>
        <time>2021-11-22T14:11:00.828Z</time>
      </trkpt>
      <trkpt lat="47.611844" lon="8.245949">
        <ele>331.291999</ele>
        <time>2021-11-22T14:11:17.871Z</time>
      </trkpt>
      <trkpt lat="47.612843" lon="8.250766">
        <ele>333.607894</ele>
        <time>2021-11-22T14:12:12.209Z</time>
      </trkpt>
      <trkpt lat="47.613807" lon="8.253962">
        <ele>332.518908</ele>
        <time>2021-11-22T14:12:44.153Z</time>
      </trkpt>
      <trkpt lat="47.613951" lon="8.254567">
        <ele>332.187343</ele>
        <time>2021-11-22T14:12:49.176Z</time>
      </trkpt>
      <trkpt lat="47.614014" lon="8.254922">
        <ele>332.073057</ele>
        <time>2021-11-22T14:12:52.011Z</time>
      </trkpt>
      <trkpt lat="47.614051" lon="8.255386">
        <ele>332.014394</ele>
        <time>2021-11-22T14:12:55.506Z</time>
      </trkpt>
      <trkpt lat="47.614060" lon="8.256224">
        <ele>331.909168</ele>
        <time>2021-11-22T14:13:01.773Z</time>
      </trkpt>
      <trkpt lat="47.613995" lon="8.256687">
        <ele>331.849790</ele>
        <time>2021-11-22T14:13:07.229Z</time>
      </trkpt>
      <trkpt lat="47.613717" lon="8.257487">
        <ele>332.250094</ele>
        <time>2021-11-22T14:13:20.137Z</time>
      </trkpt>
      <trkpt lat="47.613412" lon="8.257877">
        <ele>333.685784</ele>
        <time>2021-11-22T14:13:32.933Z</time>
      </trkpt>
      <trkpt lat="47.613336" lon="8.257965">
        <ele>334.029530</ele>
        <time>2021-11-22T14:13:35.930Z</time>
      </trkpt>
      <trkpt lat="47.613117" lon="8.258125">
        <ele>334.899916</ele>
        <time>2021-11-22T14:13:43.545Z</time>
      </trkpt>
      <trkpt lat="47.612429" lon="8.258419">
        <ele>337.452659</ele>
        <time>2021-11-22T14:14:05.443Z</time>
      </trkpt>
      <trkpt lat="47.612281" lon="8.258565">
        <ele>338.086371</ele>
        <time>2021-11-22T14:14:11.628Z</time>
      </trkpt>
      <trkpt lat="47.611977" lon="8.258860">
        <ele>339.028219</ele>
        <time>2021-11-22T14:14:22.854Z</time>
      </trkpt>
      <trkpt lat="47.611012" lon="8.260011">
        <ele>342.150054</ele>
        <time>2021-11-22T14:14:51.349Z</time>
      </trkpt>
      <trkpt lat="47.609290" lon="8.261782">
        <ele>346.951654</ele>
        <time>2021-11-22T14:15:38.489Z</time>
      </trkpt>
      <trkpt lat="47.608587" lon="8.262859">
        <ele>350.938215</ele>
        <time>2021-11-22T14:16:11.852Z</time>
      </trkpt>
      <trkpt lat="47.608165" lon="8.263895">
        <ele>353.867233</ele>
        <time>2021-11-22T14:16:38.359Z</time>
      </trkpt>
      <trkpt lat="47.607926" lon="8.264843">
        <ele>354.635585</ele>
        <time>2021-11-22T14:16:55.948Z</time>
      </trkpt>
      <trkpt lat="47.607820" lon="8.265587">
        <ele>355.212873</ele>
        <time>2021-11-22T14:17:05.711Z</time>
      </trkpt>
      <trkpt lat="47.607705" lon="8.267602">
        <ele>352.606273</ele>
        <time>2021-11-22T14:17:20.643Z</time>
      </trkpt>
      <trkpt lat="47.607609" lon="8.268126">
        <ele>351.260779</ele>
        <time>2021-11-22T14:17:24.120Z</time>
      </trkpt>
      <trkpt lat="47.607416" lon="8.268768">
        <ele>349.518997</ele>
        <time>2021-11-22T14:17:28.526Z</time>
      </trkpt>
      <trkpt lat="47.607110" lon="8.269442">
        <ele>346.623429</ele>
        <time>2021-11-22T14:17:33.592Z</time>
      </trkpt>
      <trkpt lat="47.606983" lon="8.269721">
        <ele>345.346198</ele>
        <time>2021-11-22T14:17:35.656Z</time>
      </trkpt>
      <trkpt lat="47.606647" lon="8.270192">
        <ele>342.744524</ele>
        <time>2021-11-22T14:17:39.911Z</time>
      </trkpt>
      <trkpt lat="47.606345" lon="8.270519">
        <ele>340.640343</ele>
        <time>2021-11-22T14:17:43.375Z</time>
      </trkpt>
      <trkpt lat="47.605635" lon="8.270975">
        <ele>337.205357</ele>
        <time>2021-11-22T14:17:50.641Z</time>
      </trkpt>
      <trkpt lat="47.605210" lon="8.271131">
        <ele>335.562509</ele>
        <time>2021-11-22T14:17:54.941Z</time>
      </trkpt>
      <trkpt lat="47.605088" lon="8.271177">
        <ele>335.090165</ele>
        <time>2021-11-22T14:17:56.160Z</time>
      </trkpt>
      <trkpt lat="47.604800" lon="8.271344">
        <ele>333.929840</ele>
        <time>2021-11-22T14:17:59.293Z</time>
      </trkpt>
      <trkpt lat="47.604440" lon="8.271786">
        <ele>332.280397</ele>
        <time>2021-11-22T14:18:04.057Z</time>
      </trkpt>
      <trkpt lat="47.603956" lon="8.273121">
        <ele>331.800009</ele>
        <time>2021-11-22T14:18:16.278Z</time>
      </trkpt>
      <trkpt lat="47.603675" lon="8.273498">
        <ele>331.621901</ele>
        <time>2021-11-22T14:18:22.989Z</time>
      </trkpt>
      <trkpt lat="47.603357" lon="8.273732">
        <ele>331.455038</ele>
        <time>2021-11-22T14:18:29.860Z</time>
      </trkpt>
      <trkpt lat="47.602936" lon="8.274007">
        <ele>331.937829</ele>
        <time>2021-11-22T14:18:39.420Z</time>
      </trkpt>
      <trkpt lat="47.602741" lon="8.274225">
        <ele>332.203199</ele>
        <time>2021-11-22T14:18:44.809Z</time>
      </trkpt>
      <trkpt lat="47.602566" lon="8.274466">
        <ele>332.462720</ele>
        <time>2021-11-22T14:18:50.030Z</time>
      </trkpt>
      <trkpt lat="47.602143" lon="8.275196">
        <ele>333.168006</ele>
        <time>2021-11-22T14:19:03.069Z</time>
      </trkpt>
      <trkpt lat="47.601955" lon="8.275513">
        <ele>333.304370</ele>
        <time>2021-11-22T14:19:07.887Z</time>
      </trkpt>
      <trkpt lat="47.601704" lon="8.275902">
        <ele>332.762304</ele>
        <time>2021-11-22T14:19:12.651Z</time>
      </trkpt>
      <trkpt lat="47.601473" lon="8.276369">
        <ele>332.179190</ele>
        <time>2021-11-22T14:19:17.109Z</time>
      </trkpt>
      <trkpt lat="47.601458" lon="8.276430">
        <ele>332.113819</ele>
        <time>2021-11-22T14:19:17.532Z</time>
      </trkpt>
      <trkpt lat="47.601369" lon="8.276800">
        <ele>331.718314</ele>
        <time>2021-11-22T14:19:20.738Z</time>
      </trkpt>
      <trkpt lat="47.601324" lon="8.277028">
        <ele>331.479134</ele>
        <time>2021-11-22T14:19:22.341Z</time>
      </trkpt>
      <trkpt lat="47.601215" lon="8.277426">
        <ele>331.046641</ele>
        <time>2021-11-22T14:19:25.436Z</time>
      </trkpt>
      <trkpt lat="47.601167" lon="8.277540">
        <ele>330.911327</ele>
        <time>2021-11-22T14:19:26.455Z</time>
      </trkpt>
      <trkpt lat="47.601040" lon="8.277855">
        <ele>330.472687</ele>
        <time>2021-11-22T14:19:29.004Z</time>
      </trkpt>
      <trkpt lat="47.600762" lon="8.278295">
        <ele>329.628600</ele>
        <time>2021-11-22T14:19:33.224Z</time>
      </trkpt>
      <trkpt lat="47.600663" lon="8.278494">
        <ele>329.282411</ele>
        <time>2021-11-22T14:19:35.221Z</time>
      </trkpt>
      <trkpt lat="47.600625" lon="8.278613">
        <ele>329.098090</ele>
        <time>2021-11-22T14:19:36.168Z</time>
      </trkpt>
      <trkpt lat="47.600606" lon="8.278687">
        <ele>328.987243</ele>
        <time>2021-11-22T14:19:36.660Z</time>
      </trkpt>
      <trkpt lat="47.600430" lon="8.279503">
        <ele>327.787925</ele>
        <time>2021-11-22T14:19:43.346Z</time>
      </trkpt>
      <trkpt lat="47.600326" lon="8.279743">
        <ele>327.388557</ele>
        <time>2021-11-22T14:19:45.385Z</time>
      </trkpt>
      <trkpt lat="47.600093" lon="8.280323">
        <ele>326.542652</ele>
        <time>2021-11-22T14:19:50.610Z</time>
      </trkpt>
      <trkpt lat="47.599805" lon="8.280928">
        <ele>325.695910</ele>
        <time>2021-11-22T14:19:56.154Z</time>
      </trkpt>
      <trkpt lat="47.599542" lon="8.281454">
        <ele>324.947200</ele>
        <time>2021-11-22T14:20:00.950Z</time>
      </trkpt>
      <trkpt lat="47.598817" lon="8.282737">
        <ele>323.631210</ele>
        <time>2021-11-22T14:20:14.173Z</time>
      </trkpt>
      <trkpt lat="47.598604" lon="8.282997">
        <ele>323.473629</ele>
        <time>2021-11-22T14:20:17.468Z</time>
      </trkpt>
      <trkpt lat="47.598314" lon="8.283280">
        <ele>323.275332</ele>
        <time>2021-11-22T14:20:22.032Z</time>
      </trkpt>
      <trkpt lat="47.598019" lon="8.283508">
        <ele>323.085315</ele>
        <time>2021-11-22T14:20:26.663Z</time>
      </trkpt>
      <trkpt lat="47.596767" lon="8.284214">
        <ele>323.906497</ele>
        <time>2021-11-22T14:20:50.322Z</time>
      </trkpt>
      <trkpt lat="47.596337" lon="8.284551">
        <ele>324.378955</ele>
        <time>2021-11-22T14:21:00.053Z</time>
      </trkpt>
      <trkpt lat="47.596176" lon="8.284718">
        <ele>324.569817</ele>
        <time>2021-11-22T14:21:04.017Z</time>
      </trkpt>
      <trkpt lat="47.596026" lon="8.284885">
        <ele>324.883440</ele>
        <time>2021-11-22T14:21:07.737Z</time>
      </trkpt>
      <trkpt lat="47.595890" lon="8.285064">
        <ele>325.298888</ele>
        <time>2021-11-22T14:21:11.694Z</time>
      </trkpt>
      <trkpt lat="47.595744" lon="8.285248">
        <ele>325.736637</ele>
        <time>2021-11-22T14:21:16.213Z</time>
      </trkpt>
      <trkpt lat="47.595704" lon="8.285300">
        <ele>325.858168</ele>
        <time>2021-11-22T14:21:17.369Z</time>
      </trkpt>
      <trkpt lat="47.595577" lon="8.285479">
        <ele>326.258472</ele>
        <time>2021-11-22T14:21:21.119Z</time>
      </trkpt>
      <trkpt lat="47.595025" lon="8.286365">
        <ele>328.116911</ele>
        <time>2021-11-22T14:21:42.020Z</time>
      </trkpt>
      <trkpt lat="47.594969" lon="8.286496">
        <ele>328.355877</ele>
        <time>2021-11-22T14:21:45.090Z</time>
      </trkpt>
      <trkpt lat="47.594935" lon="8.286467">
        <ele>328.445488</ele>
        <time>2021-11-22T14:21:46.225Z</time>
      </trkpt>
      <trkpt lat="47.594822" lon="8.286483">
        <ele>328.704828</ele>
        <time>2021-11-22T14:21:48.737Z</time>
      </trkpt>
      <trkpt lat="47.594792" lon="8.286521">
        <ele>328.795831</ele>
        <time>2021-11-22T14:21:49.636Z</time>
      </trkpt>
      <trkpt lat="47.594718" lon="8.286430">
        <ele>329.021593</ele>
        <time>2021-11-22T14:21:52.230Z</time>
      </trkpt>
      <trkpt lat="47.594584" lon="8.286293">
        <ele>329.403821</ele>
        <time>2021-11-22T14:21:56.633Z</time>
      </trkpt>
      <trkpt lat="47.594407" lon="8.286225">
        <ele>329.833208</ele>
        <time>2021-11-22T14:22:00.755Z</time>
      </trkpt>
      <trkpt lat="47.594331" lon="8.286227">
        <ele>330.011713</ele>
        <time>2021-11-22T14:22:02.982Z</time>
      </trkpt>
      <trkpt lat="47.594240" lon="8.286249">
        <ele>330.228238</ele>
        <time>2021-11-22T14:22:05.327Z</time>
      </trkpt>
      <trkpt lat="47.594000" lon="8.286503">
        <ele>330.920675</ele>
        <time>2021-11-22T14:22:12.474Z</time>
      </trkpt>
      <trkpt lat="47.593476" lon="8.287491">
        <ele>332.911291</ele>
        <time>2021-11-22T14:22:32.740Z</time>
      </trkpt>
      <trkpt lat="47.593101" lon="8.288210">
        <ele>333.787423</ele>
        <time>2021-11-22T14:22:45.850Z</time>
      </trkpt>
      <trkpt lat="47.592736" lon="8.288920">
        <ele>334.616831</ele>
        <time>2021-11-22T14:22:57.783Z</time>
      </trkpt>
      <trkpt lat="47.592571" lon="8.289200">
        <ele>334.962278</ele>
        <time>2021-11-22T14:23:02.708Z</time>
      </trkpt>
      <trkpt lat="47.592438" lon="8.289378">
        <ele>335.209090</ele>
        <time>2021-11-22T14:23:06.142Z</time>
      </trkpt>
      <trkpt lat="47.592438" lon="8.289378">
        <ele>335.209090</ele>
        <time>2021-11-22T14:23:06.188Z</time>
      </trkpt>
      <trkpt lat="47.592438" lon="8.289378">
        <ele>335.209090</ele>
        <time>2021-11-22T14:23:06.233Z</time>
      </trkpt>
      <trkpt lat="47.592318" lon="8.289474">
        <ele>335.396925</ele>
        <time>2021-11-22T14:23:08.769Z</time>
      </trkpt>
      <trkpt lat="47.592208" lon="8.289565">
        <ele>335.563677</ele>
        <time>2021-11-22T14:23:10.963Z</time>
      </trkpt>
      <trkpt lat="47.592085" lon="8.289646">
        <ele>335.737085</ele>
        <time>2021-11-22T14:23:13.538Z</time>
      </trkpt>
      <trkpt lat="47.591871" lon="8.289770">
        <ele>336.033123</ele>
        <time>2021-11-22T14:23:17.767Z</time>
      </trkpt>
      <trkpt lat="47.591732" lon="8.289850">
        <ele>336.225239</ele>
        <time>2021-11-22T14:23:20.893Z</time>
      </trkpt>
      <trkpt lat="47.591353" lon="8.290077">
        <ele>336.751903</ele>
        <time>2021-11-22T14:23:29.108Z</time>
      </trkpt>
      <trkpt lat="47.591285" lon="8.290115">
        <ele>336.845535</ele>
        <time>2021-11-22T14:23:30.452Z</time>
      </trkpt>
      <trkpt lat="47.590971" lon="8.290292">
        <ele>337.278365</ele>
        <time>2021-11-22T14:23:37.512Z</time>
      </trkpt>
      <trkpt lat="47.590830" lon="8.290418">
        <ele>337.490482</ele>
        <time>2021-11-22T14:23:40.755Z</time>
      </trkpt>
      <trkpt lat="47.590791" lon="8.290459">
        <ele>337.552081</ele>
        <time>2021-11-22T14:23:41.765Z</time>
      </trkpt>
      <trkpt lat="47.590745" lon="8.290506">
        <ele>337.624059</ele>
        <time>2021-11-22T14:23:43.036Z</time>
      </trkpt>
      <trkpt lat="47.590626" lon="8.290661">
        <ele>337.839602</ele>
        <time>2021-11-22T14:23:46.204Z</time>
      </trkpt>
      <trkpt lat="47.590420" lon="8.290963">
        <ele>338.308155</ele>
        <time>2021-11-22T14:23:52.330Z</time>
      </trkpt>
      <trkpt lat="47.589950" lon="8.291436">
        <ele>339.226914</ele>
        <time>2021-11-22T14:24:04.104Z</time>
      </trkpt>
      <trkpt lat="47.589791" lon="8.291590">
        <ele>339.534092</ele>
        <time>2021-11-22T14:24:08.392Z</time>
      </trkpt>
      <trkpt lat="47.589719" lon="8.291671">
        <ele>339.680274</ele>
        <time>2021-11-22T14:24:10.237Z</time>
      </trkpt>
      <trkpt lat="47.589661" lon="8.291749">
        <ele>339.806924</ele>
        <time>2021-11-22T14:24:11.872Z</time>
      </trkpt>
      <trkpt lat="47.589392" lon="8.292079">
        <ele>340.371628</ele>
        <time>2021-11-22T14:24:19.812Z</time>
      </trkpt>
      <trkpt lat="47.589081" lon="8.292511">
        <ele>340.937313</ele>
        <time>2021-11-22T14:24:28.987Z</time>
      </trkpt>
      <trkpt lat="47.588953" lon="8.292728">
        <ele>341.146301</ele>
        <time>2021-11-22T14:24:32.954Z</time>
      </trkpt>
      <trkpt lat="47.588913" lon="8.292796">
        <ele>341.211713</ele>
        <time>2021-11-22T14:24:34.253Z</time>
      </trkpt>
      <trkpt lat="47.588718" lon="8.293127">
        <ele>341.530320</ele>
        <time>2021-11-22T14:24:40.448Z</time>
      </trkpt>
      <trkpt lat="47.588655" lon="8.293248">
        <ele>341.641136</ele>
        <time>2021-11-22T14:24:42.840Z</time>
      </trkpt>
      <trkpt lat="47.588574" lon="8.293403">
        <ele>341.783285</ele>
        <time>2021-11-22T14:24:45.267Z</time>
      </trkpt>
      <trkpt lat="47.588502" lon="8.293536">
        <ele>341.906920</ele>
        <time>2021-11-22T14:24:47.218Z</time>
      </trkpt>
      <trkpt lat="47.588478" lon="8.293617">
        <ele>341.971058</ele>
        <time>2021-11-22T14:24:48.207Z</time>
      </trkpt>
      <trkpt lat="47.588443" lon="8.293617">
        <ele>342.008678</ele>
        <time>2021-11-22T14:24:49.208Z</time>
      </trkpt>
      <trkpt lat="47.588282" lon="8.293628">
        <ele>342.181916</ele>
        <time>2021-11-22T14:24:52.006Z</time>
      </trkpt>
      <trkpt lat="47.587750" lon="8.293308">
        <ele>342.517184</ele>
        <time>2021-11-22T14:25:01.698Z</time>
      </trkpt>
      <trkpt lat="47.587721" lon="8.293310">
        <ele>342.497627</ele>
        <time>2021-11-22T14:25:02.498Z</time>
      </trkpt>
      <trkpt lat="47.587722" lon="8.293330">
        <ele>342.488515</ele>
        <time>2021-11-22T14:25:02.639Z</time>
      </trkpt>
      <trkpt lat="47.587625" lon="8.293573">
        <ele>342.360222</ele>
        <time>2021-11-22T14:25:04.923Z</time>
      </trkpt>
      <trkpt lat="47.587504" lon="8.293846">
        <ele>342.211801</ele>
        <time>2021-11-22T14:25:08.037Z</time>
      </trkpt>
      <trkpt lat="47.587360" lon="8.294138">
        <ele>342.047451</ele>
        <time>2021-11-22T14:25:10.983Z</time>
      </trkpt>
      <trkpt lat="47.587045" lon="8.294658">
        <ele>341.729887</ele>
        <time>2021-11-22T14:25:16.798Z</time>
      </trkpt>
      <trkpt lat="47.586793" lon="8.295010">
        <ele>341.496658</ele>
        <time>2021-11-22T14:25:21.075Z</time>
      </trkpt>
      <trkpt lat="47.586748" lon="8.295061">
        <ele>341.458502</ele>
        <time>2021-11-22T14:25:21.680Z</time>
      </trkpt>
      <trkpt lat="47.586566" lon="8.295313">
        <ele>341.200239</ele>
        <time>2021-11-22T14:25:24.705Z</time>
      </trkpt>
      <trkpt lat="47.586514" lon="8.295413">
        <ele>341.100779</ele>
        <time>2021-11-22T14:25:25.727Z</time>
      </trkpt>
      <trkpt lat="47.586485" lon="8.295476">
        <ele>341.040699</ele>
        <time>2021-11-22T14:25:26.282Z</time>
      </trkpt>
      <trkpt lat="47.586222" lon="8.296172">
        <ele>340.412296</ele>
        <time>2021-11-22T14:25:32.564Z</time>
      </trkpt>
      <trkpt lat="47.586124" lon="8.296426">
        <ele>340.181802</ele>
        <time>2021-11-22T14:25:34.856Z</time>
      </trkpt>
      <trkpt lat="47.586051" lon="8.296617">
        <ele>340.008878</ele>
        <time>2021-11-22T14:25:36.617Z</time>
      </trkpt>
      <trkpt lat="47.585980" lon="8.296808">
        <ele>339.837093</ele>
        <time>2021-11-22T14:25:38.403Z</time>
      </trkpt>
      <trkpt lat="47.585950" lon="8.296889">
        <ele>339.764304</ele>
        <time>2021-11-22T14:25:39.107Z</time>
      </trkpt>
      <trkpt lat="47.585758" lon="8.297376">
        <ele>339.319972</ele>
        <time>2021-11-22T14:25:43.756Z</time>
      </trkpt>
      <trkpt lat="47.585705" lon="8.297501">
        <ele>339.195394</ele>
        <time>2021-11-22T14:25:45.002Z</time>
      </trkpt>
      <trkpt lat="47.585519" lon="8.297997">
        <ele>338.714709</ele>
        <time>2021-11-22T14:25:50.107Z</time>
      </trkpt>
      <trkpt lat="47.585459" lon="8.298176">
        <ele>338.545403</ele>
        <time>2021-11-22T14:25:51.880Z</time>
      </trkpt>
      <trkpt lat="47.585399" lon="8.298333">
        <ele>338.392558</ele>
        <time>2021-11-22T14:25:53.463Z</time>
      </trkpt>
      <trkpt lat="47.585335" lon="8.298493">
        <ele>338.234996</ele>
        <time>2021-11-22T14:25:55.038Z</time>
      </trkpt>
      <trkpt lat="47.585214" lon="8.298789">
        <ele>337.941826</ele>
        <time>2021-11-22T14:25:57.819Z</time>
      </trkpt>
      <trkpt lat="47.584934" lon="8.299472">
        <ele>337.264834</ele>
        <time>2021-11-22T14:26:03.933Z</time>
      </trkpt>
      <trkpt lat="47.584880" lon="8.299689">
        <ele>337.068919</ele>
        <time>2021-11-22T14:26:05.529Z</time>
      </trkpt>
      <trkpt lat="47.584895" lon="8.299939">
        <ele>336.687125</ele>
        <time>2021-11-22T14:26:07.458Z</time>
      </trkpt>
      <trkpt lat="47.584929" lon="8.300127">
        <ele>336.381764</ele>
        <time>2021-11-22T14:26:08.900Z</time>
      </trkpt>
      <trkpt lat="47.585029" lon="8.300672">
        <ele>335.495670</ele>
        <time>2021-11-22T14:26:12.993Z</time>
      </trkpt>
      <trkpt lat="47.585075" lon="8.300924">
        <ele>335.086099</ele>
        <time>2021-11-22T14:26:14.931Z</time>
      </trkpt>
      <trkpt lat="47.585289" lon="8.301436">
        <ele>334.141131</ele>
        <time>2021-11-22T14:26:19.319Z</time>
      </trkpt>
      <trkpt lat="47.585341" lon="8.301559">
        <ele>333.913392</ele>
        <time>2021-11-22T14:26:20.401Z</time>
      </trkpt>
      <trkpt lat="47.585344" lon="8.301615">
        <ele>333.825261</ele>
        <time>2021-11-22T14:26:20.750Z</time>
      </trkpt>
      <trkpt lat="47.585343" lon="8.301691">
        <ele>333.706006</ele>
        <time>2021-11-22T14:26:21.253Z</time>
      </trkpt>
      <trkpt lat="47.585246" lon="8.301988">
        <ele>333.188312</ele>
        <time>2021-11-22T14:26:23.682Z</time>
      </trkpt>
      <trkpt lat="47.585020" lon="8.302336">
        <ele>332.375292</ele>
        <time>2021-11-22T14:26:27.033Z</time>
      </trkpt>
      <trkpt lat="47.584675" lon="8.302750">
        <ele>331.213824</ele>
        <time>2021-11-22T14:26:31.629Z</time>
      </trkpt>
      <trkpt lat="47.584106" lon="8.303408">
        <ele>329.325472</ele>
        <time>2021-11-22T14:26:39.177Z</time>
      </trkpt>
      <trkpt lat="47.583795" lon="8.303805">
        <ele>328.251535</ele>
        <time>2021-11-22T14:26:43.576Z</time>
      </trkpt>
      <trkpt lat="47.583671" lon="8.303943">
        <ele>327.928617</ele>
        <time>2021-11-22T14:26:45.145Z</time>
      </trkpt>
      <trkpt lat="47.583523" lon="8.304130">
        <ele>327.551948</ele>
        <time>2021-11-22T14:26:47.337Z</time>
      </trkpt>
      <trkpt lat="47.583330" lon="8.304399">
        <ele>327.038833</ele>
        <time>2021-11-22T14:26:50.114Z</time>
      </trkpt>
      <trkpt lat="47.583199" lon="8.304600">
        <ele>326.673652</ele>
        <time>2021-11-22T14:26:52.189Z</time>
      </trkpt>
      <trkpt lat="47.583199" lon="8.304600">
        <ele>326.673652</ele>
        <time>2021-11-22T14:26:52.190Z</time>
      </trkpt>
      <trkpt lat="47.583129" lon="8.304706">
        <ele>326.479832</ele>
        <time>2021-11-22T14:26:53.235Z</time>
      </trkpt>
      <trkpt lat="47.583035" lon="8.304851">
        <ele>326.217068</ele>
        <time>2021-11-22T14:26:54.832Z</time>
      </trkpt>
      <trkpt lat="47.582919" lon="8.305012">
        <ele>325.909273</ele>
        <time>2021-11-22T14:26:56.551Z</time>
      </trkpt>
      <trkpt lat="47.582830" lon="8.305110">
        <ele>325.694529</ele>
        <time>2021-11-22T14:26:57.782Z</time>
      </trkpt>
      <trkpt lat="47.582540" lon="8.305337">
        <ele>325.059300</ele>
        <time>2021-11-22T14:27:01.469Z</time>
      </trkpt>
      <trkpt lat="47.582260" lon="8.305439">
        <ele>324.640878</ele>
        <time>2021-11-22T14:27:04.965Z</time>
      </trkpt>
      <trkpt lat="47.581924" lon="8.305548">
        <ele>324.493728</ele>
        <time>2021-11-22T14:27:09.098Z</time>
      </trkpt>
      <trkpt lat="47.581818" lon="8.305598">
        <ele>324.446139</ele>
        <time>2021-11-22T14:27:10.444Z</time>
      </trkpt>
      <trkpt lat="47.581641" lon="8.305806">
        <ele>324.349509</ele>
        <time>2021-11-22T14:27:13.404Z</time>
      </trkpt>
      <trkpt lat="47.581578" lon="8.306090">
        <ele>324.263233</ele>
        <time>2021-11-22T14:27:16.128Z</time>
      </trkpt>
      <trkpt lat="47.581592" lon="8.306205">
        <ele>324.229509</ele>
        <time>2021-11-22T14:27:17.231Z</time>
      </trkpt>
      <trkpt lat="47.581629" lon="8.306307">
        <ele>324.196088</ele>
        <time>2021-11-22T14:27:18.458Z</time>
      </trkpt>
      <trkpt lat="47.582021" lon="8.306927">
        <ele>323.950856</ele>
        <time>2021-11-22T14:27:27.447Z</time>
      </trkpt>
      <trkpt lat="47.582006" lon="8.306969">
        <ele>323.937142</ele>
        <time>2021-11-22T14:27:27.881Z</time>
      </trkpt>
      <trkpt lat="47.582002" lon="8.307015">
        <ele>323.923757</ele>
        <time>2021-11-22T14:27:28.341Z</time>
      </trkpt>
      <trkpt lat="47.582007" lon="8.307061">
        <ele>323.912362</ele>
        <time>2021-11-22T14:27:28.818Z</time>
      </trkpt>
      <trkpt lat="47.582022" lon="8.307102">
        <ele>323.934590</ele>
        <time>2021-11-22T14:27:29.330Z</time>
      </trkpt>
      <trkpt lat="47.582045" lon="8.307134">
        <ele>323.956875</ele>
        <time>2021-11-22T14:27:29.834Z</time>
      </trkpt>
      <trkpt lat="47.581836" lon="8.307521">
        <ele>324.193135</ele>
        <time>2021-11-22T14:27:35.159Z</time>
      </trkpt>
      <trkpt lat="47.581642" lon="8.307841">
        <ele>324.398178</ele>
        <time>2021-11-22T14:27:39.972Z</time>
      </trkpt>
      <trkpt lat="47.581488" lon="8.308069">
        <ele>324.551946</ele>
        <time>2021-11-22T14:27:43.831Z</time>
      </trkpt>
      <trkpt lat="47.581381" lon="8.308222">
        <ele>324.656977</ele>
        <time>2021-11-22T14:27:46.328Z</time>
      </trkpt>
      <trkpt lat="47.581263" lon="8.308384">
        <ele>324.770603</ele>
        <time>2021-11-22T14:27:49.315Z</time>
      </trkpt>
      <trkpt lat="47.581094" lon="8.308614">
        <ele>324.932686</ele>
        <time>2021-11-22T14:27:53.387Z</time>
      </trkpt>
      <trkpt lat="47.580917" lon="8.308850">
        <ele>325.100877</ele>
        <time>2021-11-22T14:27:57.944Z</time>
      </trkpt>
      <trkpt lat="47.579912" lon="8.310195">
        <ele>327.457009</ele>
        <time>2021-11-22T14:28:26.439Z</time>
      </trkpt>
      <trkpt lat="47.579280" lon="8.311055">
        <ele>329.234263</ele>
        <time>2021-11-22T14:28:47.973Z</time>
      </trkpt>
      <trkpt lat="47.578237" lon="8.312418">
        <ele>332.729065</ele>
        <time>2021-11-22T14:29:23.849Z</time>
      </trkpt>
      <trkpt lat="47.577230" lon="8.313774">
        <ele>334.545835</ele>
        <time>2021-11-22T14:29:53.132Z</time>
      </trkpt>
      <trkpt lat="47.577015" lon="8.314083">
        <ele>334.914816</ele>
        <time>2021-11-22T14:29:57.899Z</time>
      </trkpt>
      <trkpt lat="47.576896" lon="8.314255">
        <ele>335.119607</ele>
        <time>2021-11-22T14:30:00.299Z</time>
      </trkpt>
      <trkpt lat="47.576703" lon="8.314547">
        <ele>335.145384</ele>
        <time>2021-11-22T14:30:04.126Z</time>
      </trkpt>
      <trkpt lat="47.576652" lon="8.314624">
        <ele>335.117000</ele>
        <time>2021-11-22T14:30:05.126Z</time>
      </trkpt>
      <trkpt lat="47.576568" lon="8.314750">
        <ele>335.070406</ele>
        <time>2021-11-22T14:30:06.766Z</time>
      </trkpt>
      <trkpt lat="47.576495" lon="8.314860">
        <ele>335.029819</ele>
        <time>2021-11-22T14:30:08.174Z</time>
      </trkpt>
      <trkpt lat="47.576260" lon="8.315214">
        <ele>334.899184</ele>
        <time>2021-11-22T14:30:12.706Z</time>
      </trkpt>
      <trkpt lat="47.575642" lon="8.315919">
        <ele>334.595130</ele>
        <time>2021-11-22T14:30:22.819Z</time>
      </trkpt>
      <trkpt lat="47.575120" lon="8.316530">
        <ele>334.581304</ele>
        <time>2021-11-22T14:30:31.540Z</time>
      </trkpt>
      <trkpt lat="47.574755" lon="8.316956">
        <ele>334.642150</ele>
        <time>2021-11-22T14:30:38.258Z</time>
      </trkpt>
      <trkpt lat="47.574672" lon="8.317053">
        <ele>334.655993</ele>
        <time>2021-11-22T14:30:40.032Z</time>
      </trkpt>
      <trkpt lat="47.574451" lon="8.317295">
        <ele>334.691980</ele>
        <time>2021-11-22T14:30:44.556Z</time>
      </trkpt>
      <trkpt lat="47.573284" lon="8.318609">
        <ele>335.659275</ele>
        <time>2021-11-22T14:31:11.373Z</time>
      </trkpt>
      <trkpt lat="47.572687" lon="8.319346">
        <ele>336.373714</ele>
        <time>2021-11-22T14:31:26.259Z</time>
      </trkpt>
      <trkpt lat="47.572444" lon="8.319790">
        <ele>336.625940</ele>
        <time>2021-11-22T14:31:33.284Z</time>
      </trkpt>
      <trkpt lat="47.572258" lon="8.320190">
        <ele>336.830614</ele>
        <time>2021-11-22T14:31:39.111Z</time>
      </trkpt>
      <trkpt lat="47.572208" lon="8.320305">
        <ele>336.888254</ele>
        <time>2021-11-22T14:31:40.714Z</time>
      </trkpt>
      <trkpt lat="47.571854" lon="8.321128">
        <ele>337.299468</ele>
        <time>2021-11-22T14:31:51.941Z</time>
      </trkpt>
      <trkpt lat="47.571495" lon="8.321929">
        <ele>337.567580</ele>
        <time>2021-11-22T14:32:02.606Z</time>
      </trkpt>
      <trkpt lat="47.570903" lon="8.323402">
        <ele>337.715448</ele>
        <time>2021-11-22T14:32:20.132Z</time>
      </trkpt>
      <trkpt lat="47.570746" lon="8.324033">
        <ele>337.734832</ele>
        <time>2021-11-22T14:32:26.750Z</time>
      </trkpt>
      <trkpt lat="47.570615" lon="8.324938">
        <ele>337.539958</ele>
        <time>2021-11-22T14:32:35.605Z</time>
      </trkpt>
      <trkpt lat="47.570567" lon="8.325388">
        <ele>337.444038</ele>
        <time>2021-11-22T14:32:39.830Z</time>
      </trkpt>
      <trkpt lat="47.570344" lon="8.327679">
        <ele>336.922450</ele>
        <time>2021-11-22T14:33:00.669Z</time>
      </trkpt>
      <trkpt lat="47.570148" lon="8.329561">
        <ele>336.667967</ele>
        <time>2021-11-22T14:33:18.280Z</time>
      </trkpt>
      <trkpt lat="47.569945" lon="8.331447">
        <ele>337.180768</ele>
        <time>2021-11-22T14:33:39.448Z</time>
      </trkpt>
      <trkpt lat="47.569841" lon="8.332389">
        <ele>337.889064</ele>
        <time>2021-11-22T14:33:51.816Z</time>
      </trkpt>
      <trkpt lat="47.569747" lon="8.333347">
        <ele>338.881964</ele>
        <time>2021-11-22T14:34:05.321Z</time>
      </trkpt>
      <trkpt lat="47.569734" lon="8.333607">
        <ele>339.149362</ele>
        <time>2021-11-22T14:34:09.186Z</time>
      </trkpt>
      <trkpt lat="47.569685" lon="8.334534">
        <ele>340.102502</ele>
        <time>2021-11-22T14:34:23.426Z</time>
      </trkpt>
      <trkpt lat="47.569621" lon="8.335708">
        <ele>341.303390</ele>
        <time>2021-11-22T14:34:41.371Z</time>
      </trkpt>
      <trkpt lat="47.569563" lon="8.337000">
        <ele>342.623601</ele>
        <time>2021-11-22T14:34:58.688Z</time>
      </trkpt>
      <trkpt lat="47.569540" lon="8.337703">
        <ele>342.784835</ele>
        <time>2021-11-22T14:35:07.356Z</time>
      </trkpt>
      <trkpt lat="47.569526" lon="8.339098">
        <ele>342.914435</ele>
        <time>2021-11-22T14:35:21.989Z</time>
      </trkpt>
      <trkpt lat="47.569517" lon="8.339689">
        <ele>342.969348</ele>
        <time>2021-11-22T14:35:27.168Z</time>
      </trkpt>
      <trkpt lat="47.569380" lon="8.342646">
        <ele>341.857969</ele>
        <time>2021-11-22T14:35:52.503Z</time>
      </trkpt>
      <trkpt lat="47.569350" lon="8.343555">
        <ele>342.066756</ele>
        <time>2021-11-22T14:36:01.374Z</time>
      </trkpt>
      <trkpt lat="47.569296" lon="8.344960">
        <ele>342.389607</ele>
        <time>2021-11-22T14:36:18.082Z</time>
      </trkpt>
      <trkpt lat="47.569288" lon="8.345992">
        <ele>343.205306</ele>
        <time>2021-11-22T14:36:32.275Z</time>
      </trkpt>
      <trkpt lat="47.569286" lon="8.346589">
        <ele>343.725222</ele>
        <time>2021-11-22T14:36:40.623Z</time>
      </trkpt>
      <trkpt lat="47.569284" lon="8.346782">
        <ele>343.893320</ele>
        <time>2021-11-22T14:36:43.404Z</time>
      </trkpt>
      <trkpt lat="47.569266" lon="8.347784">
        <ele>344.763458</ele>
        <time>2021-11-22T14:36:56.827Z</time>
      </trkpt>
      <trkpt lat="47.569258" lon="8.348128">
        <ele>345.030245</ele>
        <time>2021-11-22T14:37:01.319Z</time>
      </trkpt>
      <trkpt lat="47.569248" lon="8.348519">
        <ele>345.333520</ele>
        <time>2021-11-22T14:37:06.456Z</time>
      </trkpt>
      <trkpt lat="47.569202" lon="8.349358">
        <ele>345.985958</ele>
        <time>2021-11-22T14:37:17.621Z</time>
      </trkpt>
      <trkpt lat="47.569070" lon="8.350270">
        <ele>346.708917</ele>
        <time>2021-11-22T14:37:29.864Z</time>
      </trkpt>
      <trkpt lat="47.568975" lon="8.350827">
        <ele>347.009357</ele>
        <time>2021-11-22T14:37:37.054Z</time>
      </trkpt>
      <trkpt lat="47.568888" lon="8.351175">
        <ele>347.176933</ele>
        <time>2021-11-22T14:37:41.896Z</time>
      </trkpt>
      <trkpt lat="47.568593" lon="8.352495">
        <ele>347.804813</ele>
        <time>2021-11-22T14:37:58.959Z</time>
      </trkpt>
      <trkpt lat="47.568488" lon="8.353622">
        <ele>347.746831</ele>
        <time>2021-11-22T14:38:09.964Z</time>
      </trkpt>
      <trkpt lat="47.568479" lon="8.353830">
        <ele>347.666035</ele>
        <time>2021-11-22T14:38:11.554Z</time>
      </trkpt>
      <trkpt lat="47.568480" lon="8.354402">
        <ele>347.444302</ele>
        <time>2021-11-22T14:38:16.481Z</time>
      </trkpt>
      <trkpt lat="47.568490" lon="8.354797">
        <ele>347.291075</ele>
        <time>2021-11-22T14:38:20.133Z</time>
      </trkpt>
      <trkpt lat="47.568492" lon="8.354895">
        <ele>347.253068</ele>
        <time>2021-11-22T14:38:20.792Z</time>
      </trkpt>
      <trkpt lat="47.568538" lon="8.356734">
        <ele>347.806909</ele>
        <time>2021-11-22T14:38:36.658Z</time>
      </trkpt>
      <trkpt lat="47.568473" lon="8.357323">
        <ele>348.245168</ele>
        <time>2021-11-22T14:38:42.488Z</time>
      </trkpt>
      <trkpt lat="47.568278" lon="8.358109">
        <ele>348.860122</ele>
        <time>2021-11-22T14:38:55.859Z</time>
      </trkpt>
      <trkpt lat="47.568153" lon="8.358428">
        <ele>350.824341</ele>
        <time>2021-11-22T14:39:03.201Z</time>
      </trkpt>
      <trkpt lat="47.568086" lon="8.358533">
        <ele>351.847611</ele>
        <time>2021-11-22T14:39:07.282Z</time>
      </trkpt>
      <trkpt lat="47.567738" lon="8.359318">
        <ele>358.498219</ele>
        <time>2021-11-22T14:39:40.888Z</time>
      </trkpt>
      <trkpt lat="47.567666" lon="8.359552">
        <ele>360.319224</ele>
        <time>2021-11-22T14:39:52.872Z</time>
      </trkpt>
      <trkpt lat="47.567637" lon="8.359600">
        <ele>360.775432</ele>
        <time>2021-11-22T14:39:56.508Z</time>
      </trkpt>
      <trkpt lat="47.567574" lon="8.359795">
        <ele>362.306269</ele>
        <time>2021-11-22T14:40:06.050Z</time>
      </trkpt>
      <trkpt lat="47.567551" lon="8.359859">
        <ele>362.819697</ele>
        <time>2021-11-22T14:40:10.254Z</time>
      </trkpt>
      <trkpt lat="47.567514" lon="8.359898">
        <ele>363.296161</ele>
        <time>2021-11-22T14:40:13.782Z</time>
      </trkpt>
      <trkpt lat="47.567485" lon="8.359927">
        <ele>363.663285</ele>
        <time>2021-11-22T14:40:15.852Z</time>
      </trkpt>
      <trkpt lat="47.567436" lon="8.359956">
        <ele>364.216978</ele>
        <time>2021-11-22T14:40:20.211Z</time>
      </trkpt>
      <trkpt lat="47.567343" lon="8.359931">
        <ele>365.208854</ele>
        <time>2021-11-22T14:40:26.793Z</time>
      </trkpt>
      <trkpt lat="47.567302" lon="8.359966">
        <ele>365.705380</ele>
        <time>2021-11-22T14:40:30.101Z</time>
      </trkpt>
      <trkpt lat="47.567209" lon="8.359924">
        <ele>366.725635</ele>
        <time>2021-11-22T14:40:37.650Z</time>
      </trkpt>
      <trkpt lat="47.567141" lon="8.359888">
        <ele>367.483395</ele>
        <time>2021-11-22T14:40:42.478Z</time>
      </trkpt>
      <trkpt lat="47.566786" lon="8.359699">
        <ele>372.031312</ele>
        <time>2021-11-22T14:41:09.391Z</time>
      </trkpt>
      <trkpt lat="47.566540" lon="8.359518">
        <ele>375.381279</ele>
        <time>2021-11-22T14:41:29.142Z</time>
      </trkpt>
      <trkpt lat="47.566127" lon="8.359215">
        <ele>381.002222</ele>
        <time>2021-11-22T14:42:01.433Z</time>
      </trkpt>
      <trkpt lat="47.565501" lon="8.358709">
        <ele>389.699578</ele>
        <time>2021-11-22T14:42:44.279Z</time>
      </trkpt>
      <trkpt lat="47.565149" lon="8.358509">
        <ele>391.134291</ele>
        <time>2021-11-22T14:42:59.725Z</time>
      </trkpt>
      <trkpt lat="47.564693" lon="8.358382">
        <ele>392.857865</ele>
        <time>2021-11-22T14:43:12.619Z</time>
      </trkpt>
      <trkpt lat="47.564414" lon="8.358344">
        <ele>393.898647</ele>
        <time>2021-11-22T14:43:18.773Z</time>
      </trkpt>
      <trkpt lat="47.563613" lon="8.358427">
        <ele>396.456970</ele>
        <time>2021-11-22T14:43:35.935Z</time>
      </trkpt>
      <trkpt lat="47.562983" lon="8.358347">
        <ele>396.595204</ele>
        <time>2021-11-22T14:43:46.853Z</time>
      </trkpt>
      <trkpt lat="47.561974" lon="8.358081">
        <ele>396.819253</ele>
        <time>2021-11-22T14:44:01.128Z</time>
      </trkpt>
      <trkpt lat="47.561702" lon="8.358115">
        <ele>396.541564</ele>
        <time>2021-11-22T14:44:04.787Z</time>
      </trkpt>
      <trkpt lat="47.561555" lon="8.358159">
        <ele>396.374277</ele>
        <time>2021-11-22T14:44:06.392Z</time>
      </trkpt>
      <trkpt lat="47.561494" lon="8.358178">
        <ele>396.304746</ele>
        <time>2021-11-22T14:44:07.556Z</time>
      </trkpt>
      <trkpt lat="47.560811" lon="8.358683">
        <ele>395.453307</ele>
        <time>2021-11-22T14:44:16.789Z</time>
      </trkpt>
      <trkpt lat="47.559916" lon="8.359170">
        <ele>394.500722</ele>
        <time>2021-11-22T14:44:27.618Z</time>
      </trkpt>
      <trkpt lat="47.559402" lon="8.359549">
        <ele>394.026502</ele>
        <time>2021-11-22T14:44:34.535Z</time>
      </trkpt>
      <trkpt lat="47.559241" lon="8.359754">
        <ele>393.851167</ele>
        <time>2021-11-22T14:44:37.023Z</time>
      </trkpt>
      <trkpt lat="47.559089" lon="8.360004">
        <ele>393.663597</ele>
        <time>2021-11-22T14:44:39.872Z</time>
      </trkpt>
      <trkpt lat="47.558950" lon="8.360282">
        <ele>393.470738</ele>
        <time>2021-11-22T14:44:43.516Z</time>
      </trkpt>
      <trkpt lat="47.558752" lon="8.360672">
        <ele>393.631823</ele>
        <time>2021-11-22T14:44:48.626Z</time>
      </trkpt>
      <trkpt lat="47.558606" lon="8.360956">
        <ele>394.081307</ele>
        <time>2021-11-22T14:44:52.589Z</time>
      </trkpt>
      <trkpt lat="47.558229" lon="8.361583">
        <ele>395.138579</ele>
        <time>2021-11-22T14:45:03.948Z</time>
      </trkpt>
      <trkpt lat="47.558083" lon="8.361755">
        <ele>395.486552</ele>
        <time>2021-11-22T14:45:07.823Z</time>
      </trkpt>
      <trkpt lat="47.557959" lon="8.361862">
        <ele>395.754255</ele>
        <time>2021-11-22T14:45:11.862Z</time>
      </trkpt>
      <trkpt lat="47.556887" lon="8.362665">
        <ele>399.725006</ele>
        <time>2021-11-22T14:45:47.619Z</time>
      </trkpt>
      <trkpt lat="47.556570" lon="8.363057">
        <ele>401.513967</ele>
        <time>2021-11-22T14:46:01.356Z</time>
      </trkpt>
      <trkpt lat="47.556512" lon="8.363147">
        <ele>401.877850</ele>
        <time>2021-11-22T14:46:04.631Z</time>
      </trkpt>
      <trkpt lat="47.556425" lon="8.363327">
        <ele>402.525248</ele>
        <time>2021-11-22T14:46:09.481Z</time>
      </trkpt>
      <trkpt lat="47.555886" lon="8.364450">
        <ele>406.398166</ele>
        <time>2021-11-22T14:46:41.169Z</time>
      </trkpt>
      <trkpt lat="47.555762" lon="8.364635">
        <ele>407.103031</ele>
        <time>2021-11-22T14:46:46.966Z</time>
      </trkpt>
      <trkpt lat="47.555605" lon="8.364867">
        <ele>407.991207</ele>
        <time>2021-11-22T14:46:54.405Z</time>
      </trkpt>
      <trkpt lat="47.555465" lon="8.365126">
        <ele>408.888273</ele>
        <time>2021-11-22T14:47:00.673Z</time>
      </trkpt>
      <trkpt lat="47.555402" lon="8.365293">
        <ele>409.405478</ele>
        <time>2021-11-22T14:47:04.641Z</time>
      </trkpt>
      <trkpt lat="47.555359" lon="8.365464">
        <ele>409.898799</ele>
        <time>2021-11-22T14:47:08.201Z</time>
      </trkpt>
      <trkpt lat="47.555312" lon="8.365815">
        <ele>410.866175</ele>
        <time>2021-11-22T14:47:14.891Z</time>
      </trkpt>
      <trkpt lat="47.555280" lon="8.367002">
        <ele>413.368140</ele>
        <time>2021-11-22T14:47:36.996Z</time>
      </trkpt>
      <trkpt lat="47.554800" lon="8.368720">
        <ele>416.893277</ele>
        <time>2021-11-22T14:48:08.398Z</time>
      </trkpt>
      <trkpt lat="47.554687" lon="8.369162">
        <ele>417.727645</ele>
        <time>2021-11-22T14:48:16.819Z</time>
      </trkpt>
      <trkpt lat="47.554604" lon="8.369566">
        <ele>418.473139</ele>
        <time>2021-11-22T14:48:24.500Z</time>
      </trkpt>
      <trkpt lat="47.554414" lon="8.370893">
        <ele>420.867835</ele>
        <time>2021-11-22T14:48:48.174Z</time>
      </trkpt>
      <trkpt lat="47.554406" lon="8.371151">
        <ele>421.323764</ele>
        <time>2021-11-22T14:48:52.866Z</time>
      </trkpt>
      <trkpt lat="47.554364" lon="8.372612">
        <ele>423.106555</ele>
        <time>2021-11-22T14:49:13.053Z</time>
      </trkpt>
      <trkpt lat="47.554388" lon="8.373028">
        <ele>423.603051</ele>
        <time>2021-11-22T14:49:19.809Z</time>
      </trkpt>
      <trkpt lat="47.554404" lon="8.373245">
        <ele>423.862635</ele>
        <time>2021-11-22T14:49:22.804Z</time>
      </trkpt>
      <trkpt lat="47.554425" lon="8.373526">
        <ele>424.198832</ele>
        <time>2021-11-22T14:49:27.436Z</time>
      </trkpt>
      <trkpt lat="47.554435" lon="8.373663">
        <ele>424.362697</ele>
        <time>2021-11-22T14:49:28.698Z</time>
      </trkpt>
      <trkpt lat="47.554443" lon="8.374144">
        <ele>424.942185</ele>
        <time>2021-11-22T14:49:35.746Z</time>
      </trkpt>
      <trkpt lat="47.554426" lon="8.374368">
        <ele>425.216625</ele>
        <time>2021-11-22T14:49:39.001Z</time>
      </trkpt>
      <trkpt lat="47.554376" lon="8.374667">
        <ele>425.591666</ele>
        <time>2021-11-22T14:49:43.535Z</time>
      </trkpt>
      <trkpt lat="47.554318" lon="8.374792">
        <ele>425.776352</ele>
        <time>2021-11-22T14:49:45.665Z</time>
      </trkpt>
      <trkpt lat="47.554232" lon="8.374978">
        <ele>426.050855</ele>
        <time>2021-11-22T14:49:49.694Z</time>
      </trkpt>
      <trkpt lat="47.553640" lon="8.375939">
        <ele>427.635003</ele>
        <time>2021-11-22T14:50:08.669Z</time>
      </trkpt>
      <trkpt lat="47.553240" lon="8.376794">
        <ele>428.874350</ele>
        <time>2021-11-22T14:50:24.757Z</time>
      </trkpt>
      <trkpt lat="47.553207" lon="8.376864">
        <ele>428.975555</ele>
        <time>2021-11-22T14:50:25.789Z</time>
      </trkpt>
      <trkpt lat="47.553032" lon="8.377160">
        <ele>429.441968</ele>
        <time>2021-11-22T14:50:30.960Z</time>
      </trkpt>
      <trkpt lat="47.552190" lon="8.378246">
        <ele>431.569012</ele>
        <time>2021-11-22T14:50:55.587Z</time>
      </trkpt>
      <trkpt lat="47.551779" lon="8.378935">
        <ele>433.147469</ele>
        <time>2021-11-22T14:51:10.113Z</time>
      </trkpt>
      <trkpt lat="47.551568" lon="8.379229">
        <ele>433.884144</ele>
        <time>2021-11-22T14:51:17.772Z</time>
      </trkpt>
      <trkpt lat="47.551337" lon="8.379438">
        <ele>434.572541</ele>
        <time>2021-11-22T14:51:24.876Z</time>
      </trkpt>
      <trkpt lat="47.550794" lon="8.379648">
        <ele>436.052682</ele>
        <time>2021-11-22T14:51:40.148Z</time>
      </trkpt>
      <trkpt lat="47.549929" lon="8.379656">
        <ele>438.547385</ele>
        <time>2021-11-22T14:52:04.936Z</time>
      </trkpt>
      <trkpt lat="47.549509" lon="8.379675">
        <ele>439.759226</ele>
        <time>2021-11-22T14:52:15.495Z</time>
      </trkpt>
      <trkpt lat="47.549396" lon="8.379694">
        <ele>440.087209</ele>
        <time>2021-11-22T14:52:18.275Z</time>
      </trkpt>
      <trkpt lat="47.549259" lon="8.379724">
        <ele>440.486609</ele>
        <time>2021-11-22T14:52:22.100Z</time>
      </trkpt>
      <trkpt lat="47.547912" lon="8.380138">
        <ele>442.612477</ele>
        <time>2021-11-22T14:52:51.689Z</time>
      </trkpt>
      <trkpt lat="47.547590" lon="8.380207">
        <ele>443.078832</ele>
        <time>2021-11-22T14:52:56.746Z</time>
      </trkpt>
      <trkpt lat="47.547554" lon="8.380212">
        <ele>443.130660</ele>
        <time>2021-11-22T14:52:57.300Z</time>
      </trkpt>
      <trkpt lat="47.547379" lon="8.380229">
        <ele>443.395136</ele>
        <time>2021-11-22T14:53:00.520Z</time>
      </trkpt>
      <trkpt lat="47.547263" lon="8.380226">
        <ele>443.756936</ele>
        <time>2021-11-22T14:53:02.523Z</time>
      </trkpt>
      <trkpt lat="47.547092" lon="8.380215">
        <ele>444.290700</ele>
        <time>2021-11-22T14:53:05.403Z</time>
      </trkpt>
      <trkpt lat="47.546769" lon="8.380177">
        <ele>445.301142</ele>
        <time>2021-11-22T14:53:11.110Z</time>
      </trkpt>
      <trkpt lat="47.546571" lon="8.380156">
        <ele>445.920183</ele>
        <time>2021-11-22T14:53:16.293Z</time>
      </trkpt>
      <trkpt lat="47.546144" lon="8.380109">
        <ele>447.255448</ele>
        <time>2021-11-22T14:53:29.532Z</time>
      </trkpt>
      <trkpt lat="47.545881" lon="8.380069">
        <ele>448.079921</ele>
        <time>2021-11-22T14:53:38.536Z</time>
      </trkpt>
      <trkpt lat="47.545303" lon="8.379881">
        <ele>450.620730</ele>
        <time>2021-11-22T14:53:59.770Z</time>
      </trkpt>
      <trkpt lat="47.545208" lon="8.379836">
        <ele>451.160546</ele>
        <time>2021-11-22T14:54:04.130Z</time>
      </trkpt>
      <trkpt lat="47.545123" lon="8.379797">
        <ele>451.642154</ele>
        <time>2021-11-22T14:54:07.382Z</time>
      </trkpt>
      <trkpt lat="47.544922" lon="8.379690">
        <ele>452.798136</ele>
        <time>2021-11-22T14:54:15.857Z</time>
      </trkpt>
      <trkpt lat="47.544734" lon="8.379557">
        <ele>453.925720</ele>
        <time>2021-11-22T14:54:23.899Z</time>
      </trkpt>
      <trkpt lat="47.544602" lon="8.379439">
        <ele>454.760141</ele>
        <time>2021-11-22T14:54:30.124Z</time>
      </trkpt>
      <trkpt lat="47.544066" lon="8.378888">
        <ele>458.291177</ele>
        <time>2021-11-22T14:54:53.813Z</time>
      </trkpt>
      <trkpt lat="47.543749" lon="8.378536">
        <ele>459.697265</ele>
        <time>2021-11-22T14:55:07.784Z</time>
      </trkpt>
      <trkpt lat="47.543651" lon="8.378428">
        <ele>460.074748</ele>
        <time>2021-11-22T14:55:10.483Z</time>
      </trkpt>
      <trkpt lat="47.543209" lon="8.377909">
        <ele>461.817812</ele>
        <time>2021-11-22T14:55:25.038Z</time>
      </trkpt>
      <trkpt lat="47.543099" lon="8.377743">
        <ele>462.303095</ele>
        <time>2021-11-22T14:55:27.755Z</time>
      </trkpt>
      <trkpt lat="47.543006" lon="8.377547">
        <ele>462.802899</ele>
        <time>2021-11-22T14:55:32.754Z</time>
      </trkpt>
      <trkpt lat="47.542743" lon="8.376799">
        <ele>464.626978</ele>
        <time>2021-11-22T14:55:45.519Z</time>
      </trkpt>
      <trkpt lat="47.542601" lon="8.376414">
        <ele>465.746948</ele>
        <time>2021-11-22T14:55:53.566Z</time>
      </trkpt>
      <trkpt lat="47.542566" lon="8.376341">
        <ele>465.975526</ele>
        <time>2021-11-22T14:55:54.984Z</time>
      </trkpt>
      <trkpt lat="47.542492" lon="8.376176">
        <ele>466.481230</ele>
        <time>2021-11-22T14:55:59.413Z</time>
      </trkpt>
      <trkpt lat="47.542352" lon="8.375948">
        <ele>467.268047</ele>
        <time>2021-11-22T14:56:04.570Z</time>
      </trkpt>
      <trkpt lat="47.542229" lon="8.375754">
        <ele>467.947486</ele>
        <time>2021-11-22T14:56:10.765Z</time>
      </trkpt>
      <trkpt lat="47.541175" lon="8.374430">
        <ele>473.745394</ele>
        <time>2021-11-22T14:56:56.483Z</time>
      </trkpt>
      <trkpt lat="47.540889" lon="8.374106">
        <ele>475.478093</ele>
        <time>2021-11-22T14:57:08.425Z</time>
      </trkpt>
      <trkpt lat="47.540660" lon="8.373895">
        <ele>476.775926</ele>
        <time>2021-11-22T14:57:17.048Z</time>
      </trkpt>
      <trkpt lat="47.540415" lon="8.373755">
        <ele>478.039650</ele>
        <time>2021-11-22T14:57:26.654Z</time>
      </trkpt>
      <trkpt lat="47.539978" lon="8.373503">
        <ele>480.351864</ele>
        <time>2021-11-22T14:57:42.779Z</time>
      </trkpt>
      <trkpt lat="47.539872" lon="8.373476">
        <ele>480.920263</ele>
        <time>2021-11-22T14:57:47.214Z</time>
      </trkpt>
      <trkpt lat="47.539768" lon="8.373453">
        <ele>481.475963</ele>
        <time>2021-11-22T14:57:51.596Z</time>
      </trkpt>
      <trkpt lat="47.539280" lon="8.373398">
        <ele>484.062347</ele>
        <time>2021-11-22T14:58:09.157Z</time>
      </trkpt>
      <trkpt lat="47.539086" lon="8.373386">
        <ele>485.088470</ele>
        <time>2021-11-22T14:58:16.798Z</time>
      </trkpt>
      <trkpt lat="47.538769" lon="8.373368">
        <ele>486.764948</ele>
        <time>2021-11-22T14:58:27.838Z</time>
      </trkpt>
      <trkpt lat="47.538009" lon="8.373343">
        <ele>490.582390</ele>
        <time>2021-11-22T14:58:54.610Z</time>
      </trkpt>
      <trkpt lat="47.536591" lon="8.373371">
        <ele>497.107476</ele>
        <time>2021-11-22T14:59:41.388Z</time>
      </trkpt>
      <trkpt lat="47.535899" lon="8.373469">
        <ele>500.063696</ele>
        <time>2021-11-22T15:00:03.215Z</time>
      </trkpt>
      <trkpt lat="47.535815" lon="8.373488">
        <ele>500.420761</ele>
        <time>2021-11-22T15:00:06.295Z</time>
      </trkpt>
      <trkpt lat="47.534527" lon="8.373801">
        <ele>505.382733</ele>
        <time>2021-11-22T15:00:47.837Z</time>
      </trkpt>
      <trkpt lat="47.534342" lon="8.373842">
        <ele>505.676698</ele>
        <time>2021-11-22T15:00:53.385Z</time>
      </trkpt>
      <trkpt lat="47.534172" lon="8.373867">
        <ele>505.945167</ele>
        <time>2021-11-22T15:00:57.797Z</time>
      </trkpt>
      <trkpt lat="47.533502" lon="8.373734">
        <ele>507.007487</ele>
        <time>2021-11-22T15:01:12.531Z</time>
      </trkpt>
      <trkpt lat="47.532383" lon="8.373267">
        <ele>507.060384</ele>
        <time>2021-11-22T15:01:27.632Z</time>
      </trkpt>
      <trkpt lat="47.532352" lon="8.373254">
        <ele>507.015191</ele>
        <time>2021-11-22T15:01:27.896Z</time>
      </trkpt>
      <trkpt lat="47.531748" lon="8.372995">
        <ele>506.133177</ele>
        <time>2021-11-22T15:01:36.169Z</time>
      </trkpt>
      <trkpt lat="47.531721" lon="8.372983">
        <ele>506.093636</ele>
        <time>2021-11-22T15:01:36.437Z</time>
      </trkpt>
      <trkpt lat="47.530961" lon="8.372679">
        <ele>504.721319</ele>
        <time>2021-11-22T15:01:44.737Z</time>
      </trkpt>
      <trkpt lat="47.530824" lon="8.372626">
        <ele>504.384314</ele>
        <time>2021-11-22T15:01:46.922Z</time>
      </trkpt>
      <trkpt lat="47.530180" lon="8.372374">
        <ele>502.798978</ele>
        <time>2021-11-22T15:01:54.151Z</time>
      </trkpt>
      <trkpt lat="47.529750" lon="8.372195">
        <ele>501.735906</ele>
        <time>2021-11-22T15:01:58.887Z</time>
      </trkpt>
      <trkpt lat="47.529511" lon="8.372086">
        <ele>501.140718</ele>
        <time>2021-11-22T15:02:01.453Z</time>
      </trkpt>
      <trkpt lat="47.529319" lon="8.371963">
        <ele>500.342971</ele>
        <time>2021-11-22T15:02:03.621Z</time>
      </trkpt>
      <trkpt lat="47.529189" lon="8.371858">
        <ele>499.755957</ele>
        <time>2021-11-22T15:02:05.060Z</time>
      </trkpt>
      <trkpt lat="47.528599" lon="8.371218">
        <ele>496.856757</ele>
        <time>2021-11-22T15:02:12.099Z</time>
      </trkpt>
      <trkpt lat="47.527198" lon="8.369117">
        <ele>489.029293</ele>
        <time>2021-11-22T15:02:31.449Z</time>
      </trkpt>
      <trkpt lat="47.526717" lon="8.368685">
        <ele>486.856346</ele>
        <time>2021-11-22T15:02:37.110Z</time>
      </trkpt>
      <trkpt lat="47.526176" lon="8.368417">
        <ele>485.101720</ele>
        <time>2021-11-22T15:02:42.889Z</time>
      </trkpt>
      <trkpt lat="47.525613" lon="8.368266">
        <ele>483.341885</ele>
        <time>2021-11-22T15:02:48.756Z</time>
      </trkpt>
      <trkpt lat="47.525480" lon="8.368230">
        <ele>482.926029</ele>
        <time>2021-11-22T15:02:50.157Z</time>
      </trkpt>
      <trkpt lat="47.525152" lon="8.368143">
        <ele>481.901118</ele>
        <time>2021-11-22T15:02:53.598Z</time>
      </trkpt>
      <trkpt lat="47.523036" lon="8.367539">
        <ele>475.635031</ele>
        <time>2021-11-22T15:03:15.712Z</time>
      </trkpt>
      <trkpt lat="47.522176" lon="8.367120">
        <ele>473.646155</ele>
        <time>2021-11-22T15:03:24.969Z</time>
      </trkpt>
      <trkpt lat="47.521465" lon="8.366651">
        <ele>472.252998</ele>
        <time>2021-11-22T15:03:34.113Z</time>
      </trkpt>
      <trkpt lat="47.521120" lon="8.366413">
        <ele>472.895075</ele>
        <time>2021-11-22T15:03:39.834Z</time>
      </trkpt>
      <trkpt lat="47.520973" lon="8.366320">
        <ele>473.164750</ele>
        <time>2021-11-22T15:03:42.540Z</time>
      </trkpt>
      <trkpt lat="47.520968" lon="8.365411">
        <ele>474.200379</ele>
        <time>2021-11-22T15:03:55.360Z</time>
      </trkpt>
      <trkpt lat="47.520969" lon="8.364009">
        <ele>476.990811</ele>
        <time>2021-11-22T15:04:24.353Z</time>
      </trkpt>
      <trkpt lat="47.520877" lon="8.363517">
        <ele>478.643531</ele>
        <time>2021-11-22T15:04:37.055Z</time>
      </trkpt>
      <trkpt lat="47.520735" lon="8.363313">
        <ele>479.591976</ele>
        <time>2021-11-22T15:04:44.651Z</time>
      </trkpt>
      <trkpt lat="47.520551" lon="8.363169">
        <ele>480.589656</ele>
        <time>2021-11-22T15:04:51.661Z</time>
      </trkpt>
      <trkpt lat="47.520425" lon="8.363160">
        <ele>481.194381</ele>
        <time>2021-11-22T15:04:57.064Z</time>
      </trkpt>
      <trkpt lat="47.519789" lon="8.363149">
        <ele>483.995044</ele>
        <time>2021-11-22T15:05:18.568Z</time>
      </trkpt>
      <trkpt lat="47.519708" lon="8.363119">
        <ele>484.184344</ele>
        <time>2021-11-22T15:05:22.223Z</time>
      </trkpt>
      <trkpt lat="47.519815" lon="8.362762">
        <ele>484.782368</ele>
        <time>2021-11-22T15:05:29.163Z</time>
      </trkpt>
      <trkpt lat="47.519851" lon="8.362594">
        <ele>485.052234</ele>
        <time>2021-11-22T15:05:33.376Z</time>
      </trkpt>
      <trkpt lat="47.519897" lon="8.362385">
        <ele>485.388803</ele>
        <time>2021-11-22T15:05:37.104Z</time>
      </trkpt>
      <trkpt lat="47.519923" lon="8.362220">
        <ele>485.648223</ele>
        <time>2021-11-22T15:05:40.062Z</time>
      </trkpt>
      <trkpt lat="47.519958" lon="8.361994">
        <ele>486.003236</ele>
        <time>2021-11-22T15:05:44.583Z</time>
      </trkpt>
      <trkpt lat="47.519947" lon="8.361877">
        <ele>486.184104</ele>
        <time>2021-11-22T15:05:46.040Z</time>
      </trkpt>
      <trkpt lat="47.519922" lon="8.361744">
        <ele>486.395483</ele>
        <time>2021-11-22T15:05:47.527Z</time>
      </trkpt>
      <trkpt lat="47.519929" lon="8.361598">
        <ele>486.619588</ele>
        <time>2021-11-22T15:05:50.139Z</time>
      </trkpt>
      <trkpt lat="47.519898" lon="8.361550">
        <ele>486.721279</ele>
        <time>2021-11-22T15:05:51.298Z</time>
      </trkpt>
      <trkpt lat="47.519859" lon="8.361513">
        <ele>486.826291</ele>
        <time>2021-11-22T15:05:52.302Z</time>
      </trkpt>
      <trkpt lat="47.519823" lon="8.361482">
        <ele>486.920708</ele>
        <time>2021-11-22T15:05:53.216Z</time>
      </trkpt>
      <trkpt lat="47.519705" lon="8.361455">
        <ele>487.191413</ele>
        <time>2021-11-22T15:05:55.439Z</time>
      </trkpt>
      <trkpt lat="47.519586" lon="8.361479">
        <ele>487.463700</ele>
        <time>2021-11-22T15:05:58.767Z</time>
      </trkpt>
      <trkpt lat="47.519359" lon="8.361509">
        <ele>487.741454</ele>
        <time>2021-11-22T15:06:03.001Z</time>
      </trkpt>
      <trkpt lat="47.519308" lon="8.361317">
        <ele>487.478458</ele>
        <time>2021-11-22T15:06:05.578Z</time>
      </trkpt>
      <trkpt lat="47.519160" lon="8.360575">
        <ele>486.492228</ele>
        <time>2021-11-22T15:06:14.351Z</time>
      </trkpt>
      <trkpt lat="47.519089" lon="8.360168">
        <ele>485.956388</ele>
        <time>2021-11-22T15:06:18.670Z</time>
      </trkpt>
      <trkpt lat="47.519000" lon="8.359657">
        <ele>485.283693</ele>
        <time>2021-11-22T15:06:23.942Z</time>
      </trkpt>
      <trkpt lat="47.518765" lon="8.358130">
        <ele>482.844681</ele>
        <time>2021-11-22T15:06:39.691Z</time>
      </trkpt>
      <trkpt lat="47.518717" lon="8.357254">
        <ele>481.299719</ele>
        <time>2021-11-22T15:06:48.574Z</time>
      </trkpt>
      <trkpt lat="47.518858" lon="8.356269">
        <ele>479.608726</ele>
        <time>2021-11-22T15:06:59.020Z</time>
      </trkpt>
      <trkpt lat="47.518870" lon="8.356152">
        <ele>479.468151</ele>
        <time>2021-11-22T15:07:00.287Z</time>
      </trkpt>
      <trkpt lat="47.518874" lon="8.355823">
        <ele>479.077278</ele>
        <time>2021-11-22T15:07:03.689Z</time>
      </trkpt>
      <trkpt lat="47.518415" lon="8.353934">
        <ele>476.692555</ele>
        <time>2021-11-22T15:07:25.448Z</time>
      </trkpt>
      <trkpt lat="47.518268" lon="8.353148">
        <ele>476.456532</ele>
        <time>2021-11-22T15:07:35.361Z</time>
      </trkpt>
      <trkpt lat="47.518256" lon="8.353057">
        <ele>476.437493</ele>
        <time>2021-11-22T15:07:36.548Z</time>
      </trkpt>
      <trkpt lat="47.518125" lon="8.350109">
        <ele>476.225103</ele>
        <time>2021-11-22T15:08:17.318Z</time>
      </trkpt>
      <trkpt lat="47.518164" lon="8.349525">
        <ele>476.309420</ele>
        <time>2021-11-22T15:08:25.666Z</time>
      </trkpt>
      <trkpt lat="47.518283" lon="8.347896">
        <ele>476.712904</ele>
        <time>2021-11-22T15:08:49.954Z</time>
      </trkpt>
      <trkpt lat="47.518402" lon="8.346421">
        <ele>477.287250</ele>
        <time>2021-11-22T15:09:12.367Z</time>
      </trkpt>
      <trkpt lat="47.518445" lon="8.346000">
        <ele>477.451875</ele>
        <time>2021-11-22T15:09:19.289Z</time>
      </trkpt>
      <trkpt lat="47.518602" lon="8.345322">
        <ele>477.114623</ele>
        <time>2021-11-22T15:09:30.915Z</time>
      </trkpt>
      <trkpt lat="47.518794" lon="8.344927">
        <ele>476.847357</ele>
        <time>2021-11-22T15:09:37.426Z</time>
      </trkpt>
      <trkpt lat="47.519427" lon="8.343865">
        <ele>476.069484</ele>
        <time>2021-11-22T15:09:53.289Z</time>
      </trkpt>
      <trkpt lat="47.519781" lon="8.343221">
        <ele>473.665839</ele>
        <time>2021-11-22T15:10:01.795Z</time>
      </trkpt>
      <trkpt lat="47.520114" lon="8.342442">
        <ele>470.688746</ele>
        <time>2021-11-22T15:10:10.221Z</time>
      </trkpt>
      <trkpt lat="47.520256" lon="8.342102">
        <ele>469.397849</ele>
        <time>2021-11-22T15:10:13.751Z</time>
      </trkpt>
      <trkpt lat="47.520607" lon="8.341768">
        <ele>467.396997</ele>
        <time>2021-11-22T15:10:19.124Z</time>
      </trkpt>
      <trkpt lat="47.520744" lon="8.341689">
        <ele>466.255512</ele>
        <time>2021-11-22T15:10:21.046Z</time>
      </trkpt>
      <trkpt lat="47.520576" lon="8.341313">
        <ele>463.891607</ele>
        <time>2021-11-22T15:10:24.957Z</time>
      </trkpt>
      <trkpt lat="47.520286" lon="8.340841">
        <ele>460.545802</ele>
        <time>2021-11-22T15:10:30.363Z</time>
      </trkpt>
      <trkpt lat="47.519888" lon="8.339966">
        <ele>455.014291</ele>
        <time>2021-11-22T15:10:39.248Z</time>
      </trkpt>
      <trkpt lat="47.519725" lon="8.339165">
        <ele>450.738131</ele>
        <time>2021-11-22T15:10:46.370Z</time>
      </trkpt>
      <trkpt lat="47.519714" lon="8.339077">
        <ele>450.287233</ele>
        <time>2021-11-22T15:10:47.083Z</time>
      </trkpt>
      <trkpt lat="47.519706" lon="8.339008">
        <ele>449.934507</ele>
        <time>2021-11-22T15:10:47.703Z</time>
      </trkpt>
      <trkpt lat="47.519683" lon="8.338832">
        <ele>449.031324</ele>
        <time>2021-11-22T15:10:49.237Z</time>
      </trkpt>
      <trkpt lat="47.520048" lon="8.338409">
        <ele>445.573457</ele>
        <time>2021-11-22T15:10:55.188Z</time>
      </trkpt>
      <trkpt lat="47.520263" lon="8.337826">
        <ele>442.226761</ele>
        <time>2021-11-22T15:11:00.842Z</time>
      </trkpt>
      <trkpt lat="47.520251" lon="8.337639">
        <ele>441.280372</ele>
        <time>2021-11-22T15:11:02.473Z</time>
      </trkpt>
      <trkpt lat="47.520048" lon="8.337047">
        <ele>438.357381</ele>
        <time>2021-11-22T15:11:08.246Z</time>
      </trkpt>
      <trkpt lat="47.519864" lon="8.336285">
        <ele>435.102220</ele>
        <time>2021-11-22T15:11:15.479Z</time>
      </trkpt>
      <trkpt lat="47.519972" lon="8.335714">
        <ele>432.717008</ele>
        <time>2021-11-22T15:11:20.731Z</time>
      </trkpt>
      <trkpt lat="47.520042" lon="8.334305">
        <ele>427.511361</ele>
        <time>2021-11-22T15:11:33.492Z</time>
      </trkpt>
      <trkpt lat="47.519998" lon="8.334232">
        <ele>427.200114</ele>
        <time>2021-11-22T15:11:34.295Z</time>
      </trkpt>
      <trkpt lat="47.520302" lon="8.333306">
        <ele>423.924943</ele>
        <time>2021-11-22T15:11:40.939Z</time>
      </trkpt>
      <trkpt lat="47.520606" lon="8.332756">
        <ele>421.664151</ele>
        <time>2021-11-22T15:11:45.549Z</time>
      </trkpt>
      <trkpt lat="47.520715" lon="8.332539">
        <ele>420.824773</ele>
        <time>2021-11-22T15:11:47.386Z</time>
      </trkpt>
      <trkpt lat="47.520875" lon="8.332223">
        <ele>420.227837</ele>
        <time>2021-11-22T15:11:49.959Z</time>
      </trkpt>
      <trkpt lat="47.520965" lon="8.332031">
        <ele>419.874593</ele>
        <time>2021-11-22T15:11:51.579Z</time>
      </trkpt>
      <trkpt lat="47.521201" lon="8.331528">
        <ele>418.948889</ele>
        <time>2021-11-22T15:11:56.032Z</time>
      </trkpt>
      <trkpt lat="47.521326" lon="8.331263">
        <ele>418.460341</ele>
        <time>2021-11-22T15:11:58.513Z</time>
      </trkpt>
      <trkpt lat="47.521379" lon="8.331060">
        <ele>418.131398</ele>
        <time>2021-11-22T15:12:00.251Z</time>
      </trkpt>
      <trkpt lat="47.521379" lon="8.330843">
        <ele>417.803427</ele>
        <time>2021-11-22T15:12:01.996Z</time>
      </trkpt>
      <trkpt lat="47.521296" lon="8.330543">
        <ele>417.313434</ele>
        <time>2021-11-22T15:12:04.516Z</time>
      </trkpt>
      <trkpt lat="47.521124" lon="8.330264">
        <ele>416.782462</ele>
        <time>2021-11-22T15:12:07.564Z</time>
      </trkpt>
      <trkpt lat="47.521039" lon="8.330126">
        <ele>416.649178</ele>
        <time>2021-11-22T15:12:08.996Z</time>
      </trkpt>
      <trkpt lat="47.520781" lon="8.329897">
        <ele>416.331329</ele>
        <time>2021-11-22T15:12:12.482Z</time>
      </trkpt>
      <trkpt lat="47.520716" lon="8.329821">
        <ele>416.243814</ele>
        <time>2021-11-22T15:12:13.496Z</time>
      </trkpt>
      <trkpt lat="47.520652" lon="8.329741">
        <ele>416.155312</ele>
        <time>2021-11-22T15:12:14.504Z</time>
      </trkpt>
      <trkpt lat="47.520581" lon="8.329647">
        <ele>416.054673</ele>
        <time>2021-11-22T15:12:15.620Z</time>
      </trkpt>
      <trkpt lat="47.520567" lon="8.329628">
        <ele>416.034607</ele>
        <time>2021-11-22T15:12:15.846Z</time>
      </trkpt>
      <trkpt lat="47.520573" lon="8.329617">
        <ele>416.024516</ele>
        <time>2021-11-22T15:12:16.045Z</time>
      </trkpt>
      <trkpt lat="47.520574" lon="8.329485">
        <ele>415.930315</ele>
        <time>2021-11-22T15:12:17.082Z</time>
      </trkpt>
      <trkpt lat="47.520562" lon="8.329462">
        <ele>415.909574</ele>
        <time>2021-11-22T15:12:17.386Z</time>
      </trkpt>
      <trkpt lat="47.520625" lon="8.329374">
        <ele>415.818058</ele>
        <time>2021-11-22T15:12:18.470Z</time>
      </trkpt>
      <trkpt lat="47.520902" lon="8.329005">
        <ele>415.424345</ele>
        <time>2021-11-22T15:12:23.067Z</time>
      </trkpt>
      <trkpt lat="47.521030" lon="8.328833">
        <ele>415.241701</ele>
        <time>2021-11-22T15:12:25.313Z</time>
      </trkpt>
      <trkpt lat="47.521139" lon="8.328699">
        <ele>415.092003</ele>
        <time>2021-11-22T15:12:27.071Z</time>
      </trkpt>
      <trkpt lat="47.521298" lon="8.328510">
        <ele>414.875890</ele>
        <time>2021-11-22T15:12:29.761Z</time>
      </trkpt>
      <trkpt lat="47.521717" lon="8.328006">
        <ele>414.296252</ele>
        <time>2021-11-22T15:12:36.375Z</time>
      </trkpt>
      <trkpt lat="47.522032" lon="8.327663">
        <ele>413.876414</ele>
        <time>2021-11-22T15:12:40.923Z</time>
      </trkpt>
      <trkpt lat="47.522338" lon="8.327333">
        <ele>413.469943</ele>
        <time>2021-11-22T15:12:45.334Z</time>
      </trkpt>
      <trkpt lat="47.522353" lon="8.327317">
        <ele>413.450093</ele>
        <time>2021-11-22T15:12:45.549Z</time>
      </trkpt>
      <trkpt lat="47.522470" lon="8.327192">
        <ele>413.295178</ele>
        <time>2021-11-22T15:12:47.295Z</time>
      </trkpt>
      <trkpt lat="47.522607" lon="8.327049">
        <ele>413.115201</ele>
        <time>2021-11-22T15:12:49.344Z</time>
      </trkpt>
      <trkpt lat="47.522692" lon="8.326959">
        <ele>413.002999</ele>
        <time>2021-11-22T15:12:50.665Z</time>
      </trkpt>
      <trkpt lat="47.522974" lon="8.326697">
        <ele>412.755414</ele>
        <time>2021-11-22T15:12:54.875Z</time>
      </trkpt>
      <trkpt lat="47.523193" lon="8.326532">
        <ele>412.576643</ele>
        <time>2021-11-22T15:12:58.078Z</time>
      </trkpt>
      <trkpt lat="47.523587" lon="8.326236">
        <ele>412.255208</ele>
        <time>2021-11-22T15:13:03.797Z</time>
      </trkpt>
      <trkpt lat="47.523894" lon="8.326028">
        <ele>412.009583</ele>
        <time>2021-11-22T15:13:08.302Z</time>
      </trkpt>
      <trkpt lat="47.525174" lon="8.325210">
        <ele>410.715059</ele>
        <time>2021-11-22T15:13:25.781Z</time>
      </trkpt>
      <trkpt lat="47.525744" lon="8.324724">
        <ele>410.040016</ele>
        <time>2021-11-22T15:13:33.665Z</time>
      </trkpt>
      <trkpt lat="47.525795" lon="8.324675">
        <ele>409.977622</ele>
        <time>2021-11-22T15:13:34.283Z</time>
      </trkpt>
      <trkpt lat="47.525844" lon="8.324625">
        <ele>409.916550</ele>
        <time>2021-11-22T15:13:34.951Z</time>
      </trkpt>
      <trkpt lat="47.526095" lon="8.324339">
        <ele>409.550045</ele>
        <time>2021-11-22T15:13:38.719Z</time>
      </trkpt>
      <trkpt lat="47.526168" lon="8.324248">
        <ele>409.435206</ele>
        <time>2021-11-22T15:13:39.760Z</time>
      </trkpt>
      <trkpt lat="47.526303" lon="8.324073">
        <ele>409.219279</ele>
        <time>2021-11-22T15:13:42.228Z</time>
      </trkpt>
      <trkpt lat="47.526515" lon="8.323768">
        <ele>408.863558</ele>
        <time>2021-11-22T15:13:45.614Z</time>
      </trkpt>
      <trkpt lat="47.526863" lon="8.323159">
        <ele>408.215209</ele>
        <time>2021-11-22T15:13:51.854Z</time>
      </trkpt>
      <trkpt lat="47.526942" lon="8.323021">
        <ele>408.068181</ele>
        <time>2021-11-22T15:13:53.255Z</time>
      </trkpt>
      <trkpt lat="47.527313" lon="8.322145">
        <ele>407.524467</ele>
        <time>2021-11-22T15:14:02.055Z</time>
      </trkpt>
      <trkpt lat="47.527602" lon="8.321300">
        <ele>407.274625</ele>
        <time>2021-11-22T15:14:10.941Z</time>
      </trkpt>
      <trkpt lat="47.527797" lon="8.320696">
        <ele>407.098036</ele>
        <time>2021-11-22T15:14:17.301Z</time>
      </trkpt>
      <trkpt lat="47.528105" lon="8.319726">
        <ele>406.875750</ele>
        <time>2021-11-22T15:14:27.795Z</time>
      </trkpt>
      <trkpt lat="47.528199" lon="8.319432">
        <ele>406.824732</ele>
        <time>2021-11-22T15:14:30.987Z</time>
      </trkpt>
      <trkpt lat="47.528378" lon="8.318890">
        <ele>406.730103</ele>
        <time>2021-11-22T15:14:36.741Z</time>
      </trkpt>
      <trkpt lat="47.528476" lon="8.318597">
        <ele>406.678821</ele>
        <time>2021-11-22T15:14:39.896Z</time>
      </trkpt>
      <trkpt lat="47.528881" lon="8.317506">
        <ele>406.372605</ele>
        <time>2021-11-22T15:14:51.381Z</time>
      </trkpt>
      <trkpt lat="47.530479" lon="8.314171">
        <ele>404.545115</ele>
        <time>2021-11-22T15:15:26.611Z</time>
      </trkpt>
      <trkpt lat="47.530874" lon="8.313189">
        <ele>403.923134</ele>
        <time>2021-11-22T15:15:36.651Z</time>
      </trkpt>
      <trkpt lat="47.530874" lon="8.313189">
        <ele>403.923134</ele>
        <time>2021-11-22T15:15:36.660Z</time>
      </trkpt>
      <trkpt lat="47.530874" lon="8.313189">
        <ele>403.923134</ele>
        <time>2021-11-22T15:15:36.724Z</time>
      </trkpt>
      <trkpt lat="47.530994" lon="8.312860">
        <ele>403.638400</ele>
        <time>2021-11-22T15:15:40.051Z</time>
      </trkpt>
      <trkpt lat="47.531552" lon="8.311018">
        <ele>402.088702</ele>
        <time>2021-11-22T15:15:56.310Z</time>
      </trkpt>
      <trkpt lat="47.531668" lon="8.310510">
        <ele>401.494745</ele>
        <time>2021-11-22T15:16:00.328Z</time>
      </trkpt>
      <trkpt lat="47.531710" lon="8.310314">
        <ele>401.266989</ele>
        <time>2021-11-22T15:16:01.724Z</time>
      </trkpt>
      <trkpt lat="47.531822" lon="8.309770">
        <ele>400.637078</ele>
        <time>2021-11-22T15:16:05.991Z</time>
      </trkpt>
      <trkpt lat="47.531851" lon="8.309614">
        <ele>400.457867</ele>
        <time>2021-11-22T15:16:07.312Z</time>
      </trkpt>
      <trkpt lat="47.531882" lon="8.309437">
        <ele>400.255338</ele>
        <time>2021-11-22T15:16:08.792Z</time>
      </trkpt>
      <trkpt lat="47.531896" lon="8.309354">
        <ele>400.160585</ele>
        <time>2021-11-22T15:16:09.322Z</time>
      </trkpt>
      <trkpt lat="47.531961" lon="8.308932">
        <ele>399.681181</ele>
        <time>2021-11-22T15:16:12.849Z</time>
      </trkpt>
      <trkpt lat="47.532055" lon="8.308240">
        <ele>399.423196</ele>
        <time>2021-11-22T15:16:18.125Z</time>
      </trkpt>
      <trkpt lat="47.532116" lon="8.307619">
        <ele>400.035343</ele>
        <time>2021-11-22T15:16:24.130Z</time>
      </trkpt>
      <trkpt lat="47.532168" lon="8.306989">
        <ele>400.654465</ele>
        <time>2021-11-22T15:16:33.209Z</time>
      </trkpt>
      <trkpt lat="47.532182" lon="8.306728">
        <ele>400.909866</ele>
        <time>2021-11-22T15:16:37.824Z</time>
      </trkpt>
      <trkpt lat="47.532209" lon="8.306026">
        <ele>401.595757</ele>
        <time>2021-11-22T15:16:50.870Z</time>
      </trkpt>
      <trkpt lat="47.532241" lon="8.304282">
        <ele>404.485875</ele>
        <time>2021-11-22T15:17:25.798Z</time>
      </trkpt>
      <trkpt lat="47.532250" lon="8.301865">
        <ele>405.405190</ele>
        <time>2021-11-22T15:17:57.133Z</time>
      </trkpt>
      <trkpt lat="47.532102" lon="8.300655">
        <ele>404.468232</ele>
        <time>2021-11-22T15:18:05.599Z</time>
      </trkpt>
      <trkpt lat="47.532072" lon="8.300217">
        <ele>403.876850</ele>
        <time>2021-11-22T15:18:08.509Z</time>
      </trkpt>
      <trkpt lat="47.532074" lon="8.299861">
        <ele>403.319407</ele>
        <time>2021-11-22T15:18:10.915Z</time>
      </trkpt>
      <trkpt lat="47.532106" lon="8.299421">
        <ele>402.626470</ele>
        <time>2021-11-22T15:18:13.893Z</time>
      </trkpt>
      <trkpt lat="47.532229" lon="8.298853">
        <ele>401.692474</ele>
        <time>2021-11-22T15:18:17.937Z</time>
      </trkpt>
      <trkpt lat="47.532265" lon="8.298729">
        <ele>401.481127</ele>
        <time>2021-11-22T15:18:18.854Z</time>
      </trkpt>
      <trkpt lat="47.532367" lon="8.298378">
        <ele>400.882790</ele>
        <time>2021-11-22T15:18:21.761Z</time>
      </trkpt>
      <trkpt lat="47.532917" lon="8.296957">
        <ele>401.578895</ele>
        <time>2021-11-22T15:18:41.906Z</time>
      </trkpt>
      <trkpt lat="47.532972" lon="8.296829">
        <ele>401.752056</ele>
        <time>2021-11-22T15:18:44.870Z</time>
      </trkpt>
      <trkpt lat="47.532972" lon="8.296829">
        <ele>401.752056</ele>
        <time>2021-11-22T15:18:44.950Z</time>
      </trkpt>
      <trkpt lat="47.533127" lon="8.296419">
        <ele>402.288350</ele>
        <time>2021-11-22T15:18:52.251Z</time>
      </trkpt>
      <trkpt lat="47.533137" lon="8.296392">
        <ele>402.323497</ele>
        <time>2021-11-22T15:18:53.530Z</time>
      </trkpt>
      <trkpt lat="47.533297" lon="8.295971">
        <ele>402.874874</ele>
        <time>2021-11-22T15:19:01.314Z</time>
      </trkpt>
      <trkpt lat="47.533348" lon="8.295842">
        <ele>403.045484</ele>
        <time>2021-11-22T15:19:05.284Z</time>
      </trkpt>
      <trkpt lat="47.533526" lon="8.295410">
        <ele>403.281851</ele>
        <time>2021-11-22T15:19:13.900Z</time>
      </trkpt>
      <trkpt lat="47.534171" lon="8.294093">
        <ele>403.464661</ele>
        <time>2021-11-22T15:19:35.795Z</time>
      </trkpt>
      <trkpt lat="47.534998" lon="8.292388">
        <ele>399.373253</ele>
        <time>2021-11-22T15:19:49.840Z</time>
      </trkpt>
      <trkpt lat="47.535110" lon="8.292180">
        <ele>398.577258</ele>
        <time>2021-11-22T15:19:51.505Z</time>
      </trkpt>
      <trkpt lat="47.535170" lon="8.292073">
        <ele>398.161110</ele>
        <time>2021-11-22T15:19:52.338Z</time>
      </trkpt>
      <trkpt lat="47.535569" lon="8.291526">
        <ele>395.751822</ele>
        <time>2021-11-22T15:19:57.450Z</time>
      </trkpt>
      <trkpt lat="47.535648" lon="8.291465">
        <ele>395.373669</ele>
        <time>2021-11-22T15:19:58.263Z</time>
      </trkpt>
      <trkpt lat="47.536134" lon="8.291090">
        <ele>393.132229</ele>
        <time>2021-11-22T15:20:03.351Z</time>
      </trkpt>
      <trkpt lat="47.536495" lon="8.290937">
        <ele>391.596375</ele>
        <time>2021-11-22T15:20:06.855Z</time>
      </trkpt>
      <trkpt lat="47.536648" lon="8.290879">
        <ele>390.950389</ele>
        <time>2021-11-22T15:20:08.431Z</time>
      </trkpt>
      <trkpt lat="47.536884" lon="8.290791">
        <ele>389.954962</ele>
        <time>2021-11-22T15:20:10.975Z</time>
      </trkpt>
      <trkpt lat="47.536940" lon="8.290760">
        <ele>389.710432</ele>
        <time>2021-11-22T15:20:11.585Z</time>
      </trkpt>
      <trkpt lat="47.537009" lon="8.290723">
        <ele>389.410276</ele>
        <time>2021-11-22T15:20:12.315Z</time>
      </trkpt>
      <trkpt lat="47.537128" lon="8.290636">
        <ele>388.867471</ele>
        <time>2021-11-22T15:20:13.746Z</time>
      </trkpt>
      <trkpt lat="47.537378" lon="8.290484">
        <ele>388.212327</ele>
        <time>2021-11-22T15:20:16.717Z</time>
      </trkpt>
      <trkpt lat="47.537455" lon="8.290447">
        <ele>388.209450</ele>
        <time>2021-11-22T15:20:17.657Z</time>
      </trkpt>
      <trkpt lat="47.537556" lon="8.290411">
        <ele>388.205757</ele>
        <time>2021-11-22T15:20:18.828Z</time>
      </trkpt>
      <trkpt lat="47.537720" lon="8.290374">
        <ele>388.199861</ele>
        <time>2021-11-22T15:20:20.696Z</time>
      </trkpt>
      <trkpt lat="47.537827" lon="8.290357">
        <ele>388.196036</ele>
        <time>2021-11-22T15:20:21.982Z</time>
      </trkpt>
      <trkpt lat="47.537934" lon="8.290350">
        <ele>388.192229</ele>
        <time>2021-11-22T15:20:23.330Z</time>
      </trkpt>
      <trkpt lat="47.538055" lon="8.290344">
        <ele>388.187925</ele>
        <time>2021-11-22T15:20:25.046Z</time>
      </trkpt>
      <trkpt lat="47.538055" lon="8.290344">
        <ele>388.187925</ele>
        <time>2021-11-22T15:20:25.048Z</time>
      </trkpt>
      <trkpt lat="47.538030" lon="8.290110">
        <ele>388.182240</ele>
        <time>2021-11-22T15:20:27.510Z</time>
      </trkpt>
      <trkpt lat="47.537992" lon="8.289858">
        <ele>388.176044</ele>
        <time>2021-11-22T15:20:30.598Z</time>
      </trkpt>
      <trkpt lat="47.537910" lon="8.289365">
        <ele>388.163860</ele>
        <time>2021-11-22T15:20:36.659Z</time>
      </trkpt>
      <trkpt lat="47.537895" lon="8.289269">
        <ele>388.161495</ele>
        <time>2021-11-22T15:20:38.243Z</time>
      </trkpt>
      <trkpt lat="47.537876" lon="8.289147">
        <ele>388.158491</ele>
        <time>2021-11-22T15:20:39.813Z</time>
      </trkpt>
      <trkpt lat="47.537748" lon="8.288584">
        <ele>388.925230</ele>
        <time>2021-11-22T15:20:48.160Z</time>
      </trkpt>
      <trkpt lat="47.537662" lon="8.288431">
        <ele>389.380760</ele>
        <time>2021-11-22T15:20:51.658Z</time>
      </trkpt>
      <trkpt lat="47.537609" lon="8.288377">
        <ele>389.598779</ele>
        <time>2021-11-22T15:20:54.522Z</time>
      </trkpt>
      <trkpt lat="47.537543" lon="8.288349">
        <ele>389.831460</ele>
        <time>2021-11-22T15:20:56.086Z</time>
      </trkpt>
      <trkpt lat="47.537335" lon="8.288238">
        <ele>390.580770</ele>
        <time>2021-11-22T15:21:01.408Z</time>
      </trkpt>
      <trkpt lat="47.537267" lon="8.288187">
        <ele>390.839095</ele>
        <time>2021-11-22T15:21:04.685Z</time>
      </trkpt>
      <trkpt lat="47.537059" lon="8.287852">
        <ele>391.880488</ele>
        <time>2021-11-22T15:21:12.995Z</time>
      </trkpt>
      <trkpt lat="47.536718" lon="8.287038">
        <ele>394.072440</ele>
        <time>2021-11-22T15:21:33.279Z</time>
      </trkpt>
      <trkpt lat="47.536689" lon="8.286997">
        <ele>394.208312</ele>
        <time>2021-11-22T15:21:35.149Z</time>
      </trkpt>
      <trkpt lat="47.536656" lon="8.286956">
        <ele>394.430257</ele>
        <time>2021-11-22T15:21:36.721Z</time>
      </trkpt>
      <trkpt lat="47.536633" lon="8.286929">
        <ele>394.601017</ele>
        <time>2021-11-22T15:21:38.465Z</time>
      </trkpt>
      <trkpt lat="47.536275" lon="8.286582">
        <ele>397.090427</ele>
        <time>2021-11-22T15:21:52.149Z</time>
      </trkpt>
      <trkpt lat="47.536193" lon="8.286503">
        <ele>397.659597</ele>
        <time>2021-11-22T15:21:55.242Z</time>
      </trkpt>
      <trkpt lat="47.535974" lon="8.286294">
        <ele>399.175454</ele>
        <time>2021-11-22T15:22:03.305Z</time>
      </trkpt>
      <trkpt lat="47.535958" lon="8.286279">
        <ele>399.285632</ele>
        <time>2021-11-22T15:22:04.109Z</time>
      </trkpt>
      <trkpt lat="47.535668" lon="8.286011">
        <ele>401.274511</ele>
        <time>2021-11-22T15:22:17.250Z</time>
      </trkpt>
      <trkpt lat="47.535462" lon="8.285758">
        <ele>402.831584</ele>
        <time>2021-11-22T15:22:30.214Z</time>
      </trkpt>
      <trkpt lat="47.535258" lon="8.285301">
        <ele>405.028521</ele>
        <time>2021-11-22T15:22:46.768Z</time>
      </trkpt>
      <trkpt lat="47.535149" lon="8.284694">
        <ele>407.905145</ele>
        <time>2021-11-22T15:23:05.104Z</time>
      </trkpt>
      <trkpt lat="47.535148" lon="8.284436">
        <ele>409.086768</ele>
        <time>2021-11-22T15:23:12.548Z</time>
      </trkpt>
      <trkpt lat="47.535142" lon="8.284288">
        <ele>409.765808</ele>
        <time>2021-11-22T15:23:17.488Z</time>
      </trkpt>
      <trkpt lat="47.535136" lon="8.284061">
        <ele>410.806232</ele>
        <time>2021-11-22T15:23:24.320Z</time>
      </trkpt>
      <trkpt lat="47.535118" lon="8.283818">
        <ele>411.925816</ele>
        <time>2021-11-22T15:23:30.948Z</time>
      </trkpt>
      <trkpt lat="47.535098" lon="8.283703">
        <ele>412.469694</ele>
        <time>2021-11-22T15:23:35.054Z</time>
      </trkpt>
      <trkpt lat="47.535004" lon="8.283185">
        <ele>414.926267</ele>
        <time>2021-11-22T15:23:49.620Z</time>
      </trkpt>
      <trkpt lat="47.534790" lon="8.282555">
        <ele>417.473681</ele>
        <time>2021-11-22T15:24:07.790Z</time>
      </trkpt>
      <trkpt lat="47.534589" lon="8.282076">
        <ele>418.636161</ele>
        <time>2021-11-22T15:24:21.601Z</time>
      </trkpt>
      <trkpt lat="47.534352" lon="8.281508">
        <ele>420.012473</ele>
        <time>2021-11-22T15:24:33.343Z</time>
      </trkpt>
      <trkpt lat="47.533769" lon="8.280052">
        <ele>422.660764</ele>
        <time>2021-11-22T15:24:55.692Z</time>
      </trkpt>
      <trkpt lat="47.533177" lon="8.278640">
        <ele>423.456463</ele>
        <time>2021-11-22T15:25:15.400Z</time>
      </trkpt>
      <trkpt lat="47.532785" lon="8.277692">
        <ele>423.640687</ele>
        <time>2021-11-22T15:25:27.608Z</time>
      </trkpt>
      <trkpt lat="47.532411" lon="8.276816">
        <ele>423.574362</ele>
        <time>2021-11-22T15:25:37.839Z</time>
      </trkpt>
      <trkpt lat="47.532039" lon="8.275901">
        <ele>423.503976</ele>
        <time>2021-11-22T15:25:47.378Z</time>
      </trkpt>
      <trkpt lat="47.531799" lon="8.275274">
        <ele>423.439878</ele>
        <time>2021-11-22T15:25:53.585Z</time>
      </trkpt>
      <trkpt lat="47.531719" lon="8.275067">
        <ele>423.418666</ele>
        <time>2021-11-22T15:25:55.709Z</time>
      </trkpt>
      <trkpt lat="47.531618" lon="8.274801">
        <ele>423.391526</ele>
        <time>2021-11-22T15:25:58.672Z</time>
      </trkpt>
      <trkpt lat="47.531470" lon="8.274174">
        <ele>423.332456</ele>
        <time>2021-11-22T15:26:05.760Z</time>
      </trkpt>
      <trkpt lat="47.531393" lon="8.273633">
        <ele>423.283286</ele>
        <time>2021-11-22T15:26:11.810Z</time>
      </trkpt>
      <trkpt lat="47.531262" lon="8.272715">
        <ele>423.528604</ele>
        <time>2021-11-22T15:26:21.697Z</time>
      </trkpt>
      <trkpt lat="47.531195" lon="8.272170">
        <ele>423.696776</ele>
        <time>2021-11-22T15:26:27.385Z</time>
      </trkpt>
      <trkpt lat="47.531043" lon="8.270927">
        <ele>424.080269</ele>
        <time>2021-11-22T15:26:42.825Z</time>
      </trkpt>
      <trkpt lat="47.531033" lon="8.270842">
        <ele>424.105175</ele>
        <time>2021-11-22T15:26:43.846Z</time>
      </trkpt>
      <trkpt lat="47.530880" lon="8.269588">
        <ele>424.470768</ele>
        <time>2021-11-22T15:26:58.662Z</time>
      </trkpt>
      <trkpt lat="47.530852" lon="8.269370">
        <ele>424.534433</ele>
        <time>2021-11-22T15:27:01.230Z</time>
      </trkpt>
      <trkpt lat="47.530782" lon="8.268827">
        <ele>424.693031</ele>
        <time>2021-11-22T15:27:07.248Z</time>
      </trkpt>
      <trkpt lat="47.530662" lon="8.267904">
        <ele>424.723897</ele>
        <time>2021-11-22T15:27:16.703Z</time>
      </trkpt>
      <trkpt lat="47.530542" lon="8.266772">
        <ele>424.372310</ele>
        <time>2021-11-22T15:27:27.581Z</time>
      </trkpt>
      <trkpt lat="47.530481" lon="8.266373">
        <ele>424.246786</ele>
        <time>2021-11-22T15:27:30.930Z</time>
      </trkpt>
      <trkpt lat="47.530444" lon="8.266201">
        <ele>424.191397</ele>
        <time>2021-11-22T15:27:32.450Z</time>
      </trkpt>
      <trkpt lat="47.530417" lon="8.266090">
        <ele>424.155197</ele>
        <time>2021-11-22T15:27:33.322Z</time>
      </trkpt>
      <trkpt lat="47.530362" lon="8.265914">
        <ele>424.095691</ele>
        <time>2021-11-22T15:27:35.074Z</time>
      </trkpt>
      <trkpt lat="47.530302" lon="8.265750">
        <ele>424.038458</ele>
        <time>2021-11-22T15:27:36.644Z</time>
      </trkpt>
      <trkpt lat="47.530226" lon="8.265575">
        <ele>423.896996</ele>
        <time>2021-11-22T15:27:38.316Z</time>
      </trkpt>
      <trkpt lat="47.530203" lon="8.265521">
        <ele>423.849927</ele>
        <time>2021-11-22T15:27:38.924Z</time>
      </trkpt>
      <trkpt lat="47.529981" lon="8.265145">
        <ele>423.481694</ele>
        <time>2021-11-22T15:27:43.158Z</time>
      </trkpt>
      <trkpt lat="47.529196" lon="8.264128">
        <ele>422.342918</ele>
        <time>2021-11-22T15:27:57.187Z</time>
      </trkpt>
      <trkpt lat="47.529010" lon="8.264051">
        <ele>422.132045</ele>
        <time>2021-11-22T15:27:59.243Z</time>
      </trkpt>
      <trkpt lat="47.528477" lon="8.264097">
        <ele>419.580066</ele>
        <time>2021-11-22T15:28:04.647Z</time>
      </trkpt>
      <trkpt lat="47.528378" lon="8.263979">
        <ele>418.912828</ele>
        <time>2021-11-22T15:28:06.089Z</time>
      </trkpt>
      <trkpt lat="47.528331" lon="8.263808">
        <ele>418.258282</ele>
        <time>2021-11-22T15:28:07.223Z</time>
      </trkpt>
      <trkpt lat="47.528337" lon="8.263703">
        <ele>417.884695</ele>
        <time>2021-11-22T15:28:08.383Z</time>
      </trkpt>
      <trkpt lat="47.528350" lon="8.263643">
        <ele>417.661295</ele>
        <time>2021-11-22T15:28:08.766Z</time>
      </trkpt>
      <trkpt lat="47.528459" lon="8.263489">
        <ele>416.870330</ele>
        <time>2021-11-22T15:28:10.130Z</time>
      </trkpt>
      <trkpt lat="47.528772" lon="8.263422">
        <ele>415.209836</ele>
        <time>2021-11-22T15:28:13.035Z</time>
      </trkpt>
      <trkpt lat="47.528836" lon="8.263437">
        <ele>414.869620</ele>
        <time>2021-11-22T15:28:13.600Z</time>
      </trkpt>
      <trkpt lat="47.528897" lon="8.263463">
        <ele>414.536337</ele>
        <time>2021-11-22T15:28:14.142Z</time>
      </trkpt>
      <trkpt lat="47.529224" lon="8.263703">
        <ele>412.618470</ele>
        <time>2021-11-22T15:28:17.403Z</time>
      </trkpt>
      <trkpt lat="47.529348" lon="8.263729">
        <ele>411.431954</ele>
        <time>2021-11-22T15:28:18.603Z</time>
      </trkpt>
      <trkpt lat="47.529534" lon="8.263627">
        <ele>409.552828</ele>
        <time>2021-11-22T15:28:20.304Z</time>
      </trkpt>
      <trkpt lat="47.529645" lon="8.263411">
        <ele>407.816390</ele>
        <time>2021-11-22T15:28:21.941Z</time>
      </trkpt>
      <trkpt lat="47.529662" lon="8.263325">
        <ele>407.243152</ele>
        <time>2021-11-22T15:28:22.439Z</time>
      </trkpt>
      <trkpt lat="47.529673" lon="8.263244">
        <ele>406.714613</ele>
        <time>2021-11-22T15:28:22.911Z</time>
      </trkpt>
      <trkpt lat="47.529666" lon="8.262917">
        <ele>404.621724</ele>
        <time>2021-11-22T15:28:24.853Z</time>
      </trkpt>
      <trkpt lat="47.529667" lon="8.262500">
        <ele>401.954134</ele>
        <time>2021-11-22T15:28:27.227Z</time>
      </trkpt>
      <trkpt lat="47.529720" lon="8.261920">
        <ele>398.210019</ele>
        <time>2021-11-22T15:28:30.674Z</time>
      </trkpt>
      <trkpt lat="47.529815" lon="8.261265">
        <ele>394.532954</ele>
        <time>2021-11-22T15:28:34.566Z</time>
      </trkpt>
      <trkpt lat="47.529827" lon="8.261186">
        <ele>394.205189</ele>
        <time>2021-11-22T15:28:35.014Z</time>
      </trkpt>
      <trkpt lat="47.529850" lon="8.261032">
        <ele>393.566767</ele>
        <time>2021-11-22T15:28:35.952Z</time>
      </trkpt>
      <trkpt lat="47.529879" lon="8.260840">
        <ele>392.770389</ele>
        <time>2021-11-22T15:28:37.169Z</time>
      </trkpt>
      <trkpt lat="47.529930" lon="8.260480">
        <ele>391.281469</ele>
        <time>2021-11-22T15:28:39.343Z</time>
      </trkpt>
      <trkpt lat="47.529982" lon="8.260132">
        <ele>389.838770</ele>
        <time>2021-11-22T15:28:41.496Z</time>
      </trkpt>
      <trkpt lat="47.530011" lon="8.260007">
        <ele>389.303766</ele>
        <time>2021-11-22T15:28:42.375Z</time>
      </trkpt>
      <trkpt lat="47.530079" lon="8.259859">
        <ele>388.579157</ele>
        <time>2021-11-22T15:28:43.598Z</time>
      </trkpt>
      <trkpt lat="47.530189" lon="8.259745">
        <ele>387.774308</ele>
        <time>2021-11-22T15:28:44.778Z</time>
      </trkpt>
      <trkpt lat="47.530459" lon="8.259540">
        <ele>385.955396</ele>
        <time>2021-11-22T15:28:48.042Z</time>
      </trkpt>
      <trkpt lat="47.530670" lon="8.259333">
        <ele>384.740216</ele>
        <time>2021-11-22T15:28:50.708Z</time>
      </trkpt>
      <trkpt lat="47.531056" lon="8.258919">
        <ele>384.275296</ele>
        <time>2021-11-22T15:28:57.428Z</time>
      </trkpt>
      <trkpt lat="47.531097" lon="8.258863">
        <ele>384.220888</ele>
        <time>2021-11-22T15:28:58.074Z</time>
      </trkpt>
      <trkpt lat="47.531118" lon="8.258821">
        <ele>384.186464</ele>
        <time>2021-11-22T15:28:58.428Z</time>
      </trkpt>
      <trkpt lat="47.531134" lon="8.258789">
        <ele>384.160237</ele>
        <time>2021-11-22T15:28:58.680Z</time>
      </trkpt>
      <trkpt lat="47.531134" lon="8.258789">
        <ele>384.160237</ele>
        <time>2021-11-22T15:28:58.833Z</time>
      </trkpt>
      <trkpt lat="47.531153" lon="8.258671">
        <ele>384.080335</ele>
        <time>2021-11-22T15:28:59.960Z</time>
      </trkpt>
      <trkpt lat="47.531054" lon="8.258166">
        <ele>383.733973</ele>
        <time>2021-11-22T15:29:04.758Z</time>
      </trkpt>
      <trkpt lat="47.530980" lon="8.258001">
        <ele>383.603502</ele>
        <time>2021-11-22T15:29:06.960Z</time>
      </trkpt>
      <trkpt lat="47.530926" lon="8.257880">
        <ele>383.507968</ele>
        <time>2021-11-22T15:29:08.121Z</time>
      </trkpt>
      <trkpt lat="47.530561" lon="8.257007">
        <ele>382.358789</ele>
        <time>2021-11-22T15:29:16.999Z</time>
      </trkpt>
      <trkpt lat="47.530456" lon="8.256769">
        <ele>381.755178</ele>
        <time>2021-11-22T15:29:19.142Z</time>
      </trkpt>
      <trkpt lat="47.530398" lon="8.256646">
        <ele>381.436650</ele>
        <time>2021-11-22T15:29:20.266Z</time>
      </trkpt>
      <trkpt lat="47.529922" lon="8.255598">
        <ele>378.755004</ele>
        <time>2021-11-22T15:29:28.789Z</time>
      </trkpt>
      <trkpt lat="47.529766" lon="8.255266">
        <ele>377.896226</ele>
        <time>2021-11-22T15:29:31.360Z</time>
      </trkpt>
      <trkpt lat="47.529562" lon="8.254878">
        <ele>376.717780</ele>
        <time>2021-11-22T15:29:34.463Z</time>
      </trkpt>
      <trkpt lat="47.529226" lon="8.254330">
        <ele>374.752467</ele>
        <time>2021-11-22T15:29:39.305Z</time>
      </trkpt>
      <trkpt lat="47.528868" lon="8.253792">
        <ele>372.746976</ele>
        <time>2021-11-22T15:29:44.247Z</time>
      </trkpt>
      <trkpt lat="47.528572" lon="8.253349">
        <ele>371.092251</ele>
        <time>2021-11-22T15:29:48.485Z</time>
      </trkpt>
      <trkpt lat="47.528238" lon="8.252801">
        <ele>369.421996</ele>
        <time>2021-11-22T15:29:53.708Z</time>
      </trkpt>
      <trkpt lat="47.528199" lon="8.252736">
        <ele>369.247642</ele>
        <time>2021-11-22T15:29:54.257Z</time>
      </trkpt>
      <trkpt lat="47.528157" lon="8.252665">
        <ele>369.058373</ele>
        <time>2021-11-22T15:29:54.921Z</time>
      </trkpt>
      <trkpt lat="47.527531" lon="8.251472">
        <ele>366.028870</ele>
        <time>2021-11-22T15:30:05.282Z</time>
      </trkpt>
      <trkpt lat="47.527165" lon="8.250812">
        <ele>364.539296</ele>
        <time>2021-11-22T15:30:11.319Z</time>
      </trkpt>
      <trkpt lat="47.527029" lon="8.250418">
        <ele>363.952396</ele>
        <time>2021-11-22T15:30:14.595Z</time>
      </trkpt>
      <trkpt lat="47.527017" lon="8.250267">
        <ele>363.750736</ele>
        <time>2021-11-22T15:30:15.635Z</time>
      </trkpt>
      <trkpt lat="47.527016" lon="8.250209">
        <ele>363.673783</ele>
        <time>2021-11-22T15:30:16.087Z</time>
      </trkpt>
      <trkpt lat="47.527011" lon="8.250030">
        <ele>363.436164</ele>
        <time>2021-11-22T15:30:17.465Z</time>
      </trkpt>
      <trkpt lat="47.527035" lon="8.249796">
        <ele>363.122240</ele>
        <time>2021-11-22T15:30:19.188Z</time>
      </trkpt>
      <trkpt lat="47.527172" lon="8.249153">
        <ele>362.227953</ele>
        <time>2021-11-22T15:30:24.264Z</time>
      </trkpt>
      <trkpt lat="47.527229" lon="8.248976">
        <ele>361.967859</ele>
        <time>2021-11-22T15:30:25.833Z</time>
      </trkpt>
      <trkpt lat="47.527229" lon="8.248976">
        <ele>361.967859</ele>
        <time>2021-11-22T15:30:25.836Z</time>
      </trkpt>
      <trkpt lat="47.527229" lon="8.248976">
        <ele>361.967859</ele>
        <time>2021-11-22T15:30:25.869Z</time>
      </trkpt>
      <trkpt lat="47.526606" lon="8.248472">
        <ele>361.134405</ele>
        <time>2021-11-22T15:30:34.172Z</time>
      </trkpt>
      <trkpt lat="47.525910" lon="8.247912">
        <ele>360.583540</ele>
        <time>2021-11-22T15:30:44.466Z</time>
      </trkpt>
      <trkpt lat="47.525817" lon="8.247826">
        <ele>360.507289</ele>
        <time>2021-11-22T15:30:45.987Z</time>
      </trkpt>
      <trkpt lat="47.525825" lon="8.247792">
        <ele>360.490381</ele>
        <time>2021-11-22T15:30:46.319Z</time>
      </trkpt>
      <trkpt lat="47.525799" lon="8.247658">
        <ele>360.424906</ele>
        <time>2021-11-22T15:30:47.732Z</time>
      </trkpt>
      <trkpt lat="47.525780" lon="8.247635">
        <ele>360.407840</ele>
        <time>2021-11-22T15:30:48.039Z</time>
      </trkpt>
      <trkpt lat="47.525758" lon="8.247620">
        <ele>360.390996</ele>
        <time>2021-11-22T15:30:48.354Z</time>
      </trkpt>
      <trkpt lat="47.525736" lon="8.247614">
        <ele>360.375439</ele>
        <time>2021-11-22T15:30:48.655Z</time>
      </trkpt>
      <trkpt lat="47.525656" lon="8.247660">
        <ele>360.315755</ele>
        <time>2021-11-22T15:30:49.863Z</time>
      </trkpt>
      <trkpt lat="47.525642" lon="8.247687">
        <ele>360.299769</ele>
        <time>2021-11-22T15:30:50.167Z</time>
      </trkpt>
      <trkpt lat="47.525559" lon="8.247630">
        <ele>360.236141</ele>
        <time>2021-11-22T15:30:51.913Z</time>
      </trkpt>
      <trkpt lat="47.524806" lon="8.247025">
        <ele>359.953945</ele>
        <time>2021-11-22T15:31:08.556Z</time>
      </trkpt>
      <trkpt lat="47.524540" lon="8.246812">
        <ele>359.863409</ele>
        <time>2021-11-22T15:31:14.545Z</time>
      </trkpt>
      <trkpt lat="47.524302" lon="8.246615">
        <ele>359.781778</ele>
        <time>2021-11-22T15:31:19.676Z</time>
      </trkpt>
      <trkpt lat="47.524066" lon="8.246425">
        <ele>359.701354</ele>
        <time>2021-11-22T15:31:24.705Z</time>
      </trkpt>
      <trkpt lat="47.523896" lon="8.246288">
        <ele>359.634819</ele>
        <time>2021-11-22T15:31:28.561Z</time>
      </trkpt>
      <trkpt lat="47.523762" lon="8.246179">
        <ele>359.545777</ele>
        <time>2021-11-22T15:31:31.392Z</time>
      </trkpt>
      <trkpt lat="47.523454" lon="8.245939">
        <ele>359.343075</ele>
        <time>2021-11-22T15:31:38.044Z</time>
      </trkpt>
      <trkpt lat="47.522764" lon="8.245374">
        <ele>358.883865</ele>
        <time>2021-11-22T15:31:52.120Z</time>
      </trkpt>
      <trkpt lat="47.522559" lon="8.245220">
        <ele>358.749986</ele>
        <time>2021-11-22T15:31:56.302Z</time>
      </trkpt>
      <trkpt lat="47.522465" lon="8.245129">
        <ele>358.684578</ele>
        <time>2021-11-22T15:31:58.245Z</time>
      </trkpt>
      <trkpt lat="47.522270" lon="8.244949">
        <ele>358.564708</ele>
        <time>2021-11-22T15:32:02.525Z</time>
      </trkpt>
      <trkpt lat="47.521953" lon="8.244622">
        <ele>358.397659</ele>
        <time>2021-11-22T15:32:09.537Z</time>
      </trkpt>
      <trkpt lat="47.521589" lon="8.244208">
        <ele>358.199198</ele>
        <time>2021-11-22T15:32:18.129Z</time>
      </trkpt>
      <trkpt lat="47.520837" lon="8.243335">
        <ele>357.726878</ele>
        <time>2021-11-22T15:32:36.720Z</time>
      </trkpt>
      <trkpt lat="47.520674" lon="8.243016">
        <ele>357.442357</ele>
        <time>2021-11-22T15:32:41.739Z</time>
      </trkpt>
      <trkpt lat="47.520669" lon="8.242951">
        <ele>357.395825</ele>
        <time>2021-11-22T15:32:42.465Z</time>
      </trkpt>
      <trkpt lat="47.520441" lon="8.242840">
        <ele>357.143046</ele>
        <time>2021-11-22T15:32:45.607Z</time>
      </trkpt>
      <trkpt lat="47.520374" lon="8.242806">
        <ele>357.068451</ele>
        <time>2021-11-22T15:32:46.382Z</time>
      </trkpt>
      <trkpt lat="47.520306" lon="8.242758">
        <ele>356.989111</ele>
        <time>2021-11-22T15:32:47.246Z</time>
      </trkpt>
      <trkpt lat="47.520246" lon="8.242714">
        <ele>356.918593</ele>
        <time>2021-11-22T15:32:48.088Z</time>
      </trkpt>
      <trkpt lat="47.520155" lon="8.242631">
        <ele>356.806027</ele>
        <time>2021-11-22T15:32:49.481Z</time>
      </trkpt>
      <trkpt lat="47.520117" lon="8.242591">
        <ele>356.756922</ele>
        <time>2021-11-22T15:32:50.056Z</time>
      </trkpt>
      <trkpt lat="47.519215" lon="8.241726">
        <ele>355.398322</ele>
        <time>2021-11-22T15:33:02.512Z</time>
      </trkpt>
      <trkpt lat="47.519150" lon="8.241657">
        <ele>355.252021</ele>
        <time>2021-11-22T15:33:03.345Z</time>
      </trkpt>
      <trkpt lat="47.518798" lon="8.241363">
        <ele>354.512745</ele>
        <time>2021-11-22T15:33:07.786Z</time>
      </trkpt>
      <trkpt lat="47.518497" lon="8.241173">
        <ele>353.914190</ele>
        <time>2021-11-22T15:33:11.327Z</time>
      </trkpt>
      <trkpt lat="47.518388" lon="8.241113">
        <ele>353.701468</ele>
        <time>2021-11-22T15:33:12.651Z</time>
      </trkpt>
      <trkpt lat="47.518018" lon="8.240920">
        <ele>352.983868</ele>
        <time>2021-11-22T15:33:17.014Z</time>
      </trkpt>
      <trkpt lat="47.517913" lon="8.240868">
        <ele>352.781336</ele>
        <time>2021-11-22T15:33:18.273Z</time>
      </trkpt>
      <trkpt lat="47.517854" lon="8.240842">
        <ele>352.668731</ele>
        <time>2021-11-22T15:33:18.888Z</time>
      </trkpt>
      <trkpt lat="47.517631" lon="8.240773">
        <ele>352.325257</ele>
        <time>2021-11-22T15:33:21.554Z</time>
      </trkpt>
      <trkpt lat="47.517569" lon="8.240754">
        <ele>352.231160</ele>
        <time>2021-11-22T15:33:22.287Z</time>
      </trkpt>
      <trkpt lat="47.517536" lon="8.240661">
        <ele>352.125713</ele>
        <time>2021-11-22T15:33:23.058Z</time>
      </trkpt>
      <trkpt lat="47.517355" lon="8.240439">
        <ele>351.776408</ele>
        <time>2021-11-22T15:33:25.826Z</time>
      </trkpt>
      <trkpt lat="47.517166" lon="8.240314">
        <ele>351.468769</ele>
        <time>2021-11-22T15:33:28.195Z</time>
      </trkpt>
      <trkpt lat="47.516496" lon="8.240299">
        <ele>350.472901</ele>
        <time>2021-11-22T15:33:36.015Z</time>
      </trkpt>
      <trkpt lat="47.516181" lon="8.240179">
        <ele>349.989502</ele>
        <time>2021-11-22T15:33:39.807Z</time>
      </trkpt>
      <trkpt lat="47.516061" lon="8.240083">
        <ele>349.751137</ele>
        <time>2021-11-22T15:33:41.399Z</time>
      </trkpt>
      <trkpt lat="47.515946" lon="8.239962">
        <ele>349.500550</ele>
        <time>2021-11-22T15:33:43.050Z</time>
      </trkpt>
      <trkpt lat="47.515774" lon="8.239725">
        <ele>349.083215</ele>
        <time>2021-11-22T15:33:45.866Z</time>
      </trkpt>
      <trkpt lat="47.515697" lon="8.239573">
        <ele>348.855279</ele>
        <time>2021-11-22T15:33:47.343Z</time>
      </trkpt>
      <trkpt lat="47.515609" lon="8.239335">
        <ele>348.529781</ele>
        <time>2021-11-22T15:33:49.558Z</time>
      </trkpt>
      <trkpt lat="47.515558" lon="8.239175">
        <ele>348.317537</ele>
        <time>2021-11-22T15:33:50.784Z</time>
      </trkpt>
      <trkpt lat="47.515153" lon="8.237853">
        <ele>346.413795</ele>
        <time>2021-11-22T15:34:01.754Z</time>
      </trkpt>
      <trkpt lat="47.515010" lon="8.237386">
        <ele>345.296096</ele>
        <time>2021-11-22T15:34:05.353Z</time>
      </trkpt>
      <trkpt lat="47.514974" lon="8.237263">
        <ele>345.003889</ele>
        <time>2021-11-22T15:34:06.163Z</time>
      </trkpt>
      <trkpt lat="47.514943" lon="8.237158">
        <ele>344.754099</ele>
        <time>2021-11-22T15:34:07.010Z</time>
      </trkpt>
      <trkpt lat="47.514761" lon="8.236590">
        <ele>343.383703</ele>
        <time>2021-11-22T15:34:11.294Z</time>
      </trkpt>
      <trkpt lat="47.514584" lon="8.236035">
        <ele>342.045820</ele>
        <time>2021-11-22T15:34:15.460Z</time>
      </trkpt>
      <trkpt lat="47.514551" lon="8.235938">
        <ele>341.809069</ele>
        <time>2021-11-22T15:34:16.232Z</time>
      </trkpt>
      <trkpt lat="47.514521" lon="8.235859">
        <ele>341.611511</ele>
        <time>2021-11-22T15:34:16.751Z</time>
      </trkpt>
      <trkpt lat="47.514421" lon="8.235528">
        <ele>340.890902</ele>
        <time>2021-11-22T15:34:19.407Z</time>
      </trkpt>
      <trkpt lat="47.514357" lon="8.235317">
        <ele>340.623473</ele>
        <time>2021-11-22T15:34:20.833Z</time>
      </trkpt>
      <trkpt lat="47.514331" lon="8.234904">
        <ele>340.143896</ele>
        <time>2021-11-22T15:34:23.873Z</time>
      </trkpt>
      <trkpt lat="47.514336" lon="8.234825">
        <ele>340.052156</ele>
        <time>2021-11-22T15:34:24.329Z</time>
      </trkpt>
      <trkpt lat="47.514340" lon="8.234764">
        <ele>339.981297</ele>
        <time>2021-11-22T15:34:24.800Z</time>
      </trkpt>
      <trkpt lat="47.514372" lon="8.234452">
        <ele>339.616429</ele>
        <time>2021-11-22T15:34:27.240Z</time>
      </trkpt>
      <trkpt lat="47.514536" lon="8.233032">
        <ele>337.950808</ele>
        <time>2021-11-22T15:34:38.895Z</time>
      </trkpt>
      <trkpt lat="47.514596" lon="8.232512">
        <ele>338.700152</ele>
        <time>2021-11-22T15:34:45.761Z</time>
      </trkpt>
      <trkpt lat="47.514641" lon="8.232124">
        <ele>339.370177</ele>
        <time>2021-11-22T15:34:52.696Z</time>
      </trkpt>
      <trkpt lat="47.514655" lon="8.231999">
        <ele>339.585826</ele>
        <time>2021-11-22T15:34:54.960Z</time>
      </trkpt>
      <trkpt lat="47.514647" lon="8.231860">
        <ele>339.823255</ele>
        <time>2021-11-22T15:34:56.716Z</time>
      </trkpt>
      <trkpt lat="47.514631" lon="8.231804">
        <ele>339.926742</ele>
        <time>2021-11-22T15:34:58.177Z</time>
      </trkpt>
      <trkpt lat="47.514600" lon="8.231748">
        <ele>340.049975</ele>
        <time>2021-11-22T15:35:00.286Z</time>
      </trkpt>
      <trkpt lat="47.514331" lon="8.231611">
        <ele>340.766814</ele>
        <time>2021-11-22T15:35:07.483Z</time>
      </trkpt>
      <trkpt lat="47.513585" lon="8.231531">
        <ele>342.622428</ele>
        <time>2021-11-22T15:35:29.627Z</time>
      </trkpt>
      <trkpt lat="47.513445" lon="8.231503">
        <ele>342.932964</ele>
        <time>2021-11-22T15:35:34.158Z</time>
      </trkpt>
      <trkpt lat="47.513032" lon="8.231360">
        <ele>343.865297</ele>
        <time>2021-11-22T15:35:45.928Z</time>
      </trkpt>
      <trkpt lat="47.512998" lon="8.231348">
        <ele>343.942128</ele>
        <time>2021-11-22T15:35:46.890Z</time>
      </trkpt>
      <trkpt lat="47.512728" lon="8.231257">
        <ele>344.550814</ele>
        <time>2021-11-22T15:35:53.001Z</time>
      </trkpt>
      <trkpt lat="47.512593" lon="8.231233">
        <ele>344.849696</ele>
        <time>2021-11-22T15:35:55.722Z</time>
      </trkpt>
      <trkpt lat="47.512322" lon="8.231210">
        <ele>345.446374</ele>
        <time>2021-11-22T15:36:01.202Z</time>
      </trkpt>
      <trkpt lat="47.512031" lon="8.231186">
        <ele>346.087028</ele>
        <time>2021-11-22T15:36:07.054Z</time>
      </trkpt>
      <trkpt lat="47.511797" lon="8.231184">
        <ele>346.520019</ele>
        <time>2021-11-22T15:36:11.316Z</time>
      </trkpt>
      <trkpt lat="47.511560" lon="8.231155">
        <ele>346.853291</ele>
        <time>2021-11-22T15:36:16.024Z</time>
      </trkpt>
      <trkpt lat="47.511242" lon="8.231116">
        <ele>347.300472</ele>
        <time>2021-11-22T15:36:22.038Z</time>
      </trkpt>
      <trkpt lat="47.510663" lon="8.231032">
        <ele>348.115787</ele>
        <time>2021-11-22T15:36:33.343Z</time>
      </trkpt>
      <trkpt lat="47.510192" lon="8.230967">
        <ele>348.778723</ele>
        <time>2021-11-22T15:36:44.119Z</time>
      </trkpt>
      <trkpt lat="47.509275" lon="8.230833">
        <ele>349.203100</ele>
        <time>2021-11-22T15:37:05.106Z</time>
      </trkpt>
      <trkpt lat="47.509168" lon="8.230857">
        <ele>349.242623</ele>
        <time>2021-11-22T15:37:07.341Z</time>
      </trkpt>
      <trkpt lat="47.508744" lon="8.230950">
        <ele>349.399163</ele>
        <time>2021-11-22T15:37:14.142Z</time>
      </trkpt>
      <trkpt lat="47.508402" lon="8.231091">
        <ele>349.528818</ele>
        <time>2021-11-22T15:37:18.355Z</time>
      </trkpt>
      <trkpt lat="47.508112" lon="8.231235">
        <ele>348.473437</ele>
        <time>2021-11-22T15:37:21.638Z</time>
      </trkpt>
      <trkpt lat="47.506125" lon="8.232342">
        <ele>338.783279</ele>
        <time>2021-11-22T15:37:41.451Z</time>
      </trkpt>
      <trkpt lat="47.505992" lon="8.232372">
        <ele>338.176939</ele>
        <time>2021-11-22T15:37:42.689Z</time>
      </trkpt>
      <trkpt lat="47.505810" lon="8.232411">
        <ele>337.348129</ele>
        <time>2021-11-22T15:37:44.451Z</time>
      </trkpt>
      <trkpt lat="47.505603" lon="8.232401">
        <ele>336.414698</ele>
        <time>2021-11-22T15:37:46.381Z</time>
      </trkpt>
      <trkpt lat="47.505319" lon="8.232381">
        <ele>335.133283</ele>
        <time>2021-11-22T15:37:49.144Z</time>
      </trkpt>
      <trkpt lat="47.505091" lon="8.232396">
        <ele>334.104689</ele>
        <time>2021-11-22T15:37:51.435Z</time>
      </trkpt>
      <trkpt lat="47.504952" lon="8.232437">
        <ele>333.465911</ele>
        <time>2021-11-22T15:37:52.831Z</time>
      </trkpt>
      <trkpt lat="47.504766" lon="8.232517">
        <ele>333.021734</ele>
        <time>2021-11-22T15:37:54.842Z</time>
      </trkpt>
      <trkpt lat="47.504539" lon="8.232634">
        <ele>332.701570</ele>
        <time>2021-11-22T15:37:57.312Z</time>
      </trkpt>
      <trkpt lat="47.504441" lon="8.232712">
        <ele>332.553363</ele>
        <time>2021-11-22T15:37:58.594Z</time>
      </trkpt>
      <trkpt lat="47.503966" lon="8.233089">
        <ele>331.835468</ele>
        <time>2021-11-22T15:38:04.779Z</time>
      </trkpt>
      <trkpt lat="47.503676" lon="8.233303">
        <ele>331.403857</ele>
        <time>2021-11-22T15:38:09.563Z</time>
      </trkpt>
      <trkpt lat="47.503460" lon="8.233443">
        <ele>331.089778</ele>
        <time>2021-11-22T15:38:13.970Z</time>
      </trkpt>
      <trkpt lat="47.503236" lon="8.233563">
        <ele>330.797034</ele>
        <time>2021-11-22T15:38:16.817Z</time>
      </trkpt>
      <trkpt lat="47.502872" lon="8.233693">
        <ele>330.665234</ele>
        <time>2021-11-22T15:38:21.715Z</time>
      </trkpt>
      <trkpt lat="47.502669" lon="8.233740">
        <ele>330.592911</ele>
        <time>2021-11-22T15:38:26.745Z</time>
      </trkpt>
      <trkpt lat="47.502540" lon="8.233758">
        <ele>330.547303</ele>
        <time>2021-11-22T15:38:27.970Z</time>
      </trkpt>
      <trkpt lat="47.502475" lon="8.233760">
        <ele>330.524419</ele>
        <time>2021-11-22T15:38:28.777Z</time>
      </trkpt>
      <trkpt lat="47.502410" lon="8.233764">
        <ele>330.501520</ele>
        <time>2021-11-22T15:38:31.378Z</time>
      </trkpt>
      <trkpt lat="47.502111" lon="8.233754">
        <ele>330.396249</ele>
        <time>2021-11-22T15:38:34.675Z</time>
      </trkpt>
      <trkpt lat="47.501935" lon="8.233731">
        <ele>330.334058</ele>
        <time>2021-11-22T15:38:39.410Z</time>
      </trkpt>
      <trkpt lat="47.501831" lon="8.233717">
        <ele>330.297300</ele>
        <time>2021-11-22T15:38:40.363Z</time>
      </trkpt>
      <trkpt lat="47.501707" lon="8.233686">
        <ele>330.253035</ele>
        <time>2021-11-22T15:38:43.206Z</time>
      </trkpt>
      <trkpt lat="47.501437" lon="8.233590">
        <ele>330.149061</ele>
        <time>2021-11-22T15:38:46.313Z</time>
      </trkpt>
      <trkpt lat="47.501437" lon="8.233590">
        <ele>330.149061</ele>
        <time>2021-11-22T15:38:46.317Z</time>
      </trkpt>
      <trkpt lat="47.501313" lon="8.233532">
        <ele>330.086944</ele>
        <time>2021-11-22T15:38:50.008Z</time>
      </trkpt>
      <trkpt lat="47.500889" lon="8.233230">
        <ele>329.862185</ele>
        <time>2021-11-22T15:38:56.403Z</time>
      </trkpt>
      <trkpt lat="47.500813" lon="8.233150">
        <ele>329.817639</ele>
        <time>2021-11-22T15:38:57.298Z</time>
      </trkpt>
      <trkpt lat="47.500808" lon="8.233145">
        <ele>329.814757</ele>
        <time>2021-11-22T15:38:57.371Z</time>
      </trkpt>
      <trkpt lat="47.500766" lon="8.233107">
        <ele>329.791244</ele>
        <time>2021-11-22T15:38:58.017Z</time>
      </trkpt>
      <trkpt lat="47.500486" lon="8.232837">
        <ele>329.631620</ele>
        <time>2021-11-22T15:39:02.090Z</time>
      </trkpt>
      <trkpt lat="47.498958" lon="8.231169">
        <ele>329.605729</ele>
        <time>2021-11-22T15:39:30.039Z</time>
      </trkpt>
      <trkpt lat="47.498722" lon="8.231008">
        <ele>329.667306</ele>
        <time>2021-11-22T15:39:34.591Z</time>
      </trkpt>
      <trkpt lat="47.498630" lon="8.230953">
        <ele>329.690817</ele>
        <time>2021-11-22T15:39:36.197Z</time>
      </trkpt>
      <trkpt lat="47.498640" lon="8.230910">
        <ele>329.698097</ele>
        <time>2021-11-22T15:39:36.911Z</time>
      </trkpt>
      <trkpt lat="47.498621" lon="8.230777">
        <ele>329.719860</ele>
        <time>2021-11-22T15:39:38.626Z</time>
      </trkpt>
      <trkpt lat="47.498599" lon="8.230744">
        <ele>329.727283</ele>
        <time>2021-11-22T15:39:39.384Z</time>
      </trkpt>
      <trkpt lat="47.498567" lon="8.230718">
        <ele>329.735933</ele>
        <time>2021-11-22T15:39:39.912Z</time>
      </trkpt>
      <trkpt lat="47.498464" lon="8.230742">
        <ele>329.809184</ele>
        <time>2021-11-22T15:39:41.729Z</time>
      </trkpt>
      <trkpt lat="47.498438" lon="8.230780">
        <ele>329.838018</ele>
        <time>2021-11-22T15:39:42.314Z</time>
      </trkpt>
      <trkpt lat="47.498359" lon="8.230714">
        <ele>329.909604</ele>
        <time>2021-11-22T15:39:44.043Z</time>
      </trkpt>
      <trkpt lat="47.498304" lon="8.230670">
        <ele>329.958939</ele>
        <time>2021-11-22T15:39:45.333Z</time>
      </trkpt>
      <trkpt lat="47.497879" lon="8.230261">
        <ele>330.358972</ele>
        <time>2021-11-22T15:39:54.554Z</time>
      </trkpt>
      <trkpt lat="47.497468" lon="8.229707">
        <ele>330.797639</ele>
        <time>2021-11-22T15:40:04.863Z</time>
      </trkpt>
      <trkpt lat="47.497301" lon="8.229460">
        <ele>330.983941</ele>
        <time>2021-11-22T15:40:09.084Z</time>
      </trkpt>
      <trkpt lat="47.497265" lon="8.229407">
        <ele>331.024010</ele>
        <time>2021-11-22T15:40:09.913Z</time>
      </trkpt>
      <trkpt lat="47.496577" lon="8.228436">
        <ele>331.437198</ele>
        <time>2021-11-22T15:40:26.184Z</time>
      </trkpt>
      <trkpt lat="47.496520" lon="8.228357">
        <ele>331.465056</ele>
        <time>2021-11-22T15:40:27.474Z</time>
      </trkpt>
      <trkpt lat="47.495838" lon="8.227392">
        <ele>331.801593</ele>
        <time>2021-11-22T15:40:41.823Z</time>
      </trkpt>
      <trkpt lat="47.495145" lon="8.226536">
        <ele>332.102065</ele>
        <time>2021-11-22T15:40:55.876Z</time>
      </trkpt>
      <trkpt lat="47.494591" lon="8.225908">
        <ele>332.334359</ele>
        <time>2021-11-22T15:41:07.378Z</time>
      </trkpt>
      <trkpt lat="47.494443" lon="8.225749">
        <ele>332.395237</ele>
        <time>2021-11-22T15:41:10.612Z</time>
      </trkpt>
      <trkpt lat="47.494039" lon="8.225147">
        <ele>332.838503</ele>
        <time>2021-11-22T15:41:20.741Z</time>
      </trkpt>
      <trkpt lat="47.493473" lon="8.223941">
        <ele>333.615735</ele>
        <time>2021-11-22T15:41:39.293Z</time>
      </trkpt>
      <trkpt lat="47.493363" lon="8.223701">
        <ele>333.769239</ele>
        <time>2021-11-22T15:41:42.918Z</time>
      </trkpt>
      <trkpt lat="47.492980" lon="8.223010">
        <ele>334.214937</ele>
        <time>2021-11-22T15:41:52.823Z</time>
      </trkpt>
      <trkpt lat="47.492969" lon="8.222990">
        <ele>334.227726</ele>
        <time>2021-11-22T15:41:53.182Z</time>
      </trkpt>
      <trkpt lat="47.492756" lon="8.222608">
        <ele>334.473337</ele>
        <time>2021-11-22T15:41:58.763Z</time>
      </trkpt>
      <trkpt lat="47.492589" lon="8.222332">
        <ele>334.657066</ele>
        <time>2021-11-22T15:42:03.323Z</time>
      </trkpt>
      <trkpt lat="47.492461" lon="8.222136">
        <ele>334.792244</ele>
        <time>2021-11-22T15:42:06.814Z</time>
      </trkpt>
      <trkpt lat="47.492325" lon="8.221961">
        <ele>334.924511</ele>
        <time>2021-11-22T15:42:10.250Z</time>
      </trkpt>
      <trkpt lat="47.492205" lon="8.221792">
        <ele>335.046087</ele>
        <time>2021-11-22T15:42:13.193Z</time>
      </trkpt>
      <trkpt lat="47.492159" lon="8.221736">
        <ele>335.089803</ele>
        <time>2021-11-22T15:42:14.242Z</time>
      </trkpt>
      <trkpt lat="47.492004" lon="8.221524">
        <ele>335.273166</ele>
        <time>2021-11-22T15:42:18.179Z</time>
      </trkpt>
      <trkpt lat="47.491870" lon="8.221272">
        <ele>335.471203</ele>
        <time>2021-11-22T15:42:22.235Z</time>
      </trkpt>
      <trkpt lat="47.491854" lon="8.221243">
        <ele>335.494324</ele>
        <time>2021-11-22T15:42:22.793Z</time>
      </trkpt>
      <trkpt lat="47.491810" lon="8.221155">
        <ele>335.561930</ele>
        <time>2021-11-22T15:42:24.179Z</time>
      </trkpt>
      <trkpt lat="47.491769" lon="8.221069">
        <ele>335.626930</ele>
        <time>2021-11-22T15:42:25.444Z</time>
      </trkpt>
      <trkpt lat="47.491466" lon="8.220320">
        <ele>336.166049</ele>
        <time>2021-11-22T15:42:36.331Z</time>
      </trkpt>
      <trkpt lat="47.491309" lon="8.219930">
        <ele>336.446405</ele>
        <time>2021-11-22T15:42:41.472Z</time>
      </trkpt>
      <trkpt lat="47.491248" lon="8.219803">
        <ele>336.542632</ele>
        <time>2021-11-22T15:42:43.941Z</time>
      </trkpt>
      <trkpt lat="47.491037" lon="8.219389">
        <ele>336.835059</ele>
        <time>2021-11-22T15:42:50.511Z</time>
      </trkpt>
      <trkpt lat="47.491020" lon="8.219359">
        <ele>336.851790</ele>
        <time>2021-11-22T15:42:51.119Z</time>
      </trkpt>
      <trkpt lat="47.490792" lon="8.218915">
        <ele>337.090088</ele>
        <time>2021-11-22T15:42:58.108Z</time>
      </trkpt>
      <trkpt lat="47.490770" lon="8.218876">
        <ele>337.111797</ele>
        <time>2021-11-22T15:42:58.783Z</time>
      </trkpt>
      <trkpt lat="47.490673" lon="8.218724">
        <ele>337.201137</ele>
        <time>2021-11-22T15:43:00.541Z</time>
      </trkpt>
      <trkpt lat="47.490500" lon="8.218456">
        <ele>337.359518</ele>
        <time>2021-11-22T15:43:05.531Z</time>
      </trkpt>
      <trkpt lat="47.490446" lon="8.218377">
        <ele>337.407536</ele>
        <time>2021-11-22T15:43:06.324Z</time>
      </trkpt>
      <trkpt lat="47.490273" lon="8.218076">
        <ele>337.576395</ele>
        <time>2021-11-22T15:43:11.532Z</time>
      </trkpt>
      <trkpt lat="47.489795" lon="8.217148">
        <ele>338.213945</ele>
        <time>2021-11-22T15:43:24.372Z</time>
      </trkpt>
      <trkpt lat="47.489669" lon="8.216875">
        <ele>338.474166</ele>
        <time>2021-11-22T15:43:28.772Z</time>
      </trkpt>
      <trkpt lat="47.489193" lon="8.215905">
        <ele>339.417757</ele>
        <time>2021-11-22T15:43:44.492Z</time>
      </trkpt>
      <trkpt lat="47.489072" lon="8.215648">
        <ele>339.664306</ele>
        <time>2021-11-22T15:43:48.820Z</time>
      </trkpt>
      <trkpt lat="47.488945" lon="8.215373">
        <ele>339.926487</ele>
        <time>2021-11-22T15:43:54.235Z</time>
      </trkpt>
      <trkpt lat="47.488849" lon="8.215150">
        <ele>340.105787</ele>
        <time>2021-11-22T15:43:57.997Z</time>
      </trkpt>
      <trkpt lat="47.488587" lon="8.214475">
        <ele>340.582081</ele>
        <time>2021-11-22T15:44:09.339Z</time>
      </trkpt>
      <trkpt lat="47.488479" lon="8.214166">
        <ele>340.794942</ele>
        <time>2021-11-22T15:44:13.586Z</time>
      </trkpt>
      <trkpt lat="47.488405" lon="8.213963">
        <ele>340.936071</ele>
        <time>2021-11-22T15:44:16.870Z</time>
      </trkpt>
      <trkpt lat="47.488276" lon="8.213688">
        <ele>341.140904</ele>
        <time>2021-11-22T15:44:20.516Z</time>
      </trkpt>
      <trkpt lat="47.488163" lon="8.213489">
        <ele>341.299949</ele>
        <time>2021-11-22T15:44:24.186Z</time>
      </trkpt>
      <trkpt lat="47.488066" lon="8.213320">
        <ele>341.435622</ele>
        <time>2021-11-22T15:44:26.254Z</time>
      </trkpt>
      <trkpt lat="47.487567" lon="8.212471">
        <ele>341.101180</ele>
        <time>2021-11-22T15:44:36.795Z</time>
      </trkpt>
      <trkpt lat="47.487481" lon="8.212310">
        <ele>340.964774</ele>
        <time>2021-11-22T15:44:38.549Z</time>
      </trkpt>
      <trkpt lat="47.487177" lon="8.211612">
        <ele>340.412828</ele>
        <time>2021-11-22T15:44:45.046Z</time>
      </trkpt>
      <trkpt lat="47.487105" lon="8.211448">
        <ele>340.282838</ele>
        <time>2021-11-22T15:44:46.417Z</time>
      </trkpt>
      <trkpt lat="47.486888" lon="8.210854">
        <ele>339.890647</ele>
        <time>2021-11-22T15:44:51.507Z</time>
      </trkpt>
      <trkpt lat="47.486888" lon="8.210854">
        <ele>339.890647</ele>
        <time>2021-11-22T15:44:51.570Z</time>
      </trkpt>
      <trkpt lat="47.486888" lon="8.210854">
        <ele>339.890647</ele>
        <time>2021-11-22T15:44:51.574Z</time>
      </trkpt>
      <trkpt lat="47.486806" lon="8.210623">
        <ele>340.037718</ele>
        <time>2021-11-22T15:44:53.804Z</time>
      </trkpt>
      <trkpt lat="47.486766" lon="8.210483">
        <ele>340.123390</ele>
        <time>2021-11-22T15:44:54.942Z</time>
      </trkpt>
      <trkpt lat="47.486641" lon="8.209950">
        <ele>340.441386</ele>
        <time>2021-11-22T15:45:00.726Z</time>
      </trkpt>
      <trkpt lat="47.486548" lon="8.209438">
        <ele>340.740212</ele>
        <time>2021-11-22T15:45:07.354Z</time>
      </trkpt>
      <trkpt lat="47.486515" lon="8.209174">
        <ele>340.891537</ele>
        <time>2021-11-22T15:45:11.537Z</time>
      </trkpt>
      <trkpt lat="47.486490" lon="8.208945">
        <ele>341.022284</ele>
        <time>2021-11-22T15:45:15.003Z</time>
      </trkpt>
      <trkpt lat="47.486467" lon="8.208668">
        <ele>341.179586</ele>
        <time>2021-11-22T15:45:19.699Z</time>
      </trkpt>
      <trkpt lat="47.486443" lon="8.208274">
        <ele>341.480779</ele>
        <time>2021-11-22T15:45:26.230Z</time>
      </trkpt>
      <trkpt lat="47.486442" lon="8.208230">
        <ele>341.557092</ele>
        <time>2021-11-22T15:45:27.705Z</time>
      </trkpt>
      <trkpt lat="47.486436" lon="8.208134">
        <ele>341.724209</ele>
        <time>2021-11-22T15:45:28.769Z</time>
      </trkpt>
      <trkpt lat="47.486409" lon="8.207571">
        <ele>342.702570</ele>
        <time>2021-11-22T15:45:38.945Z</time>
      </trkpt>
      <trkpt lat="47.486386" lon="8.207010">
        <ele>343.676799</ele>
        <time>2021-11-22T15:45:49.348Z</time>
      </trkpt>
      <trkpt lat="47.486393" lon="8.206858">
        <ele>343.940887</ele>
        <time>2021-11-22T15:45:52.436Z</time>
      </trkpt>
      <trkpt lat="47.486451" lon="8.206431">
        <ele>344.695855</ele>
        <time>2021-11-22T15:46:00.583Z</time>
      </trkpt>
      <trkpt lat="47.486489" lon="8.206087">
        <ele>345.300060</ele>
        <time>2021-11-22T15:46:06.694Z</time>
      </trkpt>
      <trkpt lat="47.486637" lon="8.204841">
        <ele>346.087475</ele>
        <time>2021-11-22T15:46:23.221Z</time>
      </trkpt>
      <trkpt lat="47.486650" lon="8.204696">
        <ele>346.105708</ele>
        <time>2021-11-22T15:46:24.816Z</time>
      </trkpt>
      <trkpt lat="47.486674" lon="8.204412">
        <ele>346.141386</ele>
        <time>2021-11-22T15:46:27.325Z</time>
      </trkpt>
      <trkpt lat="47.486660" lon="8.204225">
        <ele>346.164838</ele>
        <time>2021-11-22T15:46:29.070Z</time>
      </trkpt>
      <trkpt lat="47.486618" lon="8.203929">
        <ele>346.202540</ele>
        <time>2021-11-22T15:46:31.567Z</time>
      </trkpt>
      <trkpt lat="47.486237" lon="8.201991">
        <ele>346.350385</ele>
        <time>2021-11-22T15:46:49.605Z</time>
      </trkpt>
      <trkpt lat="47.486097" lon="8.201556">
        <ele>346.367107</ele>
        <time>2021-11-22T15:46:54.188Z</time>
      </trkpt>
      <trkpt lat="47.485891" lon="8.200905">
        <ele>346.392056</ele>
        <time>2021-11-22T15:47:02.338Z</time>
      </trkpt>
      <trkpt lat="47.485754" lon="8.200479">
        <ele>346.514119</ele>
        <time>2021-11-22T15:47:08.673Z</time>
      </trkpt>
      <trkpt lat="47.485646" lon="8.200115">
        <ele>346.783718</ele>
        <time>2021-11-22T15:47:14.038Z</time>
      </trkpt>
      <trkpt lat="47.485521" lon="8.199663">
        <ele>347.114925</ele>
        <time>2021-11-22T15:47:20.491Z</time>
      </trkpt>
      <trkpt lat="47.485506" lon="8.199571">
        <ele>347.179107</ele>
        <time>2021-11-22T15:47:21.948Z</time>
      </trkpt>
      <trkpt lat="47.485420" lon="8.199084">
        <ele>347.520467</ele>
        <time>2021-11-22T15:47:28.444Z</time>
      </trkpt>
      <trkpt lat="47.485389" lon="8.198848">
        <ele>347.683511</ele>
        <time>2021-11-22T15:47:31.993Z</time>
      </trkpt>
      <trkpt lat="47.485342" lon="8.198597">
        <ele>347.860146</ele>
        <time>2021-11-22T15:47:34.785Z</time>
      </trkpt>
      <trkpt lat="47.485279" lon="8.198336">
        <ele>348.048102</ele>
        <time>2021-11-22T15:47:38.606Z</time>
      </trkpt>
      <trkpt lat="47.485188" lon="8.198055">
        <ele>348.201009</ele>
        <time>2021-11-22T15:47:41.943Z</time>
      </trkpt>
      <trkpt lat="47.485117" lon="8.197867">
        <ele>348.181968</ele>
        <time>2021-11-22T15:47:44.738Z</time>
      </trkpt>
      <trkpt lat="47.485068" lon="8.197761">
        <ele>348.170614</ele>
        <time>2021-11-22T15:47:45.947Z</time>
      </trkpt>
      <trkpt lat="47.485054" lon="8.197734">
        <ele>348.167605</ele>
        <time>2021-11-22T15:47:46.263Z</time>
      </trkpt>
      <trkpt lat="47.484986" lon="8.197601">
        <ele>348.152860</ele>
        <time>2021-11-22T15:47:48.059Z</time>
      </trkpt>
      <trkpt lat="47.484628" lon="8.196875">
        <ele>348.073402</ele>
        <time>2021-11-22T15:47:57.931Z</time>
      </trkpt>
      <trkpt lat="47.484384" lon="8.196219">
        <ele>348.007200</ele>
        <time>2021-11-22T15:48:04.113Z</time>
      </trkpt>
      <trkpt lat="47.484248" lon="8.195756">
        <ele>347.961514</ele>
        <time>2021-11-22T15:48:08.168Z</time>
      </trkpt>
      <trkpt lat="47.484220" lon="8.195658">
        <ele>347.951105</ele>
        <time>2021-11-22T15:48:09.164Z</time>
      </trkpt>
      <trkpt lat="47.484089" lon="8.195166">
        <ele>347.899372</ele>
        <time>2021-11-22T15:48:13.904Z</time>
      </trkpt>
      <trkpt lat="47.484014" lon="8.194882">
        <ele>347.869543</ele>
        <time>2021-11-22T15:48:16.619Z</time>
      </trkpt>
      <trkpt lat="47.484001" lon="8.194837">
        <ele>347.864755</ele>
        <time>2021-11-22T15:48:17.059Z</time>
      </trkpt>
      <trkpt lat="47.483904" lon="8.194481">
        <ele>347.827204</ele>
        <time>2021-11-22T15:48:20.573Z</time>
      </trkpt>
      <trkpt lat="47.483866" lon="8.194344">
        <ele>347.812717</ele>
        <time>2021-11-22T15:48:21.994Z</time>
      </trkpt>
      <trkpt lat="47.483785" lon="8.194053">
        <ele>347.781928</ele>
        <time>2021-11-22T15:48:25.116Z</time>
      </trkpt>
      <trkpt lat="47.483751" lon="8.193932">
        <ele>347.769108</ele>
        <time>2021-11-22T15:48:26.419Z</time>
      </trkpt>
      <trkpt lat="47.483583" lon="8.193337">
        <ele>347.763025</ele>
        <time>2021-11-22T15:48:33.564Z</time>
      </trkpt>
      <trkpt lat="47.483153" lon="8.191802">
        <ele>349.135436</ele>
        <time>2021-11-22T15:48:56.874Z</time>
      </trkpt>
      <trkpt lat="47.483062" lon="8.191302">
        <ele>349.563118</ele>
        <time>2021-11-22T15:49:04.224Z</time>
      </trkpt>
      <trkpt lat="47.483025" lon="8.191071">
        <ele>349.759195</ele>
        <time>2021-11-22T15:49:08.214Z</time>
      </trkpt>
      <trkpt lat="47.482973" lon="8.190705">
        <ele>349.895859</ele>
        <time>2021-11-22T15:49:12.269Z</time>
      </trkpt>
      <trkpt lat="47.482993" lon="8.190689">
        <ele>349.893321</ele>
        <time>2021-11-22T15:49:13.145Z</time>
      </trkpt>
      <trkpt lat="47.483025" lon="8.190604">
        <ele>349.885984</ele>
        <time>2021-11-22T15:49:14.413Z</time>
      </trkpt>
      <trkpt lat="47.483023" lon="8.190571">
        <ele>349.883485</ele>
        <time>2021-11-22T15:49:15.037Z</time>
      </trkpt>
      <trkpt lat="47.483016" lon="8.190541">
        <ele>349.881091</ele>
        <time>2021-11-22T15:49:15.334Z</time>
      </trkpt>
      <trkpt lat="47.482967" lon="8.190482">
        <ele>349.874041</ele>
        <time>2021-11-22T15:49:16.129Z</time>
      </trkpt>
      <trkpt lat="47.482945" lon="8.190478">
        <ele>349.871568</ele>
        <time>2021-11-22T15:49:16.420Z</time>
      </trkpt>
      <trkpt lat="47.482920" lon="8.190484">
        <ele>349.868741</ele>
        <time>2021-11-22T15:49:16.685Z</time>
      </trkpt>
      <trkpt lat="47.482870" lon="8.190563">
        <ele>349.860579</ele>
        <time>2021-11-22T15:49:17.808Z</time>
      </trkpt>
      <trkpt lat="47.482867" lon="8.190600">
        <ele>349.857768</ele>
        <time>2021-11-22T15:49:18.143Z</time>
      </trkpt>
      <trkpt lat="47.482845" lon="8.190599">
        <ele>349.855312</ele>
        <time>2021-11-22T15:49:18.744Z</time>
      </trkpt>
      <trkpt lat="47.482743" lon="8.190529">
        <ele>349.842765</ele>
        <time>2021-11-22T15:49:21.143Z</time>
      </trkpt>
      <trkpt lat="47.482607" lon="8.190286">
        <ele>349.818970</ele>
        <time>2021-11-22T15:49:23.784Z</time>
      </trkpt>
      <trkpt lat="47.482572" lon="8.190217">
        <ele>349.812463</ele>
        <time>2021-11-22T15:49:25.457Z</time>
      </trkpt>
      <trkpt lat="47.482486" lon="8.190057">
        <ele>349.797045</ele>
        <time>2021-11-22T15:49:27.426Z</time>
      </trkpt>
      <trkpt lat="47.482387" lon="8.189878">
        <ele>349.779601</ele>
        <time>2021-11-22T15:49:29.281Z</time>
      </trkpt>
      <trkpt lat="47.482198" lon="8.189576">
        <ele>349.748559</ele>
        <time>2021-11-22T15:49:33.198Z</time>
      </trkpt>
      <trkpt lat="47.482064" lon="8.189374">
        <ele>349.727212</ele>
        <time>2021-11-22T15:49:35.797Z</time>
      </trkpt>
      <trkpt lat="47.482019" lon="8.189306">
        <ele>349.720034</ele>
        <time>2021-11-22T15:49:36.528Z</time>
      </trkpt>
      <trkpt lat="47.481979" lon="8.189239">
        <ele>349.713292</ele>
        <time>2021-11-22T15:49:37.162Z</time>
      </trkpt>
      <trkpt lat="47.481839" lon="8.188968">
        <ele>349.467927</ele>
        <time>2021-11-22T15:49:39.785Z</time>
      </trkpt>
      <trkpt lat="47.481812" lon="8.188865">
        <ele>349.376352</ele>
        <time>2021-11-22T15:49:40.569Z</time>
      </trkpt>
      <trkpt lat="47.481788" lon="8.188778">
        <ele>349.298461</ele>
        <time>2021-11-22T15:49:41.250Z</time>
      </trkpt>
      <trkpt lat="47.481685" lon="8.188343">
        <ele>348.916395</ele>
        <time>2021-11-22T15:49:44.891Z</time>
      </trkpt>
      <trkpt lat="47.481651" lon="8.188249">
        <ele>348.828020</ele>
        <time>2021-11-22T15:49:45.665Z</time>
      </trkpt>
      <trkpt lat="47.481424" lon="8.187833">
        <ele>348.384824</ele>
        <time>2021-11-22T15:49:49.835Z</time>
      </trkpt>
      <trkpt lat="47.481382" lon="8.187787">
        <ele>348.320734</ele>
        <time>2021-11-22T15:49:50.441Z</time>
      </trkpt>
      <trkpt lat="47.481292" lon="8.187686">
        <ele>348.182191</ele>
        <time>2021-11-22T15:49:52.213Z</time>
      </trkpt>
      <trkpt lat="47.481193" lon="8.187591">
        <ele>348.037467</ele>
        <time>2021-11-22T15:49:53.571Z</time>
      </trkpt>
      <trkpt lat="47.480852" lon="8.187252">
        <ele>347.533593</ele>
        <time>2021-11-22T15:49:58.591Z</time>
      </trkpt>
      <trkpt lat="47.480780" lon="8.187172">
        <ele>347.416570</ele>
        <time>2021-11-22T15:49:59.716Z</time>
      </trkpt>
      <trkpt lat="47.480690" lon="8.187084">
        <ele>347.273409</ele>
        <time>2021-11-22T15:50:01.505Z</time>
      </trkpt>
      <trkpt lat="47.480560" lon="8.186929">
        <ele>347.051846</ele>
        <time>2021-11-22T15:50:03.375Z</time>
      </trkpt>
      <trkpt lat="47.480420" lon="8.186745">
        <ele>346.803342</ele>
        <time>2021-11-22T15:50:05.949Z</time>
      </trkpt>
      <trkpt lat="47.480217" lon="8.186474">
        <ele>346.440499</ele>
        <time>2021-11-22T15:50:09.077Z</time>
      </trkpt>
      <trkpt lat="47.480145" lon="8.186350">
        <ele>346.293873</ele>
        <time>2021-11-22T15:50:10.449Z</time>
      </trkpt>
      <trkpt lat="47.480145" lon="8.186350">
        <ele>346.293873</ele>
        <time>2021-11-22T15:50:10.471Z</time>
      </trkpt>
      <trkpt lat="47.480145" lon="8.186350">
        <ele>346.293873</ele>
        <time>2021-11-22T15:50:10.527Z</time>
      </trkpt>
      <trkpt lat="47.480028" lon="8.186146">
        <ele>346.053901</ele>
        <time>2021-11-22T15:50:12.494Z</time>
      </trkpt>
      <trkpt lat="47.479942" lon="8.185960">
        <ele>345.851771</ele>
        <time>2021-11-22T15:50:14.444Z</time>
      </trkpt>
      <trkpt lat="47.479933" lon="8.185831">
        <ele>345.735454</ele>
        <time>2021-11-22T15:50:15.708Z</time>
      </trkpt>
      <trkpt lat="47.479468" lon="8.184722">
        <ele>344.483357</ele>
        <time>2021-11-22T15:50:30.315Z</time>
      </trkpt>
      <trkpt lat="47.479295" lon="8.184300">
        <ele>343.975229</ele>
        <time>2021-11-22T15:50:35.599Z</time>
      </trkpt>
      <trkpt lat="47.479213" lon="8.184106">
        <ele>343.739661</ele>
        <time>2021-11-22T15:50:38.042Z</time>
      </trkpt>
      <trkpt lat="47.478594" lon="8.182883">
        <ele>342.354465</ele>
        <time>2021-11-22T15:50:54.941Z</time>
      </trkpt>
      <trkpt lat="47.478429" lon="8.182558">
        <ele>342.310143</ele>
        <time>2021-11-22T15:50:59.795Z</time>
      </trkpt>
      <trkpt lat="47.477082" lon="8.180599">
        <ele>342.257139</ele>
        <time>2021-11-22T15:51:39.915Z</time>
      </trkpt>
      <trkpt lat="47.476918" lon="8.180357">
        <ele>342.335734</ele>
        <time>2021-11-22T15:51:45.330Z</time>
      </trkpt>
      <trkpt lat="47.476781" lon="8.180127">
        <ele>342.406044</ele>
        <time>2021-11-22T15:51:49.568Z</time>
      </trkpt>
      <trkpt lat="47.476282" lon="8.179102">
        <ele>342.695753</ele>
        <time>2021-11-22T15:52:08.269Z</time>
      </trkpt>
      <trkpt lat="47.475956" lon="8.178133">
        <ele>342.806711</ele>
        <time>2021-11-22T15:52:23.284Z</time>
      </trkpt>
      <trkpt lat="47.475739" lon="8.177191">
        <ele>342.908169</ele>
        <time>2021-11-22T15:52:37.381Z</time>
      </trkpt>
      <trkpt lat="47.475523" lon="8.175441">
        <ele>343.259794</ele>
        <time>2021-11-22T15:53:02.419Z</time>
      </trkpt>
      <trkpt lat="47.475282" lon="8.174260">
        <ele>343.561982</ele>
        <time>2021-11-22T15:53:20.772Z</time>
      </trkpt>
      <trkpt lat="47.475271" lon="8.174227">
        <ele>343.570995</ele>
        <time>2021-11-22T15:53:21.387Z</time>
      </trkpt>
      <trkpt lat="47.475164" lon="8.173901">
        <ele>343.701969</ele>
        <time>2021-11-22T15:53:26.786Z</time>
      </trkpt>
      <trkpt lat="47.475162" lon="8.173896">
        <ele>343.704902</ele>
        <time>2021-11-22T15:53:27.005Z</time>
      </trkpt>
      <trkpt lat="47.474901" lon="8.173178">
        <ele>344.116458</ele>
        <time>2021-11-22T15:53:39.463Z</time>
      </trkpt>
      <trkpt lat="47.474539" lon="8.171563">
        <ele>344.976516</ele>
        <time>2021-11-22T15:54:06.745Z</time>
      </trkpt>
      <trkpt lat="47.474221" lon="8.170494">
        <ele>345.620169</ele>
        <time>2021-11-22T15:54:25.172Z</time>
      </trkpt>
      <trkpt lat="47.474153" lon="8.170275">
        <ele>345.752985</ele>
        <time>2021-11-22T15:54:28.984Z</time>
      </trkpt>
      <trkpt lat="47.474047" lon="8.169957">
        <ele>345.948387</ele>
        <time>2021-11-22T15:54:34.471Z</time>
      </trkpt>
      <trkpt lat="47.473803" lon="8.169285">
        <ele>346.368779</ele>
        <time>2021-11-22T15:54:46.414Z</time>
      </trkpt>
      <trkpt lat="47.473676" lon="8.168976">
        <ele>346.690799</ele>
        <time>2021-11-22T15:54:52.229Z</time>
      </trkpt>
      <trkpt lat="47.473133" lon="8.168000">
        <ele>348.005862</ele>
        <time>2021-11-22T15:55:13.630Z</time>
      </trkpt>
      <trkpt lat="47.473053" lon="8.167881">
        <ele>348.180467</ele>
        <time>2021-11-22T15:55:16.868Z</time>
      </trkpt>
      <trkpt lat="47.473013" lon="8.167869">
        <ele>348.243283</ele>
        <time>2021-11-22T15:55:17.851Z</time>
      </trkpt>
      <trkpt lat="47.472952" lon="8.167862">
        <ele>348.337450</ele>
        <time>2021-11-22T15:55:19.401Z</time>
      </trkpt>
      <trkpt lat="47.472797" lon="8.167699">
        <ele>348.630138</ele>
        <time>2021-11-22T15:55:23.792Z</time>
      </trkpt>
      <trkpt lat="47.472685" lon="8.167581">
        <ele>348.841761</ele>
        <time>2021-11-22T15:55:26.852Z</time>
      </trkpt>
      <trkpt lat="47.472552" lon="8.167429">
        <ele>349.100426</ele>
        <time>2021-11-22T15:55:30.809Z</time>
      </trkpt>
      <trkpt lat="47.472433" lon="8.167289">
        <ele>349.426248</ele>
        <time>2021-11-22T15:55:34.678Z</time>
      </trkpt>
      <trkpt lat="47.472348" lon="8.167193">
        <ele>349.701701</ele>
        <time>2021-11-22T15:55:37.164Z</time>
      </trkpt>
      <trkpt lat="47.472230" lon="8.167059">
        <ele>350.084866</ele>
        <time>2021-11-22T15:55:41.236Z</time>
      </trkpt>
      <trkpt lat="47.472023" lon="8.166799">
        <ele>350.784309</ele>
        <time>2021-11-22T15:55:48.017Z</time>
      </trkpt>
      <trkpt lat="47.471800" lon="8.166447">
        <ele>351.624283</ele>
        <time>2021-11-22T15:55:56.569Z</time>
      </trkpt>
      <trkpt lat="47.471739" lon="8.166341">
        <ele>351.866667</ele>
        <time>2021-11-22T15:55:59.249Z</time>
      </trkpt>
      <trkpt lat="47.471637" lon="8.166140">
        <ele>352.304280</ele>
        <time>2021-11-22T15:56:03.508Z</time>
      </trkpt>
      <trkpt lat="47.471485" lon="8.165795">
        <ele>353.021300</ele>
        <time>2021-11-22T15:56:10.708Z</time>
      </trkpt>
      <trkpt lat="47.471314" lon="8.165430">
        <ele>353.794532</ele>
        <time>2021-11-22T15:56:18.247Z</time>
      </trkpt>
      <trkpt lat="47.471273" lon="8.165343">
        <ele>353.925487</ele>
        <time>2021-11-22T15:56:19.789Z</time>
      </trkpt>
      <trkpt lat="47.471193" lon="8.165194">
        <ele>354.136671</ele>
        <time>2021-11-22T15:56:23.111Z</time>
      </trkpt>
      <trkpt lat="47.471054" lon="8.164977">
        <ele>354.468463</ele>
        <time>2021-11-22T15:56:27.805Z</time>
      </trkpt>
      <trkpt lat="47.470550" lon="8.164436">
        <ele>355.490849</ele>
        <time>2021-11-22T15:56:42.110Z</time>
      </trkpt>
      <trkpt lat="47.470426" lon="8.164313">
        <ele>355.735972</ele>
        <time>2021-11-22T15:56:44.892Z</time>
      </trkpt>
      <trkpt lat="47.470384" lon="8.164260">
        <ele>355.826610</ele>
        <time>2021-11-22T15:56:45.938Z</time>
      </trkpt>
      <trkpt lat="47.470281" lon="8.164129">
        <ele>356.049630</ele>
        <time>2021-11-22T15:56:49.179Z</time>
      </trkpt>
      <trkpt lat="47.470101" lon="8.163935">
        <ele>356.415282</ele>
        <time>2021-11-22T15:56:52.967Z</time>
      </trkpt>
      <trkpt lat="47.470057" lon="8.163889">
        <ele>356.503743</ele>
        <time>2021-11-22T15:56:54.452Z</time>
      </trkpt>
      <trkpt lat="47.469504" lon="8.163311">
        <ele>356.794144</ele>
        <time>2021-11-22T15:57:05.232Z</time>
      </trkpt>
      <trkpt lat="47.469385" lon="8.163184">
        <ele>356.797023</ele>
        <time>2021-11-22T15:57:07.741Z</time>
      </trkpt>
      <trkpt lat="47.469218" lon="8.163000">
        <ele>356.801108</ele>
        <time>2021-11-22T15:57:10.500Z</time>
      </trkpt>
      <trkpt lat="47.469024" lon="8.162801">
        <ele>356.805740</ele>
        <time>2021-11-22T15:57:14.226Z</time>
      </trkpt>
      <trkpt lat="47.468949" lon="8.162736">
        <ele>356.807445</ele>
        <time>2021-11-22T15:57:15.421Z</time>
      </trkpt>
      <trkpt lat="47.468812" lon="8.162640">
        <ele>356.810419</ele>
        <time>2021-11-22T15:57:17.984Z</time>
      </trkpt>
      <trkpt lat="47.468573" lon="8.162469">
        <ele>356.815628</ele>
        <time>2021-11-22T15:57:21.489Z</time>
      </trkpt>
      <trkpt lat="47.468278" lon="8.162300">
        <ele>356.724678</ele>
        <time>2021-11-22T15:57:25.631Z</time>
      </trkpt>
      <trkpt lat="47.468199" lon="8.162263">
        <ele>356.658667</ele>
        <time>2021-11-22T15:57:26.644Z</time>
      </trkpt>
      <trkpt lat="47.468105" lon="8.162227">
        <ele>356.581316</ele>
        <time>2021-11-22T15:57:27.946Z</time>
      </trkpt>
      <trkpt lat="47.467403" lon="8.161980">
        <ele>356.006493</ele>
        <time>2021-11-22T15:57:36.884Z</time>
      </trkpt>
      <trkpt lat="47.467266" lon="8.161918">
        <ele>355.892364</ele>
        <time>2021-11-22T15:57:38.659Z</time>
      </trkpt>
      <trkpt lat="47.467139" lon="8.161863">
        <ele>355.786947</ele>
        <time>2021-11-22T15:57:40.227Z</time>
      </trkpt>
      <trkpt lat="47.467007" lon="8.161797">
        <ele>355.675950</ele>
        <time>2021-11-22T15:57:41.978Z</time>
      </trkpt>
      <trkpt lat="47.466897" lon="8.161739">
        <ele>355.582922</ele>
        <time>2021-11-22T15:57:43.446Z</time>
      </trkpt>
      <trkpt lat="47.466809" lon="8.161700">
        <ele>355.509742</ele>
        <time>2021-11-22T15:57:44.539Z</time>
      </trkpt>
      <trkpt lat="47.466606" lon="8.161586">
        <ele>355.320536</ele>
        <time>2021-11-22T15:57:47.322Z</time>
      </trkpt>
      <trkpt lat="47.466049" lon="8.161288">
        <ele>354.695229</ele>
        <time>2021-11-22T15:57:54.835Z</time>
      </trkpt>
      <trkpt lat="47.465742" lon="8.161135">
        <ele>354.353227</ele>
        <time>2021-11-22T15:57:58.826Z</time>
      </trkpt>
      <trkpt lat="47.465513" lon="8.161012">
        <ele>354.096025</ele>
        <time>2021-11-22T15:58:01.671Z</time>
      </trkpt>
      <trkpt lat="47.465263" lon="8.160874">
        <ele>353.814321</ele>
        <time>2021-11-22T15:58:04.804Z</time>
      </trkpt>
      <trkpt lat="47.464997" lon="8.160739">
        <ele>353.517434</ele>
        <time>2021-11-22T15:58:08.150Z</time>
      </trkpt>
      <trkpt lat="47.464837" lon="8.160646">
        <ele>353.473704</ele>
        <time>2021-11-22T15:58:10.128Z</time>
      </trkpt>
      <trkpt lat="47.464571" lon="8.160519">
        <ele>353.446248</ele>
        <time>2021-11-22T15:58:13.447Z</time>
      </trkpt>
      <trkpt lat="47.464401" lon="8.160419">
        <ele>353.428277</ele>
        <time>2021-11-22T15:58:15.606Z</time>
      </trkpt>
      <trkpt lat="47.464241" lon="8.160297">
        <ele>353.410595</ele>
        <time>2021-11-22T15:58:17.936Z</time>
      </trkpt>
      <trkpt lat="47.464091" lon="8.160172">
        <ele>353.393684</ele>
        <time>2021-11-22T15:58:20.166Z</time>
      </trkpt>
      <trkpt lat="47.463727" lon="8.159750">
        <ele>353.348255</ele>
        <time>2021-11-22T15:58:27.606Z</time>
      </trkpt>
      <trkpt lat="47.463625" lon="8.159605">
        <ele>353.334359</ele>
        <time>2021-11-22T15:58:30.394Z</time>
      </trkpt>
      <trkpt lat="47.463535" lon="8.159478">
        <ele>353.322141</ele>
        <time>2021-11-22T15:58:32.666Z</time>
      </trkpt>
      <trkpt lat="47.463575" lon="8.159344">
        <ele>353.312414</ele>
        <time>2021-11-22T15:58:34.578Z</time>
      </trkpt>
      <trkpt lat="47.463576" lon="8.159259">
        <ele>353.426357</ele>
        <time>2021-11-22T15:58:35.843Z</time>
      </trkpt>
      <trkpt lat="47.463494" lon="8.158650">
        <ele>354.508090</ele>
        <time>2021-11-22T15:58:45.438Z</time>
      </trkpt>
      <trkpt lat="47.463459" lon="8.158318">
        <ele>355.093434</ele>
        <time>2021-11-22T15:58:50.911Z</time>
      </trkpt>
      <trkpt lat="47.463441" lon="8.158126">
        <ele>355.431105</ele>
        <time>2021-11-22T15:58:54.502Z</time>
      </trkpt>
      <trkpt lat="47.463431" lon="8.157928">
        <ele>355.776989</ele>
        <time>2021-11-22T15:58:57.971Z</time>
      </trkpt>
      <trkpt lat="47.463435" lon="8.157494">
        <ele>356.533102</ele>
        <time>2021-11-22T15:59:06.086Z</time>
      </trkpt>
      <trkpt lat="47.463437" lon="8.157404">
        <ele>356.689969</ele>
        <time>2021-11-22T15:59:07.806Z</time>
      </trkpt>
      <trkpt lat="47.463449" lon="8.157173">
        <ele>357.093565</ele>
        <time>2021-11-22T15:59:12.147Z</time>
      </trkpt>
      <trkpt lat="47.463453" lon="8.156994">
        <ele>357.405559</ele>
        <time>2021-11-22T15:59:15.925Z</time>
      </trkpt>
      <trkpt lat="47.463451" lon="8.156786">
        <ele>357.767939</ele>
        <time>2021-11-22T15:59:19.833Z</time>
      </trkpt>
      <trkpt lat="47.463437" lon="8.156620">
        <ele>358.016050</ele>
        <time>2021-11-22T15:59:22.823Z</time>
      </trkpt>
      <trkpt lat="47.463406" lon="8.156485">
        <ele>358.169700</ele>
        <time>2021-11-22T15:59:25.725Z</time>
      </trkpt>
      <trkpt lat="47.463374" lon="8.156375">
        <ele>358.298754</ele>
        <time>2021-11-22T15:59:27.887Z</time>
      </trkpt>
      <trkpt lat="47.463358" lon="8.156322">
        <ele>358.361307</ele>
        <time>2021-11-22T15:59:28.835Z</time>
      </trkpt>
      <trkpt lat="47.463331" lon="8.156255">
        <ele>358.445367</ele>
        <time>2021-11-22T15:59:30.279Z</time>
      </trkpt>
      <trkpt lat="47.463208" lon="8.155947">
        <ele>358.830878</ele>
        <time>2021-11-22T15:59:36.510Z</time>
      </trkpt>
      <trkpt lat="47.463046" lon="8.155599">
        <ele>359.286222</ele>
        <time>2021-11-22T15:59:42.892Z</time>
      </trkpt>
      <trkpt lat="47.462875" lon="8.155357">
        <ele>359.663475</ele>
        <time>2021-11-22T15:59:47.700Z</time>
      </trkpt>
      <trkpt lat="47.462758" lon="8.155215">
        <ele>359.904728</ele>
        <time>2021-11-22T15:59:50.693Z</time>
      </trkpt>
      <trkpt lat="47.462726" lon="8.155178">
        <ele>359.969474</ele>
        <time>2021-11-22T15:59:51.593Z</time>
      </trkpt>
      <trkpt lat="47.462631" lon="8.155072">
        <ele>360.159165</ele>
        <time>2021-11-22T15:59:54.316Z</time>
      </trkpt>
      <trkpt lat="47.462115" lon="8.154655">
        <ele>360.805241</ele>
        <time>2021-11-22T16:00:06.495Z</time>
      </trkpt>
      <trkpt lat="47.461918" lon="8.154537">
        <ele>360.796034</ele>
        <time>2021-11-22T16:00:10.531Z</time>
      </trkpt>
      <trkpt lat="47.460950" lon="8.153828">
        <ele>360.749242</ele>
        <time>2021-11-22T16:00:31.317Z</time>
      </trkpt>
      <trkpt lat="47.460799" lon="8.153695">
        <ele>360.741629</ele>
        <time>2021-11-22T16:00:35.073Z</time>
      </trkpt>
      <trkpt lat="47.460121" lon="8.152908">
        <ele>361.206286</ele>
        <time>2021-11-22T16:00:53.654Z</time>
      </trkpt>
      <trkpt lat="47.459982" lon="8.152791">
        <ele>361.312507</ele>
        <time>2021-11-22T16:00:57.434Z</time>
      </trkpt>
      <trkpt lat="47.459675" lon="8.152551">
        <ele>361.543135</ele>
        <time>2021-11-22T16:01:05.629Z</time>
      </trkpt>
      <trkpt lat="47.459515" lon="8.152425">
        <ele>361.663525</ele>
        <time>2021-11-22T16:01:09.998Z</time>
      </trkpt>
      <trkpt lat="47.459084" lon="8.152051">
        <ele>362.049785</ele>
        <time>2021-11-22T16:01:21.990Z</time>
      </trkpt>
      <trkpt lat="47.458656" lon="8.151660">
        <ele>362.660072</ele>
        <time>2021-11-22T16:01:34.561Z</time>
      </trkpt>
      <trkpt lat="47.458407" lon="8.151402">
        <ele>363.028896</ele>
        <time>2021-11-22T16:01:42.119Z</time>
      </trkpt>
      <trkpt lat="47.457836" lon="8.150781">
        <ele>363.888719</ele>
        <time>2021-11-22T16:01:59.852Z</time>
      </trkpt>
      <trkpt lat="47.457506" lon="8.150399">
        <ele>364.481110</ele>
        <time>2021-11-22T16:02:10.706Z</time>
      </trkpt>
      <trkpt lat="47.455947" lon="8.148517">
        <ele>367.384809</ele>
        <time>2021-11-22T16:03:04.683Z</time>
      </trkpt>
      <trkpt lat="47.455738" lon="8.148275">
        <ele>367.650195</ele>
        <time>2021-11-22T16:03:11.380Z</time>
      </trkpt>
      <trkpt lat="47.455490" lon="8.147964">
        <ele>367.975288</ele>
        <time>2021-11-22T16:03:19.413Z</time>
      </trkpt>
      <trkpt lat="47.455324" lon="8.147772">
        <ele>368.185987</ele>
        <time>2021-11-22T16:03:24.494Z</time>
      </trkpt>
      <trkpt lat="47.454769" lon="8.147346">
        <ele>368.734703</ele>
        <time>2021-11-22T16:03:38.448Z</time>
      </trkpt>
      <trkpt lat="47.453891" lon="8.147120">
        <ele>368.741224</ele>
        <time>2021-11-22T16:03:56.014Z</time>
      </trkpt>
      <trkpt lat="47.452471" lon="8.146900">
        <ele>369.142370</ele>
        <time>2021-11-22T16:04:24.404Z</time>
      </trkpt>
      <trkpt lat="47.452355" lon="8.146865">
        <ele>369.220666</ele>
        <time>2021-11-22T16:04:26.322Z</time>
      </trkpt>
      <trkpt lat="47.452108" lon="8.146759">
        <ele>369.390758</ele>
        <time>2021-11-22T16:04:30.446Z</time>
      </trkpt>
      <trkpt lat="47.451884" lon="8.146651">
        <ele>369.546575</ele>
        <time>2021-11-22T16:04:35.033Z</time>
      </trkpt>
      <trkpt lat="47.451691" lon="8.146552">
        <ele>369.681675</ele>
        <time>2021-11-22T16:04:38.671Z</time>
      </trkpt>
      <trkpt lat="47.451634" lon="8.146522">
        <ele>369.721688</ele>
        <time>2021-11-22T16:04:39.929Z</time>
      </trkpt>
      <trkpt lat="47.451243" lon="8.146335">
        <ele>370.106692</ele>
        <time>2021-11-22T16:04:48.705Z</time>
      </trkpt>
      <trkpt lat="47.451190" lon="8.146311">
        <ele>370.216640</ele>
        <time>2021-11-22T16:04:49.998Z</time>
      </trkpt>
      <trkpt lat="47.450734" lon="8.146121">
        <ele>371.156376</ele>
        <time>2021-11-22T16:05:00.257Z</time>
      </trkpt>
      <trkpt lat="47.450606" lon="8.146053">
        <ele>371.426163</ele>
        <time>2021-11-22T16:05:03.230Z</time>
      </trkpt>
      <trkpt lat="47.450543" lon="8.146003">
        <ele>371.567989</ele>
        <time>2021-11-22T16:05:05.053Z</time>
      </trkpt>
      <trkpt lat="47.450458" lon="8.145913">
        <ele>371.775357</ele>
        <time>2021-11-22T16:05:07.177Z</time>
      </trkpt>
      <trkpt lat="47.450183" lon="8.145603">
        <ele>372.461261</ele>
        <time>2021-11-22T16:05:14.766Z</time>
      </trkpt>
      <trkpt lat="47.450088" lon="8.145488">
        <ele>372.704788</ele>
        <time>2021-11-22T16:05:17.388Z</time>
      </trkpt>
      <trkpt lat="47.449371" lon="8.144692">
        <ele>374.530698</ele>
        <time>2021-11-22T16:05:41.072Z</time>
      </trkpt>
      <trkpt lat="47.449158" lon="8.144473">
        <ele>375.070259</ele>
        <time>2021-11-22T16:05:46.714Z</time>
      </trkpt>
      <trkpt lat="47.448865" lon="8.144173">
        <ele>375.811468</ele>
        <time>2021-11-22T16:05:54.058Z</time>
      </trkpt>
      <trkpt lat="47.448825" lon="8.144132">
        <ele>375.912693</ele>
        <time>2021-11-22T16:05:54.961Z</time>
      </trkpt>
      <trkpt lat="47.448758" lon="8.144072">
        <ele>376.075603</ele>
        <time>2021-11-22T16:05:58.028Z</time>
      </trkpt>
      <trkpt lat="47.447844" lon="8.143229">
        <ele>378.385704</ele>
        <time>2021-11-22T16:06:20.648Z</time>
      </trkpt>
      <trkpt lat="47.447749" lon="8.143138">
        <ele>378.636444</ele>
        <time>2021-11-22T16:06:22.279Z</time>
      </trkpt>
      <trkpt lat="47.447685" lon="8.143057">
        <ele>378.823055</ele>
        <time>2021-11-22T16:06:25.411Z</time>
      </trkpt>
      <trkpt lat="47.447487" lon="8.142754">
        <ele>379.454257</ele>
        <time>2021-11-22T16:06:32.876Z</time>
      </trkpt>
      <trkpt lat="47.447326" lon="8.142499">
        <ele>379.976872</ele>
        <time>2021-11-22T16:06:39.560Z</time>
      </trkpt>
      <trkpt lat="47.447146" lon="8.142030">
        <ele>380.784727</ele>
        <time>2021-11-22T16:06:49.029Z</time>
      </trkpt>
      <trkpt lat="47.447036" lon="8.141500">
        <ele>381.436955</ele>
        <time>2021-11-22T16:06:57.980Z</time>
      </trkpt>
      <trkpt lat="47.447019" lon="8.141408">
        <ele>381.513735</ele>
        <time>2021-11-22T16:06:58.636Z</time>
      </trkpt>
      <trkpt lat="47.447002" lon="8.141359">
        <ele>381.558071</ele>
        <time>2021-11-22T16:06:58.969Z</time>
      </trkpt>
      <trkpt lat="47.446964" lon="8.141309">
        <ele>381.618624</ele>
        <time>2021-11-22T16:06:59.441Z</time>
      </trkpt>
      <trkpt lat="47.446968" lon="8.141232">
        <ele>381.680797</ele>
        <time>2021-11-22T16:07:03.177Z</time>
      </trkpt>
      <trkpt lat="47.446786" lon="8.140421">
        <ele>382.368711</ele>
        <time>2021-11-22T16:07:15.136Z</time>
      </trkpt>
      <trkpt lat="47.446741" lon="8.140284">
        <ele>382.491326</ele>
        <time>2021-11-22T16:07:16.135Z</time>
      </trkpt>
      <trkpt lat="47.446649" lon="8.140082">
        <ele>382.687390</ele>
        <time>2021-11-22T16:07:22.331Z</time>
      </trkpt>
      <trkpt lat="47.446467" lon="8.139635">
        <ele>383.107442</ele>
        <time>2021-11-22T16:07:28.928Z</time>
      </trkpt>
      <trkpt lat="47.446353" lon="8.139246">
        <ele>383.346860</ele>
        <time>2021-11-22T16:07:33.244Z</time>
      </trkpt>
      <trkpt lat="47.446288" lon="8.139006">
        <ele>383.282246</ele>
        <time>2021-11-22T16:07:35.646Z</time>
      </trkpt>
      <trkpt lat="47.445854" lon="8.138048">
        <ele>382.994057</ele>
        <time>2021-11-22T16:07:45.634Z</time>
      </trkpt>
      <trkpt lat="47.445490" lon="8.137703">
        <ele>382.834273</ele>
        <time>2021-11-22T16:07:50.700Z</time>
      </trkpt>
      <trkpt lat="47.445479" lon="8.137706">
        <ele>382.830139</ele>
        <time>2021-11-22T16:07:50.816Z</time>
      </trkpt>
      <trkpt lat="47.445434" lon="8.137740">
        <ele>382.811463</ele>
        <time>2021-11-22T16:07:51.375Z</time>
      </trkpt>
      <trkpt lat="47.445372" lon="8.137789">
        <ele>382.785483</ele>
        <time>2021-11-22T16:07:52.422Z</time>
      </trkpt>
      <trkpt lat="47.445320" lon="8.137827">
        <ele>382.764047</ele>
        <time>2021-11-22T16:07:53.300Z</time>
      </trkpt>
      <trkpt lat="47.445264" lon="8.137860">
        <ele>382.741768</ele>
        <time>2021-11-22T16:07:54.276Z</time>
      </trkpt>
      <trkpt lat="47.445201" lon="8.137885">
        <ele>382.717662</ele>
        <time>2021-11-22T16:07:55.716Z</time>
      </trkpt>
      <trkpt lat="47.444873" lon="8.137885">
        <ele>383.007588</ele>
        <time>2021-11-22T16:08:00.867Z</time>
      </trkpt>
      <trkpt lat="47.444780" lon="8.137842">
        <ele>383.106367</ele>
        <time>2021-11-22T16:08:02.739Z</time>
      </trkpt>
      <trkpt lat="47.444695" lon="8.137798">
        <ele>383.197663</ele>
        <time>2021-11-22T16:08:04.003Z</time>
      </trkpt>
      <trkpt lat="47.444534" lon="8.137663">
        <ele>383.385292</ele>
        <time>2021-11-22T16:08:07.380Z</time>
      </trkpt>
      <trkpt lat="47.444358" lon="8.137486">
        <ele>383.601067</ele>
        <time>2021-11-22T16:08:11.289Z</time>
      </trkpt>
      <trkpt lat="47.443990" lon="8.137008">
        <ele>384.097625</ele>
        <time>2021-11-22T16:08:20.944Z</time>
      </trkpt>
      <trkpt lat="47.443600" lon="8.136309">
        <ele>385.174481</ele>
        <time>2021-11-22T16:08:34.690Z</time>
      </trkpt>
      <trkpt lat="47.443330" lon="8.135975">
        <ele>386.390429</ele>
        <time>2021-11-22T16:08:42.849Z</time>
      </trkpt>
      <trkpt lat="47.442771" lon="8.135257">
        <ele>388.948057</ele>
        <time>2021-11-22T16:09:03.448Z</time>
      </trkpt>
      <trkpt lat="47.442659" lon="8.135081">
        <ele>389.512596</ele>
        <time>2021-11-22T16:09:09.404Z</time>
      </trkpt>
      <trkpt lat="47.442543" lon="8.134882">
        <ele>390.126319</ele>
        <time>2021-11-22T16:09:14.863Z</time>
      </trkpt>
      <trkpt lat="47.442302" lon="8.134411">
        <ele>392.031825</ele>
        <time>2021-11-22T16:09:29.508Z</time>
      </trkpt>
      <trkpt lat="47.442233" lon="8.134253">
        <ele>392.773669</ele>
        <time>2021-11-22T16:09:34.827Z</time>
      </trkpt>
      <trkpt lat="47.442150" lon="8.134033">
        <ele>393.767319</ele>
        <time>2021-11-22T16:09:40.870Z</time>
      </trkpt>
      <trkpt lat="47.442022" lon="8.133657">
        <ele>395.427698</ele>
        <time>2021-11-22T16:09:52.539Z</time>
      </trkpt>
      <trkpt lat="47.441777" lon="8.132790">
        <ele>399.134019</ele>
        <time>2021-11-22T16:10:19.089Z</time>
      </trkpt>
      <trkpt lat="47.441650" lon="8.132354">
        <ele>401.006513</ele>
        <time>2021-11-22T16:10:31.323Z</time>
      </trkpt>
      <trkpt lat="47.441442" lon="8.131718">
        <ele>402.539328</ele>
        <time>2021-11-22T16:10:47.370Z</time>
      </trkpt>
      <trkpt lat="47.441375" lon="8.131552">
        <ele>402.928546</ele>
        <time>2021-11-22T16:10:51.383Z</time>
      </trkpt>
      <trkpt lat="47.441088" lon="8.130997">
        <ele>404.335196</ele>
        <time>2021-11-22T16:11:03.434Z</time>
      </trkpt>
      <trkpt lat="47.441024" lon="8.130926">
        <ele>404.573387</ele>
        <time>2021-11-22T16:11:06.333Z</time>
      </trkpt>
      <trkpt lat="47.441000" lon="8.130897">
        <ele>404.665658</ele>
        <time>2021-11-22T16:11:06.705Z</time>
      </trkpt>
      <trkpt lat="47.440978" lon="8.130862">
        <ele>404.761863</ele>
        <time>2021-11-22T16:11:07.662Z</time>
      </trkpt>
      <trkpt lat="47.440943" lon="8.130809">
        <ele>404.911006</ele>
        <time>2021-11-22T16:11:08.977Z</time>
      </trkpt>
      <trkpt lat="47.440891" lon="8.130708">
        <ele>405.166578</ele>
        <time>2021-11-22T16:11:11.003Z</time>
      </trkpt>
      <trkpt lat="47.440840" lon="8.130492">
        <ele>405.627221</ele>
        <time>2021-11-22T16:11:15.148Z</time>
      </trkpt>
      <trkpt lat="47.440840" lon="8.130427">
        <ele>405.758095</ele>
        <time>2021-11-22T16:11:15.620Z</time>
      </trkpt>
      <trkpt lat="47.440963" lon="8.129769">
        <ele>406.649626</ele>
        <time>2021-11-22T16:11:24.444Z</time>
      </trkpt>
      <trkpt lat="47.440994" lon="8.129640">
        <ele>406.681484</ele>
        <time>2021-11-22T16:11:25.481Z</time>
      </trkpt>
      <trkpt lat="47.441146" lon="8.128500">
        <ele>406.951874</ele>
        <time>2021-11-22T16:11:35.795Z</time>
      </trkpt>
      <trkpt lat="47.441262" lon="8.127516">
        <ele>407.184308</ele>
        <time>2021-11-22T16:11:47.150Z</time>
      </trkpt>
      <trkpt lat="47.441277" lon="8.127183">
        <ele>407.442367</ele>
        <time>2021-11-22T16:11:51.029Z</time>
      </trkpt>
      <trkpt lat="47.441266" lon="8.126867">
        <ele>407.750616</ele>
        <time>2021-11-22T16:11:56.792Z</time>
      </trkpt>
      <trkpt lat="47.441238" lon="8.126576">
        <ele>408.036957</ele>
        <time>2021-11-22T16:12:00.228Z</time>
      </trkpt>
      <trkpt lat="47.441214" lon="8.126456">
        <ele>408.158863</ele>
        <time>2021-11-22T16:12:03.222Z</time>
      </trkpt>
      <trkpt lat="47.441104" lon="8.125606">
        <ele>409.001940</ele>
        <time>2021-11-22T16:12:13.111Z</time>
      </trkpt>
      <trkpt lat="47.441091" lon="8.125443">
        <ele>409.161833</ele>
        <time>2021-11-22T16:12:16.684Z</time>
      </trkpt>
      <trkpt lat="47.441081" lon="8.125303">
        <ele>409.298977</ele>
        <time>2021-11-22T16:12:18.333Z</time>
      </trkpt>
      <trkpt lat="47.441067" lon="8.125024">
        <ele>409.571522</ele>
        <time>2021-11-22T16:12:22.038Z</time>
      </trkpt>
      <trkpt lat="47.441063" lon="8.124846">
        <ele>409.745022</ele>
        <time>2021-11-22T16:12:26.030Z</time>
      </trkpt>
      <trkpt lat="47.441073" lon="8.124657">
        <ele>409.928600</ele>
        <time>2021-11-22T16:12:28.329Z</time>
      </trkpt>
      <trkpt lat="47.441086" lon="8.124531">
        <ele>410.051740</ele>
        <time>2021-11-22T16:12:30.292Z</time>
      </trkpt>
      <trkpt lat="47.441181" lon="8.123600">
        <ele>410.961380</ele>
        <time>2021-11-22T16:12:45.200Z</time>
      </trkpt>
      <trkpt lat="47.441230" lon="8.123139">
        <ele>411.412229</ele>
        <time>2021-11-22T16:12:51.842Z</time>
      </trkpt>
      <trkpt lat="47.441253" lon="8.122860">
        <ele>411.683771</ele>
        <time>2021-11-22T16:12:55.526Z</time>
      </trkpt>
      <trkpt lat="47.441259" lon="8.122119">
        <ele>412.385709</ele>
        <time>2021-11-22T16:13:03.389Z</time>
      </trkpt>
      <trkpt lat="47.441260" lon="8.121851">
        <ele>412.539220</ele>
        <time>2021-11-22T16:13:06.962Z</time>
      </trkpt>
      <trkpt lat="47.441242" lon="8.121608">
        <ele>412.679241</ele>
        <time>2021-11-22T16:13:09.416Z</time>
      </trkpt>
      <trkpt lat="47.441185" lon="8.120992">
        <ele>413.035369</ele>
        <time>2021-11-22T16:13:17.210Z</time>
      </trkpt>
      <trkpt lat="47.441158" lon="8.120592">
        <ele>413.265625</ele>
        <time>2021-11-22T16:13:22.728Z</time>
      </trkpt>
      <trkpt lat="47.441147" lon="8.120369">
        <ele>413.393697</ele>
        <time>2021-11-22T16:13:25.669Z</time>
      </trkpt>
      <trkpt lat="47.441139" lon="8.120050">
        <ele>413.576544</ele>
        <time>2021-11-22T16:13:29.642Z</time>
      </trkpt>
      <trkpt lat="47.441148" lon="8.119325">
        <ele>413.976630</ele>
        <time>2021-11-22T16:13:38.361Z</time>
      </trkpt>
      <trkpt lat="47.441161" lon="8.118889">
        <ele>414.189691</ele>
        <time>2021-11-22T16:13:43.358Z</time>
      </trkpt>
      <trkpt lat="47.441160" lon="8.118632">
        <ele>414.315160</ele>
        <time>2021-11-22T16:13:46.372Z</time>
      </trkpt>
      <trkpt lat="47.441151" lon="8.118249">
        <ele>414.502252</ele>
        <time>2021-11-22T16:13:50.704Z</time>
      </trkpt>
      <trkpt lat="47.441143" lon="8.117969">
        <ele>414.639070</ele>
        <time>2021-11-22T16:13:54.150Z</time>
      </trkpt>
      <trkpt lat="47.441126" lon="8.117583">
        <ele>414.827913</ele>
        <time>2021-11-22T16:13:58.892Z</time>
      </trkpt>
      <trkpt lat="47.441046" lon="8.116985">
        <ele>415.125512</ele>
        <time>2021-11-22T16:14:06.295Z</time>
      </trkpt>
      <trkpt lat="47.441002" lon="8.116649">
        <ele>415.381293</ele>
        <time>2021-11-22T16:14:10.248Z</time>
      </trkpt>
      <trkpt lat="47.440589" lon="8.115040">
        <ele>416.926283</ele>
        <time>2021-11-22T16:14:32.682Z</time>
      </trkpt>
      <trkpt lat="47.440417" lon="8.114455">
        <ele>417.498941</ele>
        <time>2021-11-22T16:14:42.066Z</time>
      </trkpt>
      <trkpt lat="47.440342" lon="8.114157">
        <ele>418.010550</ele>
        <time>2021-11-22T16:14:47.343Z</time>
      </trkpt>
      <trkpt lat="47.440229" lon="8.113672">
        <ele>418.966684</ele>
        <time>2021-11-22T16:14:55.636Z</time>
      </trkpt>
      <trkpt lat="47.440081" lon="8.112773">
        <ele>420.691274</ele>
        <time>2021-11-22T16:15:11.703Z</time>
      </trkpt>
      <trkpt lat="47.440053" lon="8.112608">
        <ele>421.008355</ele>
        <time>2021-11-22T16:15:15.201Z</time>
      </trkpt>
      <trkpt lat="47.439893" lon="8.111132">
        <ele>424.071818</ele>
        <time>2021-11-22T16:15:43.181Z</time>
      </trkpt>
      <trkpt lat="47.439868" lon="8.110864">
        <ele>424.686695</ele>
        <time>2021-11-22T16:15:48.663Z</time>
      </trkpt>
      <trkpt lat="47.439797" lon="8.110143">
        <ele>426.342665</ele>
        <time>2021-11-22T16:16:02.798Z</time>
      </trkpt>
      <trkpt lat="47.439783" lon="8.110028">
        <ele>426.608238</ele>
        <time>2021-11-22T16:16:05.007Z</time>
      </trkpt>
      <trkpt lat="47.439736" lon="8.109646">
        <ele>427.490699</ele>
        <time>2021-11-22T16:16:12.785Z</time>
      </trkpt>
      <trkpt lat="47.439627" lon="8.109005">
        <ele>428.924341</ele>
        <time>2021-11-22T16:16:25.260Z</time>
      </trkpt>
      <trkpt lat="47.439529" lon="8.108595">
        <ele>429.750506</ele>
        <time>2021-11-22T16:16:33.485Z</time>
      </trkpt>
      <trkpt lat="47.439446" lon="8.108296">
        <ele>430.364556</ele>
        <time>2021-11-22T16:16:38.819Z</time>
      </trkpt>
      <trkpt lat="47.439314" lon="8.107942">
        <ele>431.132555</ele>
        <time>2021-11-22T16:16:45.711Z</time>
      </trkpt>
      <trkpt lat="47.439207" lon="8.107635">
        <ele>431.788711</ele>
        <time>2021-11-22T16:16:51.803Z</time>
      </trkpt>
      <trkpt lat="47.438974" lon="8.106907">
        <ele>433.318878</ele>
        <time>2021-11-22T16:17:05.474Z</time>
      </trkpt>
      <trkpt lat="47.438899" lon="8.106626">
        <ele>433.886424</ele>
        <time>2021-11-22T16:17:11.019Z</time>
      </trkpt>
      <trkpt lat="47.438874" lon="8.106523">
        <ele>434.089326</ele>
        <time>2021-11-22T16:17:12.803Z</time>
      </trkpt>
      <trkpt lat="47.438818" lon="8.106296">
        <ele>434.537342</ele>
        <time>2021-11-22T16:17:16.667Z</time>
      </trkpt>
      <trkpt lat="47.438752" lon="8.106005">
        <ele>435.106430</ele>
        <time>2021-11-22T16:17:22.372Z</time>
      </trkpt>
      <trkpt lat="47.438729" lon="8.105870">
        <ele>435.364560</ele>
        <time>2021-11-22T16:17:24.411Z</time>
      </trkpt>
      <trkpt lat="47.438707" lon="8.105651">
        <ele>435.775076</ele>
        <time>2021-11-22T16:17:28.251Z</time>
      </trkpt>
      <trkpt lat="47.438700" lon="8.105458">
        <ele>436.133444</ele>
        <time>2021-11-22T16:17:31.318Z</time>
      </trkpt>
      <trkpt lat="47.438736" lon="8.105033">
        <ele>436.927619</ele>
        <time>2021-11-22T16:17:38.484Z</time>
      </trkpt>
      <trkpt lat="47.438760" lon="8.104786">
        <ele>437.390299</ele>
        <time>2021-11-22T16:17:42.540Z</time>
      </trkpt>
      <trkpt lat="47.438764" lon="8.104599">
        <ele>437.737201</ele>
        <time>2021-11-22T16:17:46.172Z</time>
      </trkpt>
      <trkpt lat="47.438698" lon="8.104222">
        <ele>438.459256</ele>
        <time>2021-11-22T16:17:52.849Z</time>
      </trkpt>
      <trkpt lat="47.438636" lon="8.104004">
        <ele>438.957943</ele>
        <time>2021-11-22T16:17:57.798Z</time>
      </trkpt>
      <trkpt lat="47.438624" lon="8.103965">
        <ele>439.051463</ele>
        <time>2021-11-22T16:17:58.813Z</time>
      </trkpt>
      <trkpt lat="47.438510" lon="8.103795">
        <ele>439.573976</ele>
        <time>2021-11-22T16:18:03.034Z</time>
      </trkpt>
      <trkpt lat="47.438435" lon="8.103708">
        <ele>439.881608</ele>
        <time>2021-11-22T16:18:06.164Z</time>
      </trkpt>
      <trkpt lat="47.438319" lon="8.103594">
        <ele>440.331099</ele>
        <time>2021-11-22T16:18:10.516Z</time>
      </trkpt>
      <trkpt lat="47.438218" lon="8.103493">
        <ele>440.724583</ele>
        <time>2021-11-22T16:18:13.427Z</time>
      </trkpt>
      <trkpt lat="47.438182" lon="8.103370">
        <ele>441.017113</ele>
        <time>2021-11-22T16:18:16.297Z</time>
      </trkpt>
      <trkpt lat="47.438169" lon="8.103294">
        <ele>441.188222</ele>
        <time>2021-11-22T16:18:17.766Z</time>
      </trkpt>
      <trkpt lat="47.438152" lon="8.103203">
        <ele>441.394285</ele>
        <time>2021-11-22T16:18:19.762Z</time>
      </trkpt>
      <trkpt lat="47.438137" lon="8.103139">
        <ele>441.542128</ele>
        <time>2021-11-22T16:18:21.000Z</time>
      </trkpt>
      <trkpt lat="47.438112" lon="8.103073">
        <ele>441.707239</ele>
        <time>2021-11-22T16:18:22.236Z</time>
      </trkpt>
      <trkpt lat="47.437904" lon="8.102800">
        <ele>442.604798</ele>
        <time>2021-11-22T16:18:30.324Z</time>
      </trkpt>
      <trkpt lat="47.437770" lon="8.102600">
        <ele>443.219257</ele>
        <time>2021-11-22T16:18:34.870Z</time>
      </trkpt>
      <trkpt lat="47.437641" lon="8.102393">
        <ele>443.833619</ele>
        <time>2021-11-22T16:18:40.388Z</time>
      </trkpt>
      <trkpt lat="47.437205" lon="8.101657">
        <ele>445.873656</ele>
        <time>2021-11-22T16:18:58.100Z</time>
      </trkpt>
      <trkpt lat="47.436711" lon="8.100563">
        <ele>448.574215</ele>
        <time>2021-11-22T16:19:21.119Z</time>
      </trkpt>
      <trkpt lat="47.436647" lon="8.100422">
        <ele>448.922836</ele>
        <time>2021-11-22T16:19:25.506Z</time>
      </trkpt>
      <trkpt lat="47.436585" lon="8.100263">
        <ele>449.299635</ele>
        <time>2021-11-22T16:19:28.419Z</time>
      </trkpt>
      <trkpt lat="47.436476" lon="8.099978">
        <ele>450.016954</ele>
        <time>2021-11-22T16:19:35.003Z</time>
      </trkpt>
      <trkpt lat="47.436383" lon="8.099657">
        <ele>450.949344</ele>
        <time>2021-11-22T16:19:40.712Z</time>
      </trkpt>
      <trkpt lat="47.436315" lon="8.099419">
        <ele>451.639176</ele>
        <time>2021-11-22T16:19:46.534Z</time>
      </trkpt>
      <trkpt lat="47.436248" lon="8.099120">
        <ele>452.480184</ele>
        <time>2021-11-22T16:19:51.567Z</time>
      </trkpt>
      <trkpt lat="47.436150" lon="8.098616">
        <ele>453.880382</ele>
        <time>2021-11-22T16:20:02.420Z</time>
      </trkpt>
      <trkpt lat="47.436142" lon="8.098546">
        <ele>454.069934</ele>
        <time>2021-11-22T16:20:04.357Z</time>
      </trkpt>
      <trkpt lat="47.436131" lon="8.098445">
        <ele>454.343082</ele>
        <time>2021-11-22T16:20:07.443Z</time>
      </trkpt>
      <trkpt lat="47.436091" lon="8.097832">
        <ele>455.987417</ele>
        <time>2021-11-22T16:20:20.207Z</time>
      </trkpt>
      <trkpt lat="47.436163" lon="8.097026">
        <ele>458.434528</ele>
        <time>2021-11-22T16:20:38.154Z</time>
      </trkpt>
      <trkpt lat="47.436208" lon="8.096829">
        <ele>459.113784</ele>
        <time>2021-11-22T16:20:44.121Z</time>
      </trkpt>
      <trkpt lat="47.436266" lon="8.096607">
        <ele>459.891219</ele>
        <time>2021-11-22T16:20:48.506Z</time>
      </trkpt>
      <trkpt lat="47.436349" lon="8.096291">
        <ele>460.998606</ele>
        <time>2021-11-22T16:20:56.890Z</time>
      </trkpt>
      <trkpt lat="47.436422" lon="8.096087">
        <ele>461.752533</ele>
        <time>2021-11-22T16:21:01.488Z</time>
      </trkpt>
      <trkpt lat="47.436535" lon="8.095602">
        <ele>463.428255</ele>
        <time>2021-11-22T16:21:13.116Z</time>
      </trkpt>
      <trkpt lat="47.436605" lon="8.095337">
        <ele>464.357608</ele>
        <time>2021-11-22T16:21:20.179Z</time>
      </trkpt>
      <trkpt lat="47.436840" lon="8.094305">
        <ele>468.444984</ele>
        <time>2021-11-22T16:21:46.837Z</time>
      </trkpt>
      <trkpt lat="47.436880" lon="8.093951">
        <ele>469.886923</ele>
        <time>2021-11-22T16:21:55.900Z</time>
      </trkpt>
      <trkpt lat="47.436956" lon="8.093402">
        <ele>472.138303</ele>
        <time>2021-11-22T16:22:10.047Z</time>
      </trkpt>
      <trkpt lat="47.437327" lon="8.092095">
        <ele>478.085666</ele>
        <time>2021-11-22T16:22:49.417Z</time>
      </trkpt>
      <trkpt lat="47.437449" lon="8.091081">
        <ele>482.901867</ele>
        <time>2021-11-22T16:23:20.337Z</time>
      </trkpt>
      <trkpt lat="47.437512" lon="8.090475">
        <ele>485.768977</ele>
        <time>2021-11-22T16:23:37.852Z</time>
      </trkpt>
      <trkpt lat="47.437543" lon="8.090167">
        <ele>487.225133</ele>
        <time>2021-11-22T16:23:46.981Z</time>
      </trkpt>
      <trkpt lat="47.437566" lon="8.089464">
        <ele>490.457919</ele>
        <time>2021-11-22T16:24:06.339Z</time>
      </trkpt>
      <trkpt lat="47.437526" lon="8.088839">
        <ele>493.297725</ele>
        <time>2021-11-22T16:24:23.903Z</time>
      </trkpt>
      <trkpt lat="47.437206" lon="8.087000">
        <ele>502.067120</ele>
        <time>2021-11-22T16:25:16.711Z</time>
      </trkpt>
      <trkpt lat="47.437083" lon="8.086303">
        <ele>505.843098</ele>
        <time>2021-11-22T16:25:38.888Z</time>
      </trkpt>
      <trkpt lat="47.436921" lon="8.085388">
        <ele>510.801134</ele>
        <time>2021-11-22T16:26:08.692Z</time>
      </trkpt>
      <trkpt lat="47.436840" lon="8.084846">
        <ele>513.710836</ele>
        <time>2021-11-22T16:26:26.745Z</time>
      </trkpt>
      <trkpt lat="47.436742" lon="8.083751">
        <ele>519.576894</ele>
        <time>2021-11-22T16:27:02.915Z</time>
      </trkpt>
      <trkpt lat="47.436780" lon="8.081213">
        <ele>532.367591</ele>
        <time>2021-11-22T16:28:20.753Z</time>
      </trkpt>
      <trkpt lat="47.436847" lon="8.080902">
        <ele>533.807543</ele>
        <time>2021-11-22T16:28:30.049Z</time>
      </trkpt>
      <trkpt lat="47.437072" lon="8.080572">
        <ele>535.874701</ele>
        <time>2021-11-22T16:28:42.189Z</time>
      </trkpt>
      <trkpt lat="47.437125" lon="8.080553">
        <ele>536.230401</ele>
        <time>2021-11-22T16:28:45.643Z</time>
      </trkpt>
      <trkpt lat="47.437191" lon="8.080569">
        <ele>536.666622</ele>
        <time>2021-11-22T16:28:48.126Z</time>
      </trkpt>
      <trkpt lat="47.437232" lon="8.080595">
        <ele>536.957599</ele>
        <time>2021-11-22T16:28:49.915Z</time>
      </trkpt>
      <trkpt lat="47.437258" lon="8.080640">
        <ele>537.218692</ele>
        <time>2021-11-22T16:28:51.704Z</time>
      </trkpt>
      <trkpt lat="47.437387" lon="8.081264">
        <ele>540.097279</ele>
        <time>2021-11-22T16:29:07.410Z</time>
      </trkpt>
      <trkpt lat="47.437503" lon="8.081856">
        <ele>542.628765</ele>
        <time>2021-11-22T16:29:21.306Z</time>
      </trkpt>
      <trkpt lat="47.437557" lon="8.082140">
        <ele>543.820797</ele>
        <time>2021-11-22T16:29:30.370Z</time>
      </trkpt>
      <trkpt lat="47.437860" lon="8.083715">
        <ele>550.437253</ele>
        <time>2021-11-22T16:30:12.846Z</time>
      </trkpt>
      <trkpt lat="47.437975" lon="8.083964">
        <ele>551.710474</ele>
        <time>2021-11-22T16:30:20.573Z</time>
      </trkpt>
      <trkpt lat="47.438031" lon="8.083992">
        <ele>552.123255</ele>
        <time>2021-11-22T16:30:23.080Z</time>
      </trkpt>
      <trkpt lat="47.438112" lon="8.083945">
        <ele>552.730844</ele>
        <time>2021-11-22T16:30:26.735Z</time>
      </trkpt>
      <trkpt lat="47.438164" lon="8.083842">
        <ele>553.337871</ele>
        <time>2021-11-22T16:30:31.217Z</time>
      </trkpt>
      <trkpt lat="47.438326" lon="8.082717">
        <ele>558.770221</ele>
        <time>2021-11-22T16:31:03.715Z</time>
      </trkpt>
      <trkpt lat="47.438436" lon="8.082004">
        <ele>562.224133</ele>
        <time>2021-11-22T16:31:26.583Z</time>
      </trkpt>
      <trkpt lat="47.438547" lon="8.081275">
        <ele>565.516564</ele>
        <time>2021-11-22T16:31:49.051Z</time>
      </trkpt>
      <trkpt lat="47.438632" lon="8.080671">
        <ele>568.060221</ele>
        <time>2021-11-22T16:32:06.159Z</time>
      </trkpt>
      <trkpt lat="47.438733" lon="8.079954">
        <ele>571.079878</ele>
        <time>2021-11-22T16:32:25.635Z</time>
      </trkpt>
      <trkpt lat="47.438811" lon="8.079350">
        <ele>573.615179</ele>
        <time>2021-11-22T16:32:40.080Z</time>
      </trkpt>
      <trkpt lat="47.438840" lon="8.079017">
        <ele>574.980798</ele>
        <time>2021-11-22T16:32:48.094Z</time>
      </trkpt>
      <trkpt lat="47.438862" lon="8.078789">
        <ele>575.808779</ele>
        <time>2021-11-22T16:32:53.093Z</time>
      </trkpt>
      <trkpt lat="47.438854" lon="8.077729">
        <ele>579.619820</ele>
        <time>2021-11-22T16:33:18.988Z</time>
      </trkpt>
      <trkpt lat="47.438808" lon="8.076440">
        <ele>584.260348</ele>
        <time>2021-11-22T16:33:50.104Z</time>
      </trkpt>
      <trkpt lat="47.438802" lon="8.076162">
        <ele>585.413937</ele>
        <time>2021-11-22T16:33:57.392Z</time>
      </trkpt>
      <trkpt lat="47.438769" lon="8.073159">
        <ele>598.684218</ele>
        <time>2021-11-22T16:35:20.095Z</time>
      </trkpt>
      <trkpt lat="47.438761" lon="8.072680">
        <ele>601.143559</ele>
        <time>2021-11-22T16:35:32.206Z</time>
      </trkpt>
      <trkpt lat="47.438733" lon="8.071591">
        <ele>606.737173</ele>
        <time>2021-11-22T16:36:07.227Z</time>
      </trkpt>
      <trkpt lat="47.438717" lon="8.070432">
        <ele>613.428406</ele>
        <time>2021-11-22T16:36:47.612Z</time>
      </trkpt>
      <trkpt lat="47.438717" lon="8.070261">
        <ele>614.501507</ele>
        <time>2021-11-22T16:36:52.776Z</time>
      </trkpt>
      <trkpt lat="47.438717" lon="8.070139">
        <ele>615.267111</ele>
        <time>2021-11-22T16:36:56.211Z</time>
      </trkpt>
      <trkpt lat="47.438715" lon="8.070016">
        <ele>616.039213</ele>
        <time>2021-11-22T16:37:02.897Z</time>
      </trkpt>
      <trkpt lat="47.438641" lon="8.069393">
        <ele>620.008643</ele>
        <time>2021-11-22T16:37:24.883Z</time>
      </trkpt>
      <trkpt lat="47.438419" lon="8.068754">
        <ele>624.516714</ele>
        <time>2021-11-22T16:37:50.139Z</time>
      </trkpt>
      <trkpt lat="47.438250" lon="8.068552">
        <ele>626.414647</ele>
        <time>2021-11-22T16:38:02.769Z</time>
      </trkpt>
      <trkpt lat="47.437876" lon="8.068472">
        <ele>629.068414</ele>
        <time>2021-11-22T16:38:22.556Z</time>
      </trkpt>
      <trkpt lat="47.437549" lon="8.068492">
        <ele>631.366741</ele>
        <time>2021-11-22T16:38:36.344Z</time>
      </trkpt>
      <trkpt lat="47.437380" lon="8.068624">
        <ele>632.708991</ele>
        <time>2021-11-22T16:38:41.960Z</time>
      </trkpt>
      <trkpt lat="47.437121" lon="8.068991">
        <ele>635.228333</ele>
        <time>2021-11-22T16:38:56.064Z</time>
      </trkpt>
      <trkpt lat="47.436686" lon="8.069773">
        <ele>639.891722</ele>
        <time>2021-11-22T16:39:23.902Z</time>
      </trkpt>
      <trkpt lat="47.436652" lon="8.069782">
        <ele>640.108269</ele>
        <time>2021-11-22T16:39:24.197Z</time>
      </trkpt>
      <trkpt lat="47.436622" lon="8.069777">
        <ele>640.297540</ele>
        <time>2021-11-22T16:39:27.435Z</time>
      </trkpt>
      <trkpt lat="47.435676" lon="8.068459">
        <ele>648.446953</ele>
        <time>2021-11-22T16:40:21.250Z</time>
      </trkpt>
      <trkpt lat="47.435503" lon="8.067966">
        <ele>650.314032</ele>
        <time>2021-11-22T16:40:35.475Z</time>
      </trkpt>
      <trkpt lat="47.435431" lon="8.067627">
        <ele>650.954276</ele>
        <time>2021-11-22T16:40:44.121Z</time>
      </trkpt>
      <trkpt lat="47.435328" lon="8.067121">
        <ele>651.906422</ele>
        <time>2021-11-22T16:40:53.927Z</time>
      </trkpt>
      <trkpt lat="47.435269" lon="8.066847">
        <ele>652.424553</ele>
        <time>2021-11-22T16:40:58.247Z</time>
      </trkpt>
      <trkpt lat="47.435246" lon="8.066744">
        <ele>652.620000</ele>
        <time>2021-11-22T16:41:00.703Z</time>
      </trkpt>
      <trkpt lat="47.435171" lon="8.066354">
        <ele>653.350588</ele>
        <time>2021-11-22T16:41:06.223Z</time>
      </trkpt>
      <trkpt lat="47.435134" lon="8.066208">
        <ele>653.631522</ele>
        <time>2021-11-22T16:41:09.299Z</time>
      </trkpt>
      <trkpt lat="47.435011" lon="8.065633">
        <ele>654.718190</ele>
        <time>2021-11-22T16:41:17.314Z</time>
      </trkpt>
      <trkpt lat="47.434850" lon="8.065142">
        <ele>654.213644</ele>
        <time>2021-11-22T16:41:21.854Z</time>
      </trkpt>
      <trkpt lat="47.434794" lon="8.065101">
        <ele>654.121243</ele>
        <time>2021-11-22T16:41:22.407Z</time>
      </trkpt>
      <trkpt lat="47.434745" lon="8.065087">
        <ele>654.047450</ele>
        <time>2021-11-22T16:41:23.948Z</time>
      </trkpt>
      <trkpt lat="47.434017" lon="8.065303">
        <ele>652.949549</ele>
        <time>2021-11-22T16:41:32.099Z</time>
      </trkpt>
      <trkpt lat="47.433766" lon="8.065315">
        <ele>652.578221</ele>
        <time>2021-11-22T16:41:34.790Z</time>
      </trkpt>
      <trkpt lat="47.433554" lon="8.065256">
        <ele>652.259247</ele>
        <time>2021-11-22T16:41:37.559Z</time>
      </trkpt>
      <trkpt lat="47.433401" lon="8.065135">
        <ele>651.799863</ele>
        <time>2021-11-22T16:41:39.282Z</time>
      </trkpt>
      <trkpt lat="47.433334" lon="8.064968">
        <ele>651.128190</ele>
        <time>2021-11-22T16:41:41.518Z</time>
      </trkpt>
      <trkpt lat="47.433334" lon="8.064796">
        <ele>650.533186</ele>
        <time>2021-11-22T16:41:42.841Z</time>
      </trkpt>
      <trkpt lat="47.433432" lon="8.063843">
        <ele>647.198575</ele>
        <time>2021-11-22T16:41:49.293Z</time>
      </trkpt>
      <trkpt lat="47.433539" lon="8.061973">
        <ele>638.725904</ele>
        <time>2021-11-22T16:42:00.606Z</time>
      </trkpt>
      <trkpt lat="47.433563" lon="8.061773">
        <ele>637.384957</ele>
        <time>2021-11-22T16:42:01.774Z</time>
      </trkpt>
      <trkpt lat="47.433691" lon="8.060591">
        <ele>629.482446</ele>
        <time>2021-11-22T16:42:08.707Z</time>
      </trkpt>
      <trkpt lat="47.433730" lon="8.060519">
        <ele>628.873517</ele>
        <time>2021-11-22T16:42:09.315Z</time>
      </trkpt>
      <trkpt lat="47.433818" lon="8.060443">
        <ele>627.878880</ele>
        <time>2021-11-22T16:42:10.157Z</time>
      </trkpt>
      <trkpt lat="47.433841" lon="8.060561">
        <ele>627.068193</ele>
        <time>2021-11-22T16:42:10.878Z</time>
      </trkpt>
      <trkpt lat="47.433897" lon="8.060733">
        <ele>625.808034</ele>
        <time>2021-11-22T16:42:11.983Z</time>
      </trkpt>
      <trkpt lat="47.433913" lon="8.060781">
        <ele>625.454772</ele>
        <time>2021-11-22T16:42:12.408Z</time>
      </trkpt>
      <trkpt lat="47.433974" lon="8.060897">
        <ele>624.581450</ele>
        <time>2021-11-22T16:42:13.232Z</time>
      </trkpt>
      <trkpt lat="47.434058" lon="8.061001">
        <ele>623.633924</ele>
        <time>2021-11-22T16:42:14.165Z</time>
      </trkpt>
      <trkpt lat="47.434186" lon="8.061122">
        <ele>622.320040</ele>
        <time>2021-11-22T16:42:15.500Z</time>
      </trkpt>
      <trkpt lat="47.434476" lon="8.061251">
        <ele>619.701088</ele>
        <time>2021-11-22T16:42:18.118Z</time>
      </trkpt>
      <trkpt lat="47.434654" lon="8.061257">
        <ele>618.161369</ele>
        <time>2021-11-22T16:42:19.650Z</time>
      </trkpt>
      <trkpt lat="47.434799" lon="8.061205">
        <ele>616.871061</ele>
        <time>2021-11-22T16:42:21.000Z</time>
      </trkpt>
      <trkpt lat="47.435387" lon="8.060864">
        <ele>611.408866</ele>
        <time>2021-11-22T16:42:26.646Z</time>
      </trkpt>
      <trkpt lat="47.435679" lon="8.060767">
        <ele>609.014438</ele>
        <time>2021-11-22T16:42:29.291Z</time>
      </trkpt>
      <trkpt lat="47.436148" lon="8.060668">
        <ele>605.745668</ele>
        <time>2021-11-22T16:42:33.540Z</time>
      </trkpt>
      <trkpt lat="47.436332" lon="8.060550">
        <ele>604.361828</ele>
        <time>2021-11-22T16:42:35.331Z</time>
      </trkpt>
      <trkpt lat="47.436511" lon="8.060328">
        <ele>602.749754</ele>
        <time>2021-11-22T16:42:37.474Z</time>
      </trkpt>
      <trkpt lat="47.436575" lon="8.060226">
        <ele>602.100447</ele>
        <time>2021-11-22T16:42:38.318Z</time>
      </trkpt>
      <trkpt lat="47.437631" lon="8.058564">
        <ele>591.058860</ele>
        <time>2021-11-22T16:42:52.267Z</time>
      </trkpt>
      <trkpt lat="47.438151" lon="8.057748">
        <ele>585.472927</ele>
        <time>2021-11-22T16:42:58.967Z</time>
      </trkpt>
      <trkpt lat="47.438326" lon="8.057583">
        <ele>583.906415</ele>
        <time>2021-11-22T16:43:00.800Z</time>
      </trkpt>
      <trkpt lat="47.438390" lon="8.057522">
        <ele>583.225430</ele>
        <time>2021-11-22T16:43:01.483Z</time>
      </trkpt>
      <trkpt lat="47.438753" lon="8.057449">
        <ele>579.949211</ele>
        <time>2021-11-22T16:43:04.700Z</time>
      </trkpt>
      <trkpt lat="47.439110" lon="8.057501">
        <ele>576.741088</ele>
        <time>2021-11-22T16:43:07.855Z</time>
      </trkpt>
      <trkpt lat="47.439250" lon="8.057494">
        <ele>575.488346</ele>
        <time>2021-11-22T16:43:09.056Z</time>
      </trkpt>
      <trkpt lat="47.441177" lon="8.056749">
        <ele>556.714878</ele>
        <time>2021-11-22T16:43:26.313Z</time>
      </trkpt>
      <trkpt lat="47.441352" lon="8.056727">
        <ele>554.998512</ele>
        <time>2021-11-22T16:43:27.797Z</time>
      </trkpt>
      <trkpt lat="47.441912" lon="8.056696">
        <ele>549.556741</ele>
        <time>2021-11-22T16:43:32.658Z</time>
      </trkpt>
      <trkpt lat="47.441973" lon="8.056692">
        <ele>548.982173</ele>
        <time>2021-11-22T16:43:33.171Z</time>
      </trkpt>
      <trkpt lat="47.442208" lon="8.056646">
        <ele>546.751551</ele>
        <time>2021-11-22T16:43:35.215Z</time>
      </trkpt>
      <trkpt lat="47.442440" lon="8.056586">
        <ele>544.535310</ele>
        <time>2021-11-22T16:43:37.222Z</time>
      </trkpt>
      <trkpt lat="47.442807" lon="8.056482">
        <ele>541.019021</ele>
        <time>2021-11-22T16:43:40.431Z</time>
      </trkpt>
      <trkpt lat="47.443029" lon="8.056416">
        <ele>538.888213</ele>
        <time>2021-11-22T16:43:42.405Z</time>
      </trkpt>
      <trkpt lat="47.443063" lon="8.056406">
        <ele>538.562008</ele>
        <time>2021-11-22T16:43:42.692Z</time>
      </trkpt>
      <trkpt lat="47.443500" lon="8.056201">
        <ele>534.247882</ele>
        <time>2021-11-22T16:43:46.711Z</time>
      </trkpt>
      <trkpt lat="47.443746" lon="8.056022">
        <ele>532.728208</ele>
        <time>2021-11-22T16:43:49.132Z</time>
      </trkpt>
      <trkpt lat="47.443780" lon="8.055984">
        <ele>532.555296</ele>
        <time>2021-11-22T16:43:49.526Z</time>
      </trkpt>
      <trkpt lat="47.444016" lon="8.055716">
        <ele>531.348046</ele>
        <time>2021-11-22T16:43:52.223Z</time>
      </trkpt>
      <trkpt lat="47.444778" lon="8.054764">
        <ele>527.300814</ele>
        <time>2021-11-22T16:44:02.061Z</time>
      </trkpt>
      <trkpt lat="47.444891" lon="8.054624">
        <ele>526.702714</ele>
        <time>2021-11-22T16:44:04.038Z</time>
      </trkpt>
      <trkpt lat="47.445165" lon="8.054338">
        <ele>526.561705</ele>
        <time>2021-11-22T16:44:09.901Z</time>
      </trkpt>
      <trkpt lat="47.445482" lon="8.054086">
        <ele>527.096657</ele>
        <time>2021-11-22T16:44:17.637Z</time>
      </trkpt>
      <trkpt lat="47.445607" lon="8.054011">
        <ele>527.297165</ele>
        <time>2021-11-22T16:44:21.186Z</time>
      </trkpt>
      <trkpt lat="47.446043" lon="8.053773">
        <ele>527.987966</ele>
        <time>2021-11-22T16:44:31.012Z</time>
      </trkpt>
      <trkpt lat="47.446146" lon="8.053729">
        <ele>528.147321</ele>
        <time>2021-11-22T16:44:33.984Z</time>
      </trkpt>
      <trkpt lat="47.446269" lon="8.053688">
        <ele>528.334731</ele>
        <time>2021-11-22T16:44:37.550Z</time>
      </trkpt>
      <trkpt lat="47.446453" lon="8.053638">
        <ele>528.612800</ele>
        <time>2021-11-22T16:44:41.447Z</time>
      </trkpt>
      <trkpt lat="47.446540" lon="8.053621">
        <ele>528.743237</ele>
        <time>2021-11-22T16:44:44.147Z</time>
      </trkpt>
      <trkpt lat="47.447302" lon="8.053642">
        <ele>528.968107</ele>
        <time>2021-11-22T16:45:01.937Z</time>
      </trkpt>
      <trkpt lat="47.447679" lon="8.053483">
        <ele>529.004235</ele>
        <time>2021-11-22T16:45:08.511Z</time>
      </trkpt>
      <trkpt lat="47.447919" lon="8.053237">
        <ele>529.031146</ele>
        <time>2021-11-22T16:45:12.100Z</time>
      </trkpt>
      <trkpt lat="47.448435" lon="8.052444">
        <ele>527.728469</ele>
        <time>2021-11-22T16:45:20.099Z</time>
      </trkpt>
      <trkpt lat="47.448673" lon="8.052159">
        <ele>526.261341</ele>
        <time>2021-11-22T16:45:23.228Z</time>
      </trkpt>
      <trkpt lat="47.448897" lon="8.051947">
        <ele>524.987279</ele>
        <time>2021-11-22T16:45:25.842Z</time>
      </trkpt>
      <trkpt lat="47.449059" lon="8.051793">
        <ele>524.064673</ele>
        <time>2021-11-22T16:45:27.692Z</time>
      </trkpt>
      <trkpt lat="47.449613" lon="8.051437">
        <ele>521.170921</ele>
        <time>2021-11-22T16:45:33.205Z</time>
      </trkpt>
      <trkpt lat="47.449886" lon="8.051364">
        <ele>519.267365</ele>
        <time>2021-11-22T16:45:35.650Z</time>
      </trkpt>
      <trkpt lat="47.450074" lon="8.051371">
        <ele>517.525357</ele>
        <time>2021-11-22T16:45:37.308Z</time>
      </trkpt>
      <trkpt lat="47.450344" lon="8.051426">
        <ele>515.000712</ele>
        <time>2021-11-22T16:45:39.696Z</time>
      </trkpt>
      <trkpt lat="47.450504" lon="8.051491">
        <ele>513.463712</ele>
        <time>2021-11-22T16:45:41.143Z</time>
      </trkpt>
      <trkpt lat="47.450592" lon="8.051537">
        <ele>512.599134</ele>
        <time>2021-11-22T16:45:41.947Z</time>
      </trkpt>
      <trkpt lat="47.450757" lon="8.051663">
        <ele>510.878976</ele>
        <time>2021-11-22T16:45:43.550Z</time>
      </trkpt>
      <trkpt lat="47.451164" lon="8.052019">
        <ele>506.498788</ele>
        <time>2021-11-22T16:45:47.606Z</time>
      </trkpt>
      <trkpt lat="47.451546" lon="8.052392">
        <ele>502.456340</ele>
        <time>2021-11-22T16:45:51.523Z</time>
      </trkpt>
      <trkpt lat="47.451728" lon="8.052549">
        <ele>500.755651</ele>
        <time>2021-11-22T16:45:53.351Z</time>
      </trkpt>
      <trkpt lat="47.452030" lon="8.052767">
        <ele>498.043143</ele>
        <time>2021-11-22T16:45:56.249Z</time>
      </trkpt>
      <trkpt lat="47.452592" lon="8.053064">
        <ele>493.225988</ele>
        <time>2021-11-22T16:46:01.551Z</time>
      </trkpt>
      <trkpt lat="47.452771" lon="8.053113">
        <ele>491.756635</ele>
        <time>2021-11-22T16:46:03.180Z</time>
      </trkpt>
      <trkpt lat="47.452870" lon="8.053142">
        <ele>490.942026</ele>
        <time>2021-11-22T16:46:04.106Z</time>
      </trkpt>
      <trkpt lat="47.453160" lon="8.053216">
        <ele>488.933390</ele>
        <time>2021-11-22T16:46:06.796Z</time>
      </trkpt>
      <trkpt lat="47.453588" lon="8.053338">
        <ele>487.227769</ele>
        <time>2021-11-22T16:46:10.932Z</time>
      </trkpt>
      <trkpt lat="47.454007" lon="8.053484">
        <ele>485.543296</ele>
        <time>2021-11-22T16:46:15.283Z</time>
      </trkpt>
      <trkpt lat="47.454190" lon="8.053504">
        <ele>484.825251</ele>
        <time>2021-11-22T16:46:17.053Z</time>
      </trkpt>
      <trkpt lat="47.454280" lon="8.053495">
        <ele>484.472270</ele>
        <time>2021-11-22T16:46:17.942Z</time>
      </trkpt>
      <trkpt lat="47.454599" lon="8.053302">
        <ele>483.123583</ele>
        <time>2021-11-22T16:46:21.612Z</time>
      </trkpt>
      <trkpt lat="47.454740" lon="8.053121">
        <ele>482.392983</ele>
        <time>2021-11-22T16:46:23.620Z</time>
      </trkpt>
      <trkpt lat="47.455021" lon="8.052703">
        <ele>481.127030</ele>
        <time>2021-11-22T16:46:27.730Z</time>
      </trkpt>
      <trkpt lat="47.455102" lon="8.052621">
        <ele>480.823093</ele>
        <time>2021-11-22T16:46:28.750Z</time>
      </trkpt>
      <trkpt lat="47.455278" lon="8.052443">
        <ele>480.162892</ele>
        <time>2021-11-22T16:46:30.917Z</time>
      </trkpt>
      <trkpt lat="47.455435" lon="8.052304">
        <ele>479.596311</ele>
        <time>2021-11-22T16:46:32.750Z</time>
      </trkpt>
      <trkpt lat="47.455674" lon="8.052090">
        <ele>478.731218</ele>
        <time>2021-11-22T16:46:35.674Z</time>
      </trkpt>
      <trkpt lat="47.455912" lon="8.051878">
        <ele>477.870941</ele>
        <time>2021-11-22T16:46:38.444Z</time>
      </trkpt>
      <trkpt lat="47.455980" lon="8.051817">
        <ele>477.624683</ele>
        <time>2021-11-22T16:46:39.249Z</time>
      </trkpt>
      <trkpt lat="47.456114" lon="8.051697">
        <ele>477.139635</ele>
        <time>2021-11-22T16:46:40.753Z</time>
      </trkpt>
      <trkpt lat="47.456563" lon="8.051295">
        <ele>475.721721</ele>
        <time>2021-11-22T16:46:46.088Z</time>
      </trkpt>
      <trkpt lat="47.456820" lon="8.051046">
        <ele>474.940892</ele>
        <time>2021-11-22T16:46:49.238Z</time>
      </trkpt>
      <trkpt lat="47.457001" lon="8.050825">
        <ele>474.344381</ele>
        <time>2021-11-22T16:46:51.676Z</time>
      </trkpt>
      <trkpt lat="47.457063" lon="8.050750">
        <ele>474.140817</ele>
        <time>2021-11-22T16:46:52.617Z</time>
      </trkpt>
      <trkpt lat="47.457227" lon="8.050454">
        <ele>473.483216</ele>
        <time>2021-11-22T16:46:55.311Z</time>
      </trkpt>
      <trkpt lat="47.457433" lon="8.049943">
        <ele>472.460894</ele>
        <time>2021-11-22T16:47:00.046Z</time>
      </trkpt>
      <trkpt lat="47.457577" lon="8.049600">
        <ele>471.700608</ele>
        <time>2021-11-22T16:47:03.243Z</time>
      </trkpt>
      <trkpt lat="47.457845" lon="8.049210">
        <ele>470.554057</ele>
        <time>2021-11-22T16:47:07.167Z</time>
      </trkpt>
      <trkpt lat="47.458210" lon="8.049024">
        <ele>469.376759</ele>
        <time>2021-11-22T16:47:11.143Z</time>
      </trkpt>
      <trkpt lat="47.458266" lon="8.048995">
        <ele>469.195820</ele>
        <time>2021-11-22T16:47:11.804Z</time>
      </trkpt>
      <trkpt lat="47.458490" lon="8.048954">
        <ele>468.507513</ele>
        <time>2021-11-22T16:47:14.165Z</time>
      </trkpt>
      <trkpt lat="47.458765" lon="8.048904">
        <ele>467.662578</ele>
        <time>2021-11-22T16:47:16.894Z</time>
      </trkpt>
      <trkpt lat="47.459071" lon="8.048837">
        <ele>466.719250</ele>
        <time>2021-11-22T16:47:19.967Z</time>
      </trkpt>
      <trkpt lat="47.459118" lon="8.048828">
        <ele>466.556907</ele>
        <time>2021-11-22T16:47:20.386Z</time>
      </trkpt>
      <trkpt lat="47.459227" lon="8.048808">
        <ele>466.072913</ele>
        <time>2021-11-22T16:47:21.421Z</time>
      </trkpt>
      <trkpt lat="47.459379" lon="8.048732">
        <ele>465.365881</ele>
        <time>2021-11-22T16:47:22.991Z</time>
      </trkpt>
      <trkpt lat="47.459546" lon="8.048650">
        <ele>464.590496</ele>
        <time>2021-11-22T16:47:24.615Z</time>
      </trkpt>
      <trkpt lat="47.459655" lon="8.048568">
        <ele>464.051623</ele>
        <time>2021-11-22T16:47:25.758Z</time>
      </trkpt>
      <trkpt lat="47.459687" lon="8.048651">
        <ele>463.766962</ele>
        <time>2021-11-22T16:47:32.635Z</time>
      </trkpt>
      <trkpt lat="47.459954" lon="8.048447">
        <ele>462.442707</ele>
        <time>2021-11-22T16:47:35.423Z</time>
      </trkpt>
      <trkpt lat="47.460347" lon="8.048170">
        <ele>460.524354</ele>
        <time>2021-11-22T16:47:39.597Z</time>
      </trkpt>
      <trkpt lat="47.460645" lon="8.048067">
        <ele>459.175827</ele>
        <time>2021-11-22T16:47:42.468Z</time>
      </trkpt>
      <trkpt lat="47.460787" lon="8.048038">
        <ele>458.570189</ele>
        <time>2021-11-22T16:47:44.077Z</time>
      </trkpt>
      <trkpt lat="47.460776" lon="8.047954">
        <ele>458.361096</ele>
        <time>2021-11-22T16:47:44.900Z</time>
      </trkpt>
      <trkpt lat="47.461083" lon="8.047963">
        <ele>457.251209</ele>
        <time>2021-11-22T16:47:48.099Z</time>
      </trkpt>
      <trkpt lat="47.461466" lon="8.048031">
        <ele>455.856896</ele>
        <time>2021-11-22T16:47:52.050Z</time>
      </trkpt>
      <trkpt lat="47.462404" lon="8.048445">
        <ele>452.318715</ele>
        <time>2021-11-22T16:48:01.780Z</time>
      </trkpt>
      <trkpt lat="47.462692" lon="8.048578">
        <ele>450.910703</ele>
        <time>2021-11-22T16:48:04.675Z</time>
      </trkpt>
      <trkpt lat="47.462760" lon="8.048615">
        <ele>450.562161</ele>
        <time>2021-11-22T16:48:05.393Z</time>
      </trkpt>
      <trkpt lat="47.462793" lon="8.048637">
        <ele>450.388037</ele>
        <time>2021-11-22T16:48:05.730Z</time>
      </trkpt>
      <trkpt lat="47.462932" lon="8.048714">
        <ele>449.674028</ele>
        <time>2021-11-22T16:48:07.094Z</time>
      </trkpt>
      <trkpt lat="47.464428" lon="8.050024">
        <ele>441.760127</ele>
        <time>2021-11-22T16:48:23.449Z</time>
      </trkpt>
      <trkpt lat="47.464876" lon="8.050495">
        <ele>439.649946</ele>
        <time>2021-11-22T16:48:29.009Z</time>
      </trkpt>
      <trkpt lat="47.465135" lon="8.050836">
        <ele>438.318736</ele>
        <time>2021-11-22T16:48:32.481Z</time>
      </trkpt>
      <trkpt lat="47.465219" lon="8.050945">
        <ele>437.889734</ele>
        <time>2021-11-22T16:48:33.606Z</time>
      </trkpt>
      <trkpt lat="47.465552" lon="8.051201">
        <ele>436.476353</ele>
        <time>2021-11-22T16:48:37.371Z</time>
      </trkpt>
      <trkpt lat="47.466297" lon="8.051497">
        <ele>433.963896</ele>
        <time>2021-11-22T16:48:45.078Z</time>
      </trkpt>
      <trkpt lat="47.466507" lon="8.051581">
        <ele>433.255364</ele>
        <time>2021-11-22T16:48:47.247Z</time>
      </trkpt>
      <trkpt lat="47.466793" lon="8.051728">
        <ele>432.269238</ele>
        <time>2021-11-22T16:48:50.362Z</time>
      </trkpt>
      <trkpt lat="47.467177" lon="8.052075">
        <ele>430.803659</ele>
        <time>2021-11-22T16:48:54.987Z</time>
      </trkpt>
      <trkpt lat="47.467479" lon="8.052348">
        <ele>429.971519</ele>
        <time>2021-11-22T16:48:58.613Z</time>
      </trkpt>
      <trkpt lat="47.468134" lon="8.052813">
        <ele>428.282082</ele>
        <time>2021-11-22T16:49:06.223Z</time>
      </trkpt>
      <trkpt lat="47.468638" lon="8.053071">
        <ele>427.041906</ele>
        <time>2021-11-22T16:49:12.157Z</time>
      </trkpt>
      <trkpt lat="47.468916" lon="8.053225">
        <ele>426.428667</ele>
        <time>2021-11-22T16:49:15.562Z</time>
      </trkpt>
      <trkpt lat="47.469768" lon="8.053784">
        <ele>424.964188</ele>
        <time>2021-11-22T16:49:26.358Z</time>
      </trkpt>
      <trkpt lat="47.469816" lon="8.053809">
        <ele>424.884229</ele>
        <time>2021-11-22T16:49:26.887Z</time>
      </trkpt>
      <trkpt lat="47.469912" lon="8.053834">
        <ele>424.731068</ele>
        <time>2021-11-22T16:49:28.038Z</time>
      </trkpt>
      <trkpt lat="47.470035" lon="8.053870">
        <ele>424.534056</ele>
        <time>2021-11-22T16:49:29.479Z</time>
      </trkpt>
      <trkpt lat="47.470146" lon="8.053870">
        <ele>424.359646</ele>
        <time>2021-11-22T16:49:30.751Z</time>
      </trkpt>
      <trkpt lat="47.470221" lon="8.053859">
        <ele>424.241223</ele>
        <time>2021-11-22T16:49:31.594Z</time>
      </trkpt>
      <trkpt lat="47.470388" lon="8.053827">
        <ele>423.976629</ele>
        <time>2021-11-22T16:49:33.463Z</time>
      </trkpt>
      <trkpt lat="47.470975" lon="8.053567">
        <ele>423.029541</ele>
        <time>2021-11-22T16:49:40.515Z</time>
      </trkpt>
      <trkpt lat="47.471281" lon="8.053367">
        <ele>422.514914</ele>
        <time>2021-11-22T16:49:44.335Z</time>
      </trkpt>
      <trkpt lat="47.471653" lon="8.053017">
        <ele>421.836722</ele>
        <time>2021-11-22T16:49:49.524Z</time>
      </trkpt>
      <trkpt lat="47.471695" lon="8.052974">
        <ele>421.758148</ele>
        <time>2021-11-22T16:49:50.021Z</time>
      </trkpt>
      <trkpt lat="47.471962" lon="8.052697">
        <ele>421.256480</ele>
        <time>2021-11-22T16:49:53.848Z</time>
      </trkpt>
      <trkpt lat="47.472031" lon="8.052625">
        <ele>421.126587</ele>
        <time>2021-11-22T16:49:54.758Z</time>
      </trkpt>
      <trkpt lat="47.472429" lon="8.052206">
        <ele>420.342491</ele>
        <time>2021-11-22T16:50:00.402Z</time>
      </trkpt>
      <trkpt lat="47.472623" lon="8.052001">
        <ele>419.956467</ele>
        <time>2021-11-22T16:50:03.090Z</time>
      </trkpt>
      <trkpt lat="47.472803" lon="8.051811">
        <ele>419.598432</ele>
        <time>2021-11-22T16:50:05.561Z</time>
      </trkpt>
      <trkpt lat="47.473006" lon="8.051614">
        <ele>419.205330</ele>
        <time>2021-11-22T16:50:08.206Z</time>
      </trkpt>
      <trkpt lat="47.473944" lon="8.050844">
        <ele>417.403386</ele>
        <time>2021-11-22T16:50:21.160Z</time>
      </trkpt>
      <trkpt lat="47.474013" lon="8.050809">
        <ele>417.272802</ele>
        <time>2021-11-22T16:50:21.773Z</time>
      </trkpt>
      <trkpt lat="47.474067" lon="8.050782">
        <ele>417.170758</ele>
        <time>2021-11-22T16:50:22.311Z</time>
      </trkpt>
      <trkpt lat="47.474254" lon="8.050712">
        <ele>416.825436</ele>
        <time>2021-11-22T16:50:26.561Z</time>
      </trkpt>
      <trkpt lat="47.474369" lon="8.050670">
        <ele>416.613380</ele>
        <time>2021-11-22T16:50:27.602Z</time>
      </trkpt>
      <trkpt lat="47.474655" lon="8.050582">
        <ele>416.090420</ele>
        <time>2021-11-22T16:50:33.269Z</time>
      </trkpt>
      <trkpt lat="47.474739" lon="8.050556">
        <ele>415.936785</ele>
        <time>2021-11-22T16:50:33.983Z</time>
      </trkpt>
      <trkpt lat="47.474798" lon="8.050543">
        <ele>415.829997</ele>
        <time>2021-11-22T16:50:35.190Z</time>
      </trkpt>
      <trkpt lat="47.474929" lon="8.050514">
        <ele>415.592866</ele>
        <time>2021-11-22T16:50:38.569Z</time>
      </trkpt>
      <trkpt lat="47.475144" lon="8.050466">
        <ele>415.203610</ele>
        <time>2021-11-22T16:50:40.626Z</time>
      </trkpt>
      <trkpt lat="47.475253" lon="8.050461">
        <ele>415.008382</ele>
        <time>2021-11-22T16:50:43.357Z</time>
      </trkpt>
      <trkpt lat="47.475284" lon="8.050458">
        <ele>414.952766</ele>
        <time>2021-11-22T16:50:44.201Z</time>
      </trkpt>
      <trkpt lat="47.475357" lon="8.050458">
        <ele>414.843055</ele>
        <time>2021-11-22T16:50:45.760Z</time>
      </trkpt>
      <trkpt lat="47.475715" lon="8.050478">
        <ele>414.524016</ele>
        <time>2021-11-22T16:50:49.872Z</time>
      </trkpt>
      <trkpt lat="47.476449" lon="8.050502">
        <ele>413.870201</ele>
        <time>2021-11-22T16:50:58.051Z</time>
      </trkpt>
      <trkpt lat="47.476860" lon="8.050513">
        <ele>413.504130</ele>
        <time>2021-11-22T16:51:04.006Z</time>
      </trkpt>
      <trkpt lat="47.477294" lon="8.050539">
        <ele>413.283871</ele>
        <time>2021-11-22T16:51:11.087Z</time>
      </trkpt>
      <trkpt lat="47.477651" lon="8.050602">
        <ele>413.332123</ele>
        <time>2021-11-22T16:51:17.034Z</time>
      </trkpt>
      <trkpt lat="47.478162" lon="8.050827">
        <ele>413.403677</ele>
        <time>2021-11-22T16:51:26.009Z</time>
      </trkpt>
      <trkpt lat="47.478764" lon="8.051342">
        <ele>413.497005</ele>
        <time>2021-11-22T16:51:36.096Z</time>
      </trkpt>
      <trkpt lat="47.479245" lon="8.051933">
        <ele>413.365221</ele>
        <time>2021-11-22T16:51:44.342Z</time>
      </trkpt>
      <trkpt lat="47.479583" lon="8.052216">
        <ele>413.272208</ele>
        <time>2021-11-22T16:51:49.542Z</time>
      </trkpt>
      <trkpt lat="47.479686" lon="8.052283">
        <ele>413.245260</ele>
        <time>2021-11-22T16:51:50.757Z</time>
      </trkpt>
      <trkpt lat="47.479929" lon="8.052381">
        <ele>413.184939</ele>
        <time>2021-11-22T16:51:54.962Z</time>
      </trkpt>
      <trkpt lat="47.480382" lon="8.052453">
        <ele>413.075821</ele>
        <time>2021-11-22T16:52:01.881Z</time>
      </trkpt>
      <trkpt lat="47.480400" lon="8.052455">
        <ele>413.070317</ele>
        <time>2021-11-22T16:52:02.181Z</time>
      </trkpt>
      <trkpt lat="47.480495" lon="8.052470">
        <ele>413.024545</ele>
        <time>2021-11-22T16:52:04.929Z</time>
      </trkpt>
      <trkpt lat="47.480567" lon="8.052481">
        <ele>412.989868</ele>
        <time>2021-11-22T16:52:06.226Z</time>
      </trkpt>
      <trkpt lat="47.481460" lon="8.052611">
        <ele>412.559982</ele>
        <time>2021-11-22T16:52:17.654Z</time>
      </trkpt>
      <trkpt lat="47.481505" lon="8.052618">
        <ele>412.538304</ele>
        <time>2021-11-22T16:52:19.298Z</time>
      </trkpt>
      <trkpt lat="47.481881" lon="8.052687">
        <ele>412.356789</ele>
        <time>2021-11-22T16:52:24.244Z</time>
      </trkpt>
      <trkpt lat="47.482349" lon="8.052735">
        <ele>411.768367</ele>
        <time>2021-11-22T16:52:29.836Z</time>
      </trkpt>
      <trkpt lat="47.482462" lon="8.052727">
        <ele>411.464477</ele>
        <time>2021-11-22T16:52:31.030Z</time>
      </trkpt>
      <trkpt lat="47.482613" lon="8.052715">
        <ele>411.058275</ele>
        <time>2021-11-22T16:52:32.757Z</time>
      </trkpt>
      <trkpt lat="47.482970" lon="8.052591">
        <ele>410.073232</ele>
        <time>2021-11-22T16:52:36.778Z</time>
      </trkpt>
      <trkpt lat="47.483451" lon="8.052218">
        <ele>408.614485</ele>
        <time>2021-11-22T16:52:42.312Z</time>
      </trkpt>
      <trkpt lat="47.483624" lon="8.052017">
        <ele>408.023638</ele>
        <time>2021-11-22T16:52:44.412Z</time>
      </trkpt>
      <trkpt lat="47.483791" lon="8.051802">
        <ele>407.429019</ele>
        <time>2021-11-22T16:52:46.558Z</time>
      </trkpt>
      <trkpt lat="47.483872" lon="8.051697">
        <ele>407.123731</ele>
        <time>2021-11-22T16:52:47.575Z</time>
      </trkpt>
      <trkpt lat="47.484138" lon="8.051330">
        <ele>406.081489</ele>
        <time>2021-11-22T16:52:51.250Z</time>
      </trkpt>
      <trkpt lat="47.484363" lon="8.050966">
        <ele>405.126130</ele>
        <time>2021-11-22T16:52:54.716Z</time>
      </trkpt>
      <trkpt lat="47.484549" lon="8.050568">
        <ele>404.188986</ele>
        <time>2021-11-22T16:52:58.097Z</time>
      </trkpt>
      <trkpt lat="47.484700" lon="8.050131">
        <ele>403.238457</ele>
        <time>2021-11-22T16:53:01.602Z</time>
      </trkpt>
      <trkpt lat="47.484770" lon="8.049870">
        <ele>402.694641</ele>
        <time>2021-11-22T16:53:03.620Z</time>
      </trkpt>
      <trkpt lat="47.484909" lon="8.049404">
        <ele>401.991064</ele>
        <time>2021-11-22T16:53:07.377Z</time>
      </trkpt>
      <trkpt lat="47.485027" lon="8.048970">
        <ele>401.581031</ele>
        <time>2021-11-22T16:53:10.948Z</time>
      </trkpt>
      <trkpt lat="47.485058" lon="8.048854">
        <ele>401.471696</ele>
        <time>2021-11-22T16:53:11.821Z</time>
      </trkpt>
      <trkpt lat="47.485152" lon="8.048506">
        <ele>401.143212</ele>
        <time>2021-11-22T16:53:14.874Z</time>
      </trkpt>
      <trkpt lat="47.485348" lon="8.047826">
        <ele>400.495248</ele>
        <time>2021-11-22T16:53:21.119Z</time>
      </trkpt>
      <trkpt lat="47.485457" lon="8.047448">
        <ele>400.135033</ele>
        <time>2021-11-22T16:53:24.636Z</time>
      </trkpt>
      <trkpt lat="47.485521" lon="8.047198">
        <ele>399.900715</ele>
        <time>2021-11-22T16:53:26.974Z</time>
      </trkpt>
      <trkpt lat="47.485757" lon="8.046283">
        <ele>399.601922</ele>
        <time>2021-11-22T16:53:35.094Z</time>
      </trkpt>
      <trkpt lat="47.485879" lon="8.045875">
        <ele>399.468391</ele>
        <time>2021-11-22T16:53:38.921Z</time>
      </trkpt>
      <trkpt lat="47.485904" lon="8.045811">
        <ele>399.446266</ele>
        <time>2021-11-22T16:53:39.639Z</time>
      </trkpt>
      <trkpt lat="47.486008" lon="8.045547">
        <ele>399.354808</ele>
        <time>2021-11-22T16:53:42.657Z</time>
      </trkpt>
      <trkpt lat="47.486186" lon="8.045223">
        <ele>399.229836</ele>
        <time>2021-11-22T16:53:46.787Z</time>
      </trkpt>
      <trkpt lat="47.486324" lon="8.045034">
        <ele>399.146558</ele>
        <time>2021-11-22T16:53:49.369Z</time>
      </trkpt>
      <trkpt lat="47.486383" lon="8.044953">
        <ele>399.110914</ele>
        <time>2021-11-22T16:53:50.629Z</time>
      </trkpt>
      <trkpt lat="47.486651" lon="8.044683">
        <ele>399.113858</ele>
        <time>2021-11-22T16:53:55.819Z</time>
      </trkpt>
      <trkpt lat="47.487068" lon="8.044398">
        <ele>399.142985</ele>
        <time>2021-11-22T16:54:03.066Z</time>
      </trkpt>
      <trkpt lat="47.487166" lon="8.044335">
        <ele>399.149761</ele>
        <time>2021-11-22T16:54:04.867Z</time>
      </trkpt>
      <trkpt lat="47.487802" lon="8.043934">
        <ele>399.193600</ele>
        <time>2021-11-22T16:54:16.231Z</time>
      </trkpt>
      <trkpt lat="47.487834" lon="8.043908">
        <ele>399.195915</ele>
        <time>2021-11-22T16:54:17.087Z</time>
      </trkpt>
      <trkpt lat="47.487878" lon="8.043871">
        <ele>399.199124</ele>
        <time>2021-11-22T16:54:18.446Z</time>
      </trkpt>
      <trkpt lat="47.488104" lon="8.043686">
        <ele>399.055671</ele>
        <time>2021-11-22T16:54:21.396Z</time>
      </trkpt>
      <trkpt lat="47.488198" lon="8.043608">
        <ele>398.878590</ele>
        <time>2021-11-22T16:54:23.629Z</time>
      </trkpt>
      <trkpt lat="47.488426" lon="8.043370">
        <ele>398.420125</ele>
        <time>2021-11-22T16:54:26.654Z</time>
      </trkpt>
      <trkpt lat="47.488739" lon="8.043034">
        <ele>397.784753</ele>
        <time>2021-11-22T16:54:30.947Z</time>
      </trkpt>
      <trkpt lat="47.489650" lon="8.041908">
        <ele>396.259436</ele>
        <time>2021-11-22T16:54:43.687Z</time>
      </trkpt>
      <trkpt lat="47.489784" lon="8.041770">
        <ele>396.262841</ele>
        <time>2021-11-22T16:54:45.835Z</time>
      </trkpt>
      <trkpt lat="47.489813" lon="8.041741">
        <ele>396.263571</ele>
        <time>2021-11-22T16:54:46.308Z</time>
      </trkpt>
      <trkpt lat="47.489987" lon="8.041601">
        <ele>396.267702</ele>
        <time>2021-11-22T16:54:48.571Z</time>
      </trkpt>
      <trkpt lat="47.490361" lon="8.041316">
        <ele>396.276475</ele>
        <time>2021-11-22T16:54:54.889Z</time>
      </trkpt>
      <trkpt lat="47.490437" lon="8.041273">
        <ele>396.278172</ele>
        <time>2021-11-22T16:54:56.580Z</time>
      </trkpt>
      <trkpt lat="47.490616" lon="8.041172">
        <ele>396.282168</ele>
        <time>2021-11-22T16:54:59.694Z</time>
      </trkpt>
      <trkpt lat="47.490616" lon="8.041172">
        <ele>396.282168</ele>
        <time>2021-11-22T16:54:59.718Z</time>
      </trkpt>
      <trkpt lat="47.490839" lon="8.041082">
        <ele>396.286989</ele>
        <time>2021-11-22T16:55:05.441Z</time>
      </trkpt>
      <trkpt lat="47.491717" lon="8.040838">
        <ele>395.463532</ele>
        <time>2021-11-22T16:55:25.473Z</time>
      </trkpt>
      <trkpt lat="47.492662" lon="8.040732">
        <ele>394.294261</ele>
        <time>2021-11-22T16:55:35.956Z</time>
      </trkpt>
      <trkpt lat="47.492877" lon="8.040697">
        <ele>393.797169</ele>
        <time>2021-11-22T16:55:38.041Z</time>
      </trkpt>
      <trkpt lat="47.493165" lon="8.040632">
        <ele>391.602245</ele>
        <time>2021-11-22T16:55:40.669Z</time>
      </trkpt>
      <trkpt lat="47.493632" lon="8.040450">
        <ele>387.963851</ele>
        <time>2021-11-22T16:55:44.983Z</time>
      </trkpt>
      <trkpt lat="47.494520" lon="8.039948">
        <ele>380.802075</ele>
        <time>2021-11-22T16:55:53.180Z</time>
      </trkpt>
      <trkpt lat="47.495413" lon="8.039424">
        <ele>376.801665</ele>
        <time>2021-11-22T16:56:02.038Z</time>
      </trkpt>
      <trkpt lat="47.496299" lon="8.038940">
        <ele>373.294814</ele>
        <time>2021-11-22T16:56:12.427Z</time>
      </trkpt>
      <trkpt lat="47.497386" lon="8.038295">
        <ele>373.619356</ele>
        <time>2021-11-22T16:56:36.886Z</time>
      </trkpt>
      <trkpt lat="47.497558" lon="8.038191">
        <ele>373.670846</ele>
        <time>2021-11-22T16:56:40.281Z</time>
      </trkpt>
      <trkpt lat="47.498074" lon="8.037893">
        <ele>373.185070</ele>
        <time>2021-11-22T16:56:50.715Z</time>
      </trkpt>
      <trkpt lat="47.498740" lon="8.037502">
        <ele>370.856812</ele>
        <time>2021-11-22T16:56:58.113Z</time>
      </trkpt>
      <trkpt lat="47.499157" lon="8.037286">
        <ele>369.421150</ele>
        <time>2021-11-22T16:57:02.457Z</time>
      </trkpt>
      <trkpt lat="47.499610" lon="8.037074">
        <ele>367.867461</ele>
        <time>2021-11-22T16:57:06.957Z</time>
      </trkpt>
      <trkpt lat="47.499644" lon="8.037060">
        <ele>367.731170</ele>
        <time>2021-11-22T16:57:07.247Z</time>
      </trkpt>
      <trkpt lat="47.499868" lon="8.037048">
        <ele>366.865531</ele>
        <time>2021-11-22T16:57:09.410Z</time>
      </trkpt>
      <trkpt lat="47.500006" lon="8.037090">
        <ele>366.321435</ele>
        <time>2021-11-22T16:57:10.682Z</time>
      </trkpt>
      <trkpt lat="47.500074" lon="8.037191">
        <ele>365.949406</ele>
        <time>2021-11-22T16:57:11.612Z</time>
      </trkpt>
      <trkpt lat="47.500121" lon="8.037416">
        <ele>365.334943</ele>
        <time>2021-11-22T16:57:13.120Z</time>
      </trkpt>
      <trkpt lat="47.500147" lon="8.037594">
        <ele>364.859796</ele>
        <time>2021-11-22T16:57:14.235Z</time>
      </trkpt>
      <trkpt lat="47.500165" lon="8.037758">
        <ele>364.426298</ele>
        <time>2021-11-22T16:57:15.327Z</time>
      </trkpt>
      <trkpt lat="47.500220" lon="8.038065">
        <ele>363.597628</ele>
        <time>2021-11-22T16:57:17.360Z</time>
      </trkpt>
      <trkpt lat="47.500413" lon="8.038478">
        <ele>362.287417</ele>
        <time>2021-11-22T16:57:20.855Z</time>
      </trkpt>
      <trkpt lat="47.500657" lon="8.038721">
        <ele>361.151677</ele>
        <time>2021-11-22T16:57:24.023Z</time>
      </trkpt>
      <trkpt lat="47.500916" lon="8.038837">
        <ele>360.943984</ele>
        <time>2021-11-22T16:57:27.615Z</time>
      </trkpt>
      <trkpt lat="47.500977" lon="8.038845">
        <ele>360.933451</ele>
        <time>2021-11-22T16:57:28.293Z</time>
      </trkpt>
      <trkpt lat="47.500977" lon="8.038902">
        <ele>360.926828</ele>
        <time>2021-11-22T16:57:28.861Z</time>
      </trkpt>
      <trkpt lat="47.501046" lon="8.039028">
        <ele>360.907982</ele>
        <time>2021-11-22T16:57:30.413Z</time>
      </trkpt>
      <trkpt lat="47.501083" lon="8.039040">
        <ele>360.901467</ele>
        <time>2021-11-22T16:57:30.897Z</time>
      </trkpt>
      <trkpt lat="47.501120" lon="8.039033">
        <ele>360.895052</ele>
        <time>2021-11-22T16:57:31.385Z</time>
      </trkpt>
      <trkpt lat="47.501198" lon="8.038918">
        <ele>360.876117</ele>
        <time>2021-11-22T16:57:32.842Z</time>
      </trkpt>
      <trkpt lat="47.501143" lon="8.038725">
        <ele>360.851778</ele>
        <time>2021-11-22T16:57:35.004Z</time>
      </trkpt>
      <trkpt lat="47.501107" lon="8.038707">
        <ele>360.845243</ele>
        <time>2021-11-22T16:57:35.588Z</time>
      </trkpt>
      <trkpt lat="47.501117" lon="8.038538">
        <ele>360.825531</ele>
        <time>2021-11-22T16:57:37.570Z</time>
      </trkpt>
      <trkpt lat="47.501141" lon="8.038290">
        <ele>360.796421</ele>
        <time>2021-11-22T16:57:39.996Z</time>
      </trkpt>
      <trkpt lat="47.501181" lon="8.037704">
        <ele>360.727985</ele>
        <time>2021-11-22T16:57:46.505Z</time>
      </trkpt>
      <trkpt lat="47.501269" lon="8.036713">
        <ele>360.699564</ele>
        <time>2021-11-22T16:57:58.324Z</time>
      </trkpt>
      <trkpt lat="47.501305" lon="8.036387">
        <ele>360.715647</ele>
        <time>2021-11-22T16:58:02.443Z</time>
      </trkpt>
      <trkpt lat="47.501430" lon="8.035235">
        <ele>360.772458</ele>
        <time>2021-11-22T16:58:14.668Z</time>
      </trkpt>
      <trkpt lat="47.501641" lon="8.034168">
        <ele>360.429064</ele>
        <time>2021-11-22T16:58:24.182Z</time>
      </trkpt>
      <trkpt lat="47.501669" lon="8.033986">
        <ele>360.283066</ele>
        <time>2021-11-22T16:58:25.675Z</time>
      </trkpt>
      <trkpt lat="47.501698" lon="8.034000">
        <ele>360.247750</ele>
        <time>2021-11-22T16:58:26.006Z</time>
      </trkpt>
      <trkpt lat="47.501807" lon="8.033950">
        <ele>360.115631</ele>
        <time>2021-11-22T16:58:27.467Z</time>
      </trkpt>
      <trkpt lat="47.501827" lon="8.033911">
        <ele>360.077333</ele>
        <time>2021-11-22T16:58:27.838Z</time>
      </trkpt>
      <trkpt lat="47.501840" lon="8.033865">
        <ele>360.038333</ele>
        <time>2021-11-22T16:58:28.293Z</time>
      </trkpt>
      <trkpt lat="47.501821" lon="8.033715">
        <ele>359.918965</ele>
        <time>2021-11-22T16:58:29.493Z</time>
      </trkpt>
      <trkpt lat="47.501785" lon="8.033665">
        <ele>359.861810</ele>
        <time>2021-11-22T16:58:30.092Z</time>
      </trkpt>
      <trkpt lat="47.501831" lon="8.033540">
        <ele>359.750476</ele>
        <time>2021-11-22T16:58:31.240Z</time>
      </trkpt>
      <trkpt lat="47.501972" lon="8.033162">
        <ele>359.412745</ele>
        <time>2021-11-22T16:58:34.651Z</time>
      </trkpt>
      <trkpt lat="47.502050" lon="8.032952">
        <ele>359.225304</ele>
        <time>2021-11-22T16:58:36.583Z</time>
      </trkpt>
      <trkpt lat="47.502127" lon="8.032757">
        <ele>359.048641</ele>
        <time>2021-11-22T16:58:38.328Z</time>
      </trkpt>
      <trkpt lat="47.502278" lon="8.032378">
        <ele>358.702724</ele>
        <time>2021-11-22T16:58:41.714Z</time>
      </trkpt>
      <trkpt lat="47.502589" lon="8.031477">
        <ele>357.825860</ele>
        <time>2021-11-22T16:58:49.599Z</time>
      </trkpt>
      <trkpt lat="47.503055" lon="8.030264">
        <ele>356.616539</ele>
        <time>2021-11-22T16:59:00.794Z</time>
      </trkpt>
      <trkpt lat="47.503408" lon="8.029412">
        <ele>356.026021</ele>
        <time>2021-11-22T16:59:09.160Z</time>
      </trkpt>
      <trkpt lat="47.503617" lon="8.028907">
        <ele>355.726135</ele>
        <time>2021-11-22T16:59:14.158Z</time>
      </trkpt>
      <trkpt lat="47.503672" lon="8.028775">
        <ele>355.647604</ele>
        <time>2021-11-22T16:59:15.501Z</time>
      </trkpt>
      <trkpt lat="47.504063" lon="8.027828">
        <ele>355.085609</ele>
        <time>2021-11-22T16:59:25.296Z</time>
      </trkpt>
      <trkpt lat="47.504221" lon="8.027444">
        <ele>354.919871</ele>
        <time>2021-11-22T16:59:29.416Z</time>
      </trkpt>
      <trkpt lat="47.504606" lon="8.026545">
        <ele>354.541889</ele>
        <time>2021-11-22T16:59:39.322Z</time>
      </trkpt>
      <trkpt lat="47.504614" lon="8.026525">
        <ele>354.533635</ele>
        <time>2021-11-22T16:59:39.485Z</time>
      </trkpt>
      <trkpt lat="47.504641" lon="8.026538">
        <ele>354.518710</ele>
        <time>2021-11-22T16:59:39.911Z</time>
      </trkpt>
      <trkpt lat="47.504663" lon="8.026539">
        <ele>354.507140</ele>
        <time>2021-11-22T16:59:40.230Z</time>
      </trkpt>
      <trkpt lat="47.504689" lon="8.026530">
        <ele>354.493104</ele>
        <time>2021-11-22T16:59:40.617Z</time>
      </trkpt>
      <trkpt lat="47.504716" lon="8.026506">
        <ele>354.476549</ele>
        <time>2021-11-22T16:59:41.026Z</time>
      </trkpt>
      <trkpt lat="47.504737" lon="8.026462">
        <ele>354.457418</ele>
        <time>2021-11-22T16:59:41.511Z</time>
      </trkpt>
      <trkpt lat="47.504744" lon="8.026435">
        <ele>354.447149</ele>
        <time>2021-11-22T16:59:41.765Z</time>
      </trkpt>
      <trkpt lat="47.504745" lon="8.026393">
        <ele>354.432225</ele>
        <time>2021-11-22T16:59:42.136Z</time>
      </trkpt>
      <trkpt lat="47.504733" lon="8.026338">
        <ele>354.411701</ele>
        <time>2021-11-22T16:59:42.640Z</time>
      </trkpt>
      <trkpt lat="47.504704" lon="8.026294">
        <ele>354.389872</ele>
        <time>2021-11-22T16:59:43.169Z</time>
      </trkpt>
      <trkpt lat="47.504725" lon="8.026244">
        <ele>354.368965</ele>
        <time>2021-11-22T16:59:43.719Z</time>
      </trkpt>
      <trkpt lat="47.504760" lon="8.026163">
        <ele>354.334821</ele>
        <time>2021-11-22T16:59:44.504Z</time>
      </trkpt>
      <trkpt lat="47.504823" lon="8.026024">
        <ele>354.275382</ele>
        <time>2021-11-22T16:59:46.009Z</time>
      </trkpt>
      <trkpt lat="47.505192" lon="8.025207">
        <ele>353.600227</ele>
        <time>2021-11-22T16:59:54.352Z</time>
      </trkpt>
      <trkpt lat="47.505559" lon="8.024486">
        <ele>352.738997</ele>
        <time>2021-11-22T17:00:01.607Z</time>
      </trkpt>
      <trkpt lat="47.505612" lon="8.024383">
        <ele>352.615477</ele>
        <time>2021-11-22T17:00:02.641Z</time>
      </trkpt>
      <trkpt lat="47.505697" lon="8.024216">
        <ele>352.416002</ele>
        <time>2021-11-22T17:00:04.218Z</time>
      </trkpt>
      <trkpt lat="47.505697" lon="8.024216">
        <ele>352.416002</ele>
        <time>2021-11-22T17:00:04.221Z</time>
      </trkpt>
      <trkpt lat="47.505883" lon="8.023827">
        <ele>351.961349</ele>
        <time>2021-11-22T17:00:07.842Z</time>
      </trkpt>
      <trkpt lat="47.506199" lon="8.023103">
        <ele>350.808535</ele>
        <time>2021-11-22T17:00:14.208Z</time>
      </trkpt>
      <trkpt lat="47.506232" lon="8.023038">
        <ele>350.672788</ele>
        <time>2021-11-22T17:00:14.802Z</time>
      </trkpt>
      <trkpt lat="47.506258" lon="8.022985">
        <ele>350.563435</ele>
        <time>2021-11-22T17:00:15.280Z</time>
      </trkpt>
      <trkpt lat="47.506468" lon="8.022553">
        <ele>349.674896</ele>
        <time>2021-11-22T17:00:19.126Z</time>
      </trkpt>
      <trkpt lat="47.506535" lon="8.022414">
        <ele>349.389821</ele>
        <time>2021-11-22T17:00:20.321Z</time>
      </trkpt>
      <trkpt lat="47.506621" lon="8.022234">
        <ele>349.021750</ele>
        <time>2021-11-22T17:00:21.919Z</time>
      </trkpt>
      <trkpt lat="47.506655" lon="8.022123">
        <ele>348.818279</ele>
        <time>2021-11-22T17:00:22.784Z</time>
      </trkpt>
      <trkpt lat="47.506678" lon="8.022015">
        <ele>348.629230</ele>
        <time>2021-11-22T17:00:23.568Z</time>
      </trkpt>
      <trkpt lat="47.506735" lon="8.021861">
        <ele>348.336069</ele>
        <time>2021-11-22T17:00:24.809Z</time>
      </trkpt>
      <trkpt lat="47.506867" lon="8.021604">
        <ele>347.797082</ele>
        <time>2021-11-22T17:00:27.038Z</time>
      </trkpt>
      <trkpt lat="47.506910" lon="8.021529">
        <ele>347.632854</ele>
        <time>2021-11-22T17:00:27.709Z</time>
      </trkpt>
      <trkpt lat="47.506949" lon="8.021459">
        <ele>347.481372</ele>
        <time>2021-11-22T17:00:28.364Z</time>
      </trkpt>
      <trkpt lat="47.507007" lon="8.021362">
        <ele>347.265108</ele>
        <time>2021-11-22T17:00:29.265Z</time>
      </trkpt>
      <trkpt lat="47.507213" lon="8.021061">
        <ele>346.691911</ele>
        <time>2021-11-22T17:00:32.267Z</time>
      </trkpt>
      <trkpt lat="47.507466" lon="8.020697">
        <ele>346.031944</ele>
        <time>2021-11-22T17:00:35.985Z</time>
      </trkpt>
      <trkpt lat="47.507609" lon="8.020484">
        <ele>345.652468</ele>
        <time>2021-11-22T17:00:38.181Z</time>
      </trkpt>
      <trkpt lat="47.507666" lon="8.020400">
        <ele>345.502015</ele>
        <time>2021-11-22T17:00:39.070Z</time>
      </trkpt>
      <trkpt lat="47.507863" lon="8.020075">
        <ele>344.950234</ele>
        <time>2021-11-22T17:00:42.410Z</time>
      </trkpt>
      <trkpt lat="47.507951" lon="8.019911">
        <ele>344.685575</ele>
        <time>2021-11-22T17:00:44.075Z</time>
      </trkpt>
      <trkpt lat="47.508029" lon="8.019761">
        <ele>344.446375</ele>
        <time>2021-11-22T17:00:45.510Z</time>
      </trkpt>
      <trkpt lat="47.508075" lon="8.019669">
        <ele>344.301740</ele>
        <time>2021-11-22T17:00:46.439Z</time>
      </trkpt>
      <trkpt lat="47.508117" lon="8.019584">
        <ele>344.168665</ele>
        <time>2021-11-22T17:00:47.271Z</time>
      </trkpt>
      <trkpt lat="47.508273" lon="8.019268">
        <ele>343.768674</ele>
        <time>2021-11-22T17:00:50.475Z</time>
      </trkpt>
      <trkpt lat="47.508403" lon="8.018982">
        <ele>343.763337</ele>
        <time>2021-11-22T17:00:53.423Z</time>
      </trkpt>
      <trkpt lat="47.508436" lon="8.018909">
        <ele>343.761977</ele>
        <time>2021-11-22T17:00:54.169Z</time>
      </trkpt>
      <trkpt lat="47.508505" lon="8.018716">
        <ele>343.758597</ele>
        <time>2021-11-22T17:00:56.120Z</time>
      </trkpt>
      <trkpt lat="47.508517" lon="8.018677">
        <ele>343.757933</ele>
        <time>2021-11-22T17:00:56.532Z</time>
      </trkpt>
      <trkpt lat="47.508544" lon="8.018690">
        <ele>343.757282</ele>
        <time>2021-11-22T17:00:56.987Z</time>
      </trkpt>
      <trkpt lat="47.508639" lon="8.018617">
        <ele>343.754829</ele>
        <time>2021-11-22T17:00:58.434Z</time>
      </trkpt>
      <trkpt lat="47.508635" lon="8.018495">
        <ele>343.752938</ele>
        <time>2021-11-22T17:00:59.526Z</time>
      </trkpt>
      <trkpt lat="47.508617" lon="8.018463">
        <ele>343.752294</ele>
        <time>2021-11-22T17:00:59.963Z</time>
      </trkpt>
      <trkpt lat="47.508636" lon="8.018423">
        <ele>343.751537</ele>
        <time>2021-11-22T17:01:00.461Z</time>
      </trkpt>
      <trkpt lat="47.508699" lon="8.018304">
        <ele>343.749196</ele>
        <time>2021-11-22T17:01:02.126Z</time>
      </trkpt>
      <trkpt lat="47.508805" lon="8.018141">
        <ele>343.745693</ele>
        <time>2021-11-22T17:01:04.505Z</time>
      </trkpt>
      <trkpt lat="47.508896" lon="8.018035">
        <ele>343.743039</ele>
        <time>2021-11-22T17:01:06.383Z</time>
      </trkpt>
      <trkpt lat="47.508988" lon="8.017959">
        <ele>343.740625</ele>
        <time>2021-11-22T17:01:08.283Z</time>
      </trkpt>
      <trkpt lat="47.509105" lon="8.017861">
        <ele>343.737544</ele>
        <time>2021-11-22T17:01:10.486Z</time>
      </trkpt>
      <trkpt lat="47.509253" lon="8.017765">
        <ele>343.733840</ele>
        <time>2021-11-22T17:01:13.270Z</time>
      </trkpt>
      <trkpt lat="47.509437" lon="8.017668">
        <ele>343.729364</ele>
        <time>2021-11-22T17:01:16.689Z</time>
      </trkpt>
      <trkpt lat="47.509596" lon="8.017609">
        <ele>343.803805</ele>
        <time>2021-11-22T17:01:19.539Z</time>
      </trkpt>
      <trkpt lat="47.509728" lon="8.017576">
        <ele>343.880264</ele>
        <time>2021-11-22T17:01:21.964Z</time>
      </trkpt>
      <trkpt lat="47.509872" lon="8.017541">
        <ele>343.963610</ele>
        <time>2021-11-22T17:01:24.521Z</time>
      </trkpt>
      <trkpt lat="47.510117" lon="8.017458">
        <ele>344.107159</ele>
        <time>2021-11-22T17:01:29.059Z</time>
      </trkpt>
      <trkpt lat="47.510624" lon="8.017217">
        <ele>344.411292</ele>
        <time>2021-11-22T17:01:38.552Z</time>
      </trkpt>
      <trkpt lat="47.511079" lon="8.016999">
        <ele>344.684434</ele>
        <time>2021-11-22T17:01:46.573Z</time>
      </trkpt>
      <trkpt lat="47.511835" lon="8.016624">
        <ele>344.595123</ele>
        <time>2021-11-22T17:01:58.630Z</time>
      </trkpt>
      <trkpt lat="47.511937" lon="8.016578">
        <ele>344.569615</ele>
        <time>2021-11-22T17:02:00.302Z</time>
      </trkpt>
      <trkpt lat="47.512292" lon="8.016407">
        <ele>344.480308</ele>
        <time>2021-11-22T17:02:05.464Z</time>
      </trkpt>
      <trkpt lat="47.512572" lon="8.016270">
        <ele>344.409762</ele>
        <time>2021-11-22T17:02:09.368Z</time>
      </trkpt>
      <trkpt lat="47.512748" lon="8.016153">
        <ele>344.363608</ele>
        <time>2021-11-22T17:02:11.980Z</time>
      </trkpt>
      <trkpt lat="47.512943" lon="8.015998">
        <ele>344.246790</ele>
        <time>2021-11-22T17:02:14.839Z</time>
      </trkpt>
      <trkpt lat="47.513615" lon="8.015346">
        <ele>343.234741</ele>
        <time>2021-11-22T17:02:24.397Z</time>
      </trkpt>
      <trkpt lat="47.513872" lon="8.015092">
        <ele>342.845512</ele>
        <time>2021-11-22T17:02:27.904Z</time>
      </trkpt>
      <trkpt lat="47.513919" lon="8.015052">
        <ele>342.777225</ele>
        <time>2021-11-22T17:02:28.549Z</time>
      </trkpt>
      <trkpt lat="47.514036" lon="8.014936">
        <ele>342.599854</ele>
        <time>2021-11-22T17:02:30.175Z</time>
      </trkpt>
      <trkpt lat="47.514162" lon="8.014813">
        <ele>342.409745</ele>
        <time>2021-11-22T17:02:31.878Z</time>
      </trkpt>
      <trkpt lat="47.514464" lon="8.014550">
        <ele>341.974854</ele>
        <time>2021-11-22T17:02:35.957Z</time>
      </trkpt>
      <trkpt lat="47.514628" lon="8.014407">
        <ele>341.751991</ele>
        <time>2021-11-22T17:02:38.172Z</time>
      </trkpt>
      <trkpt lat="47.514746" lon="8.014292">
        <ele>341.586572</ele>
        <time>2021-11-22T17:02:39.816Z</time>
      </trkpt>
      <trkpt lat="47.515054" lon="8.014017">
        <ele>341.165417</ele>
        <time>2021-11-22T17:02:44.043Z</time>
      </trkpt>
      <trkpt lat="47.515263" lon="8.013836">
        <ele>340.881899</ele>
        <time>2021-11-22T17:02:46.932Z</time>
      </trkpt>
      <trkpt lat="47.515468" lon="8.013643">
        <ele>340.597436</ele>
        <time>2021-11-22T17:02:49.832Z</time>
      </trkpt>
      <trkpt lat="47.515487" lon="8.013682">
        <ele>340.559406</ele>
        <time>2021-11-22T17:02:50.201Z</time>
      </trkpt>
      <trkpt lat="47.515592" lon="8.013719">
        <ele>340.433022</ele>
        <time>2021-11-22T17:02:51.529Z</time>
      </trkpt>
      <trkpt lat="47.515625" lon="8.013694">
        <ele>340.389616</ele>
        <time>2021-11-22T17:02:51.954Z</time>
      </trkpt>
      <trkpt lat="47.515640" lon="8.013674">
        <ele>340.365980</ele>
        <time>2021-11-22T17:02:52.211Z</time>
      </trkpt>
      <trkpt lat="47.515666" lon="8.013522">
        <ele>340.241975</ele>
        <time>2021-11-22T17:02:53.520Z</time>
      </trkpt>
      <trkpt lat="47.515654" lon="8.013483">
        <ele>340.208082</ele>
        <time>2021-11-22T17:02:53.900Z</time>
      </trkpt>
      <trkpt lat="47.515686" lon="8.013458">
        <ele>340.165716</ele>
        <time>2021-11-22T17:02:54.299Z</time>
      </trkpt>
      <trkpt lat="47.516968" lon="8.012240">
        <ele>339.094294</ele>
        <time>2021-11-22T17:03:14.021Z</time>
      </trkpt>
      <trkpt lat="47.517220" lon="8.011958">
        <ele>338.892019</ele>
        <time>2021-11-22T17:03:18.263Z</time>
      </trkpt>
      <trkpt lat="47.517559" lon="8.011519">
        <ele>338.571715</ele>
        <time>2021-11-22T17:03:24.192Z</time>
      </trkpt>
      <trkpt lat="47.517842" lon="8.011140">
        <ele>338.288070</ele>
        <time>2021-11-22T17:03:29.085Z</time>
      </trkpt>
      <trkpt lat="47.518886" lon="8.009691">
        <ele>337.176270</ele>
        <time>2021-11-22T17:03:46.915Z</time>
      </trkpt>
      <trkpt lat="47.520570" lon="8.007346">
        <ele>335.426399</ele>
        <time>2021-11-22T17:04:15.562Z</time>
      </trkpt>
      <trkpt lat="47.524655" lon="8.001699">
        <ele>332.355410</ele>
        <time>2021-11-22T17:05:30.337Z</time>
      </trkpt>
      <trkpt lat="47.524855" lon="8.001439">
        <ele>332.173110</ele>
        <time>2021-11-22T17:05:33.659Z</time>
      </trkpt>
      <trkpt lat="47.525162" lon="8.001004">
        <ele>331.882057</ele>
        <time>2021-11-22T17:05:38.711Z</time>
      </trkpt>
      <trkpt lat="47.526084" lon="8.000015">
        <ele>331.389750</ele>
        <time>2021-11-22T17:05:53.284Z</time>
      </trkpt>
      <trkpt lat="47.526401" lon="7.999417">
        <ele>331.177348</ele>
        <time>2021-11-22T17:06:00.597Z</time>
      </trkpt>
      <trkpt lat="47.526473" lon="7.999201">
        <ele>331.110050</ele>
        <time>2021-11-22T17:06:03.602Z</time>
      </trkpt>
      <trkpt lat="47.526730" lon="7.998233">
        <ele>331.258531</ele>
        <time>2021-11-22T17:06:14.510Z</time>
      </trkpt>
      <trkpt lat="47.526915" lon="7.997856">
        <ele>331.344308</ele>
        <time>2021-11-22T17:06:19.541Z</time>
      </trkpt>
      <trkpt lat="47.527213" lon="7.997459">
        <ele>331.453566</ele>
        <time>2021-11-22T17:06:26.482Z</time>
      </trkpt>
      <trkpt lat="47.527614" lon="7.997121">
        <ele>331.568259</ele>
        <time>2021-11-22T17:06:33.772Z</time>
      </trkpt>
      <trkpt lat="47.528106" lon="7.996527">
        <ele>331.351334</ele>
        <time>2021-11-22T17:06:43.258Z</time>
      </trkpt>
      <trkpt lat="47.528128" lon="7.996500">
        <ele>331.341570</ele>
        <time>2021-11-22T17:06:43.585Z</time>
      </trkpt>
      <trkpt lat="47.528880" lon="7.995091">
        <ele>330.900436</ele>
        <time>2021-11-22T17:06:59.308Z</time>
      </trkpt>
      <trkpt lat="47.529180" lon="7.994531">
        <ele>330.600397</ele>
        <time>2021-11-22T17:07:05.735Z</time>
      </trkpt>
      <trkpt lat="47.529261" lon="7.994394">
        <ele>330.523966</ele>
        <time>2021-11-22T17:07:07.245Z</time>
      </trkpt>
      <trkpt lat="47.529350" lon="7.994228">
        <ele>330.434998</ele>
        <time>2021-11-22T17:07:09.077Z</time>
      </trkpt>
      <trkpt lat="47.530141" lon="7.992757">
        <ele>329.874753</ele>
        <time>2021-11-22T17:07:25.439Z</time>
      </trkpt>
      <trkpt lat="47.530495" lon="7.992103">
        <ele>329.934108</ele>
        <time>2021-11-22T17:07:33.577Z</time>
      </trkpt>
      <trkpt lat="47.530776" lon="7.991586">
        <ele>329.981105</ele>
        <time>2021-11-22T17:07:41.129Z</time>
      </trkpt>
      <trkpt lat="47.530933" lon="7.991310">
        <ele>330.006660</ele>
        <time>2021-11-22T17:07:44.854Z</time>
      </trkpt>
      <trkpt lat="47.530979" lon="7.991211">
        <ele>330.015170</ele>
        <time>2021-11-22T17:07:46.402Z</time>
      </trkpt>
      <trkpt lat="47.531363" lon="7.990436">
        <ele>330.462644</ele>
        <time>2021-11-22T17:07:57.552Z</time>
      </trkpt>
      <trkpt lat="47.531667" lon="7.989873">
        <ele>330.879687</ele>
        <time>2021-11-22T17:08:06.799Z</time>
      </trkpt>
      <trkpt lat="47.531823" lon="7.989607">
        <ele>331.083515</ele>
        <time>2021-11-22T17:08:10.795Z</time>
      </trkpt>
      <trkpt lat="47.531897" lon="7.989450">
        <ele>331.194281</ele>
        <time>2021-11-22T17:08:14.056Z</time>
      </trkpt>
      <trkpt lat="47.532014" lon="7.989225">
        <ele>331.358574</ele>
        <time>2021-11-22T17:08:16.845Z</time>
      </trkpt>
      <trkpt lat="47.532299" lon="7.988577">
        <ele>331.810417</ele>
        <time>2021-11-22T17:08:27.590Z</time>
      </trkpt>
      <trkpt lat="47.532373" lon="7.988399">
        <ele>331.933641</ele>
        <time>2021-11-22T17:08:30.869Z</time>
      </trkpt>
      <trkpt lat="47.532401" lon="7.988331">
        <ele>331.980593</ele>
        <time>2021-11-22T17:08:31.358Z</time>
      </trkpt>
      <trkpt lat="47.532464" lon="7.988171">
        <ele>332.089778</ele>
        <time>2021-11-22T17:08:34.508Z</time>
      </trkpt>
      <trkpt lat="47.532544" lon="7.987973">
        <ele>332.225799</ele>
        <time>2021-11-22T17:08:38.055Z</time>
      </trkpt>
      <trkpt lat="47.532621" lon="7.987826">
        <ele>332.335473</ele>
        <time>2021-11-22T17:08:39.488Z</time>
      </trkpt>
      <trkpt lat="47.532716" lon="7.987667">
        <ele>332.460632</ele>
        <time>2021-11-22T17:08:42.848Z</time>
      </trkpt>
      <trkpt lat="47.532879" lon="7.987447">
        <ele>332.653171</ele>
        <time>2021-11-22T17:08:46.147Z</time>
      </trkpt>
      <trkpt lat="47.533114" lon="7.987128">
        <ele>332.931484</ele>
        <time>2021-11-22T17:08:51.557Z</time>
      </trkpt>
      <trkpt lat="47.533208" lon="7.986980">
        <ele>333.051262</ele>
        <time>2021-11-22T17:08:54.920Z</time>
      </trkpt>
      <trkpt lat="47.533546" lon="7.986336">
        <ele>333.424916</ele>
        <time>2021-11-22T17:09:04.764Z</time>
      </trkpt>
      <trkpt lat="47.533975" lon="7.985526">
        <ele>333.865122</ele>
        <time>2021-11-22T17:09:16.193Z</time>
      </trkpt>
      <trkpt lat="47.534197" lon="7.985105">
        <ele>334.093540</ele>
        <time>2021-11-22T17:09:22.366Z</time>
      </trkpt>
      <trkpt lat="47.534320" lon="7.984882">
        <ele>334.216668</ele>
        <time>2021-11-22T17:09:25.583Z</time>
      </trkpt>
      <trkpt lat="47.534722" lon="7.984096">
        <ele>335.169713</ele>
        <time>2021-11-22T17:09:37.368Z</time>
      </trkpt>
      <trkpt lat="47.534817" lon="7.983835">
        <ele>335.485034</ele>
        <time>2021-11-22T17:09:41.313Z</time>
      </trkpt>
      <trkpt lat="47.535231" lon="7.982582">
        <ele>336.968510</ele>
        <time>2021-11-22T17:10:03.003Z</time>
      </trkpt>
      <trkpt lat="47.535300" lon="7.982379">
        <ele>337.216912</ele>
        <time>2021-11-22T17:10:06.767Z</time>
      </trkpt>
      <trkpt lat="47.535328" lon="7.982298">
        <ele>337.320436</ele>
        <time>2021-11-22T17:10:08.252Z</time>
      </trkpt>
      <trkpt lat="47.535345" lon="7.982248">
        <ele>337.384123</ele>
        <time>2021-11-22T17:10:09.143Z</time>
      </trkpt>
      <trkpt lat="47.535452" lon="7.981933">
        <ele>337.785275</ele>
        <time>2021-11-22T17:10:15.205Z</time>
      </trkpt>
      <trkpt lat="47.535599" lon="7.981498">
        <ele>338.338670</ele>
        <time>2021-11-22T17:10:23.481Z</time>
      </trkpt>
      <trkpt lat="47.536061" lon="7.980200">
        <ele>340.007936</ele>
        <time>2021-11-22T17:10:44.622Z</time>
      </trkpt>
      <trkpt lat="47.536340" lon="7.979418">
        <ele>339.482993</ele>
        <time>2021-11-22T17:10:53.501Z</time>
      </trkpt>
      <trkpt lat="47.536403" lon="7.979241">
        <ele>339.309715</ele>
        <time>2021-11-22T17:10:55.125Z</time>
      </trkpt>
      <trkpt lat="47.536460" lon="7.979083">
        <ele>339.154580</ele>
        <time>2021-11-22T17:10:56.569Z</time>
      </trkpt>
      <trkpt lat="47.536866" lon="7.977996">
        <ele>338.078799</ele>
        <time>2021-11-22T17:11:05.796Z</time>
      </trkpt>
      <trkpt lat="47.537896" lon="7.975317">
        <ele>332.654794</ele>
        <time>2021-11-22T17:11:27.250Z</time>
      </trkpt>
      <trkpt lat="47.538106" lon="7.974772">
        <ele>331.675816</ele>
        <time>2021-11-22T17:11:31.773Z</time>
      </trkpt>
      <trkpt lat="47.538490" lon="7.973699">
        <ele>329.781216</ele>
        <time>2021-11-22T17:11:40.600Z</time>
      </trkpt>
      <trkpt lat="47.538687" lon="7.972850">
        <ele>328.384014</ele>
        <time>2021-11-22T17:11:47.166Z</time>
      </trkpt>
      <trkpt lat="47.538858" lon="7.971696">
        <ele>326.559115</ele>
        <time>2021-11-22T17:11:55.836Z</time>
      </trkpt>
      <trkpt lat="47.538935" lon="7.971210">
        <ele>325.788046</ele>
        <time>2021-11-22T17:11:59.466Z</time>
      </trkpt>
      <trkpt lat="47.539052" lon="7.970439">
        <ele>324.568743</ele>
        <time>2021-11-22T17:12:05.093Z</time>
      </trkpt>
      <trkpt lat="47.539144" lon="7.969781">
        <ele>323.569760</ele>
        <time>2021-11-22T17:12:09.887Z</time>
      </trkpt>
      <trkpt lat="47.539248" lon="7.969246">
        <ele>322.742081</ele>
        <time>2021-11-22T17:12:13.900Z</time>
      </trkpt>
      <trkpt lat="47.539403" lon="7.968640">
        <ele>321.778673</ele>
        <time>2021-11-22T17:12:18.633Z</time>
      </trkpt>
      <trkpt lat="47.539403" lon="7.968640">
        <ele>321.778673</ele>
        <time>2021-11-22T17:12:18.638Z</time>
      </trkpt>
      <trkpt lat="47.539403" lon="7.968640">
        <ele>321.778673</ele>
        <time>2021-11-22T17:12:18.707Z</time>
      </trkpt>
      <trkpt lat="47.539680" lon="7.967625">
        <ele>320.290241</ele>
        <time>2021-11-22T17:12:26.923Z</time>
      </trkpt>
      <trkpt lat="47.539909" lon="7.966784">
        <ele>319.325022</ele>
        <time>2021-11-22T17:12:33.778Z</time>
      </trkpt>
      <trkpt lat="47.540100" lon="7.966046">
        <ele>318.483764</ele>
        <time>2021-11-22T17:12:40.054Z</time>
      </trkpt>
      <trkpt lat="47.540200" lon="7.965632">
        <ele>318.015756</ele>
        <time>2021-11-22T17:12:43.570Z</time>
      </trkpt>
      <trkpt lat="47.540257" lon="7.965417">
        <ele>317.771070</ele>
        <time>2021-11-22T17:12:45.309Z</time>
      </trkpt>
      <trkpt lat="47.540467" lon="7.964759">
        <ele>317.022112</ele>
        <time>2021-11-22T17:12:51.050Z</time>
      </trkpt>
      <trkpt lat="47.540959" lon="7.963916">
        <ele>315.875396</ele>
        <time>2021-11-22T17:12:59.705Z</time>
      </trkpt>
      <trkpt lat="47.541019" lon="7.963815">
        <ele>315.736953</ele>
        <time>2021-11-22T17:13:00.657Z</time>
      </trkpt>
      <trkpt lat="47.541123" lon="7.963520">
        <ele>315.394490</ele>
        <time>2021-11-22T17:13:03.254Z</time>
      </trkpt>
      <trkpt lat="47.541217" lon="7.963187">
        <ele>315.005289</ele>
        <time>2021-11-22T17:13:06.012Z</time>
      </trkpt>
      <trkpt lat="47.541258" lon="7.962975">
        <ele>314.678224</ele>
        <time>2021-11-22T17:13:07.846Z</time>
      </trkpt>
      <trkpt lat="47.541293" lon="7.962730">
        <ele>314.306819</ele>
        <time>2021-11-22T17:13:09.690Z</time>
      </trkpt>
      <trkpt lat="47.541308" lon="7.962513">
        <ele>313.983305</ele>
        <time>2021-11-22T17:13:11.450Z</time>
      </trkpt>
      <trkpt lat="47.541314" lon="7.962377">
        <ele>313.781174</ele>
        <time>2021-11-22T17:13:12.517Z</time>
      </trkpt>
      <trkpt lat="47.541316" lon="7.962197">
        <ele>313.514182</ele>
        <time>2021-11-22T17:13:13.821Z</time>
      </trkpt>
      <trkpt lat="47.541242" lon="7.961294">
        <ele>312.165116</ele>
        <time>2021-11-22T17:13:20.468Z</time>
      </trkpt>
      <trkpt lat="47.541153" lon="7.960814">
        <ele>311.426865</ele>
        <time>2021-11-22T17:13:23.998Z</time>
      </trkpt>
      <trkpt lat="47.541060" lon="7.960321">
        <ele>310.391623</ele>
        <time>2021-11-22T17:13:27.588Z</time>
      </trkpt>
      <trkpt lat="47.541027" lon="7.959944">
        <ele>309.477340</ele>
        <time>2021-11-22T17:13:30.090Z</time>
      </trkpt>
      <trkpt lat="47.541019" lon="7.959792">
        <ele>309.110667</ele>
        <time>2021-11-22T17:13:31.135Z</time>
      </trkpt>
      <trkpt lat="47.541012" lon="7.959578">
        <ele>308.595388</ele>
        <time>2021-11-22T17:13:32.610Z</time>
      </trkpt>
      <trkpt lat="47.541016" lon="7.959388">
        <ele>308.138212</ele>
        <time>2021-11-22T17:13:33.812Z</time>
      </trkpt>
      <trkpt lat="47.541081" lon="7.958828">
        <ele>306.771637</ele>
        <time>2021-11-22T17:13:37.580Z</time>
      </trkpt>
      <trkpt lat="47.541226" lon="7.958150">
        <ele>305.061163</ele>
        <time>2021-11-22T17:13:42.342Z</time>
      </trkpt>
      <trkpt lat="47.541305" lon="7.957787">
        <ele>304.338288</ele>
        <time>2021-11-22T17:13:44.826Z</time>
      </trkpt>
      <trkpt lat="47.541355" lon="7.957559">
        <ele>303.961899</ele>
        <time>2021-11-22T17:13:46.526Z</time>
      </trkpt>
      <trkpt lat="47.541450" lon="7.956897">
        <ele>302.899296</ele>
        <time>2021-11-22T17:13:51.162Z</time>
      </trkpt>
      <trkpt lat="47.541464" lon="7.956698">
        <ele>302.585163</ele>
        <time>2021-11-22T17:13:52.567Z</time>
      </trkpt>
      <trkpt lat="47.541533" lon="7.955526">
        <ele>300.738074</ele>
        <time>2021-11-22T17:14:01.401Z</time>
      </trkpt>
      <trkpt lat="47.541554" lon="7.955311">
        <ele>300.516422</ele>
        <time>2021-11-22T17:14:03.438Z</time>
      </trkpt>
      <trkpt lat="47.541735" lon="7.953892">
        <ele>300.441247</ele>
        <time>2021-11-22T17:14:17.648Z</time>
      </trkpt>
      <trkpt lat="47.541773" lon="7.953695">
        <ele>300.430582</ele>
        <time>2021-11-22T17:14:19.895Z</time>
      </trkpt>
      <trkpt lat="47.541791" lon="7.953601">
        <ele>300.425495</ele>
        <time>2021-11-22T17:14:20.930Z</time>
      </trkpt>
      <trkpt lat="47.541991" lon="7.952667">
        <ele>300.404884</ele>
        <time>2021-11-22T17:14:31.786Z</time>
      </trkpt>
      <trkpt lat="47.542169" lon="7.951815">
        <ele>300.551009</ele>
        <time>2021-11-22T17:14:41.524Z</time>
      </trkpt>
      <trkpt lat="47.542192" lon="7.951713">
        <ele>300.568628</ele>
        <time>2021-11-22T17:14:42.787Z</time>
      </trkpt>
      <trkpt lat="47.542357" lon="7.951037">
        <ele>300.686401</ele>
        <time>2021-11-22T17:14:50.251Z</time>
      </trkpt>
      <trkpt lat="47.542444" lon="7.950687">
        <ele>300.747509</ele>
        <time>2021-11-22T17:14:54.081Z</time>
      </trkpt>
      <trkpt lat="47.542546" lon="7.950274">
        <ele>300.821441</ele>
        <time>2021-11-22T17:14:58.428Z</time>
      </trkpt>
      <trkpt lat="47.542554" lon="7.950231">
        <ele>300.840220</ele>
        <time>2021-11-22T17:14:58.915Z</time>
      </trkpt>
      <trkpt lat="47.542560" lon="7.950202">
        <ele>300.852990</ele>
        <time>2021-11-22T17:14:59.249Z</time>
      </trkpt>
      <trkpt lat="47.542609" lon="7.949914">
        <ele>300.978035</ele>
        <time>2021-11-22T17:15:02.248Z</time>
      </trkpt>
      <trkpt lat="47.542719" lon="7.949175">
        <ele>301.296640</ele>
        <time>2021-11-22T17:15:10.151Z</time>
      </trkpt>
      <trkpt lat="47.542826" lon="7.948298">
        <ele>301.671853</ele>
        <time>2021-11-22T17:15:21.094Z</time>
      </trkpt>
      <trkpt lat="47.542838" lon="7.948225">
        <ele>301.703485</ele>
        <time>2021-11-22T17:15:21.920Z</time>
      </trkpt>
      <trkpt lat="47.542875" lon="7.948001">
        <ele>301.800574</ele>
        <time>2021-11-22T17:15:24.805Z</time>
      </trkpt>
      <trkpt lat="47.542928" lon="7.947798">
        <ele>301.892210</ele>
        <time>2021-11-22T17:15:27.728Z</time>
      </trkpt>
      <trkpt lat="47.542957" lon="7.947651">
        <ele>301.989426</ele>
        <time>2021-11-22T17:15:29.436Z</time>
      </trkpt>
      <trkpt lat="47.543050" lon="7.947411">
        <ele>302.336681</ele>
        <time>2021-11-22T17:15:33.800Z</time>
      </trkpt>
      <trkpt lat="47.543087" lon="7.947317">
        <ele>302.473225</ele>
        <time>2021-11-22T17:15:35.079Z</time>
      </trkpt>
      <trkpt lat="47.543092" lon="7.947257">
        <ele>302.549087</ele>
        <time>2021-11-22T17:15:35.867Z</time>
      </trkpt>
      <trkpt lat="47.543097" lon="7.947186">
        <ele>302.638664</ele>
        <time>2021-11-22T17:15:36.718Z</time>
      </trkpt>
      <trkpt lat="47.543086" lon="7.947052">
        <ele>302.808051</ele>
        <time>2021-11-22T17:15:38.547Z</time>
      </trkpt>
      <trkpt lat="47.543056" lon="7.946935">
        <ele>302.965103</ele>
        <time>2021-11-22T17:15:40.914Z</time>
      </trkpt>
      <trkpt lat="47.543045" lon="7.946881">
        <ele>303.035882</ele>
        <time>2021-11-22T17:15:42.026Z</time>
      </trkpt>
      <trkpt lat="47.542982" lon="7.946547">
        <ele>303.471054</ele>
        <time>2021-11-22T17:15:46.626Z</time>
      </trkpt>
      <trkpt lat="47.542974" lon="7.946495">
        <ele>303.537979</ele>
        <time>2021-11-22T17:15:47.839Z</time>
      </trkpt>
      <trkpt lat="47.542960" lon="7.946400">
        <ele>303.659997</ele>
        <time>2021-11-22T17:15:49.676Z</time>
      </trkpt>
      <trkpt lat="47.542916" lon="7.945730">
        <ele>304.504712</ele>
        <time>2021-11-22T17:16:00.252Z</time>
      </trkpt>
      <trkpt lat="47.542913" lon="7.945267">
        <ele>305.085732</ele>
        <time>2021-11-22T17:16:07.738Z</time>
      </trkpt>
      <trkpt lat="47.543007" lon="7.943867">
        <ele>306.079348</ele>
        <time>2021-11-22T17:16:28.478Z</time>
      </trkpt>
      <trkpt lat="47.543161" lon="7.942213">
        <ele>306.798391</ele>
        <time>2021-11-22T17:16:46.883Z</time>
      </trkpt>
      <trkpt lat="47.543435" lon="7.940670">
        <ele>305.653468</ele>
        <time>2021-11-22T17:16:59.831Z</time>
      </trkpt>
      <trkpt lat="47.543826" lon="7.939433">
        <ele>304.401612</ele>
        <time>2021-11-22T17:17:10.233Z</time>
      </trkpt>
      <trkpt lat="47.544472" lon="7.937932">
        <ele>302.246695</ele>
        <time>2021-11-22T17:17:23.557Z</time>
      </trkpt>
      <trkpt lat="47.544705" lon="7.937395">
        <ele>301.510687</ele>
        <time>2021-11-22T17:17:28.397Z</time>
      </trkpt>
      <trkpt lat="47.544903" lon="7.936917">
        <ele>300.899365</ele>
        <time>2021-11-22T17:17:32.657Z</time>
      </trkpt>
      <trkpt lat="47.545074" lon="7.936484">
        <ele>300.352534</ele>
        <time>2021-11-22T17:17:36.488Z</time>
      </trkpt>
      <trkpt lat="47.545457" lon="7.935110">
        <ele>298.896872</ele>
        <time>2021-11-22T17:17:47.857Z</time>
      </trkpt>
      <trkpt lat="47.545674" lon="7.933625">
        <ele>298.561358</ele>
        <time>2021-11-22T17:18:00.937Z</time>
      </trkpt>
      <trkpt lat="47.545702" lon="7.933290">
        <ele>298.486819</ele>
        <time>2021-11-22T17:18:04.517Z</time>
      </trkpt>
      <trkpt lat="47.545724" lon="7.932758">
        <ele>298.369123</ele>
        <time>2021-11-22T17:18:10.783Z</time>
      </trkpt>
      <trkpt lat="47.545721" lon="7.931992">
        <ele>299.178149</ele>
        <time>2021-11-22T17:18:20.823Z</time>
      </trkpt>
      <trkpt lat="47.545696" lon="7.931497">
        <ele>299.781713</ele>
        <time>2021-11-22T17:18:28.028Z</time>
      </trkpt>
      <trkpt lat="47.545661" lon="7.930955">
        <ele>300.443753</ele>
        <time>2021-11-22T17:18:36.723Z</time>
      </trkpt>
      <trkpt lat="47.545563" lon="7.929641">
        <ele>301.685629</ele>
        <time>2021-11-22T17:18:59.062Z</time>
      </trkpt>
      <trkpt lat="47.545475" lon="7.928419">
        <ele>301.994642</ele>
        <time>2021-11-22T17:19:15.365Z</time>
      </trkpt>
      <trkpt lat="47.545421" lon="7.927686">
        <ele>302.180048</ele>
        <time>2021-11-22T17:19:21.469Z</time>
      </trkpt>
      <trkpt lat="47.545406" lon="7.927306">
        <ele>302.124646</ele>
        <time>2021-11-22T17:19:24.373Z</time>
      </trkpt>
      <trkpt lat="47.545407" lon="7.927001">
        <ele>301.449870</ele>
        <time>2021-11-22T17:19:26.660Z</time>
      </trkpt>
      <trkpt lat="47.545409" lon="7.926773">
        <ele>300.945411</ele>
        <time>2021-11-22T17:19:28.289Z</time>
      </trkpt>
      <trkpt lat="47.545417" lon="7.925848">
        <ele>298.898817</ele>
        <time>2021-11-22T17:19:34.624Z</time>
      </trkpt>
      <trkpt lat="47.545446" lon="7.925350">
        <ele>297.792973</ele>
        <time>2021-11-22T17:19:37.916Z</time>
      </trkpt>
      <trkpt lat="47.545466" lon="7.924880">
        <ele>296.751104</ele>
        <time>2021-11-22T17:19:40.969Z</time>
      </trkpt>
      <trkpt lat="47.545481" lon="7.924396">
        <ele>295.760294</ele>
        <time>2021-11-22T17:19:44.053Z</time>
      </trkpt>
      <trkpt lat="47.545521" lon="7.923709">
        <ele>294.415097</ele>
        <time>2021-11-22T17:19:48.578Z</time>
      </trkpt>
      <trkpt lat="47.545536" lon="7.923407">
        <ele>293.824354</ele>
        <time>2021-11-22T17:19:50.968Z</time>
      </trkpt>
      <trkpt lat="47.545553" lon="7.923142">
        <ele>293.305055</ele>
        <time>2021-11-22T17:19:52.687Z</time>
      </trkpt>
      <trkpt lat="47.545587" lon="7.922895">
        <ele>292.813284</ele>
        <time>2021-11-22T17:19:55.090Z</time>
      </trkpt>
      <trkpt lat="47.545641" lon="7.922610">
        <ele>292.235810</ele>
        <time>2021-11-22T17:19:57.089Z</time>
      </trkpt>
      <trkpt lat="47.545690" lon="7.922369">
        <ele>291.744796</ele>
        <time>2021-11-22T17:19:59.779Z</time>
      </trkpt>
      <trkpt lat="47.545699" lon="7.922325">
        <ele>291.655106</ele>
        <time>2021-11-22T17:20:00.041Z</time>
      </trkpt>
      <trkpt lat="47.545714" lon="7.922249">
        <ele>291.500635</ele>
        <time>2021-11-22T17:20:00.631Z</time>
      </trkpt>
      <trkpt lat="47.545778" lon="7.921947">
        <ele>291.095493</ele>
        <time>2021-11-22T17:20:03.786Z</time>
      </trkpt>
      <trkpt lat="47.545810" lon="7.921755">
        <ele>290.998334</ele>
        <time>2021-11-22T17:20:05.144Z</time>
      </trkpt>
      <trkpt lat="47.545881" lon="7.921096">
        <ele>290.670484</ele>
        <time>2021-11-22T17:20:10.492Z</time>
      </trkpt>
      <trkpt lat="47.545913" lon="7.920765">
        <ele>290.506211</ele>
        <time>2021-11-22T17:20:13.359Z</time>
      </trkpt>
      <trkpt lat="47.545973" lon="7.920313">
        <ele>290.279901</ele>
        <time>2021-11-22T17:20:18.507Z</time>
      </trkpt>
      <trkpt lat="47.546128" lon="7.919617">
        <ele>289.919843</ele>
        <time>2021-11-22T17:20:24.970Z</time>
      </trkpt>
      <trkpt lat="47.546262" lon="7.919081">
        <ele>289.713772</ele>
        <time>2021-11-22T17:20:30.969Z</time>
      </trkpt>
      <trkpt lat="47.546821" lon="7.916867">
        <ele>288.970511</ele>
        <time>2021-11-22T17:20:51.721Z</time>
      </trkpt>
      <trkpt lat="47.547032" lon="7.916218">
        <ele>288.844353</ele>
        <time>2021-11-22T17:20:58.212Z</time>
      </trkpt>
      <trkpt lat="47.547091" lon="7.916039">
        <ele>288.809466</ele>
        <time>2021-11-22T17:21:00.030Z</time>
      </trkpt>
      <trkpt lat="47.547113" lon="7.915971">
        <ele>288.796260</ele>
        <time>2021-11-22T17:21:00.628Z</time>
      </trkpt>
      <trkpt lat="47.547423" lon="7.915080">
        <ele>288.620707</ele>
        <time>2021-11-22T17:21:10.272Z</time>
      </trkpt>
      <trkpt lat="47.547994" lon="7.913433">
        <ele>289.101641</ele>
        <time>2021-11-22T17:21:29.992Z</time>
      </trkpt>
      <trkpt lat="47.548027" lon="7.913334">
        <ele>289.149210</ele>
        <time>2021-11-22T17:21:31.351Z</time>
      </trkpt>
      <trkpt lat="47.548412" lon="7.912168">
        <ele>289.733453</ele>
        <time>2021-11-22T17:21:47.754Z</time>
      </trkpt>
      <trkpt lat="47.549012" lon="7.910340">
        <ele>291.310636</ele>
        <time>2021-11-22T17:22:14.700Z</time>
      </trkpt>
      <trkpt lat="47.549102" lon="7.910058">
        <ele>291.552670</ele>
        <time>2021-11-22T17:22:18.814Z</time>
      </trkpt>
      <trkpt lat="47.549195" lon="7.909756">
        <ele>291.841492</ele>
        <time>2021-11-22T17:22:23.136Z</time>
      </trkpt>
      <trkpt lat="47.549324" lon="7.909327">
        <ele>292.380171</ele>
        <time>2021-11-22T17:22:29.191Z</time>
      </trkpt>
      <trkpt lat="47.549520" lon="7.908678">
        <ele>293.195680</ele>
        <time>2021-11-22T17:22:38.415Z</time>
      </trkpt>
      <trkpt lat="47.549539" lon="7.908625">
        <ele>293.264512</ele>
        <time>2021-11-22T17:22:39.149Z</time>
      </trkpt>
      <trkpt lat="47.550497" lon="7.905558">
        <ele>298.552703</ele>
        <time>2021-11-22T17:23:34.051Z</time>
      </trkpt>
      <trkpt lat="47.550283" lon="7.905413">
        <ele>299.193955</ele>
        <time>2021-11-22T17:23:42.218Z</time>
      </trkpt>
      <trkpt lat="47.550067" lon="7.905245">
        <ele>299.922384</ele>
        <time>2021-11-22T17:23:50.904Z</time>
      </trkpt>
      <trkpt lat="47.549867" lon="7.905155">
        <ele>300.724424</ele>
        <time>2021-11-22T17:23:58.532Z</time>
      </trkpt>
      <trkpt lat="47.549868" lon="7.905010">
        <ele>301.099973</ele>
        <time>2021-11-22T17:24:01.937Z</time>
      </trkpt>
      <trkpt lat="47.550025" lon="7.904774">
        <ele>301.958163</ele>
        <time>2021-11-22T17:24:10.089Z</time>
      </trkpt>
      <trkpt lat="47.550302" lon="7.904164">
        <ele>303.862236</ele>
        <time>2021-11-22T17:24:28.388Z</time>
      </trkpt>
      <trkpt lat="47.550498" lon="7.903445">
        <ele>305.870466</ele>
        <time>2021-11-22T17:24:47.959Z</time>
      </trkpt>
      <trkpt lat="47.550688" lon="7.902451">
        <ele>308.530600</ele>
        <time>2021-11-22T17:25:10.508Z</time>
      </trkpt>
      <trkpt lat="47.550757" lon="7.901591">
        <ele>310.755742</ele>
        <time>2021-11-22T17:25:30.304Z</time>
      </trkpt>
      <trkpt lat="47.550769" lon="7.901362">
        <ele>311.345878</ele>
        <time>2021-11-22T17:25:36.212Z</time>
      </trkpt>
      <trkpt lat="47.550801" lon="7.900244">
        <ele>314.309484</ele>
        <time>2021-11-22T17:26:00.609Z</time>
      </trkpt>
      <trkpt lat="47.550819" lon="7.898109">
        <ele>320.426635</ele>
        <time>2021-11-22T17:26:48.446Z</time>
      </trkpt>
      <trkpt lat="47.550812" lon="7.898038">
        <ele>320.632206</ele>
        <time>2021-11-22T17:26:50.582Z</time>
      </trkpt>
      <trkpt lat="47.550648" lon="7.896481">
        <ele>322.884912</ele>
        <time>2021-11-22T17:27:16.522Z</time>
      </trkpt>
      <trkpt lat="47.550639" lon="7.896345">
        <ele>323.058333</ele>
        <time>2021-11-22T17:27:18.953Z</time>
      </trkpt>
      <trkpt lat="47.550660" lon="7.896255">
        <ele>323.179181</ele>
        <time>2021-11-22T17:27:19.704Z</time>
      </trkpt>
      <trkpt lat="47.550838" lon="7.895509">
        <ele>324.183322</ele>
        <time>2021-11-22T17:27:29.518Z</time>
      </trkpt>
      <trkpt lat="47.550878" lon="7.895158">
        <ele>324.613084</ele>
        <time>2021-11-22T17:27:33.237Z</time>
      </trkpt>
      <trkpt lat="47.550908" lon="7.894308">
        <ele>325.551068</ele>
        <time>2021-11-22T17:27:43.265Z</time>
      </trkpt>
      <trkpt lat="47.550892" lon="7.893176">
        <ele>326.798811</ele>
        <time>2021-11-22T17:27:57.983Z</time>
      </trkpt>
      <trkpt lat="47.550904" lon="7.891725">
        <ele>330.572524</ele>
        <time>2021-11-22T17:28:27.745Z</time>
      </trkpt>
      <trkpt lat="47.550915" lon="7.890600">
        <ele>334.527314</ele>
        <time>2021-11-22T17:28:56.585Z</time>
      </trkpt>
      <trkpt lat="47.550833" lon="7.889069">
        <ele>340.530111</ele>
        <time>2021-11-22T17:29:39.219Z</time>
      </trkpt>
      <trkpt lat="47.550831" lon="7.888611">
        <ele>342.448557</ele>
        <time>2021-11-22T17:29:51.789Z</time>
      </trkpt>
      <trkpt lat="47.550789" lon="7.887816">
        <ele>345.788728</ele>
        <time>2021-11-22T17:30:12.401Z</time>
      </trkpt>
      <trkpt lat="47.550758" lon="7.887295">
        <ele>347.973643</ele>
        <time>2021-11-22T17:30:26.222Z</time>
      </trkpt>
      <trkpt lat="47.550677" lon="7.886476">
        <ele>350.991681</ele>
        <time>2021-11-22T17:30:47.711Z</time>
      </trkpt>
      <trkpt lat="47.550548" lon="7.885799">
        <ele>353.556574</ele>
        <time>2021-11-22T17:31:04.914Z</time>
      </trkpt>
      <trkpt lat="47.550391" lon="7.885109">
        <ele>356.211504</ele>
        <time>2021-11-22T17:31:23.092Z</time>
      </trkpt>
      <trkpt lat="47.550332" lon="7.884727">
        <ele>357.640322</ele>
        <time>2021-11-22T17:31:31.994Z</time>
      </trkpt>
      <trkpt lat="47.550234" lon="7.883221">
        <ele>361.646529</ele>
        <time>2021-11-22T17:32:04.825Z</time>
      </trkpt>
      <trkpt lat="47.550210" lon="7.883084">
        <ele>362.021039</ele>
        <time>2021-11-22T17:32:08.214Z</time>
      </trkpt>
      <trkpt lat="47.549927" lon="7.881490">
        <ele>366.329682</ele>
        <time>2021-11-22T17:32:37.443Z</time>
      </trkpt>
      <trkpt lat="47.549726" lon="7.880786">
        <ele>368.289030</ele>
        <time>2021-11-22T17:32:53.180Z</time>
      </trkpt>
      <trkpt lat="47.549327" lon="7.879547">
        <ele>371.790460</ele>
        <time>2021-11-22T17:33:22.098Z</time>
      </trkpt>
      <trkpt lat="47.549318" lon="7.879398">
        <ele>372.149604</ele>
        <time>2021-11-22T17:33:25.286Z</time>
      </trkpt>
      <trkpt lat="47.549140" lon="7.879391">
        <ele>372.782961</ele>
        <time>2021-11-22T17:33:32.157Z</time>
      </trkpt>
      <trkpt lat="47.548718" lon="7.879258">
        <ele>374.317572</ele>
        <time>2021-11-22T17:33:45.827Z</time>
      </trkpt>
      <trkpt lat="47.548422" lon="7.878959">
        <ele>375.591853</ele>
        <time>2021-11-22T17:33:56.474Z</time>
      </trkpt>
      <trkpt lat="47.548234" lon="7.878638">
        <ele>376.612188</ele>
        <time>2021-11-22T17:34:04.906Z</time>
      </trkpt>
      <trkpt lat="47.547992" lon="7.877974">
        <ele>377.840927</ele>
        <time>2021-11-22T17:34:18.004Z</time>
      </trkpt>
      <trkpt lat="47.547574" lon="7.876801">
        <ele>377.263045</ele>
        <time>2021-11-22T17:34:31.767Z</time>
      </trkpt>
      <trkpt lat="47.547126" lon="7.875801">
        <ele>376.550154</ele>
        <time>2021-11-22T17:34:40.550Z</time>
      </trkpt>
      <trkpt lat="47.546309" lon="7.874154">
        <ele>369.900766</ele>
        <time>2021-11-22T17:34:53.738Z</time>
      </trkpt>
      <trkpt lat="47.546135" lon="7.873859">
        <ele>368.626270</ele>
        <time>2021-11-22T17:34:56.120Z</time>
      </trkpt>
      <trkpt lat="47.546077" lon="7.873763">
        <ele>368.207123</ele>
        <time>2021-11-22T17:34:56.931Z</time>
      </trkpt>
      <trkpt lat="47.545934" lon="7.873549">
        <ele>366.857439</ele>
        <time>2021-11-22T17:34:58.736Z</time>
      </trkpt>
      <trkpt lat="47.545746" lon="7.873302">
        <ele>365.133107</ele>
        <time>2021-11-22T17:35:01.024Z</time>
      </trkpt>
      <trkpt lat="47.545515" lon="7.873015">
        <ele>363.064280</ele>
        <time>2021-11-22T17:35:03.722Z</time>
      </trkpt>
      <trkpt lat="47.545478" lon="7.872968">
        <ele>362.729822</ele>
        <time>2021-11-22T17:35:04.164Z</time>
      </trkpt>
      <trkpt lat="47.545375" lon="7.872836">
        <ele>361.795251</ele>
        <time>2021-11-22T17:35:05.358Z</time>
      </trkpt>
      <trkpt lat="47.545131" lon="7.872664">
        <ele>359.940985</ele>
        <time>2021-11-22T17:35:07.816Z</time>
      </trkpt>
      <trkpt lat="47.544883" lon="7.872555">
        <ele>358.165839</ele>
        <time>2021-11-22T17:35:10.139Z</time>
      </trkpt>
      <trkpt lat="47.544390" lon="7.872423">
        <ele>354.878301</ele>
        <time>2021-11-22T17:35:14.601Z</time>
      </trkpt>
      <trkpt lat="47.543332" lon="7.872237">
        <ele>348.634318</ele>
        <time>2021-11-22T17:35:24.363Z</time>
      </trkpt>
      <trkpt lat="47.543251" lon="7.872152">
        <ele>348.052579</ele>
        <time>2021-11-22T17:35:25.313Z</time>
      </trkpt>
      <trkpt lat="47.543233" lon="7.872082">
        <ele>347.756242</ele>
        <time>2021-11-22T17:35:25.734Z</time>
      </trkpt>
      <trkpt lat="47.543013" lon="7.872182">
        <ele>346.407590</ele>
        <time>2021-11-22T17:35:27.961Z</time>
      </trkpt>
      <trkpt lat="47.542919" lon="7.872226">
        <ele>345.829851</ele>
        <time>2021-11-22T17:35:28.890Z</time>
      </trkpt>
      <trkpt lat="47.542814" lon="7.872280">
        <ele>345.216889</ele>
        <time>2021-11-22T17:35:29.943Z</time>
      </trkpt>
      <trkpt lat="47.542714" lon="7.872334">
        <ele>345.216889</ele>
        <time>2021-11-22T17:35:31.013Z</time>
      </trkpt>
      <trkpt lat="47.542537" lon="7.872430">
        <ele>345.216889</ele>
        <time>2021-11-22T17:35:32.754Z</time>
      </trkpt>
      <trkpt lat="47.542436" lon="7.872494">
        <ele>345.216889</ele>
        <time>2021-11-22T17:35:34.068Z</time>
      </trkpt>
      <trkpt lat="47.542394" lon="7.872341">
        <ele>345.216889</ele>
        <time>2021-11-22T17:35:35.148Z</time>
      </trkpt>
      <trkpt lat="47.542218" lon="7.871866">
        <ele>345.216889</ele>
        <time>2021-11-22T17:35:38.817Z</time>
      </trkpt>
      <trkpt lat="47.542091" lon="7.871721">
        <ele>345.216889</ele>
        <time>2021-11-22T17:35:40.345Z</time>
      </trkpt>
      <trkpt lat="47.542067" lon="7.871664">
        <ele>345.216889</ele>
        <time>2021-11-22T17:35:41.060Z</time>
      </trkpt>
      <trkpt lat="47.542039" lon="7.871556">
        <ele>345.216889</ele>
        <time>2021-11-22T17:35:41.931Z</time>
      </trkpt>
      <trkpt lat="47.541953" lon="7.871286">
        <ele>345.216889</ele>
        <time>2021-11-22T17:35:44.139Z</time>
      </trkpt>
      <trkpt lat="47.541796" lon="7.871042">
        <ele>345.216889</ele>
        <time>2021-11-22T17:35:46.674Z</time>
      </trkpt>
      <trkpt lat="47.541677" lon="7.870838">
        <ele>345.216889</ele>
        <time>2021-11-22T17:35:48.721Z</time>
      </trkpt>
    </trkseg>
  </trk>
</gpx>